<?xml version="1.0" encoding="UTF-8" standalone="no" ?>
<gpx xmlns="http://www.topografix.com/GPX/1/1" xmlns:xsi="http://www.w3.org/2001/XMLSchema-instance" xsi:schemaLocation="http://www.topografix.com/GPX/1/1 http://www.topografix.com/GPX/1/1/gpx.xsd" version="1.1" creator="VisuGPX - https://www.visugpx.com">
  <metadata>
    <name>047SG80-7274738</name>
    <desc><![CDATA[
03]]></desc>
  </metadata>
  <trk>
    <name><![CDATA[047SG80-7274738]]></name>
    <trkseg>
      <trkpt lat="46.69879" lon="-1.93401">
        <ele>4</ele>
        <time>2018-03-24T21:47:12Z</time>
      </trkpt>
      <trkpt lat="46.69864" lon="-1.93406">
        <ele>5</ele>
        <time>2018-03-24T21:48:12Z</time>
      </trkpt>
      <trkpt lat="46.69825" lon="-1.93419">
        <ele>5</ele>
        <time>2018-03-24T21:49:12Z</time>
      </trkpt>
      <trkpt lat="46.69812" lon="-1.93424">
        <ele>5</ele>
        <time>2018-03-24T21:50:12Z</time>
      </trkpt>
      <trkpt lat="46.69805" lon="-1.93425">
        <ele>5</ele>
        <time>2018-03-24T21:51:12Z</time>
      </trkpt>
      <trkpt lat="46.69798" lon="-1.93426">
        <ele>5</ele>
        <time>2018-03-24T21:52:12Z</time>
      </trkpt>
      <trkpt lat="46.69792" lon="-1.93425">
        <ele>5</ele>
        <time>2018-03-24T21:53:12Z</time>
      </trkpt>
      <trkpt lat="46.69792" lon="-1.93425">
        <ele>5</ele>
        <time>2018-03-24T21:54:12Z</time>
      </trkpt>
      <trkpt lat="46.69792" lon="-1.93426">
        <ele>5</ele>
        <time>2018-03-24T21:55:12Z</time>
      </trkpt>
      <trkpt lat="46.69791" lon="-1.93426">
        <ele>5</ele>
        <time>2018-03-24T21:56:12Z</time>
      </trkpt>
      <trkpt lat="46.69791" lon="-1.93427">
        <ele>5</ele>
        <time>2018-03-24T21:57:12Z</time>
      </trkpt>
      <trkpt lat="46.6979" lon="-1.93427">
        <ele>5</ele>
        <time>2018-03-24T21:58:12Z</time>
      </trkpt>
      <trkpt lat="46.6979" lon="-1.93428">
        <ele>5</ele>
        <time>2018-03-24T21:59:12Z</time>
      </trkpt>
      <trkpt lat="46.69789" lon="-1.93428">
        <ele>5</ele>
        <time>2018-03-24T22:00:12Z</time>
      </trkpt>
      <trkpt lat="46.69788" lon="-1.93428">
        <ele>5</ele>
        <time>2018-03-24T22:01:12Z</time>
      </trkpt>
      <trkpt lat="46.69788" lon="-1.93427">
        <ele>5</ele>
        <time>2018-03-24T22:02:12Z</time>
      </trkpt>
      <trkpt lat="46.69787" lon="-1.93427">
        <ele>5</ele>
        <time>2018-03-24T22:03:12Z</time>
      </trkpt>
      <trkpt lat="46.69787" lon="-1.93426">
        <ele>5</ele>
        <time>2018-03-24T22:04:12Z</time>
      </trkpt>
      <trkpt lat="46.69786" lon="-1.93426">
        <ele>5</ele>
        <time>2018-03-24T22:05:12Z</time>
      </trkpt>
      <trkpt lat="46.69786" lon="-1.93425">
        <ele>5</ele>
        <time>2018-03-24T22:06:12Z</time>
      </trkpt>
      <trkpt lat="46.69786" lon="-1.93424">
        <ele>5</ele>
        <time>2018-03-24T22:07:12Z</time>
      </trkpt>
      <trkpt lat="46.69785" lon="-1.93424">
        <ele>5</ele>
        <time>2018-03-24T22:08:12Z</time>
      </trkpt>
      <trkpt lat="46.69785" lon="-1.93423">
        <ele>5</ele>
        <time>2018-03-24T22:09:12Z</time>
      </trkpt>
      <trkpt lat="46.69785" lon="-1.93422">
        <ele>5</ele>
        <time>2018-03-24T22:10:12Z</time>
      </trkpt>
      <trkpt lat="46.69785" lon="-1.93421">
        <ele>5</ele>
        <time>2018-03-24T22:11:12Z</time>
      </trkpt>
      <trkpt lat="46.69786" lon="-1.93421">
        <ele>5</ele>
        <time>2018-03-24T22:12:12Z</time>
      </trkpt>
      <trkpt lat="46.69786" lon="-1.9342">
        <ele>5</ele>
        <time>2018-03-24T22:13:12Z</time>
      </trkpt>
      <trkpt lat="46.69786" lon="-1.93419">
        <ele>5</ele>
        <time>2018-03-24T22:14:12Z</time>
      </trkpt>
      <trkpt lat="46.69786" lon="-1.93418">
        <ele>5</ele>
        <time>2018-03-24T22:15:12Z</time>
      </trkpt>
      <trkpt lat="46.69787" lon="-1.93418">
        <ele>5</ele>
        <time>2018-03-24T22:16:12Z</time>
      </trkpt>
      <trkpt lat="46.69787" lon="-1.93417">
        <ele>5</ele>
        <time>2018-03-24T22:17:12Z</time>
      </trkpt>
      <trkpt lat="46.69788" lon="-1.93417">
        <ele>5</ele>
        <time>2018-03-24T22:18:12Z</time>
      </trkpt>
      <trkpt lat="46.69789" lon="-1.93417">
        <ele>5</ele>
        <time>2018-03-24T22:19:12Z</time>
      </trkpt>
      <trkpt lat="46.6979" lon="-1.93417">
        <ele>5</ele>
        <time>2018-03-24T22:20:12Z</time>
      </trkpt>
      <trkpt lat="46.69791" lon="-1.93417">
        <ele>5</ele>
        <time>2018-03-24T22:21:12Z</time>
      </trkpt>
      <trkpt lat="46.69791" lon="-1.93418">
        <ele>5</ele>
        <time>2018-03-24T22:22:12Z</time>
      </trkpt>
      <trkpt lat="46.69792" lon="-1.93418">
        <ele>5</ele>
        <time>2018-03-24T22:23:12Z</time>
      </trkpt>
      <trkpt lat="46.69792" lon="-1.93419">
        <ele>5</ele>
        <time>2018-03-24T22:24:12Z</time>
      </trkpt>
      <trkpt lat="46.69792" lon="-1.9342">
        <ele>5</ele>
        <time>2018-03-24T22:25:12Z</time>
      </trkpt>
      <trkpt lat="46.69793" lon="-1.9342">
        <ele>5</ele>
        <time>2018-03-24T22:26:12Z</time>
      </trkpt>
      <trkpt lat="46.69797" lon="-1.93421">
        <ele>5</ele>
        <time>2018-03-24T22:27:12Z</time>
      </trkpt>
      <trkpt lat="46.69798" lon="-1.93421">
        <ele>5</ele>
        <time>2018-03-24T22:28:12Z</time>
      </trkpt>
      <trkpt lat="46.69806" lon="-1.93419">
        <ele>5</ele>
        <time>2018-03-24T22:29:12Z</time>
      </trkpt>
      <trkpt lat="46.69824" lon="-1.93411">
        <ele>5</ele>
        <time>2018-03-24T22:30:12Z</time>
      </trkpt>
      <trkpt lat="46.69892" lon="-1.93385">
        <ele>5</ele>
        <time>2018-03-24T22:31:12Z</time>
      </trkpt>
      <trkpt lat="46.69898" lon="-1.93383">
        <ele>5</ele>
        <time>2018-03-24T22:32:12Z</time>
      </trkpt>
      <trkpt lat="46.69901" lon="-1.93383">
        <ele>5</ele>
        <time>2018-03-24T22:33:12Z</time>
      </trkpt>
      <trkpt lat="46.69908" lon="-1.93383">
        <ele>4</ele>
        <time>2018-03-24T22:34:12Z</time>
      </trkpt>
      <trkpt lat="46.69907" lon="-1.93379">
        <ele>5</ele>
        <time>2018-03-24T22:35:12Z</time>
      </trkpt>
      <trkpt lat="46.69908" lon="-1.93377">
        <ele>5</ele>
        <time>2018-03-24T22:36:12Z</time>
      </trkpt>
      <trkpt lat="46.69908" lon="-1.93376">
        <ele>5</ele>
        <time>2018-03-24T22:37:12Z</time>
      </trkpt>
      <trkpt lat="46.69909" lon="-1.93375">
        <ele>5</ele>
        <time>2018-03-24T22:38:12Z</time>
      </trkpt>
      <trkpt lat="46.69911" lon="-1.93375">
        <ele>5</ele>
        <time>2018-03-24T22:39:12Z</time>
      </trkpt>
      <trkpt lat="46.69912" lon="-1.93375">
        <ele>5</ele>
        <time>2018-03-24T22:40:12Z</time>
      </trkpt>
      <trkpt lat="46.69914" lon="-1.93375">
        <ele>5</ele>
        <time>2018-03-24T22:41:12Z</time>
      </trkpt>
      <trkpt lat="46.69915" lon="-1.93376">
        <ele>5</ele>
        <time>2018-03-24T22:42:12Z</time>
      </trkpt>
      <trkpt lat="46.69915" lon="-1.93377">
        <ele>4</ele>
        <time>2018-03-24T22:43:12Z</time>
      </trkpt>
      <trkpt lat="46.69916" lon="-1.93379">
        <ele>4</ele>
        <time>2018-03-24T22:44:12Z</time>
      </trkpt>
      <trkpt lat="46.69916" lon="-1.93382">
        <ele>4</ele>
        <time>2018-03-24T22:45:12Z</time>
      </trkpt>
      <trkpt lat="46.69915" lon="-1.93383">
        <ele>4</ele>
        <time>2018-03-24T22:46:12Z</time>
      </trkpt>
      <trkpt lat="46.69922" lon="-1.93383">
        <ele>4</ele>
        <time>2018-03-24T22:47:12Z</time>
      </trkpt>
      <trkpt lat="46.69925" lon="-1.93383">
        <ele>4</ele>
        <time>2018-03-24T22:48:12Z</time>
      </trkpt>
      <trkpt lat="46.69935" lon="-1.93382">
        <ele>4</ele>
        <time>2018-03-24T22:49:12Z</time>
      </trkpt>
      <trkpt lat="46.69944" lon="-1.93381">
        <ele>4</ele>
        <time>2018-03-24T22:50:12Z</time>
      </trkpt>
      <trkpt lat="46.69949" lon="-1.93379">
        <ele>4</ele>
        <time>2018-03-24T22:51:12Z</time>
      </trkpt>
      <trkpt lat="46.69953" lon="-1.93377">
        <ele>4</ele>
        <time>2018-03-24T22:52:12Z</time>
      </trkpt>
      <trkpt lat="46.69958" lon="-1.93375">
        <ele>4</ele>
        <time>2018-03-24T22:53:12Z</time>
      </trkpt>
      <trkpt lat="46.69963" lon="-1.93373">
        <ele>4</ele>
        <time>2018-03-24T22:54:12Z</time>
      </trkpt>
      <trkpt lat="46.69969" lon="-1.9337">
        <ele>4</ele>
        <time>2018-03-24T22:55:12Z</time>
      </trkpt>
      <trkpt lat="46.69973" lon="-1.93367">
        <ele>4</ele>
        <time>2018-03-24T22:56:12Z</time>
      </trkpt>
      <trkpt lat="46.69976" lon="-1.93367">
        <ele>4</ele>
        <time>2018-03-24T22:57:12Z</time>
      </trkpt>
      <trkpt lat="46.69978" lon="-1.93366">
        <ele>3</ele>
        <time>2018-03-24T22:58:12Z</time>
      </trkpt>
      <trkpt lat="46.69979" lon="-1.93366">
        <ele>3</ele>
        <time>2018-03-24T22:59:12Z</time>
      </trkpt>
      <trkpt lat="46.69982" lon="-1.93367">
        <ele>3</ele>
        <time>2018-03-24T23:00:12Z</time>
      </trkpt>
      <trkpt lat="46.69987" lon="-1.93369">
        <ele>3</ele>
        <time>2018-03-24T23:01:12Z</time>
      </trkpt>
      <trkpt lat="46.70002" lon="-1.93375">
        <ele>3</ele>
        <time>2018-03-24T23:02:12Z</time>
      </trkpt>
      <trkpt lat="46.70015" lon="-1.9338">
        <ele>3</ele>
        <time>2018-03-24T23:03:12Z</time>
      </trkpt>
      <trkpt lat="46.7002" lon="-1.93382">
        <ele>3</ele>
        <time>2018-03-24T23:04:12Z</time>
      </trkpt>
      <trkpt lat="46.70023" lon="-1.93384">
        <ele>3</ele>
        <time>2018-03-24T23:05:12Z</time>
      </trkpt>
      <trkpt lat="46.70025" lon="-1.93386">
        <ele>3</ele>
        <time>2018-03-24T23:06:12Z</time>
      </trkpt>
      <trkpt lat="46.70028" lon="-1.93388">
        <ele>3</ele>
        <time>2018-03-24T23:07:12Z</time>
      </trkpt>
      <trkpt lat="46.7003" lon="-1.93391">
        <ele>3</ele>
        <time>2018-03-24T23:08:12Z</time>
      </trkpt>
      <trkpt lat="46.70033" lon="-1.93394">
        <ele>2</ele>
        <time>2018-03-24T23:09:12Z</time>
      </trkpt>
      <trkpt lat="46.70036" lon="-1.93397">
        <ele>2</ele>
        <time>2018-03-24T23:10:12Z</time>
      </trkpt>
      <trkpt lat="46.70038" lon="-1.93398">
        <ele>2</ele>
        <time>2018-03-24T23:11:12Z</time>
      </trkpt>
      <trkpt lat="46.70041" lon="-1.934">
        <ele>2</ele>
        <time>2018-03-24T23:12:12Z</time>
      </trkpt>
      <trkpt lat="46.70043" lon="-1.93401">
        <ele>2</ele>
        <time>2018-03-24T23:13:12Z</time>
      </trkpt>
      <trkpt lat="46.70046" lon="-1.93402">
        <ele>2</ele>
        <time>2018-03-24T23:14:12Z</time>
      </trkpt>
      <trkpt lat="46.70052" lon="-1.93405">
        <ele>2</ele>
        <time>2018-03-24T23:15:12Z</time>
      </trkpt>
      <trkpt lat="46.70052" lon="-1.93404">
        <ele>2</ele>
        <time>2018-03-24T23:16:12Z</time>
      </trkpt>
      <trkpt lat="46.70052" lon="-1.93403">
        <ele>2</ele>
        <time>2018-03-24T23:17:12Z</time>
      </trkpt>
      <trkpt lat="46.70052" lon="-1.93402">
        <ele>2</ele>
        <time>2018-03-24T23:18:12Z</time>
      </trkpt>
      <trkpt lat="46.70052" lon="-1.93401">
        <ele>2</ele>
        <time>2018-03-24T23:19:12Z</time>
      </trkpt>
      <trkpt lat="46.70053" lon="-1.93401">
        <ele>2</ele>
        <time>2018-03-24T23:20:12Z</time>
      </trkpt>
      <trkpt lat="46.70053" lon="-1.934">
        <ele>2</ele>
        <time>2018-03-24T23:21:12Z</time>
      </trkpt>
      <trkpt lat="46.70053" lon="-1.93399">
        <ele>2</ele>
        <time>2018-03-24T23:22:12Z</time>
      </trkpt>
      <trkpt lat="46.70054" lon="-1.93399">
        <ele>2</ele>
        <time>2018-03-24T23:23:12Z</time>
      </trkpt>
      <trkpt lat="46.70054" lon="-1.93398">
        <ele>2</ele>
        <time>2018-03-24T23:24:12Z</time>
      </trkpt>
      <trkpt lat="46.70055" lon="-1.93398">
        <ele>2</ele>
        <time>2018-03-24T23:25:12Z</time>
      </trkpt>
      <trkpt lat="46.70056" lon="-1.93398">
        <ele>2</ele>
        <time>2018-03-24T23:26:12Z</time>
      </trkpt>
      <trkpt lat="46.70056" lon="-1.93397">
        <ele>2</ele>
        <time>2018-03-24T23:27:12Z</time>
      </trkpt>
      <trkpt lat="46.70057" lon="-1.93397">
        <ele>2</ele>
        <time>2018-03-24T23:28:12Z</time>
      </trkpt>
      <trkpt lat="46.70058" lon="-1.93397">
        <ele>2</ele>
        <time>2018-03-24T23:29:12Z</time>
      </trkpt>
      <trkpt lat="46.70059" lon="-1.93398">
        <ele>2</ele>
        <time>2018-03-24T23:30:12Z</time>
      </trkpt>
      <trkpt lat="46.7006" lon="-1.93398">
        <ele>2</ele>
        <time>2018-03-24T23:31:12Z</time>
      </trkpt>
      <trkpt lat="46.7006" lon="-1.93399">
        <ele>2</ele>
        <time>2018-03-24T23:32:12Z</time>
      </trkpt>
      <trkpt lat="46.70061" lon="-1.93399">
        <ele>2</ele>
        <time>2018-03-24T23:33:12Z</time>
      </trkpt>
      <trkpt lat="46.70061" lon="-1.934">
        <ele>2</ele>
        <time>2018-03-24T23:34:12Z</time>
      </trkpt>
      <trkpt lat="46.70061" lon="-1.93401">
        <ele>2</ele>
        <time>2018-03-24T23:35:12Z</time>
      </trkpt>
      <trkpt lat="46.70062" lon="-1.93401">
        <ele>2</ele>
        <time>2018-03-24T23:36:12Z</time>
      </trkpt>
      <trkpt lat="46.70062" lon="-1.93402">
        <ele>2</ele>
        <time>2018-03-24T23:37:12Z</time>
      </trkpt>
      <trkpt lat="46.70062" lon="-1.93403">
        <ele>2</ele>
        <time>2018-03-24T23:38:12Z</time>
      </trkpt>
      <trkpt lat="46.70062" lon="-1.93404">
        <ele>2</ele>
        <time>2018-03-24T23:39:12Z</time>
      </trkpt>
      <trkpt lat="46.70062" lon="-1.93405">
        <ele>2</ele>
        <time>2018-03-24T23:40:12Z</time>
      </trkpt>
      <trkpt lat="46.70083" lon="-1.93405">
        <ele>2</ele>
        <time>2018-03-24T23:41:12Z</time>
      </trkpt>
      <trkpt lat="46.70093" lon="-1.934">
        <ele>2</ele>
        <time>2018-03-24T23:42:12Z</time>
      </trkpt>
      <trkpt lat="46.70098" lon="-1.93397">
        <ele>2</ele>
        <time>2018-03-24T23:43:12Z</time>
      </trkpt>
      <trkpt lat="46.70102" lon="-1.93395">
        <ele>2</ele>
        <time>2018-03-24T23:44:12Z</time>
      </trkpt>
      <trkpt lat="46.70107" lon="-1.93391">
        <ele>2</ele>
        <time>2018-03-24T23:45:12Z</time>
      </trkpt>
      <trkpt lat="46.70111" lon="-1.93388">
        <ele>2</ele>
        <time>2018-03-24T23:46:12Z</time>
      </trkpt>
      <trkpt lat="46.70114" lon="-1.93384">
        <ele>2</ele>
        <time>2018-03-24T23:47:12Z</time>
      </trkpt>
      <trkpt lat="46.70114" lon="-1.93384">
        <ele>2</ele>
        <time>2018-03-24T23:48:12Z</time>
      </trkpt>
      <trkpt lat="46.70115" lon="-1.93383">
        <ele>2</ele>
        <time>2018-03-24T23:49:12Z</time>
      </trkpt>
      <trkpt lat="46.70115" lon="-1.93382">
        <ele>2</ele>
        <time>2018-03-24T23:50:12Z</time>
      </trkpt>
      <trkpt lat="46.70115" lon="-1.93381">
        <ele>2</ele>
        <time>2018-03-24T23:51:12Z</time>
      </trkpt>
      <trkpt lat="46.70116" lon="-1.9338">
        <ele>2</ele>
        <time>2018-03-24T23:52:12Z</time>
      </trkpt>
      <trkpt lat="46.70116" lon="-1.93378">
        <ele>2</ele>
        <time>2018-03-24T23:53:12Z</time>
      </trkpt>
      <trkpt lat="46.70116" lon="-1.93377">
        <ele>2</ele>
        <time>2018-03-24T23:54:12Z</time>
      </trkpt>
      <trkpt lat="46.70117" lon="-1.93376">
        <ele>2</ele>
        <time>2018-03-24T23:55:12Z</time>
      </trkpt>
      <trkpt lat="46.70117" lon="-1.93375">
        <ele>2</ele>
        <time>2018-03-24T23:56:12Z</time>
      </trkpt>
      <trkpt lat="46.70118" lon="-1.93374">
        <ele>1</ele>
        <time>2018-03-24T23:57:12Z</time>
      </trkpt>
      <trkpt lat="46.70119" lon="-1.93373">
        <ele>1</ele>
        <time>2018-03-24T23:58:12Z</time>
      </trkpt>
      <trkpt lat="46.70119" lon="-1.93372">
        <ele>1</ele>
        <time>2018-03-24T23:59:12Z</time>
      </trkpt>
      <trkpt lat="46.7012" lon="-1.93372">
        <ele>1</ele>
        <time>2018-03-25T00:00:12Z</time>
      </trkpt>
      <trkpt lat="46.70121" lon="-1.93371">
        <ele>1</ele>
        <time>2018-03-25T00:01:12Z</time>
      </trkpt>
      <trkpt lat="46.70122" lon="-1.9337">
        <ele>1</ele>
        <time>2018-03-25T00:02:12Z</time>
      </trkpt>
      <trkpt lat="46.70123" lon="-1.93369">
        <ele>1</ele>
        <time>2018-03-25T00:03:12Z</time>
      </trkpt>
      <trkpt lat="46.70124" lon="-1.93369">
        <ele>1</ele>
        <time>2018-03-25T00:04:12Z</time>
      </trkpt>
      <trkpt lat="46.70125" lon="-1.93368">
        <ele>2</ele>
        <time>2018-03-25T00:05:12Z</time>
      </trkpt>
      <trkpt lat="46.70126" lon="-1.93368">
        <ele>2</ele>
        <time>2018-03-25T00:06:12Z</time>
      </trkpt>
      <trkpt lat="46.70127" lon="-1.93368">
        <ele>2</ele>
        <time>2018-03-25T00:07:12Z</time>
      </trkpt>
      <trkpt lat="46.70128" lon="-1.93368">
        <ele>2</ele>
        <time>2018-03-25T00:08:12Z</time>
      </trkpt>
      <trkpt lat="46.70129" lon="-1.93368">
        <ele>2</ele>
        <time>2018-03-25T00:09:12Z</time>
      </trkpt>
      <trkpt lat="46.7013" lon="-1.93368">
        <ele>2</ele>
        <time>2018-03-25T00:10:12Z</time>
      </trkpt>
      <trkpt lat="46.70131" lon="-1.93369">
        <ele>2</ele>
        <time>2018-03-25T00:11:12Z</time>
      </trkpt>
      <trkpt lat="46.70132" lon="-1.93369">
        <ele>2</ele>
        <time>2018-03-25T00:12:12Z</time>
      </trkpt>
      <trkpt lat="46.70132" lon="-1.9337">
        <ele>2</ele>
        <time>2018-03-25T00:13:12Z</time>
      </trkpt>
      <trkpt lat="46.70133" lon="-1.9337">
        <ele>2</ele>
        <time>2018-03-25T00:14:12Z</time>
      </trkpt>
      <trkpt lat="46.70134" lon="-1.93371">
        <ele>2</ele>
        <time>2018-03-25T00:15:12Z</time>
      </trkpt>
      <trkpt lat="46.70135" lon="-1.93372">
        <ele>2</ele>
        <time>2018-03-25T00:16:12Z</time>
      </trkpt>
      <trkpt lat="46.70136" lon="-1.93373">
        <ele>2</ele>
        <time>2018-03-25T00:17:12Z</time>
      </trkpt>
      <trkpt lat="46.70136" lon="-1.93374">
        <ele>2</ele>
        <time>2018-03-25T00:18:12Z</time>
      </trkpt>
      <trkpt lat="46.70137" lon="-1.93374">
        <ele>2</ele>
        <time>2018-03-25T00:19:12Z</time>
      </trkpt>
      <trkpt lat="46.70137" lon="-1.93375">
        <ele>1</ele>
        <time>2018-03-25T00:20:12Z</time>
      </trkpt>
      <trkpt lat="46.70138" lon="-1.93376">
        <ele>1</ele>
        <time>2018-03-25T00:21:12Z</time>
      </trkpt>
      <trkpt lat="46.70138" lon="-1.93377">
        <ele>1</ele>
        <time>2018-03-25T00:22:12Z</time>
      </trkpt>
      <trkpt lat="46.70138" lon="-1.93378">
        <ele>1</ele>
        <time>2018-03-25T00:23:12Z</time>
      </trkpt>
      <trkpt lat="46.70165" lon="-1.93375">
        <ele>1</ele>
        <time>2018-03-25T00:24:12Z</time>
      </trkpt>
      <trkpt lat="46.7017" lon="-1.93374">
        <ele>1</ele>
        <time>2018-03-25T00:25:12Z</time>
      </trkpt>
      <trkpt lat="46.70173" lon="-1.93372">
        <ele>1</ele>
        <time>2018-03-25T00:26:12Z</time>
      </trkpt>
      <trkpt lat="46.70181" lon="-1.93366">
        <ele>2</ele>
        <time>2018-03-25T00:27:12Z</time>
      </trkpt>
      <trkpt lat="46.70194" lon="-1.93356">
        <ele>1</ele>
        <time>2018-03-25T00:28:12Z</time>
      </trkpt>
      <trkpt lat="46.70205" lon="-1.93347">
        <ele>1</ele>
        <time>2018-03-25T00:29:12Z</time>
      </trkpt>
      <trkpt lat="46.70211" lon="-1.9334">
        <ele>1</ele>
        <time>2018-03-25T00:30:12Z</time>
      </trkpt>
      <trkpt lat="46.70216" lon="-1.93332">
        <ele>1</ele>
        <time>2018-03-25T00:31:12Z</time>
      </trkpt>
      <trkpt lat="46.70224" lon="-1.9332">
        <ele>1</ele>
        <time>2018-03-25T00:32:12Z</time>
      </trkpt>
      <trkpt lat="46.70239" lon="-1.93295">
        <ele>2</ele>
        <time>2018-03-25T00:33:12Z</time>
      </trkpt>
      <trkpt lat="46.70251" lon="-1.9328">
        <ele>2</ele>
        <time>2018-03-25T00:34:12Z</time>
      </trkpt>
      <trkpt lat="46.70263" lon="-1.93271">
        <ele>2</ele>
        <time>2018-03-25T00:35:12Z</time>
      </trkpt>
      <trkpt lat="46.70276" lon="-1.93263">
        <ele>2</ele>
        <time>2018-03-25T00:36:12Z</time>
      </trkpt>
      <trkpt lat="46.7028" lon="-1.9326">
        <ele>2</ele>
        <time>2018-03-25T00:37:12Z</time>
      </trkpt>
      <trkpt lat="46.70288" lon="-1.93253">
        <ele>2</ele>
        <time>2018-03-25T00:38:12Z</time>
      </trkpt>
      <trkpt lat="46.70295" lon="-1.93245">
        <ele>2</ele>
        <time>2018-03-25T00:39:12Z</time>
      </trkpt>
      <trkpt lat="46.70304" lon="-1.9323">
        <ele>2</ele>
        <time>2018-03-25T00:40:12Z</time>
      </trkpt>
      <trkpt lat="46.70304" lon="-1.9323">
        <ele>2</ele>
        <time>2018-03-25T00:41:12Z</time>
      </trkpt>
      <trkpt lat="46.70328" lon="-1.93232">
        <ele>2</ele>
        <time>2018-03-25T00:42:12Z</time>
      </trkpt>
      <trkpt lat="46.70362" lon="-1.9324">
        <ele>2</ele>
        <time>2018-03-25T00:43:12Z</time>
      </trkpt>
      <trkpt lat="46.70398" lon="-1.93249">
        <ele>3</ele>
        <time>2018-03-25T00:44:12Z</time>
      </trkpt>
      <trkpt lat="46.70419" lon="-1.93258">
        <ele>3</ele>
        <time>2018-03-25T00:45:12Z</time>
      </trkpt>
      <trkpt lat="46.70429" lon="-1.93262">
        <ele>3</ele>
        <time>2018-03-25T00:46:12Z</time>
      </trkpt>
      <trkpt lat="46.70439" lon="-1.93265">
        <ele>3</ele>
        <time>2018-03-25T00:47:12Z</time>
      </trkpt>
      <trkpt lat="46.70449" lon="-1.93267">
        <ele>3</ele>
        <time>2018-03-25T00:48:12Z</time>
      </trkpt>
      <trkpt lat="46.70458" lon="-1.93268">
        <ele>3</ele>
        <time>2018-03-25T00:49:12Z</time>
      </trkpt>
      <trkpt lat="46.70465" lon="-1.93267">
        <ele>3</ele>
        <time>2018-03-25T00:50:12Z</time>
      </trkpt>
      <trkpt lat="46.70472" lon="-1.93265">
        <ele>3</ele>
        <time>2018-03-25T00:51:12Z</time>
      </trkpt>
      <trkpt lat="46.7048" lon="-1.9326">
        <ele>4</ele>
        <time>2018-03-25T00:52:12Z</time>
      </trkpt>
      <trkpt lat="46.70489" lon="-1.93253">
        <ele>4</ele>
        <time>2018-03-25T00:53:12Z</time>
      </trkpt>
      <trkpt lat="46.70503" lon="-1.93244">
        <ele>4</ele>
        <time>2018-03-25T00:54:12Z</time>
      </trkpt>
      <trkpt lat="46.7052" lon="-1.93232">
        <ele>5</ele>
        <time>2018-03-25T00:55:12Z</time>
      </trkpt>
      <trkpt lat="46.70533" lon="-1.93223">
        <ele>5</ele>
        <time>2018-03-25T00:56:12Z</time>
      </trkpt>
      <trkpt lat="46.70548" lon="-1.93216">
        <ele>5</ele>
        <time>2018-03-25T00:57:12Z</time>
      </trkpt>
      <trkpt lat="46.70566" lon="-1.93211">
        <ele>6</ele>
        <time>2018-03-25T00:58:12Z</time>
      </trkpt>
      <trkpt lat="46.70588" lon="-1.93206">
        <ele>6</ele>
        <time>2018-03-25T00:59:12Z</time>
      </trkpt>
      <trkpt lat="46.7061" lon="-1.93202">
        <ele>7</ele>
        <time>2018-03-25T01:00:12Z</time>
      </trkpt>
      <trkpt lat="46.7063" lon="-1.93198">
        <ele>7</ele>
        <time>2018-03-25T01:01:12Z</time>
      </trkpt>
      <trkpt lat="46.70648" lon="-1.93197">
        <ele>8</ele>
        <time>2018-03-25T01:02:12Z</time>
      </trkpt>
      <trkpt lat="46.70659" lon="-1.93197">
        <ele>8</ele>
        <time>2018-03-25T01:03:12Z</time>
      </trkpt>
      <trkpt lat="46.70671" lon="-1.932">
        <ele>8</ele>
        <time>2018-03-25T01:04:12Z</time>
      </trkpt>
      <trkpt lat="46.70691" lon="-1.93205">
        <ele>8</ele>
        <time>2018-03-25T01:05:12Z</time>
      </trkpt>
      <trkpt lat="46.7071" lon="-1.93211">
        <ele>8</ele>
        <time>2018-03-25T01:06:12Z</time>
      </trkpt>
      <trkpt lat="46.70712" lon="-1.93212">
        <ele>8</ele>
        <time>2018-03-25T01:07:12Z</time>
      </trkpt>
      <trkpt lat="46.70729" lon="-1.93213">
        <ele>8</ele>
        <time>2018-03-25T01:08:12Z</time>
      </trkpt>
      <trkpt lat="46.70745" lon="-1.93212">
        <ele>8</ele>
        <time>2018-03-25T01:09:12Z</time>
      </trkpt>
      <trkpt lat="46.70752" lon="-1.9321">
        <ele>8</ele>
        <time>2018-03-25T01:10:12Z</time>
      </trkpt>
      <trkpt lat="46.70758" lon="-1.93207">
        <ele>8</ele>
        <time>2018-03-25T01:11:12Z</time>
      </trkpt>
      <trkpt lat="46.70766" lon="-1.93202">
        <ele>8</ele>
        <time>2018-03-25T01:12:12Z</time>
      </trkpt>
      <trkpt lat="46.70772" lon="-1.93197">
        <ele>8</ele>
        <time>2018-03-25T01:13:12Z</time>
      </trkpt>
      <trkpt lat="46.70785" lon="-1.93186">
        <ele>9</ele>
        <time>2018-03-25T01:14:12Z</time>
      </trkpt>
      <trkpt lat="46.70795" lon="-1.93179">
        <ele>9</ele>
        <time>2018-03-25T01:15:12Z</time>
      </trkpt>
      <trkpt lat="46.70804" lon="-1.93173">
        <ele>9</ele>
        <time>2018-03-25T01:16:12Z</time>
      </trkpt>
      <trkpt lat="46.70813" lon="-1.9317">
        <ele>9</ele>
        <time>2018-03-25T01:17:12Z</time>
      </trkpt>
      <trkpt lat="46.70821" lon="-1.93168">
        <ele>9</ele>
        <time>2018-03-25T01:18:12Z</time>
      </trkpt>
      <trkpt lat="46.70829" lon="-1.93167">
        <ele>9</ele>
        <time>2018-03-25T01:19:12Z</time>
      </trkpt>
      <trkpt lat="46.70835" lon="-1.93168">
        <ele>9</ele>
        <time>2018-03-25T01:20:12Z</time>
      </trkpt>
      <trkpt lat="46.70844" lon="-1.93169">
        <ele>9</ele>
        <time>2018-03-25T01:21:12Z</time>
      </trkpt>
      <trkpt lat="46.70877" lon="-1.93174">
        <ele>8</ele>
        <time>2018-03-25T01:22:12Z</time>
      </trkpt>
      <trkpt lat="46.70916" lon="-1.93179">
        <ele>7</ele>
        <time>2018-03-25T01:23:12Z</time>
      </trkpt>
      <trkpt lat="46.70936" lon="-1.93181">
        <ele>7</ele>
        <time>2018-03-25T01:24:12Z</time>
      </trkpt>
      <trkpt lat="46.70956" lon="-1.93184">
        <ele>7</ele>
        <time>2018-03-25T01:25:12Z</time>
      </trkpt>
      <trkpt lat="46.70974" lon="-1.93184">
        <ele>7</ele>
        <time>2018-03-25T01:26:12Z</time>
      </trkpt>
      <trkpt lat="46.71007" lon="-1.9318">
        <ele>7</ele>
        <time>2018-03-25T01:27:12Z</time>
      </trkpt>
      <trkpt lat="46.71025" lon="-1.93175">
        <ele>7</ele>
        <time>2018-03-25T01:28:12Z</time>
      </trkpt>
      <trkpt lat="46.71038" lon="-1.93168">
        <ele>7</ele>
        <time>2018-03-25T01:29:12Z</time>
      </trkpt>
      <trkpt lat="46.71048" lon="-1.93158">
        <ele>7</ele>
        <time>2018-03-25T01:30:12Z</time>
      </trkpt>
      <trkpt lat="46.71062" lon="-1.93143">
        <ele>7</ele>
        <time>2018-03-25T01:31:12Z</time>
      </trkpt>
      <trkpt lat="46.7109" lon="-1.93111">
        <ele>7</ele>
        <time>2018-03-25T01:32:12Z</time>
      </trkpt>
      <trkpt lat="46.71123" lon="-1.93073">
        <ele>7</ele>
        <time>2018-03-25T01:33:12Z</time>
      </trkpt>
      <trkpt lat="46.71124" lon="-1.93072">
        <ele>7</ele>
        <time>2018-03-25T01:34:12Z</time>
      </trkpt>
      <trkpt lat="46.71141" lon="-1.93051">
        <ele>7</ele>
        <time>2018-03-25T01:35:12Z</time>
      </trkpt>
      <trkpt lat="46.7115" lon="-1.93042">
        <ele>7</ele>
        <time>2018-03-25T01:36:12Z</time>
      </trkpt>
      <trkpt lat="46.71159" lon="-1.93035">
        <ele>8</ele>
        <time>2018-03-25T01:37:12Z</time>
      </trkpt>
      <trkpt lat="46.71167" lon="-1.93032">
        <ele>8</ele>
        <time>2018-03-25T01:38:12Z</time>
      </trkpt>
      <trkpt lat="46.71178" lon="-1.9303">
        <ele>7</ele>
        <time>2018-03-25T01:39:12Z</time>
      </trkpt>
      <trkpt lat="46.71195" lon="-1.93028">
        <ele>7</ele>
        <time>2018-03-25T01:40:12Z</time>
      </trkpt>
      <trkpt lat="46.71215" lon="-1.93028">
        <ele>6</ele>
        <time>2018-03-25T01:41:12Z</time>
      </trkpt>
      <trkpt lat="46.71225" lon="-1.93026">
        <ele>6</ele>
        <time>2018-03-25T01:42:12Z</time>
      </trkpt>
      <trkpt lat="46.71236" lon="-1.93024">
        <ele>5</ele>
        <time>2018-03-25T01:43:12Z</time>
      </trkpt>
      <trkpt lat="46.71243" lon="-1.93018">
        <ele>5</ele>
        <time>2018-03-25T01:44:12Z</time>
      </trkpt>
      <trkpt lat="46.71246" lon="-1.93012">
        <ele>5</ele>
        <time>2018-03-25T01:45:12Z</time>
      </trkpt>
      <trkpt lat="46.71249" lon="-1.93002">
        <ele>5</ele>
        <time>2018-03-25T01:46:12Z</time>
      </trkpt>
      <trkpt lat="46.71252" lon="-1.92988">
        <ele>5</ele>
        <time>2018-03-25T01:47:12Z</time>
      </trkpt>
      <trkpt lat="46.71256" lon="-1.92969">
        <ele>5</ele>
        <time>2018-03-25T01:48:12Z</time>
      </trkpt>
      <trkpt lat="46.71259" lon="-1.92949">
        <ele>5</ele>
        <time>2018-03-25T01:49:12Z</time>
      </trkpt>
      <trkpt lat="46.71259" lon="-1.92949">
        <ele>5</ele>
        <time>2018-03-25T01:50:12Z</time>
      </trkpt>
      <trkpt lat="46.71261" lon="-1.92937">
        <ele>4</ele>
        <time>2018-03-25T01:51:12Z</time>
      </trkpt>
      <trkpt lat="46.71265" lon="-1.92901">
        <ele>3</ele>
        <time>2018-03-25T01:52:12Z</time>
      </trkpt>
      <trkpt lat="46.71269" lon="-1.9287">
        <ele>3</ele>
        <time>2018-03-25T01:53:12Z</time>
      </trkpt>
      <trkpt lat="46.71269" lon="-1.92869">
        <ele>3</ele>
        <time>2018-03-25T01:54:12Z</time>
      </trkpt>
      <trkpt lat="46.71274" lon="-1.92841">
        <ele>3</ele>
        <time>2018-03-25T01:55:12Z</time>
      </trkpt>
      <trkpt lat="46.71281" lon="-1.92808">
        <ele>4</ele>
        <time>2018-03-25T01:56:12Z</time>
      </trkpt>
      <trkpt lat="46.71289" lon="-1.92771">
        <ele>4</ele>
        <time>2018-03-25T01:57:12Z</time>
      </trkpt>
      <trkpt lat="46.71299" lon="-1.92726">
        <ele>5</ele>
        <time>2018-03-25T01:58:12Z</time>
      </trkpt>
      <trkpt lat="46.71299" lon="-1.92723">
        <ele>5</ele>
        <time>2018-03-25T01:59:12Z</time>
      </trkpt>
      <trkpt lat="46.71306" lon="-1.927">
        <ele>6</ele>
        <time>2018-03-25T03:00:12Z</time>
      </trkpt>
      <trkpt lat="46.71306" lon="-1.92696">
        <ele>6</ele>
        <time>2018-03-25T03:01:12Z</time>
      </trkpt>
      <trkpt lat="46.71307" lon="-1.92691">
        <ele>6</ele>
        <time>2018-03-25T03:02:12Z</time>
      </trkpt>
      <trkpt lat="46.71308" lon="-1.92684">
        <ele>6</ele>
        <time>2018-03-25T03:03:12Z</time>
      </trkpt>
      <trkpt lat="46.71308" lon="-1.92681">
        <ele>7</ele>
        <time>2018-03-25T03:04:12Z</time>
      </trkpt>
      <trkpt lat="46.71307" lon="-1.92661">
        <ele>7</ele>
        <time>2018-03-25T03:05:12Z</time>
      </trkpt>
      <trkpt lat="46.71305" lon="-1.92644">
        <ele>8</ele>
        <time>2018-03-25T03:06:12Z</time>
      </trkpt>
      <trkpt lat="46.71305" lon="-1.9264">
        <ele>8</ele>
        <time>2018-03-25T03:07:12Z</time>
      </trkpt>
      <trkpt lat="46.71305" lon="-1.92636">
        <ele>8</ele>
        <time>2018-03-25T03:08:12Z</time>
      </trkpt>
      <trkpt lat="46.71305" lon="-1.92629">
        <ele>8</ele>
        <time>2018-03-25T03:09:12Z</time>
      </trkpt>
      <trkpt lat="46.71306" lon="-1.92623">
        <ele>8</ele>
        <time>2018-03-25T03:10:12Z</time>
      </trkpt>
      <trkpt lat="46.71307" lon="-1.92618">
        <ele>8</ele>
        <time>2018-03-25T03:11:12Z</time>
      </trkpt>
      <trkpt lat="46.71311" lon="-1.92597">
        <ele>8</ele>
        <time>2018-03-25T03:12:12Z</time>
      </trkpt>
      <trkpt lat="46.71325" lon="-1.92544">
        <ele>8</ele>
        <time>2018-03-25T03:13:12Z</time>
      </trkpt>
      <trkpt lat="46.7133" lon="-1.92521">
        <ele>8</ele>
        <time>2018-03-25T03:14:12Z</time>
      </trkpt>
      <trkpt lat="46.71331" lon="-1.92518">
        <ele>8</ele>
        <time>2018-03-25T03:15:12Z</time>
      </trkpt>
      <trkpt lat="46.71332" lon="-1.92515">
        <ele>8</ele>
        <time>2018-03-25T03:16:12Z</time>
      </trkpt>
      <trkpt lat="46.71333" lon="-1.92509">
        <ele>8</ele>
        <time>2018-03-25T03:17:12Z</time>
      </trkpt>
      <trkpt lat="46.71333" lon="-1.92502">
        <ele>8</ele>
        <time>2018-03-25T03:18:12Z</time>
      </trkpt>
      <trkpt lat="46.71332" lon="-1.92476">
        <ele>8</ele>
        <time>2018-03-25T03:19:12Z</time>
      </trkpt>
      <trkpt lat="46.7133" lon="-1.92445">
        <ele>9</ele>
        <time>2018-03-25T03:20:12Z</time>
      </trkpt>
      <trkpt lat="46.71327" lon="-1.92413">
        <ele>9</ele>
        <time>2018-03-25T03:21:12Z</time>
      </trkpt>
      <trkpt lat="46.71326" lon="-1.92402">
        <ele>9</ele>
        <time>2018-03-25T03:22:12Z</time>
      </trkpt>
      <trkpt lat="46.71323" lon="-1.92389">
        <ele>9</ele>
        <time>2018-03-25T03:23:12Z</time>
      </trkpt>
      <trkpt lat="46.71322" lon="-1.92385">
        <ele>9</ele>
        <time>2018-03-25T03:24:12Z</time>
      </trkpt>
      <trkpt lat="46.71321" lon="-1.9238">
        <ele>9</ele>
        <time>2018-03-25T03:25:12Z</time>
      </trkpt>
      <trkpt lat="46.71318" lon="-1.9237">
        <ele>9</ele>
        <time>2018-03-25T03:26:12Z</time>
      </trkpt>
      <trkpt lat="46.71315" lon="-1.92363">
        <ele>9</ele>
        <time>2018-03-25T03:27:12Z</time>
      </trkpt>
      <trkpt lat="46.71311" lon="-1.92355">
        <ele>9</ele>
        <time>2018-03-25T03:28:12Z</time>
      </trkpt>
      <trkpt lat="46.71306" lon="-1.92347">
        <ele>9</ele>
        <time>2018-03-25T03:29:12Z</time>
      </trkpt>
      <trkpt lat="46.71306" lon="-1.92347">
        <ele>9</ele>
        <time>2018-03-25T03:30:12Z</time>
      </trkpt>
      <trkpt lat="46.71322" lon="-1.92344">
        <ele>8</ele>
        <time>2018-03-25T03:31:12Z</time>
      </trkpt>
      <trkpt lat="46.71334" lon="-1.9234">
        <ele>8</ele>
        <time>2018-03-25T03:32:12Z</time>
      </trkpt>
      <trkpt lat="46.71352" lon="-1.92336">
        <ele>7</ele>
        <time>2018-03-25T03:33:12Z</time>
      </trkpt>
      <trkpt lat="46.71383" lon="-1.92327">
        <ele>6</ele>
        <time>2018-03-25T03:34:12Z</time>
      </trkpt>
      <trkpt lat="46.71414" lon="-1.92316">
        <ele>5</ele>
        <time>2018-03-25T03:35:12Z</time>
      </trkpt>
      <trkpt lat="46.71418" lon="-1.92313">
        <ele>5</ele>
        <time>2018-03-25T03:36:12Z</time>
      </trkpt>
      <trkpt lat="46.71421" lon="-1.92311">
        <ele>5</ele>
        <time>2018-03-25T03:37:12Z</time>
      </trkpt>
      <trkpt lat="46.71423" lon="-1.92308">
        <ele>5</ele>
        <time>2018-03-25T03:38:12Z</time>
      </trkpt>
      <trkpt lat="46.71426" lon="-1.92303">
        <ele>5</ele>
        <time>2018-03-25T03:39:12Z</time>
      </trkpt>
      <trkpt lat="46.71429" lon="-1.92297">
        <ele>5</ele>
        <time>2018-03-25T03:40:12Z</time>
      </trkpt>
      <trkpt lat="46.71432" lon="-1.92285">
        <ele>5</ele>
        <time>2018-03-25T03:41:12Z</time>
      </trkpt>
      <trkpt lat="46.71432" lon="-1.92282">
        <ele>5</ele>
        <time>2018-03-25T03:42:12Z</time>
      </trkpt>
      <trkpt lat="46.7144" lon="-1.92252">
        <ele>6</ele>
        <time>2018-03-25T03:43:12Z</time>
      </trkpt>
      <trkpt lat="46.71448" lon="-1.92225">
        <ele>6</ele>
        <time>2018-03-25T03:44:12Z</time>
      </trkpt>
      <trkpt lat="46.71456" lon="-1.92198">
        <ele>6</ele>
        <time>2018-03-25T03:45:12Z</time>
      </trkpt>
      <trkpt lat="46.71459" lon="-1.92185">
        <ele>6</ele>
        <time>2018-03-25T03:46:12Z</time>
      </trkpt>
      <trkpt lat="46.7146" lon="-1.92183">
        <ele>6</ele>
        <time>2018-03-25T03:47:12Z</time>
      </trkpt>
      <trkpt lat="46.71466" lon="-1.92164">
        <ele>6</ele>
        <time>2018-03-25T03:48:12Z</time>
      </trkpt>
      <trkpt lat="46.71469" lon="-1.9215">
        <ele>6</ele>
        <time>2018-03-25T03:49:12Z</time>
      </trkpt>
      <trkpt lat="46.71474" lon="-1.92129">
        <ele>6</ele>
        <time>2018-03-25T03:50:12Z</time>
      </trkpt>
      <trkpt lat="46.7148" lon="-1.92105">
        <ele>6</ele>
        <time>2018-03-25T03:51:12Z</time>
      </trkpt>
      <trkpt lat="46.71484" lon="-1.92081">
        <ele>5</ele>
        <time>2018-03-25T03:52:12Z</time>
      </trkpt>
      <trkpt lat="46.71491" lon="-1.9204">
        <ele>6</ele>
        <time>2018-03-25T03:53:12Z</time>
      </trkpt>
      <trkpt lat="46.71492" lon="-1.92037">
        <ele>6</ele>
        <time>2018-03-25T03:54:12Z</time>
      </trkpt>
      <trkpt lat="46.715" lon="-1.91985">
        <ele>7</ele>
        <time>2018-03-25T03:55:12Z</time>
      </trkpt>
      <trkpt lat="46.71504" lon="-1.91966">
        <ele>7</ele>
        <time>2018-03-25T03:56:12Z</time>
      </trkpt>
      <trkpt lat="46.71508" lon="-1.9194">
        <ele>7</ele>
        <time>2018-03-25T03:57:12Z</time>
      </trkpt>
      <trkpt lat="46.71511" lon="-1.91921">
        <ele>7</ele>
        <time>2018-03-25T03:58:12Z</time>
      </trkpt>
      <trkpt lat="46.71515" lon="-1.91902">
        <ele>7</ele>
        <time>2018-03-25T03:59:12Z</time>
      </trkpt>
      <trkpt lat="46.71518" lon="-1.91883">
        <ele>8</ele>
        <time>2018-03-25T04:00:12Z</time>
      </trkpt>
      <trkpt lat="46.71523" lon="-1.91865">
        <ele>8</ele>
        <time>2018-03-25T04:01:12Z</time>
      </trkpt>
      <trkpt lat="46.71528" lon="-1.91847">
        <ele>8</ele>
        <time>2018-03-25T04:02:12Z</time>
      </trkpt>
      <trkpt lat="46.71534" lon="-1.91828">
        <ele>8</ele>
        <time>2018-03-25T04:03:12Z</time>
      </trkpt>
      <trkpt lat="46.71548" lon="-1.91786">
        <ele>7</ele>
        <time>2018-03-25T04:04:12Z</time>
      </trkpt>
      <trkpt lat="46.71559" lon="-1.91759">
        <ele>7</ele>
        <time>2018-03-25T04:05:12Z</time>
      </trkpt>
      <trkpt lat="46.71565" lon="-1.91742">
        <ele>7</ele>
        <time>2018-03-25T04:06:12Z</time>
      </trkpt>
      <trkpt lat="46.71573" lon="-1.91722">
        <ele>7</ele>
        <time>2018-03-25T04:07:12Z</time>
      </trkpt>
      <trkpt lat="46.71589" lon="-1.91683">
        <ele>7</ele>
        <time>2018-03-25T04:08:12Z</time>
      </trkpt>
      <trkpt lat="46.71614" lon="-1.91622">
        <ele>5</ele>
        <time>2018-03-25T04:09:12Z</time>
      </trkpt>
      <trkpt lat="46.71624" lon="-1.91596">
        <ele>5</ele>
        <time>2018-03-25T04:10:12Z</time>
      </trkpt>
      <trkpt lat="46.71632" lon="-1.9158">
        <ele>4</ele>
        <time>2018-03-25T04:11:12Z</time>
      </trkpt>
      <trkpt lat="46.71641" lon="-1.9157">
        <ele>4</ele>
        <time>2018-03-25T04:12:12Z</time>
      </trkpt>
      <trkpt lat="46.71648" lon="-1.91565">
        <ele>4</ele>
        <time>2018-03-25T04:13:12Z</time>
      </trkpt>
      <trkpt lat="46.71664" lon="-1.91556">
        <ele>3</ele>
        <time>2018-03-25T04:14:12Z</time>
      </trkpt>
      <trkpt lat="46.71674" lon="-1.91552">
        <ele>3</ele>
        <time>2018-03-25T04:15:12Z</time>
      </trkpt>
      <trkpt lat="46.71699" lon="-1.9154">
        <ele>2</ele>
        <time>2018-03-25T04:16:12Z</time>
      </trkpt>
      <trkpt lat="46.71723" lon="-1.91529">
        <ele>2</ele>
        <time>2018-03-25T04:17:12Z</time>
      </trkpt>
      <trkpt lat="46.7174" lon="-1.91519">
        <ele>2</ele>
        <time>2018-03-25T04:18:12Z</time>
      </trkpt>
      <trkpt lat="46.7175" lon="-1.91512">
        <ele>2</ele>
        <time>2018-03-25T04:19:12Z</time>
      </trkpt>
      <trkpt lat="46.7176" lon="-1.91502">
        <ele>2</ele>
        <time>2018-03-25T04:20:12Z</time>
      </trkpt>
      <trkpt lat="46.71765" lon="-1.91492">
        <ele>2</ele>
        <time>2018-03-25T04:21:12Z</time>
      </trkpt>
      <trkpt lat="46.71768" lon="-1.91484">
        <ele>2</ele>
        <time>2018-03-25T04:22:12Z</time>
      </trkpt>
      <trkpt lat="46.7177" lon="-1.91473">
        <ele>2</ele>
        <time>2018-03-25T04:23:12Z</time>
      </trkpt>
      <trkpt lat="46.71777" lon="-1.91414">
        <ele>1</ele>
        <time>2018-03-25T04:24:12Z</time>
      </trkpt>
      <trkpt lat="46.7178" lon="-1.91384">
        <ele>1</ele>
        <time>2018-03-25T04:25:12Z</time>
      </trkpt>
      <trkpt lat="46.71785" lon="-1.91362">
        <ele>1</ele>
        <time>2018-03-25T04:26:12Z</time>
      </trkpt>
      <trkpt lat="46.71792" lon="-1.91336">
        <ele>1</ele>
        <time>2018-03-25T04:27:12Z</time>
      </trkpt>
      <trkpt lat="46.71809" lon="-1.91278">
        <ele>2</ele>
        <time>2018-03-25T04:28:12Z</time>
      </trkpt>
      <trkpt lat="46.71822" lon="-1.91229">
        <ele>3</ele>
        <time>2018-03-25T04:29:12Z</time>
      </trkpt>
      <trkpt lat="46.71834" lon="-1.91176">
        <ele>3</ele>
        <time>2018-03-25T04:30:12Z</time>
      </trkpt>
      <trkpt lat="46.71839" lon="-1.91152">
        <ele>3</ele>
        <time>2018-03-25T04:31:12Z</time>
      </trkpt>
      <trkpt lat="46.71847" lon="-1.91107">
        <ele>2</ele>
        <time>2018-03-25T04:32:12Z</time>
      </trkpt>
      <trkpt lat="46.71851" lon="-1.91083">
        <ele>2</ele>
        <time>2018-03-25T04:33:12Z</time>
      </trkpt>
      <trkpt lat="46.71852" lon="-1.91064">
        <ele>2</ele>
        <time>2018-03-25T04:34:12Z</time>
      </trkpt>
      <trkpt lat="46.71852" lon="-1.91047">
        <ele>2</ele>
        <time>2018-03-25T04:35:12Z</time>
      </trkpt>
      <trkpt lat="46.71851" lon="-1.9102">
        <ele>3</ele>
        <time>2018-03-25T04:36:12Z</time>
      </trkpt>
      <trkpt lat="46.71846" lon="-1.90978">
        <ele>3</ele>
        <time>2018-03-25T04:37:12Z</time>
      </trkpt>
      <trkpt lat="46.71837" lon="-1.90885">
        <ele>5</ele>
        <time>2018-03-25T04:38:12Z</time>
      </trkpt>
      <trkpt lat="46.71832" lon="-1.90833">
        <ele>6</ele>
        <time>2018-03-25T04:39:12Z</time>
      </trkpt>
      <trkpt lat="46.71827" lon="-1.90802">
        <ele>6</ele>
        <time>2018-03-25T04:40:12Z</time>
      </trkpt>
      <trkpt lat="46.71821" lon="-1.90766">
        <ele>6</ele>
        <time>2018-03-25T04:41:12Z</time>
      </trkpt>
      <trkpt lat="46.7182" lon="-1.90764">
        <ele>6</ele>
        <time>2018-03-25T04:42:12Z</time>
      </trkpt>
      <trkpt lat="46.71811" lon="-1.90722">
        <ele>6</ele>
        <time>2018-03-25T04:43:12Z</time>
      </trkpt>
      <trkpt lat="46.71801" lon="-1.90668">
        <ele>5</ele>
        <time>2018-03-25T04:44:12Z</time>
      </trkpt>
      <trkpt lat="46.71797" lon="-1.90646">
        <ele>5</ele>
        <time>2018-03-25T04:45:12Z</time>
      </trkpt>
      <trkpt lat="46.71795" lon="-1.90616">
        <ele>6</ele>
        <time>2018-03-25T04:46:12Z</time>
      </trkpt>
      <trkpt lat="46.71795" lon="-1.90597">
        <ele>7</ele>
        <time>2018-03-25T04:47:12Z</time>
      </trkpt>
      <trkpt lat="46.71795" lon="-1.90578">
        <ele>7</ele>
        <time>2018-03-25T04:48:12Z</time>
      </trkpt>
      <trkpt lat="46.71798" lon="-1.90553">
        <ele>7</ele>
        <time>2018-03-25T04:49:12Z</time>
      </trkpt>
      <trkpt lat="46.71806" lon="-1.90529">
        <ele>7</ele>
        <time>2018-03-25T04:50:12Z</time>
      </trkpt>
      <trkpt lat="46.71818" lon="-1.90502">
        <ele>6</ele>
        <time>2018-03-25T04:51:12Z</time>
      </trkpt>
      <trkpt lat="46.71819" lon="-1.90499">
        <ele>6</ele>
        <time>2018-03-25T04:52:12Z</time>
      </trkpt>
      <trkpt lat="46.7183" lon="-1.90473">
        <ele>5</ele>
        <time>2018-03-25T04:53:12Z</time>
      </trkpt>
      <trkpt lat="46.71842" lon="-1.90449">
        <ele>5</ele>
        <time>2018-03-25T04:54:12Z</time>
      </trkpt>
      <trkpt lat="46.71845" lon="-1.90439">
        <ele>4</ele>
        <time>2018-03-25T04:55:12Z</time>
      </trkpt>
      <trkpt lat="46.71846" lon="-1.90435">
        <ele>4</ele>
        <time>2018-03-25T04:56:12Z</time>
      </trkpt>
      <trkpt lat="46.71847" lon="-1.90431">
        <ele>4</ele>
        <time>2018-03-25T04:57:12Z</time>
      </trkpt>
      <trkpt lat="46.71848" lon="-1.90421">
        <ele>4</ele>
        <time>2018-03-25T04:58:12Z</time>
      </trkpt>
      <trkpt lat="46.71851" lon="-1.90389">
        <ele>5</ele>
        <time>2018-03-25T04:59:12Z</time>
      </trkpt>
      <trkpt lat="46.71852" lon="-1.90384">
        <ele>5</ele>
        <time>2018-03-25T05:00:12Z</time>
      </trkpt>
      <trkpt lat="46.71852" lon="-1.9038">
        <ele>5</ele>
        <time>2018-03-25T05:01:12Z</time>
      </trkpt>
      <trkpt lat="46.71851" lon="-1.90377">
        <ele>5</ele>
        <time>2018-03-25T05:02:12Z</time>
      </trkpt>
      <trkpt lat="46.71851" lon="-1.90375">
        <ele>5</ele>
        <time>2018-03-25T05:03:12Z</time>
      </trkpt>
      <trkpt lat="46.7185" lon="-1.90372">
        <ele>5</ele>
        <time>2018-03-25T05:04:12Z</time>
      </trkpt>
      <trkpt lat="46.7185" lon="-1.9037">
        <ele>5</ele>
        <time>2018-03-25T05:05:12Z</time>
      </trkpt>
      <trkpt lat="46.71848" lon="-1.90366">
        <ele>5</ele>
        <time>2018-03-25T05:06:12Z</time>
      </trkpt>
      <trkpt lat="46.71844" lon="-1.90358">
        <ele>6</ele>
        <time>2018-03-25T05:07:12Z</time>
      </trkpt>
      <trkpt lat="46.71839" lon="-1.90349">
        <ele>6</ele>
        <time>2018-03-25T05:08:12Z</time>
      </trkpt>
      <trkpt lat="46.71839" lon="-1.90349">
        <ele>6</ele>
        <time>2018-03-25T05:09:12Z</time>
      </trkpt>
      <trkpt lat="46.71865" lon="-1.90316">
        <ele>6</ele>
        <time>2018-03-25T05:10:12Z</time>
      </trkpt>
      <trkpt lat="46.71869" lon="-1.90308">
        <ele>6</ele>
        <time>2018-03-25T05:11:12Z</time>
      </trkpt>
      <trkpt lat="46.71872" lon="-1.90301">
        <ele>6</ele>
        <time>2018-03-25T05:12:12Z</time>
      </trkpt>
      <trkpt lat="46.71876" lon="-1.90283">
        <ele>7</ele>
        <time>2018-03-25T05:13:12Z</time>
      </trkpt>
      <trkpt lat="46.71879" lon="-1.90274">
        <ele>7</ele>
        <time>2018-03-25T05:14:12Z</time>
      </trkpt>
      <trkpt lat="46.71883" lon="-1.90267">
        <ele>7</ele>
        <time>2018-03-25T05:15:12Z</time>
      </trkpt>
      <trkpt lat="46.71886" lon="-1.90263">
        <ele>7</ele>
        <time>2018-03-25T05:16:12Z</time>
      </trkpt>
      <trkpt lat="46.7189" lon="-1.9026">
        <ele>7</ele>
        <time>2018-03-25T05:17:12Z</time>
      </trkpt>
      <trkpt lat="46.71896" lon="-1.90256">
        <ele>7</ele>
        <time>2018-03-25T05:18:12Z</time>
      </trkpt>
      <trkpt lat="46.719" lon="-1.90254">
        <ele>7</ele>
        <time>2018-03-25T05:19:12Z</time>
      </trkpt>
      <trkpt lat="46.71914" lon="-1.90248">
        <ele>6</ele>
        <time>2018-03-25T05:20:12Z</time>
      </trkpt>
      <trkpt lat="46.71927" lon="-1.9024">
        <ele>6</ele>
        <time>2018-03-25T05:21:12Z</time>
      </trkpt>
      <trkpt lat="46.71934" lon="-1.90235">
        <ele>6</ele>
        <time>2018-03-25T05:22:12Z</time>
      </trkpt>
      <trkpt lat="46.71941" lon="-1.90227">
        <ele>6</ele>
        <time>2018-03-25T05:23:12Z</time>
      </trkpt>
      <trkpt lat="46.71946" lon="-1.90218">
        <ele>6</ele>
        <time>2018-03-25T05:24:12Z</time>
      </trkpt>
      <trkpt lat="46.71949" lon="-1.90211">
        <ele>6</ele>
        <time>2018-03-25T05:25:12Z</time>
      </trkpt>
      <trkpt lat="46.71953" lon="-1.90203">
        <ele>6</ele>
        <time>2018-03-25T05:26:12Z</time>
      </trkpt>
      <trkpt lat="46.71953" lon="-1.90201">
        <ele>6</ele>
        <time>2018-03-25T05:27:12Z</time>
      </trkpt>
      <trkpt lat="46.71956" lon="-1.90191">
        <ele>6</ele>
        <time>2018-03-25T05:28:12Z</time>
      </trkpt>
      <trkpt lat="46.71958" lon="-1.90176">
        <ele>6</ele>
        <time>2018-03-25T05:29:12Z</time>
      </trkpt>
      <trkpt lat="46.71959" lon="-1.90153">
        <ele>6</ele>
        <time>2018-03-25T05:30:12Z</time>
      </trkpt>
      <trkpt lat="46.71962" lon="-1.90125">
        <ele>6</ele>
        <time>2018-03-25T05:31:12Z</time>
      </trkpt>
      <trkpt lat="46.71965" lon="-1.90106">
        <ele>6</ele>
        <time>2018-03-25T05:32:12Z</time>
      </trkpt>
      <trkpt lat="46.71968" lon="-1.9008">
        <ele>6</ele>
        <time>2018-03-25T05:33:12Z</time>
      </trkpt>
      <trkpt lat="46.71973" lon="-1.90062">
        <ele>6</ele>
        <time>2018-03-25T05:34:12Z</time>
      </trkpt>
      <trkpt lat="46.71979" lon="-1.9005">
        <ele>6</ele>
        <time>2018-03-25T05:35:12Z</time>
      </trkpt>
      <trkpt lat="46.7199" lon="-1.90031">
        <ele>6</ele>
        <time>2018-03-25T05:36:12Z</time>
      </trkpt>
      <trkpt lat="46.72002" lon="-1.90007">
        <ele>6</ele>
        <time>2018-03-25T05:37:12Z</time>
      </trkpt>
      <trkpt lat="46.72013" lon="-1.89987">
        <ele>6</ele>
        <time>2018-03-25T05:38:12Z</time>
      </trkpt>
      <trkpt lat="46.7202" lon="-1.89975">
        <ele>7</ele>
        <time>2018-03-25T05:39:12Z</time>
      </trkpt>
      <trkpt lat="46.72029" lon="-1.8996">
        <ele>7</ele>
        <time>2018-03-25T05:40:12Z</time>
      </trkpt>
      <trkpt lat="46.72037" lon="-1.89948">
        <ele>7</ele>
        <time>2018-03-25T05:41:12Z</time>
      </trkpt>
      <trkpt lat="46.72042" lon="-1.89942">
        <ele>7</ele>
        <time>2018-03-25T05:42:12Z</time>
      </trkpt>
      <trkpt lat="46.72056" lon="-1.8993">
        <ele>7</ele>
        <time>2018-03-25T05:43:12Z</time>
      </trkpt>
      <trkpt lat="46.72084" lon="-1.89908">
        <ele>7</ele>
        <time>2018-03-25T05:44:12Z</time>
      </trkpt>
      <trkpt lat="46.72119" lon="-1.89878">
        <ele>8</ele>
        <time>2018-03-25T05:45:12Z</time>
      </trkpt>
      <trkpt lat="46.72143" lon="-1.89859">
        <ele>9</ele>
        <time>2018-03-25T05:46:12Z</time>
      </trkpt>
      <trkpt lat="46.72178" lon="-1.8983">
        <ele>9</ele>
        <time>2018-03-25T05:47:12Z</time>
      </trkpt>
      <trkpt lat="46.72203" lon="-1.89809">
        <ele>8</ele>
        <time>2018-03-25T05:48:12Z</time>
      </trkpt>
      <trkpt lat="46.72225" lon="-1.89792">
        <ele>7</ele>
        <time>2018-03-25T05:49:12Z</time>
      </trkpt>
      <trkpt lat="46.72253" lon="-1.8977">
        <ele>7</ele>
        <time>2018-03-25T05:50:12Z</time>
      </trkpt>
      <trkpt lat="46.72253" lon="-1.8977">
        <ele>7</ele>
        <time>2018-03-25T05:51:12Z</time>
      </trkpt>
      <trkpt lat="46.72261" lon="-1.89791">
        <ele>7</ele>
        <time>2018-03-25T05:52:12Z</time>
      </trkpt>
      <trkpt lat="46.72271" lon="-1.89821">
        <ele>6</ele>
        <time>2018-03-25T05:53:12Z</time>
      </trkpt>
      <trkpt lat="46.72283" lon="-1.89855">
        <ele>6</ele>
        <time>2018-03-25T05:54:12Z</time>
      </trkpt>
      <trkpt lat="46.72292" lon="-1.8988">
        <ele>6</ele>
        <time>2018-03-25T05:55:12Z</time>
      </trkpt>
      <trkpt lat="46.723" lon="-1.89904">
        <ele>6</ele>
        <time>2018-03-25T05:56:12Z</time>
      </trkpt>
      <trkpt lat="46.72307" lon="-1.89925">
        <ele>6</ele>
        <time>2018-03-25T05:57:12Z</time>
      </trkpt>
      <trkpt lat="46.72315" lon="-1.89944">
        <ele>6</ele>
        <time>2018-03-25T05:58:12Z</time>
      </trkpt>
      <trkpt lat="46.72323" lon="-1.8996">
        <ele>6</ele>
        <time>2018-03-25T05:59:12Z</time>
      </trkpt>
      <trkpt lat="46.72329" lon="-1.89969">
        <ele>6</ele>
        <time>2018-03-25T06:00:12Z</time>
      </trkpt>
      <trkpt lat="46.72336" lon="-1.89977">
        <ele>6</ele>
        <time>2018-03-25T06:01:12Z</time>
      </trkpt>
      <trkpt lat="46.72348" lon="-1.89995">
        <ele>5</ele>
        <time>2018-03-25T06:02:12Z</time>
      </trkpt>
      <trkpt lat="46.72358" lon="-1.90013">
        <ele>5</ele>
        <time>2018-03-25T06:03:12Z</time>
      </trkpt>
      <trkpt lat="46.72372" lon="-1.90041">
        <ele>4</ele>
        <time>2018-03-25T06:04:12Z</time>
      </trkpt>
      <trkpt lat="46.72388" lon="-1.90076">
        <ele>3</ele>
        <time>2018-03-25T06:05:12Z</time>
      </trkpt>
      <trkpt lat="46.72403" lon="-1.90108">
        <ele>3</ele>
        <time>2018-03-25T06:06:12Z</time>
      </trkpt>
      <trkpt lat="46.72412" lon="-1.90128">
        <ele>2</ele>
        <time>2018-03-25T06:07:12Z</time>
      </trkpt>
      <trkpt lat="46.7243" lon="-1.90169">
        <ele>2</ele>
        <time>2018-03-25T06:08:12Z</time>
      </trkpt>
      <trkpt lat="46.7244" lon="-1.9019">
        <ele>2</ele>
        <time>2018-03-25T06:09:12Z</time>
      </trkpt>
      <trkpt lat="46.7245" lon="-1.90213">
        <ele>2</ele>
        <time>2018-03-25T06:10:12Z</time>
      </trkpt>
      <trkpt lat="46.72458" lon="-1.90226">
        <ele>2</ele>
        <time>2018-03-25T06:11:12Z</time>
      </trkpt>
      <trkpt lat="46.72468" lon="-1.90239">
        <ele>2</ele>
        <time>2018-03-25T06:12:12Z</time>
      </trkpt>
      <trkpt lat="46.72485" lon="-1.90257">
        <ele>2</ele>
        <time>2018-03-25T06:13:12Z</time>
      </trkpt>
      <trkpt lat="46.72506" lon="-1.90278">
        <ele>2</ele>
        <time>2018-03-25T06:14:12Z</time>
      </trkpt>
      <trkpt lat="46.7254" lon="-1.90311">
        <ele>1</ele>
        <time>2018-03-25T06:15:12Z</time>
      </trkpt>
      <trkpt lat="46.72573" lon="-1.90343">
        <ele>1</ele>
        <time>2018-03-25T06:16:12Z</time>
      </trkpt>
      <trkpt lat="46.72603" lon="-1.90372">
        <ele>3.5</ele>
        <time>2018-03-25T06:17:12Z</time>
      </trkpt>
      <trkpt lat="46.72643" lon="-1.90413">
        <ele>3.7</ele>
        <time>2018-03-25T06:18:12Z</time>
      </trkpt>
      <trkpt lat="46.72671" lon="-1.9044">
        <ele>3.8</ele>
        <time>2018-03-25T06:19:12Z</time>
      </trkpt>
      <trkpt lat="46.72682" lon="-1.90451">
        <ele>3.5</ele>
        <time>2018-03-25T06:20:12Z</time>
      </trkpt>
      <trkpt lat="46.72693" lon="-1.90461">
        <ele>2.3</ele>
        <time>2018-03-25T06:21:12Z</time>
      </trkpt>
      <trkpt lat="46.72699" lon="-1.90466">
        <ele>1.7</ele>
        <time>2018-03-25T06:22:12Z</time>
      </trkpt>
      <trkpt lat="46.72704" lon="-1.90472">
        <ele>1.4</ele>
        <time>2018-03-25T06:23:12Z</time>
      </trkpt>
      <trkpt lat="46.72704" lon="-1.90472">
        <ele>1.4</ele>
        <time>2018-03-25T06:24:12Z</time>
      </trkpt>
      <trkpt lat="46.72712" lon="-1.9048">
        <ele>2.3</ele>
        <time>2018-03-25T06:25:12Z</time>
      </trkpt>
      <trkpt lat="46.7272" lon="-1.90488">
        <ele>3.1</ele>
        <time>2018-03-25T06:26:12Z</time>
      </trkpt>
      <trkpt lat="46.72728" lon="-1.90494">
        <ele>3.2</ele>
        <time>2018-03-25T06:27:12Z</time>
      </trkpt>
      <trkpt lat="46.72749" lon="-1.90513">
        <ele>3</ele>
        <time>2018-03-25T06:28:12Z</time>
      </trkpt>
      <trkpt lat="46.7276" lon="-1.90525">
        <ele>3.2</ele>
        <time>2018-03-25T06:29:12Z</time>
      </trkpt>
      <trkpt lat="46.72781" lon="-1.90543">
        <ele>1</ele>
        <time>2018-03-25T06:30:12Z</time>
      </trkpt>
      <trkpt lat="46.72794" lon="-1.90558">
        <ele>2.5</ele>
        <time>2018-03-25T06:31:12Z</time>
      </trkpt>
      <trkpt lat="46.72812" lon="-1.9058">
        <ele>3.4</ele>
        <time>2018-03-25T06:32:12Z</time>
      </trkpt>
      <trkpt lat="46.72831" lon="-1.90608">
        <ele>2.9</ele>
        <time>2018-03-25T06:33:12Z</time>
      </trkpt>
      <trkpt lat="46.72851" lon="-1.9064">
        <ele>3</ele>
        <time>2018-03-25T06:34:12Z</time>
      </trkpt>
      <trkpt lat="46.7288" lon="-1.90681">
        <ele>1</ele>
        <time>2018-03-25T06:35:12Z</time>
      </trkpt>
      <trkpt lat="46.72909" lon="-1.90728">
        <ele>2.6</ele>
        <time>2018-03-25T06:36:12Z</time>
      </trkpt>
      <trkpt lat="46.72951" lon="-1.90792">
        <ele>3.2</ele>
        <time>2018-03-25T06:37:12Z</time>
      </trkpt>
      <trkpt lat="46.72986" lon="-1.90845">
        <ele>1</ele>
        <time>2018-03-25T06:38:12Z</time>
      </trkpt>
      <trkpt lat="46.73019" lon="-1.90898">
        <ele>2.8</ele>
        <time>2018-03-25T06:39:12Z</time>
      </trkpt>
      <trkpt lat="46.73057" lon="-1.90954">
        <ele>1</ele>
        <time>2018-03-25T06:40:12Z</time>
      </trkpt>
      <trkpt lat="46.73098" lon="-1.91017">
        <ele>2</ele>
        <time>2018-03-25T06:41:12Z</time>
      </trkpt>
      <trkpt lat="46.7313" lon="-1.91067">
        <ele>4</ele>
        <time>2018-03-25T06:42:12Z</time>
      </trkpt>
      <trkpt lat="46.73137" lon="-1.91077">
        <ele>4</ele>
        <time>2018-03-25T06:43:12Z</time>
      </trkpt>
      <trkpt lat="46.73148" lon="-1.91095">
        <ele>4</ele>
        <time>2018-03-25T06:44:12Z</time>
      </trkpt>
      <trkpt lat="46.73151" lon="-1.91102">
        <ele>4</ele>
        <time>2018-03-25T06:45:12Z</time>
      </trkpt>
      <trkpt lat="46.73163" lon="-1.91117">
        <ele>5</ele>
        <time>2018-03-25T06:46:12Z</time>
      </trkpt>
      <trkpt lat="46.73169" lon="-1.91126">
        <ele>5</ele>
        <time>2018-03-25T06:47:12Z</time>
      </trkpt>
      <trkpt lat="46.73174" lon="-1.91134">
        <ele>6</ele>
        <time>2018-03-25T06:48:12Z</time>
      </trkpt>
      <trkpt lat="46.73184" lon="-1.91155">
        <ele>7</ele>
        <time>2018-03-25T06:49:12Z</time>
      </trkpt>
      <trkpt lat="46.73197" lon="-1.91182">
        <ele>8</ele>
        <time>2018-03-25T06:50:12Z</time>
      </trkpt>
      <trkpt lat="46.73208" lon="-1.91204">
        <ele>8</ele>
        <time>2018-03-25T06:51:12Z</time>
      </trkpt>
      <trkpt lat="46.73223" lon="-1.91238">
        <ele>9</ele>
        <time>2018-03-25T06:52:12Z</time>
      </trkpt>
      <trkpt lat="46.73227" lon="-1.91249">
        <ele>9</ele>
        <time>2018-03-25T06:53:12Z</time>
      </trkpt>
      <trkpt lat="46.73239" lon="-1.91274">
        <ele>10</ele>
        <time>2018-03-25T06:54:12Z</time>
      </trkpt>
      <trkpt lat="46.7325" lon="-1.91296">
        <ele>12</ele>
        <time>2018-03-25T06:55:12Z</time>
      </trkpt>
      <trkpt lat="46.73264" lon="-1.91328">
        <ele>13</ele>
        <time>2018-03-25T06:56:12Z</time>
      </trkpt>
      <trkpt lat="46.7328" lon="-1.91361">
        <ele>13</ele>
        <time>2018-03-25T06:57:12Z</time>
      </trkpt>
      <trkpt lat="46.73298" lon="-1.91401">
        <ele>13</ele>
        <time>2018-03-25T06:58:12Z</time>
      </trkpt>
      <trkpt lat="46.73304" lon="-1.91414">
        <ele>13</ele>
        <time>2018-03-25T06:59:12Z</time>
      </trkpt>
      <trkpt lat="46.73312" lon="-1.91432">
        <ele>13</ele>
        <time>2018-03-25T07:00:12Z</time>
      </trkpt>
      <trkpt lat="46.73321" lon="-1.91454">
        <ele>14</ele>
        <time>2018-03-25T07:01:12Z</time>
      </trkpt>
      <trkpt lat="46.73327" lon="-1.91472">
        <ele>14</ele>
        <time>2018-03-25T07:02:12Z</time>
      </trkpt>
      <trkpt lat="46.73331" lon="-1.9149">
        <ele>14</ele>
        <time>2018-03-25T07:03:12Z</time>
      </trkpt>
      <trkpt lat="46.73331" lon="-1.9149">
        <ele>14</ele>
        <time>2018-03-25T07:04:12Z</time>
      </trkpt>
      <trkpt lat="46.73335" lon="-1.91484">
        <ele>14</ele>
        <time>2018-03-25T07:05:12Z</time>
      </trkpt>
      <trkpt lat="46.73337" lon="-1.9148">
        <ele>14</ele>
        <time>2018-03-25T07:06:12Z</time>
      </trkpt>
      <trkpt lat="46.73339" lon="-1.91474">
        <ele>14</ele>
        <time>2018-03-25T07:07:12Z</time>
      </trkpt>
      <trkpt lat="46.7334" lon="-1.91469">
        <ele>13</ele>
        <time>2018-03-25T07:08:12Z</time>
      </trkpt>
      <trkpt lat="46.73344" lon="-1.91455">
        <ele>13</ele>
        <time>2018-03-25T07:09:12Z</time>
      </trkpt>
      <trkpt lat="46.73349" lon="-1.91432">
        <ele>13</ele>
        <time>2018-03-25T07:10:12Z</time>
      </trkpt>
      <trkpt lat="46.73355" lon="-1.91413">
        <ele>13</ele>
        <time>2018-03-25T07:11:12Z</time>
      </trkpt>
      <trkpt lat="46.73357" lon="-1.91405">
        <ele>13</ele>
        <time>2018-03-25T07:12:12Z</time>
      </trkpt>
      <trkpt lat="46.7336" lon="-1.91399">
        <ele>12</ele>
        <time>2018-03-25T07:13:12Z</time>
      </trkpt>
      <trkpt lat="46.73368" lon="-1.91384">
        <ele>12</ele>
        <time>2018-03-25T07:14:12Z</time>
      </trkpt>
      <trkpt lat="46.73392" lon="-1.91347">
        <ele>11</ele>
        <time>2018-03-25T07:15:12Z</time>
      </trkpt>
      <trkpt lat="46.73421" lon="-1.91295">
        <ele>11</ele>
        <time>2018-03-25T07:16:12Z</time>
      </trkpt>
      <trkpt lat="46.73442" lon="-1.91257">
        <ele>11</ele>
        <time>2018-03-25T07:17:12Z</time>
      </trkpt>
      <trkpt lat="46.73456" lon="-1.91235">
        <ele>10</ele>
        <time>2018-03-25T07:18:12Z</time>
      </trkpt>
      <trkpt lat="46.73456" lon="-1.91235">
        <ele>10</ele>
        <time>2018-03-25T07:19:12Z</time>
      </trkpt>
      <trkpt lat="46.73481" lon="-1.91256">
        <ele>9</ele>
        <time>2018-03-25T07:20:12Z</time>
      </trkpt>
      <trkpt lat="46.73522" lon="-1.91298">
        <ele>8</ele>
        <time>2018-03-25T07:21:12Z</time>
      </trkpt>
      <trkpt lat="46.73546" lon="-1.91323">
        <ele>8</ele>
        <time>2018-03-25T07:22:12Z</time>
      </trkpt>
      <trkpt lat="46.73558" lon="-1.91337">
        <ele>8</ele>
        <time>2018-03-25T07:23:12Z</time>
      </trkpt>
      <trkpt lat="46.73569" lon="-1.91351">
        <ele>7</ele>
        <time>2018-03-25T07:24:12Z</time>
      </trkpt>
      <trkpt lat="46.73578" lon="-1.91364">
        <ele>7</ele>
        <time>2018-03-25T07:25:12Z</time>
      </trkpt>
      <trkpt lat="46.73615" lon="-1.91424">
        <ele>6</ele>
        <time>2018-03-25T07:26:12Z</time>
      </trkpt>
      <trkpt lat="46.73651" lon="-1.91488">
        <ele>5</ele>
        <time>2018-03-25T07:27:12Z</time>
      </trkpt>
      <trkpt lat="46.73685" lon="-1.91548">
        <ele>6</ele>
        <time>2018-03-25T07:28:12Z</time>
      </trkpt>
      <trkpt lat="46.73728" lon="-1.91632">
        <ele>7</ele>
        <time>2018-03-25T07:29:12Z</time>
      </trkpt>
      <trkpt lat="46.73752" lon="-1.91678">
        <ele>5</ele>
        <time>2018-03-25T07:30:12Z</time>
      </trkpt>
      <trkpt lat="46.73761" lon="-1.91698">
        <ele>5</ele>
        <time>2018-03-25T07:31:12Z</time>
      </trkpt>
      <trkpt lat="46.73767" lon="-1.91714">
        <ele>5</ele>
        <time>2018-03-25T07:32:12Z</time>
      </trkpt>
      <trkpt lat="46.73771" lon="-1.91727">
        <ele>5</ele>
        <time>2018-03-25T07:33:12Z</time>
      </trkpt>
      <trkpt lat="46.73775" lon="-1.9174">
        <ele>5</ele>
        <time>2018-03-25T07:34:12Z</time>
      </trkpt>
      <trkpt lat="46.73777" lon="-1.9175">
        <ele>5</ele>
        <time>2018-03-25T07:35:12Z</time>
      </trkpt>
      <trkpt lat="46.73779" lon="-1.91762">
        <ele>5</ele>
        <time>2018-03-25T07:36:12Z</time>
      </trkpt>
      <trkpt lat="46.7378" lon="-1.91777">
        <ele>5</ele>
        <time>2018-03-25T07:37:12Z</time>
      </trkpt>
      <trkpt lat="46.73781" lon="-1.91794">
        <ele>5</ele>
        <time>2018-03-25T07:38:12Z</time>
      </trkpt>
      <trkpt lat="46.73781" lon="-1.91846">
        <ele>5</ele>
        <time>2018-03-25T07:39:12Z</time>
      </trkpt>
      <trkpt lat="46.73781" lon="-1.91858">
        <ele>5</ele>
        <time>2018-03-25T07:40:12Z</time>
      </trkpt>
      <trkpt lat="46.73781" lon="-1.91872">
        <ele>5</ele>
        <time>2018-03-25T07:41:12Z</time>
      </trkpt>
      <trkpt lat="46.73782" lon="-1.91884">
        <ele>5</ele>
        <time>2018-03-25T07:42:12Z</time>
      </trkpt>
      <trkpt lat="46.73784" lon="-1.91895">
        <ele>5</ele>
        <time>2018-03-25T07:43:12Z</time>
      </trkpt>
      <trkpt lat="46.73787" lon="-1.91904">
        <ele>5</ele>
        <time>2018-03-25T07:44:12Z</time>
      </trkpt>
      <trkpt lat="46.73787" lon="-1.91904">
        <ele>5</ele>
        <time>2018-03-25T07:45:12Z</time>
      </trkpt>
      <trkpt lat="46.73793" lon="-1.91895">
        <ele>5</ele>
        <time>2018-03-25T07:46:12Z</time>
      </trkpt>
      <trkpt lat="46.738" lon="-1.91886">
        <ele>5</ele>
        <time>2018-03-25T07:47:12Z</time>
      </trkpt>
      <trkpt lat="46.73813" lon="-1.91873">
        <ele>5</ele>
        <time>2018-03-25T07:48:12Z</time>
      </trkpt>
      <trkpt lat="46.73863" lon="-1.91828">
        <ele>4</ele>
        <time>2018-03-25T07:49:12Z</time>
      </trkpt>
      <trkpt lat="46.73918" lon="-1.91773">
        <ele>4</ele>
        <time>2018-03-25T07:50:12Z</time>
      </trkpt>
      <trkpt lat="46.73929" lon="-1.91762">
        <ele>4</ele>
        <time>2018-03-25T07:51:12Z</time>
      </trkpt>
      <trkpt lat="46.73946" lon="-1.91744">
        <ele>4</ele>
        <time>2018-03-25T07:52:12Z</time>
      </trkpt>
      <trkpt lat="46.73954" lon="-1.91736">
        <ele>5</ele>
        <time>2018-03-25T07:53:12Z</time>
      </trkpt>
      <trkpt lat="46.73966" lon="-1.91725">
        <ele>5</ele>
        <time>2018-03-25T07:54:12Z</time>
      </trkpt>
      <trkpt lat="46.73966" lon="-1.91725">
        <ele>5</ele>
        <time>2018-03-25T07:55:12Z</time>
      </trkpt>
      <trkpt lat="46.73994" lon="-1.91701">
        <ele>5</ele>
        <time>2018-03-25T07:56:12Z</time>
      </trkpt>
      <trkpt lat="46.74036" lon="-1.91667">
        <ele>6</ele>
        <time>2018-03-25T07:57:12Z</time>
      </trkpt>
      <trkpt lat="46.74089" lon="-1.91626">
        <ele>5</ele>
        <time>2018-03-25T07:58:12Z</time>
      </trkpt>
      <trkpt lat="46.74117" lon="-1.91604">
        <ele>5</ele>
        <time>2018-03-25T07:59:12Z</time>
      </trkpt>
      <trkpt lat="46.74143" lon="-1.91582">
        <ele>5</ele>
        <time>2018-03-25T08:00:12Z</time>
      </trkpt>
      <trkpt lat="46.74156" lon="-1.9157">
        <ele>5</ele>
        <time>2018-03-25T08:01:12Z</time>
      </trkpt>
      <trkpt lat="46.74172" lon="-1.91555">
        <ele>5</ele>
        <time>2018-03-25T08:02:12Z</time>
      </trkpt>
      <trkpt lat="46.74174" lon="-1.91553">
        <ele>5</ele>
        <time>2018-03-25T08:03:12Z</time>
      </trkpt>
      <trkpt lat="46.74192" lon="-1.91535">
        <ele>5</ele>
        <time>2018-03-25T08:04:12Z</time>
      </trkpt>
      <trkpt lat="46.74235" lon="-1.91492">
        <ele>5</ele>
        <time>2018-03-25T08:05:12Z</time>
      </trkpt>
      <trkpt lat="46.74245" lon="-1.91482">
        <ele>5</ele>
        <time>2018-03-25T08:06:12Z</time>
      </trkpt>
      <trkpt lat="46.74283" lon="-1.91443">
        <ele>4</ele>
        <time>2018-03-25T08:07:12Z</time>
      </trkpt>
      <trkpt lat="46.74292" lon="-1.91432">
        <ele>4</ele>
        <time>2018-03-25T08:08:12Z</time>
      </trkpt>
      <trkpt lat="46.74294" lon="-1.91432">
        <ele>4</ele>
        <time>2018-03-25T08:09:12Z</time>
      </trkpt>
      <trkpt lat="46.74297" lon="-1.91431">
        <ele>4</ele>
        <time>2018-03-25T08:10:12Z</time>
      </trkpt>
      <trkpt lat="46.74311" lon="-1.91431">
        <ele>4</ele>
        <time>2018-03-25T08:11:12Z</time>
      </trkpt>
      <trkpt lat="46.74311" lon="-1.91431">
        <ele>4</ele>
        <time>2018-03-25T08:12:12Z</time>
      </trkpt>
      <trkpt lat="46.74317" lon="-1.91418">
        <ele>4</ele>
        <time>2018-03-25T08:13:12Z</time>
      </trkpt>
      <trkpt lat="46.74324" lon="-1.91402">
        <ele>4</ele>
        <time>2018-03-25T08:14:12Z</time>
      </trkpt>
      <trkpt lat="46.74333" lon="-1.91384">
        <ele>4</ele>
        <time>2018-03-25T08:15:12Z</time>
      </trkpt>
      <trkpt lat="46.74344" lon="-1.9136">
        <ele>4</ele>
        <time>2018-03-25T08:16:12Z</time>
      </trkpt>
      <trkpt lat="46.74351" lon="-1.91346">
        <ele>4</ele>
        <time>2018-03-25T08:17:12Z</time>
      </trkpt>
      <trkpt lat="46.74358" lon="-1.91334">
        <ele>4</ele>
        <time>2018-03-25T08:18:12Z</time>
      </trkpt>
      <trkpt lat="46.74367" lon="-1.91321">
        <ele>4</ele>
        <time>2018-03-25T08:19:12Z</time>
      </trkpt>
      <trkpt lat="46.74375" lon="-1.91309">
        <ele>3</ele>
        <time>2018-03-25T08:20:12Z</time>
      </trkpt>
      <trkpt lat="46.74385" lon="-1.91297">
        <ele>3</ele>
        <time>2018-03-25T08:21:12Z</time>
      </trkpt>
      <trkpt lat="46.74388" lon="-1.91293">
        <ele>3</ele>
        <time>2018-03-25T08:22:12Z</time>
      </trkpt>
      <trkpt lat="46.74418" lon="-1.91257">
        <ele>3</ele>
        <time>2018-03-25T08:23:12Z</time>
      </trkpt>
      <trkpt lat="46.74469" lon="-1.91194">
        <ele>4</ele>
        <time>2018-03-25T08:24:12Z</time>
      </trkpt>
      <trkpt lat="46.74477" lon="-1.91184">
        <ele>4</ele>
        <time>2018-03-25T08:25:12Z</time>
      </trkpt>
      <trkpt lat="46.74534" lon="-1.91117">
        <ele>3</ele>
        <time>2018-03-25T08:26:12Z</time>
      </trkpt>
      <trkpt lat="46.74563" lon="-1.91079">
        <ele>3</ele>
        <time>2018-03-25T08:27:12Z</time>
      </trkpt>
      <trkpt lat="46.74569" lon="-1.91072">
        <ele>2</ele>
        <time>2018-03-25T08:28:12Z</time>
      </trkpt>
      <trkpt lat="46.74573" lon="-1.91066">
        <ele>2</ele>
        <time>2018-03-25T08:29:12Z</time>
      </trkpt>
      <trkpt lat="46.74576" lon="-1.9106">
        <ele>2</ele>
        <time>2018-03-25T08:30:12Z</time>
      </trkpt>
      <trkpt lat="46.74584" lon="-1.91045">
        <ele>2</ele>
        <time>2018-03-25T08:31:12Z</time>
      </trkpt>
      <trkpt lat="46.74581" lon="-1.91042">
        <ele>3</ele>
        <time>2018-03-25T08:32:12Z</time>
      </trkpt>
      <trkpt lat="46.7458" lon="-1.91039">
        <ele>3</ele>
        <time>2018-03-25T08:33:12Z</time>
      </trkpt>
      <trkpt lat="46.74579" lon="-1.91036">
        <ele>3</ele>
        <time>2018-03-25T08:34:12Z</time>
      </trkpt>
      <trkpt lat="46.74579" lon="-1.91033">
        <ele>3</ele>
        <time>2018-03-25T08:35:12Z</time>
      </trkpt>
      <trkpt lat="46.7458" lon="-1.9103">
        <ele>3</ele>
        <time>2018-03-25T08:36:12Z</time>
      </trkpt>
      <trkpt lat="46.74583" lon="-1.91026">
        <ele>3</ele>
        <time>2018-03-25T08:37:12Z</time>
      </trkpt>
      <trkpt lat="46.74586" lon="-1.91024">
        <ele>3</ele>
        <time>2018-03-25T08:38:12Z</time>
      </trkpt>
      <trkpt lat="46.74589" lon="-1.91025">
        <ele>3</ele>
        <time>2018-03-25T08:39:12Z</time>
      </trkpt>
      <trkpt lat="46.74591" lon="-1.91026">
        <ele>3</ele>
        <time>2018-03-25T08:40:12Z</time>
      </trkpt>
      <trkpt lat="46.74596" lon="-1.91019">
        <ele>3</ele>
        <time>2018-03-25T08:41:12Z</time>
      </trkpt>
      <trkpt lat="46.74597" lon="-1.91017">
        <ele>3</ele>
        <time>2018-03-25T08:42:12Z</time>
      </trkpt>
      <trkpt lat="46.74598" lon="-1.91015">
        <ele>3</ele>
        <time>2018-03-25T08:43:12Z</time>
      </trkpt>
      <trkpt lat="46.746" lon="-1.91009">
        <ele>3</ele>
        <time>2018-03-25T08:44:12Z</time>
      </trkpt>
      <trkpt lat="46.74602" lon="-1.91001">
        <ele>3</ele>
        <time>2018-03-25T08:45:12Z</time>
      </trkpt>
      <trkpt lat="46.74603" lon="-1.9099">
        <ele>3</ele>
        <time>2018-03-25T08:46:12Z</time>
      </trkpt>
      <trkpt lat="46.74603" lon="-1.9098">
        <ele>3</ele>
        <time>2018-03-25T08:47:12Z</time>
      </trkpt>
      <trkpt lat="46.74602" lon="-1.9097">
        <ele>3</ele>
        <time>2018-03-25T08:48:12Z</time>
      </trkpt>
      <trkpt lat="46.74599" lon="-1.9096">
        <ele>3</ele>
        <time>2018-03-25T08:49:12Z</time>
      </trkpt>
      <trkpt lat="46.74594" lon="-1.90947">
        <ele>3</ele>
        <time>2018-03-25T08:50:12Z</time>
      </trkpt>
      <trkpt lat="46.74591" lon="-1.9094">
        <ele>3</ele>
        <time>2018-03-25T08:51:12Z</time>
      </trkpt>
      <trkpt lat="46.74581" lon="-1.90912">
        <ele>3</ele>
        <time>2018-03-25T08:52:12Z</time>
      </trkpt>
      <trkpt lat="46.7458" lon="-1.90911">
        <ele>3</ele>
        <time>2018-03-25T08:53:12Z</time>
      </trkpt>
      <trkpt lat="46.74576" lon="-1.90901">
        <ele>3</ele>
        <time>2018-03-25T08:54:12Z</time>
      </trkpt>
      <trkpt lat="46.74572" lon="-1.90893">
        <ele>4</ele>
        <time>2018-03-25T08:55:12Z</time>
      </trkpt>
      <trkpt lat="46.74566" lon="-1.9088">
        <ele>4</ele>
        <time>2018-03-25T08:56:12Z</time>
      </trkpt>
      <trkpt lat="46.74566" lon="-1.9088">
        <ele>4</ele>
        <time>2018-03-25T08:57:12Z</time>
      </trkpt>
      <trkpt lat="46.74564" lon="-1.90876">
        <ele>4</ele>
        <time>2018-03-25T08:58:12Z</time>
      </trkpt>
      <trkpt lat="46.74554" lon="-1.90862">
        <ele>4</ele>
        <time>2018-03-25T08:59:12Z</time>
      </trkpt>
      <trkpt lat="46.74534" lon="-1.90836">
        <ele>5</ele>
        <time>2018-03-25T09:00:12Z</time>
      </trkpt>
      <trkpt lat="46.74528" lon="-1.90828">
        <ele>5</ele>
        <time>2018-03-25T09:01:12Z</time>
      </trkpt>
      <trkpt lat="46.74523" lon="-1.90822">
        <ele>5</ele>
        <time>2018-03-25T09:02:12Z</time>
      </trkpt>
      <trkpt lat="46.74511" lon="-1.90805">
        <ele>5</ele>
        <time>2018-03-25T09:03:12Z</time>
      </trkpt>
      <trkpt lat="46.74508" lon="-1.90798">
        <ele>5</ele>
        <time>2018-03-25T09:04:12Z</time>
      </trkpt>
      <trkpt lat="46.74503" lon="-1.90787">
        <ele>5</ele>
        <time>2018-03-25T09:05:12Z</time>
      </trkpt>
      <trkpt lat="46.74496" lon="-1.90771">
        <ele>5</ele>
        <time>2018-03-25T09:06:12Z</time>
      </trkpt>
      <trkpt lat="46.74491" lon="-1.90757">
        <ele>5</ele>
        <time>2018-03-25T09:07:12Z</time>
      </trkpt>
      <trkpt lat="46.74487" lon="-1.90744">
        <ele>5</ele>
        <time>2018-03-25T09:08:12Z</time>
      </trkpt>
      <trkpt lat="46.74486" lon="-1.90734">
        <ele>5</ele>
        <time>2018-03-25T09:09:12Z</time>
      </trkpt>
      <trkpt lat="46.74485" lon="-1.90722">
        <ele>5</ele>
        <time>2018-03-25T09:10:12Z</time>
      </trkpt>
      <trkpt lat="46.74486" lon="-1.90716">
        <ele>5</ele>
        <time>2018-03-25T09:11:12Z</time>
      </trkpt>
      <trkpt lat="46.74487" lon="-1.90711">
        <ele>5</ele>
        <time>2018-03-25T09:12:12Z</time>
      </trkpt>
      <trkpt lat="46.74489" lon="-1.90704">
        <ele>5</ele>
        <time>2018-03-25T09:13:12Z</time>
      </trkpt>
      <trkpt lat="46.74493" lon="-1.90698">
        <ele>4</ele>
        <time>2018-03-25T09:14:12Z</time>
      </trkpt>
      <trkpt lat="46.74497" lon="-1.9069">
        <ele>4</ele>
        <time>2018-03-25T09:15:12Z</time>
      </trkpt>
      <trkpt lat="46.74502" lon="-1.90684">
        <ele>4</ele>
        <time>2018-03-25T09:16:12Z</time>
      </trkpt>
      <trkpt lat="46.74506" lon="-1.90678">
        <ele>4</ele>
        <time>2018-03-25T09:17:12Z</time>
      </trkpt>
      <trkpt lat="46.74512" lon="-1.90668">
        <ele>4</ele>
        <time>2018-03-25T09:18:12Z</time>
      </trkpt>
      <trkpt lat="46.74519" lon="-1.90656">
        <ele>4</ele>
        <time>2018-03-25T09:19:12Z</time>
      </trkpt>
      <trkpt lat="46.74519" lon="-1.90656">
        <ele>4</ele>
        <time>2018-03-25T09:20:12Z</time>
      </trkpt>
      <trkpt lat="46.74523" lon="-1.90646">
        <ele>4</ele>
        <time>2018-03-25T09:21:12Z</time>
      </trkpt>
      <trkpt lat="46.74529" lon="-1.90639">
        <ele>4</ele>
        <time>2018-03-25T09:22:12Z</time>
      </trkpt>
      <trkpt lat="46.74538" lon="-1.90629">
        <ele>4</ele>
        <time>2018-03-25T09:23:12Z</time>
      </trkpt>
      <trkpt lat="46.74549" lon="-1.90627">
        <ele>3</ele>
        <time>2018-03-25T09:24:12Z</time>
      </trkpt>
      <trkpt lat="46.74552" lon="-1.90625">
        <ele>3</ele>
        <time>2018-03-25T09:25:12Z</time>
      </trkpt>
      <trkpt lat="46.74567" lon="-1.90615">
        <ele>3</ele>
        <time>2018-03-25T09:26:12Z</time>
      </trkpt>
      <trkpt lat="46.74573" lon="-1.9061">
        <ele>3</ele>
        <time>2018-03-25T09:27:12Z</time>
      </trkpt>
      <trkpt lat="46.74591" lon="-1.90595">
        <ele>2</ele>
        <time>2018-03-25T09:28:12Z</time>
      </trkpt>
      <trkpt lat="46.74603" lon="-1.90586">
        <ele>2</ele>
        <time>2018-03-25T09:29:12Z</time>
      </trkpt>
      <trkpt lat="46.74612" lon="-1.90578">
        <ele>2</ele>
        <time>2018-03-25T09:30:12Z</time>
      </trkpt>
      <trkpt lat="46.74618" lon="-1.90573">
        <ele>2</ele>
        <time>2018-03-25T09:31:12Z</time>
      </trkpt>
      <trkpt lat="46.74672" lon="-1.90525">
        <ele>3</ele>
        <time>2018-03-25T09:32:12Z</time>
      </trkpt>
      <trkpt lat="46.74727" lon="-1.90479">
        <ele>4</ele>
        <time>2018-03-25T09:33:12Z</time>
      </trkpt>
      <trkpt lat="46.7473" lon="-1.90477">
        <ele>4</ele>
        <time>2018-03-25T09:34:12Z</time>
      </trkpt>
      <trkpt lat="46.74758" lon="-1.90455">
        <ele>4</ele>
        <time>2018-03-25T09:35:12Z</time>
      </trkpt>
      <trkpt lat="46.74812" lon="-1.90415">
        <ele>4</ele>
        <time>2018-03-25T09:36:12Z</time>
      </trkpt>
      <trkpt lat="46.74824" lon="-1.90396">
        <ele>4</ele>
        <time>2018-03-25T09:37:12Z</time>
      </trkpt>
      <trkpt lat="46.74826" lon="-1.90393">
        <ele>4</ele>
        <time>2018-03-25T09:38:12Z</time>
      </trkpt>
      <trkpt lat="46.74827" lon="-1.9039">
        <ele>4</ele>
        <time>2018-03-25T09:39:12Z</time>
      </trkpt>
      <trkpt lat="46.74828" lon="-1.90387">
        <ele>4</ele>
        <time>2018-03-25T09:40:12Z</time>
      </trkpt>
      <trkpt lat="46.74833" lon="-1.90376">
        <ele>4</ele>
        <time>2018-03-25T09:41:12Z</time>
      </trkpt>
      <trkpt lat="46.74837" lon="-1.90359">
        <ele>5</ele>
        <time>2018-03-25T09:42:12Z</time>
      </trkpt>
      <trkpt lat="46.74841" lon="-1.9034">
        <ele>5</ele>
        <time>2018-03-25T09:43:12Z</time>
      </trkpt>
      <trkpt lat="46.74845" lon="-1.90331">
        <ele>5</ele>
        <time>2018-03-25T09:44:12Z</time>
      </trkpt>
      <trkpt lat="46.74846" lon="-1.90329">
        <ele>5</ele>
        <time>2018-03-25T09:45:12Z</time>
      </trkpt>
      <trkpt lat="46.74849" lon="-1.90315">
        <ele>5</ele>
        <time>2018-03-25T09:46:12Z</time>
      </trkpt>
      <trkpt lat="46.74851" lon="-1.90299">
        <ele>5</ele>
        <time>2018-03-25T09:47:12Z</time>
      </trkpt>
      <trkpt lat="46.74852" lon="-1.90282">
        <ele>5</ele>
        <time>2018-03-25T09:48:12Z</time>
      </trkpt>
      <trkpt lat="46.74853" lon="-1.90275">
        <ele>6</ele>
        <time>2018-03-25T09:49:12Z</time>
      </trkpt>
      <trkpt lat="46.74853" lon="-1.90266">
        <ele>6</ele>
        <time>2018-03-25T09:50:12Z</time>
      </trkpt>
      <trkpt lat="46.74855" lon="-1.90247">
        <ele>6</ele>
        <time>2018-03-25T09:51:12Z</time>
      </trkpt>
      <trkpt lat="46.74855" lon="-1.90226">
        <ele>6</ele>
        <time>2018-03-25T09:52:12Z</time>
      </trkpt>
      <trkpt lat="46.74856" lon="-1.90215">
        <ele>6</ele>
        <time>2018-03-25T09:53:12Z</time>
      </trkpt>
      <trkpt lat="46.74857" lon="-1.90195">
        <ele>6</ele>
        <time>2018-03-25T09:54:12Z</time>
      </trkpt>
      <trkpt lat="46.74857" lon="-1.90183">
        <ele>6</ele>
        <time>2018-03-25T09:55:12Z</time>
      </trkpt>
      <trkpt lat="46.74857" lon="-1.9018">
        <ele>6</ele>
        <time>2018-03-25T09:56:12Z</time>
      </trkpt>
      <trkpt lat="46.74857" lon="-1.90159">
        <ele>6</ele>
        <time>2018-03-25T09:57:12Z</time>
      </trkpt>
      <trkpt lat="46.74856" lon="-1.90129">
        <ele>6</ele>
        <time>2018-03-25T09:58:12Z</time>
      </trkpt>
      <trkpt lat="46.74852" lon="-1.90014">
        <ele>6</ele>
        <time>2018-03-25T09:59:12Z</time>
      </trkpt>
      <trkpt lat="46.7485" lon="-1.89954">
        <ele>6</ele>
        <time>2018-03-25T10:00:12Z</time>
      </trkpt>
      <trkpt lat="46.74849" lon="-1.89943">
        <ele>6</ele>
        <time>2018-03-25T10:01:12Z</time>
      </trkpt>
      <trkpt lat="46.7485" lon="-1.89908">
        <ele>6</ele>
        <time>2018-03-25T10:02:12Z</time>
      </trkpt>
      <trkpt lat="46.7485" lon="-1.8988">
        <ele>6</ele>
        <time>2018-03-25T10:03:12Z</time>
      </trkpt>
      <trkpt lat="46.74849" lon="-1.89871">
        <ele>6</ele>
        <time>2018-03-25T10:04:12Z</time>
      </trkpt>
      <trkpt lat="46.74848" lon="-1.89861">
        <ele>6</ele>
        <time>2018-03-25T10:05:12Z</time>
      </trkpt>
      <trkpt lat="46.74848" lon="-1.89855">
        <ele>7</ele>
        <time>2018-03-25T10:06:12Z</time>
      </trkpt>
      <trkpt lat="46.74845" lon="-1.89818">
        <ele>7</ele>
        <time>2018-03-25T10:07:12Z</time>
      </trkpt>
      <trkpt lat="46.74844" lon="-1.89797">
        <ele>7</ele>
        <time>2018-03-25T10:08:12Z</time>
      </trkpt>
      <trkpt lat="46.74844" lon="-1.89793">
        <ele>7</ele>
        <time>2018-03-25T10:09:12Z</time>
      </trkpt>
      <trkpt lat="46.74844" lon="-1.89789">
        <ele>7</ele>
        <time>2018-03-25T10:10:12Z</time>
      </trkpt>
      <trkpt lat="46.74845" lon="-1.89778">
        <ele>7</ele>
        <time>2018-03-25T10:11:12Z</time>
      </trkpt>
      <trkpt lat="46.74844" lon="-1.89745">
        <ele>7</ele>
        <time>2018-03-25T10:12:12Z</time>
      </trkpt>
      <trkpt lat="46.74843" lon="-1.89721">
        <ele>8</ele>
        <time>2018-03-25T10:13:12Z</time>
      </trkpt>
      <trkpt lat="46.74843" lon="-1.89717">
        <ele>8</ele>
        <time>2018-03-25T10:14:12Z</time>
      </trkpt>
      <trkpt lat="46.74843" lon="-1.8971">
        <ele>8</ele>
        <time>2018-03-25T10:15:12Z</time>
      </trkpt>
      <trkpt lat="46.74843" lon="-1.89689">
        <ele>8</ele>
        <time>2018-03-25T10:16:12Z</time>
      </trkpt>
      <trkpt lat="46.74843" lon="-1.89675">
        <ele>9</ele>
        <time>2018-03-25T10:17:12Z</time>
      </trkpt>
      <trkpt lat="46.74843" lon="-1.89647">
        <ele>9</ele>
        <time>2018-03-25T10:18:12Z</time>
      </trkpt>
      <trkpt lat="46.74842" lon="-1.89634">
        <ele>9</ele>
        <time>2018-03-25T10:19:12Z</time>
      </trkpt>
      <trkpt lat="46.74842" lon="-1.89606">
        <ele>8</ele>
        <time>2018-03-25T10:20:12Z</time>
      </trkpt>
      <trkpt lat="46.74842" lon="-1.89571">
        <ele>8</ele>
        <time>2018-03-25T10:21:12Z</time>
      </trkpt>
      <trkpt lat="46.74842" lon="-1.8955">
        <ele>8</ele>
        <time>2018-03-25T10:22:12Z</time>
      </trkpt>
      <trkpt lat="46.74843" lon="-1.89509">
        <ele>8</ele>
        <time>2018-03-25T10:23:12Z</time>
      </trkpt>
      <trkpt lat="46.74843" lon="-1.895">
        <ele>8</ele>
        <time>2018-03-25T10:24:12Z</time>
      </trkpt>
      <trkpt lat="46.74843" lon="-1.89466">
        <ele>8</ele>
        <time>2018-03-25T10:25:12Z</time>
      </trkpt>
      <trkpt lat="46.74843" lon="-1.89447">
        <ele>8</ele>
        <time>2018-03-25T10:26:12Z</time>
      </trkpt>
      <trkpt lat="46.74843" lon="-1.89423">
        <ele>8</ele>
        <time>2018-03-25T10:27:12Z</time>
      </trkpt>
      <trkpt lat="46.74843" lon="-1.89411">
        <ele>8</ele>
        <time>2018-03-25T10:28:12Z</time>
      </trkpt>
      <trkpt lat="46.74842" lon="-1.89383">
        <ele>8</ele>
        <time>2018-03-25T10:29:12Z</time>
      </trkpt>
      <trkpt lat="46.74842" lon="-1.89372">
        <ele>8</ele>
        <time>2018-03-25T10:30:12Z</time>
      </trkpt>
      <trkpt lat="46.74842" lon="-1.89365">
        <ele>8</ele>
        <time>2018-03-25T10:31:12Z</time>
      </trkpt>
      <trkpt lat="46.74842" lon="-1.89349">
        <ele>8</ele>
        <time>2018-03-25T10:32:12Z</time>
      </trkpt>
      <trkpt lat="46.74841" lon="-1.89332">
        <ele>8</ele>
        <time>2018-03-25T10:33:12Z</time>
      </trkpt>
      <trkpt lat="46.7484" lon="-1.89315">
        <ele>8</ele>
        <time>2018-03-25T10:34:12Z</time>
      </trkpt>
      <trkpt lat="46.74838" lon="-1.89279">
        <ele>9</ele>
        <time>2018-03-25T10:35:12Z</time>
      </trkpt>
      <trkpt lat="46.74834" lon="-1.89221">
        <ele>10</ele>
        <time>2018-03-25T10:36:12Z</time>
      </trkpt>
      <trkpt lat="46.74831" lon="-1.89174">
        <ele>11</ele>
        <time>2018-03-25T10:37:12Z</time>
      </trkpt>
      <trkpt lat="46.74828" lon="-1.8912">
        <ele>11</ele>
        <time>2018-03-25T10:38:12Z</time>
      </trkpt>
      <trkpt lat="46.74826" lon="-1.89092">
        <ele>11</ele>
        <time>2018-03-25T10:39:12Z</time>
      </trkpt>
      <trkpt lat="46.74825" lon="-1.89073">
        <ele>11</ele>
        <time>2018-03-25T10:40:12Z</time>
      </trkpt>
      <trkpt lat="46.74825" lon="-1.89055">
        <ele>11</ele>
        <time>2018-03-25T10:41:12Z</time>
      </trkpt>
      <trkpt lat="46.74824" lon="-1.8904">
        <ele>11</ele>
        <time>2018-03-25T10:42:12Z</time>
      </trkpt>
      <trkpt lat="46.74824" lon="-1.89025">
        <ele>11</ele>
        <time>2018-03-25T10:43:12Z</time>
      </trkpt>
      <trkpt lat="46.74824" lon="-1.89008">
        <ele>11</ele>
        <time>2018-03-25T10:44:12Z</time>
      </trkpt>
      <trkpt lat="46.74825" lon="-1.88973">
        <ele>11</ele>
        <time>2018-03-25T10:45:12Z</time>
      </trkpt>
      <trkpt lat="46.74826" lon="-1.88934">
        <ele>12</ele>
        <time>2018-03-25T10:46:12Z</time>
      </trkpt>
      <trkpt lat="46.74826" lon="-1.88892">
        <ele>12</ele>
        <time>2018-03-25T10:47:12Z</time>
      </trkpt>
      <trkpt lat="46.74827" lon="-1.88854">
        <ele>12</ele>
        <time>2018-03-25T10:48:12Z</time>
      </trkpt>
      <trkpt lat="46.74829" lon="-1.88817">
        <ele>12</ele>
        <time>2018-03-25T10:49:12Z</time>
      </trkpt>
      <trkpt lat="46.7483" lon="-1.8879">
        <ele>12</ele>
        <time>2018-03-25T10:50:12Z</time>
      </trkpt>
      <trkpt lat="46.74832" lon="-1.8877">
        <ele>12</ele>
        <time>2018-03-25T10:51:12Z</time>
      </trkpt>
      <trkpt lat="46.74834" lon="-1.88748">
        <ele>12</ele>
        <time>2018-03-25T10:52:12Z</time>
      </trkpt>
      <trkpt lat="46.74839" lon="-1.88686">
        <ele>12</ele>
        <time>2018-03-25T10:53:12Z</time>
      </trkpt>
      <trkpt lat="46.74846" lon="-1.88622">
        <ele>12</ele>
        <time>2018-03-25T10:54:12Z</time>
      </trkpt>
      <trkpt lat="46.7485" lon="-1.88595">
        <ele>11</ele>
        <time>2018-03-25T10:55:12Z</time>
      </trkpt>
      <trkpt lat="46.74853" lon="-1.88575">
        <ele>11</ele>
        <time>2018-03-25T10:56:12Z</time>
      </trkpt>
      <trkpt lat="46.74856" lon="-1.88561">
        <ele>12</ele>
        <time>2018-03-25T10:57:12Z</time>
      </trkpt>
      <trkpt lat="46.7486" lon="-1.88545">
        <ele>12</ele>
        <time>2018-03-25T10:58:12Z</time>
      </trkpt>
      <trkpt lat="46.74881" lon="-1.88465">
        <ele>12</ele>
        <time>2018-03-25T10:59:12Z</time>
      </trkpt>
      <trkpt lat="46.74883" lon="-1.88454">
        <ele>11</ele>
        <time>2018-03-25T11:00:12Z</time>
      </trkpt>
      <trkpt lat="46.74896" lon="-1.88406">
        <ele>11</ele>
        <time>2018-03-25T11:01:12Z</time>
      </trkpt>
      <trkpt lat="46.74914" lon="-1.88342">
        <ele>13</ele>
        <time>2018-03-25T11:02:12Z</time>
      </trkpt>
      <trkpt lat="46.74925" lon="-1.883">
        <ele>13</ele>
        <time>2018-03-25T11:03:12Z</time>
      </trkpt>
      <trkpt lat="46.74934" lon="-1.88272">
        <ele>13</ele>
        <time>2018-03-25T11:04:12Z</time>
      </trkpt>
      <trkpt lat="46.74938" lon="-1.88258">
        <ele>13</ele>
        <time>2018-03-25T11:05:12Z</time>
      </trkpt>
      <trkpt lat="46.74943" lon="-1.88246">
        <ele>12</ele>
        <time>2018-03-25T11:06:12Z</time>
      </trkpt>
      <trkpt lat="46.74948" lon="-1.88233">
        <ele>12</ele>
        <time>2018-03-25T11:07:12Z</time>
      </trkpt>
      <trkpt lat="46.74954" lon="-1.88221">
        <ele>11</ele>
        <time>2018-03-25T11:08:12Z</time>
      </trkpt>
      <trkpt lat="46.7496" lon="-1.88208">
        <ele>11</ele>
        <time>2018-03-25T11:09:12Z</time>
      </trkpt>
      <trkpt lat="46.74967" lon="-1.88193">
        <ele>10</ele>
        <time>2018-03-25T11:10:12Z</time>
      </trkpt>
      <trkpt lat="46.74976" lon="-1.88179">
        <ele>10</ele>
        <time>2018-03-25T11:11:12Z</time>
      </trkpt>
      <trkpt lat="46.7499" lon="-1.88159">
        <ele>9</ele>
        <time>2018-03-25T11:12:12Z</time>
      </trkpt>
      <trkpt lat="46.75019" lon="-1.88119">
        <ele>9</ele>
        <time>2018-03-25T11:13:12Z</time>
      </trkpt>
      <trkpt lat="46.75026" lon="-1.8811">
        <ele>9</ele>
        <time>2018-03-25T11:14:12Z</time>
      </trkpt>
      <trkpt lat="46.75039" lon="-1.88095">
        <ele>9</ele>
        <time>2018-03-25T11:15:12Z</time>
      </trkpt>
      <trkpt lat="46.75058" lon="-1.8807">
        <ele>9</ele>
        <time>2018-03-25T11:16:12Z</time>
      </trkpt>
      <trkpt lat="46.75083" lon="-1.88037">
        <ele>9</ele>
        <time>2018-03-25T11:17:12Z</time>
      </trkpt>
      <trkpt lat="46.75098" lon="-1.88016">
        <ele>10</ele>
        <time>2018-03-25T11:18:12Z</time>
      </trkpt>
      <trkpt lat="46.75106" lon="-1.88003">
        <ele>10</ele>
        <time>2018-03-25T11:19:12Z</time>
      </trkpt>
      <trkpt lat="46.75111" lon="-1.87992">
        <ele>10</ele>
        <time>2018-03-25T11:20:12Z</time>
      </trkpt>
      <trkpt lat="46.75114" lon="-1.87984">
        <ele>11</ele>
        <time>2018-03-25T11:21:12Z</time>
      </trkpt>
      <trkpt lat="46.75118" lon="-1.87973">
        <ele>11</ele>
        <time>2018-03-25T11:22:12Z</time>
      </trkpt>
      <trkpt lat="46.75123" lon="-1.87957">
        <ele>11</ele>
        <time>2018-03-25T11:23:12Z</time>
      </trkpt>
      <trkpt lat="46.75126" lon="-1.87941">
        <ele>12</ele>
        <time>2018-03-25T11:24:12Z</time>
      </trkpt>
      <trkpt lat="46.75129" lon="-1.87925">
        <ele>12</ele>
        <time>2018-03-25T11:25:12Z</time>
      </trkpt>
      <trkpt lat="46.75131" lon="-1.87908">
        <ele>12</ele>
        <time>2018-03-25T11:26:12Z</time>
      </trkpt>
      <trkpt lat="46.75134" lon="-1.87889">
        <ele>12</ele>
        <time>2018-03-25T11:27:12Z</time>
      </trkpt>
      <trkpt lat="46.75136" lon="-1.87871">
        <ele>11</ele>
        <time>2018-03-25T11:28:12Z</time>
      </trkpt>
      <trkpt lat="46.75138" lon="-1.87851">
        <ele>11</ele>
        <time>2018-03-25T11:29:12Z</time>
      </trkpt>
      <trkpt lat="46.7514" lon="-1.87824">
        <ele>11</ele>
        <time>2018-03-25T11:30:12Z</time>
      </trkpt>
      <trkpt lat="46.75142" lon="-1.87797">
        <ele>11</ele>
        <time>2018-03-25T11:31:12Z</time>
      </trkpt>
      <trkpt lat="46.75144" lon="-1.87765">
        <ele>11</ele>
        <time>2018-03-25T11:32:12Z</time>
      </trkpt>
      <trkpt lat="46.75145" lon="-1.87742">
        <ele>11</ele>
        <time>2018-03-25T11:33:12Z</time>
      </trkpt>
      <trkpt lat="46.75147" lon="-1.87715">
        <ele>11</ele>
        <time>2018-03-25T11:34:12Z</time>
      </trkpt>
      <trkpt lat="46.75149" lon="-1.8768">
        <ele>11</ele>
        <time>2018-03-25T11:35:12Z</time>
      </trkpt>
      <trkpt lat="46.75149" lon="-1.87652">
        <ele>12</ele>
        <time>2018-03-25T11:36:12Z</time>
      </trkpt>
      <trkpt lat="46.7515" lon="-1.87634">
        <ele>12</ele>
        <time>2018-03-25T11:37:12Z</time>
      </trkpt>
      <trkpt lat="46.7515" lon="-1.87615">
        <ele>12</ele>
        <time>2018-03-25T11:38:12Z</time>
      </trkpt>
      <trkpt lat="46.75149" lon="-1.87581">
        <ele>12</ele>
        <time>2018-03-25T11:39:12Z</time>
      </trkpt>
      <trkpt lat="46.75149" lon="-1.87548">
        <ele>13</ele>
        <time>2018-03-25T11:40:12Z</time>
      </trkpt>
      <trkpt lat="46.75148" lon="-1.87517">
        <ele>13</ele>
        <time>2018-03-25T11:41:12Z</time>
      </trkpt>
      <trkpt lat="46.75146" lon="-1.8748">
        <ele>13</ele>
        <time>2018-03-25T11:42:12Z</time>
      </trkpt>
      <trkpt lat="46.75144" lon="-1.8744">
        <ele>13</ele>
        <time>2018-03-25T11:43:12Z</time>
      </trkpt>
      <trkpt lat="46.7514" lon="-1.87388">
        <ele>13</ele>
        <time>2018-03-25T11:44:12Z</time>
      </trkpt>
      <trkpt lat="46.75135" lon="-1.87327">
        <ele>13</ele>
        <time>2018-03-25T11:45:12Z</time>
      </trkpt>
      <trkpt lat="46.75132" lon="-1.87295">
        <ele>14</ele>
        <time>2018-03-25T11:46:12Z</time>
      </trkpt>
      <trkpt lat="46.75132" lon="-1.87281">
        <ele>14</ele>
        <time>2018-03-25T11:47:12Z</time>
      </trkpt>
      <trkpt lat="46.75131" lon="-1.87259">
        <ele>15</ele>
        <time>2018-03-25T11:48:12Z</time>
      </trkpt>
      <trkpt lat="46.75132" lon="-1.87241">
        <ele>15</ele>
        <time>2018-03-25T11:49:12Z</time>
      </trkpt>
      <trkpt lat="46.75133" lon="-1.87222">
        <ele>15</ele>
        <time>2018-03-25T11:50:12Z</time>
      </trkpt>
      <trkpt lat="46.75134" lon="-1.87212">
        <ele>16</ele>
        <time>2018-03-25T11:51:12Z</time>
      </trkpt>
      <trkpt lat="46.75136" lon="-1.87195">
        <ele>16</ele>
        <time>2018-03-25T11:52:12Z</time>
      </trkpt>
      <trkpt lat="46.75138" lon="-1.8718">
        <ele>16</ele>
        <time>2018-03-25T11:53:12Z</time>
      </trkpt>
      <trkpt lat="46.75142" lon="-1.87159">
        <ele>17</ele>
        <time>2018-03-25T11:54:12Z</time>
      </trkpt>
      <trkpt lat="46.75142" lon="-1.87151">
        <ele>17</ele>
        <time>2018-03-25T11:55:12Z</time>
      </trkpt>
      <trkpt lat="46.75143" lon="-1.87144">
        <ele>17</ele>
        <time>2018-03-25T11:56:12Z</time>
      </trkpt>
      <trkpt lat="46.75145" lon="-1.87131">
        <ele>17</ele>
        <time>2018-03-25T11:57:12Z</time>
      </trkpt>
      <trkpt lat="46.75147" lon="-1.87119">
        <ele>17</ele>
        <time>2018-03-25T11:58:12Z</time>
      </trkpt>
      <trkpt lat="46.75148" lon="-1.87108">
        <ele>17</ele>
        <time>2018-03-25T11:59:12Z</time>
      </trkpt>
      <trkpt lat="46.75148" lon="-1.87097">
        <ele>16</ele>
        <time>2018-03-25T12:00:12Z</time>
      </trkpt>
      <trkpt lat="46.75149" lon="-1.87086">
        <ele>16</ele>
        <time>2018-03-25T12:01:12Z</time>
      </trkpt>
      <trkpt lat="46.75148" lon="-1.87078">
        <ele>16</ele>
        <time>2018-03-25T12:02:12Z</time>
      </trkpt>
      <trkpt lat="46.75148" lon="-1.87072">
        <ele>16</ele>
        <time>2018-03-25T12:03:12Z</time>
      </trkpt>
      <trkpt lat="46.75147" lon="-1.87059">
        <ele>16</ele>
        <time>2018-03-25T12:04:12Z</time>
      </trkpt>
      <trkpt lat="46.75147" lon="-1.87059">
        <ele>16</ele>
        <time>2018-03-25T12:05:12Z</time>
      </trkpt>
      <trkpt lat="46.75144" lon="-1.87055">
        <ele>16</ele>
        <time>2018-03-25T12:06:12Z</time>
      </trkpt>
      <trkpt lat="46.75142" lon="-1.8705">
        <ele>16</ele>
        <time>2018-03-25T12:07:12Z</time>
      </trkpt>
      <trkpt lat="46.7514" lon="-1.87045">
        <ele>16</ele>
        <time>2018-03-25T12:08:12Z</time>
      </trkpt>
      <trkpt lat="46.75139" lon="-1.8704">
        <ele>16</ele>
        <time>2018-03-25T12:09:12Z</time>
      </trkpt>
      <trkpt lat="46.75139" lon="-1.87036">
        <ele>16</ele>
        <time>2018-03-25T12:10:12Z</time>
      </trkpt>
      <trkpt lat="46.7514" lon="-1.87028">
        <ele>16</ele>
        <time>2018-03-25T12:11:12Z</time>
      </trkpt>
      <trkpt lat="46.75143" lon="-1.87019">
        <ele>16</ele>
        <time>2018-03-25T12:12:12Z</time>
      </trkpt>
      <trkpt lat="46.75147" lon="-1.87011">
        <ele>16</ele>
        <time>2018-03-25T12:13:12Z</time>
      </trkpt>
      <trkpt lat="46.75149" lon="-1.8701">
        <ele>16</ele>
        <time>2018-03-25T12:14:12Z</time>
      </trkpt>
      <trkpt lat="46.75151" lon="-1.87007">
        <ele>16</ele>
        <time>2018-03-25T12:15:12Z</time>
      </trkpt>
      <trkpt lat="46.75153" lon="-1.87006">
        <ele>16</ele>
        <time>2018-03-25T12:16:12Z</time>
      </trkpt>
      <trkpt lat="46.75156" lon="-1.87005">
        <ele>16</ele>
        <time>2018-03-25T12:17:12Z</time>
      </trkpt>
      <trkpt lat="46.75159" lon="-1.87005">
        <ele>17</ele>
        <time>2018-03-25T12:18:12Z</time>
      </trkpt>
      <trkpt lat="46.75161" lon="-1.87006">
        <ele>17</ele>
        <time>2018-03-25T12:19:12Z</time>
      </trkpt>
      <trkpt lat="46.75164" lon="-1.87007">
        <ele>17</ele>
        <time>2018-03-25T12:20:12Z</time>
      </trkpt>
      <trkpt lat="46.75173" lon="-1.86993">
        <ele>17</ele>
        <time>2018-03-25T12:21:12Z</time>
      </trkpt>
      <trkpt lat="46.75179" lon="-1.86983">
        <ele>17</ele>
        <time>2018-03-25T12:22:12Z</time>
      </trkpt>
      <trkpt lat="46.75185" lon="-1.8697">
        <ele>17</ele>
        <time>2018-03-25T12:23:12Z</time>
      </trkpt>
      <trkpt lat="46.75193" lon="-1.86941">
        <ele>17</ele>
        <time>2018-03-25T12:24:12Z</time>
      </trkpt>
      <trkpt lat="46.75204" lon="-1.86904">
        <ele>18</ele>
        <time>2018-03-25T12:25:12Z</time>
      </trkpt>
      <trkpt lat="46.75217" lon="-1.86859">
        <ele>18</ele>
        <time>2018-03-25T12:26:12Z</time>
      </trkpt>
      <trkpt lat="46.75225" lon="-1.86832">
        <ele>18</ele>
        <time>2018-03-25T12:27:12Z</time>
      </trkpt>
      <trkpt lat="46.75233" lon="-1.86808">
        <ele>18</ele>
        <time>2018-03-25T12:28:12Z</time>
      </trkpt>
      <trkpt lat="46.75236" lon="-1.868">
        <ele>17</ele>
        <time>2018-03-25T12:29:12Z</time>
      </trkpt>
      <trkpt lat="46.75246" lon="-1.86771">
        <ele>17</ele>
        <time>2018-03-25T12:30:12Z</time>
      </trkpt>
      <trkpt lat="46.75252" lon="-1.86754">
        <ele>17</ele>
        <time>2018-03-25T12:31:12Z</time>
      </trkpt>
      <trkpt lat="46.75264" lon="-1.86722">
        <ele>17</ele>
        <time>2018-03-25T12:32:12Z</time>
      </trkpt>
      <trkpt lat="46.7528" lon="-1.86682">
        <ele>18</ele>
        <time>2018-03-25T12:33:12Z</time>
      </trkpt>
      <trkpt lat="46.75292" lon="-1.8665">
        <ele>18</ele>
        <time>2018-03-25T12:34:12Z</time>
      </trkpt>
      <trkpt lat="46.753" lon="-1.86632">
        <ele>18</ele>
        <time>2018-03-25T12:35:12Z</time>
      </trkpt>
      <trkpt lat="46.75308" lon="-1.86612">
        <ele>18</ele>
        <time>2018-03-25T12:36:12Z</time>
      </trkpt>
      <trkpt lat="46.7531" lon="-1.86608">
        <ele>18</ele>
        <time>2018-03-25T12:37:12Z</time>
      </trkpt>
      <trkpt lat="46.75316" lon="-1.86596">
        <ele>18</ele>
        <time>2018-03-25T12:38:12Z</time>
      </trkpt>
      <trkpt lat="46.75321" lon="-1.86586">
        <ele>18</ele>
        <time>2018-03-25T12:39:12Z</time>
      </trkpt>
      <trkpt lat="46.75327" lon="-1.86575">
        <ele>18</ele>
        <time>2018-03-25T12:40:12Z</time>
      </trkpt>
      <trkpt lat="46.75333" lon="-1.86564">
        <ele>18</ele>
        <time>2018-03-25T12:41:12Z</time>
      </trkpt>
      <trkpt lat="46.75335" lon="-1.8656">
        <ele>18</ele>
        <time>2018-03-25T12:42:12Z</time>
      </trkpt>
      <trkpt lat="46.75345" lon="-1.86543">
        <ele>18</ele>
        <time>2018-03-25T12:43:12Z</time>
      </trkpt>
      <trkpt lat="46.7536" lon="-1.86518">
        <ele>18</ele>
        <time>2018-03-25T12:44:12Z</time>
      </trkpt>
      <trkpt lat="46.75372" lon="-1.86496">
        <ele>18</ele>
        <time>2018-03-25T12:45:12Z</time>
      </trkpt>
      <trkpt lat="46.75386" lon="-1.86469">
        <ele>18</ele>
        <time>2018-03-25T12:46:12Z</time>
      </trkpt>
      <trkpt lat="46.75396" lon="-1.86449">
        <ele>17</ele>
        <time>2018-03-25T12:47:12Z</time>
      </trkpt>
      <trkpt lat="46.75407" lon="-1.86422">
        <ele>16</ele>
        <time>2018-03-25T12:48:12Z</time>
      </trkpt>
      <trkpt lat="46.75417" lon="-1.86395">
        <ele>16</ele>
        <time>2018-03-25T12:49:12Z</time>
      </trkpt>
      <trkpt lat="46.75424" lon="-1.86374">
        <ele>17</ele>
        <time>2018-03-25T12:50:12Z</time>
      </trkpt>
      <trkpt lat="46.75429" lon="-1.8636">
        <ele>17</ele>
        <time>2018-03-25T12:51:12Z</time>
      </trkpt>
      <trkpt lat="46.75432" lon="-1.86348">
        <ele>17</ele>
        <time>2018-03-25T12:52:12Z</time>
      </trkpt>
      <trkpt lat="46.75436" lon="-1.86334">
        <ele>17</ele>
        <time>2018-03-25T12:53:12Z</time>
      </trkpt>
      <trkpt lat="46.75438" lon="-1.86321">
        <ele>17</ele>
        <time>2018-03-25T12:54:12Z</time>
      </trkpt>
      <trkpt lat="46.75441" lon="-1.86306">
        <ele>17</ele>
        <time>2018-03-25T12:55:12Z</time>
      </trkpt>
      <trkpt lat="46.75443" lon="-1.8629">
        <ele>17</ele>
        <time>2018-03-25T12:56:12Z</time>
      </trkpt>
      <trkpt lat="46.75446" lon="-1.86272">
        <ele>17</ele>
        <time>2018-03-25T12:57:12Z</time>
      </trkpt>
      <trkpt lat="46.75452" lon="-1.8623">
        <ele>17</ele>
        <time>2018-03-25T12:58:12Z</time>
      </trkpt>
      <trkpt lat="46.75452" lon="-1.86222">
        <ele>17</ele>
        <time>2018-03-25T12:59:12Z</time>
      </trkpt>
      <trkpt lat="46.75452" lon="-1.86221">
        <ele>17</ele>
        <time>2018-03-25T13:00:12Z</time>
      </trkpt>
      <trkpt lat="46.75456" lon="-1.86188">
        <ele>17</ele>
        <time>2018-03-25T13:01:12Z</time>
      </trkpt>
      <trkpt lat="46.75464" lon="-1.8613">
        <ele>17</ele>
        <time>2018-03-25T13:02:12Z</time>
      </trkpt>
      <trkpt lat="46.75474" lon="-1.86059">
        <ele>17</ele>
        <time>2018-03-25T13:03:12Z</time>
      </trkpt>
      <trkpt lat="46.75482" lon="-1.86004">
        <ele>17</ele>
        <time>2018-03-25T13:04:12Z</time>
      </trkpt>
      <trkpt lat="46.75486" lon="-1.85986">
        <ele>18</ele>
        <time>2018-03-25T13:05:12Z</time>
      </trkpt>
      <trkpt lat="46.7549" lon="-1.85969">
        <ele>18</ele>
        <time>2018-03-25T13:06:12Z</time>
      </trkpt>
      <trkpt lat="46.75493" lon="-1.85957">
        <ele>18</ele>
        <time>2018-03-25T13:07:12Z</time>
      </trkpt>
      <trkpt lat="46.75495" lon="-1.8595">
        <ele>18</ele>
        <time>2018-03-25T13:08:12Z</time>
      </trkpt>
      <trkpt lat="46.75499" lon="-1.8593">
        <ele>18</ele>
        <time>2018-03-25T13:09:12Z</time>
      </trkpt>
      <trkpt lat="46.75506" lon="-1.85905">
        <ele>18</ele>
        <time>2018-03-25T13:10:12Z</time>
      </trkpt>
      <trkpt lat="46.75512" lon="-1.85881">
        <ele>19</ele>
        <time>2018-03-25T13:11:12Z</time>
      </trkpt>
      <trkpt lat="46.7552" lon="-1.85851">
        <ele>20</ele>
        <time>2018-03-25T13:12:12Z</time>
      </trkpt>
      <trkpt lat="46.75523" lon="-1.85839">
        <ele>20</ele>
        <time>2018-03-25T13:13:12Z</time>
      </trkpt>
      <trkpt lat="46.75531" lon="-1.85811">
        <ele>20</ele>
        <time>2018-03-25T13:14:12Z</time>
      </trkpt>
      <trkpt lat="46.75534" lon="-1.858">
        <ele>20</ele>
        <time>2018-03-25T13:15:12Z</time>
      </trkpt>
      <trkpt lat="46.75537" lon="-1.85788">
        <ele>19</ele>
        <time>2018-03-25T13:16:12Z</time>
      </trkpt>
      <trkpt lat="46.75545" lon="-1.85759">
        <ele>19</ele>
        <time>2018-03-25T13:17:12Z</time>
      </trkpt>
      <trkpt lat="46.75558" lon="-1.85712">
        <ele>19</ele>
        <time>2018-03-25T13:18:12Z</time>
      </trkpt>
      <trkpt lat="46.75568" lon="-1.85675">
        <ele>20</ele>
        <time>2018-03-25T13:19:12Z</time>
      </trkpt>
      <trkpt lat="46.75574" lon="-1.85653">
        <ele>20</ele>
        <time>2018-03-25T13:20:12Z</time>
      </trkpt>
      <trkpt lat="46.75581" lon="-1.85631">
        <ele>20</ele>
        <time>2018-03-25T13:21:12Z</time>
      </trkpt>
      <trkpt lat="46.75588" lon="-1.8561">
        <ele>21</ele>
        <time>2018-03-25T13:22:12Z</time>
      </trkpt>
      <trkpt lat="46.75594" lon="-1.85592">
        <ele>21</ele>
        <time>2018-03-25T13:23:12Z</time>
      </trkpt>
      <trkpt lat="46.756" lon="-1.85575">
        <ele>21</ele>
        <time>2018-03-25T13:24:12Z</time>
      </trkpt>
      <trkpt lat="46.75606" lon="-1.85556">
        <ele>21</ele>
        <time>2018-03-25T13:25:12Z</time>
      </trkpt>
      <trkpt lat="46.75615" lon="-1.85532">
        <ele>20</ele>
        <time>2018-03-25T13:26:12Z</time>
      </trkpt>
      <trkpt lat="46.75616" lon="-1.85529">
        <ele>20</ele>
        <time>2018-03-25T13:27:12Z</time>
      </trkpt>
      <trkpt lat="46.75624" lon="-1.85508">
        <ele>20</ele>
        <time>2018-03-25T13:28:12Z</time>
      </trkpt>
      <trkpt lat="46.75636" lon="-1.85478">
        <ele>20</ele>
        <time>2018-03-25T13:29:12Z</time>
      </trkpt>
      <trkpt lat="46.75654" lon="-1.85434">
        <ele>19</ele>
        <time>2018-03-25T13:30:12Z</time>
      </trkpt>
      <trkpt lat="46.75691" lon="-1.85347">
        <ele>21</ele>
        <time>2018-03-25T13:31:12Z</time>
      </trkpt>
      <trkpt lat="46.75711" lon="-1.85301">
        <ele>22</ele>
        <time>2018-03-25T13:32:12Z</time>
      </trkpt>
      <trkpt lat="46.75722" lon="-1.85275">
        <ele>21</ele>
        <time>2018-03-25T13:33:12Z</time>
      </trkpt>
      <trkpt lat="46.75734" lon="-1.85247">
        <ele>21</ele>
        <time>2018-03-25T13:34:12Z</time>
      </trkpt>
      <trkpt lat="46.7575" lon="-1.85209">
        <ele>21</ele>
        <time>2018-03-25T13:35:12Z</time>
      </trkpt>
      <trkpt lat="46.75767" lon="-1.8517">
        <ele>21</ele>
        <time>2018-03-25T13:36:12Z</time>
      </trkpt>
      <trkpt lat="46.75796" lon="-1.85103">
        <ele>21</ele>
        <time>2018-03-25T13:37:12Z</time>
      </trkpt>
      <trkpt lat="46.75811" lon="-1.85067">
        <ele>22</ele>
        <time>2018-03-25T13:38:12Z</time>
      </trkpt>
      <trkpt lat="46.75832" lon="-1.85019">
        <ele>21</ele>
        <time>2018-03-25T13:39:12Z</time>
      </trkpt>
      <trkpt lat="46.75832" lon="-1.85018">
        <ele>21</ele>
        <time>2018-03-25T13:40:12Z</time>
      </trkpt>
      <trkpt lat="46.75834" lon="-1.85013">
        <ele>21</ele>
        <time>2018-03-25T13:41:12Z</time>
      </trkpt>
      <trkpt lat="46.75851" lon="-1.84975">
        <ele>21</ele>
        <time>2018-03-25T13:42:12Z</time>
      </trkpt>
      <trkpt lat="46.75863" lon="-1.84948">
        <ele>20</ele>
        <time>2018-03-25T13:43:12Z</time>
      </trkpt>
      <trkpt lat="46.75872" lon="-1.84931">
        <ele>20</ele>
        <time>2018-03-25T13:44:12Z</time>
      </trkpt>
      <trkpt lat="46.75881" lon="-1.84913">
        <ele>21</ele>
        <time>2018-03-25T13:45:12Z</time>
      </trkpt>
      <trkpt lat="46.75891" lon="-1.84898">
        <ele>21</ele>
        <time>2018-03-25T13:46:12Z</time>
      </trkpt>
      <trkpt lat="46.75898" lon="-1.84887">
        <ele>21</ele>
        <time>2018-03-25T13:47:12Z</time>
      </trkpt>
      <trkpt lat="46.75899" lon="-1.84886">
        <ele>21</ele>
        <time>2018-03-25T13:48:12Z</time>
      </trkpt>
      <trkpt lat="46.75905" lon="-1.84877">
        <ele>21</ele>
        <time>2018-03-25T13:49:12Z</time>
      </trkpt>
      <trkpt lat="46.75914" lon="-1.84864">
        <ele>21</ele>
        <time>2018-03-25T13:50:12Z</time>
      </trkpt>
      <trkpt lat="46.75929" lon="-1.84845">
        <ele>21</ele>
        <time>2018-03-25T13:51:12Z</time>
      </trkpt>
      <trkpt lat="46.75935" lon="-1.84837">
        <ele>21</ele>
        <time>2018-03-25T13:52:12Z</time>
      </trkpt>
      <trkpt lat="46.75963" lon="-1.84797">
        <ele>20</ele>
        <time>2018-03-25T13:53:12Z</time>
      </trkpt>
      <trkpt lat="46.75982" lon="-1.84772">
        <ele>20</ele>
        <time>2018-03-25T13:54:12Z</time>
      </trkpt>
      <trkpt lat="46.75993" lon="-1.84756">
        <ele>20</ele>
        <time>2018-03-25T13:55:12Z</time>
      </trkpt>
      <trkpt lat="46.76011" lon="-1.8473">
        <ele>20</ele>
        <time>2018-03-25T13:56:12Z</time>
      </trkpt>
      <trkpt lat="46.76013" lon="-1.84726">
        <ele>20</ele>
        <time>2018-03-25T13:57:12Z</time>
      </trkpt>
      <trkpt lat="46.76021" lon="-1.84714">
        <ele>20</ele>
        <time>2018-03-25T13:58:12Z</time>
      </trkpt>
      <trkpt lat="46.76022" lon="-1.84712">
        <ele>20</ele>
        <time>2018-03-25T13:59:12Z</time>
      </trkpt>
      <trkpt lat="46.76029" lon="-1.847">
        <ele>20</ele>
        <time>2018-03-25T14:00:12Z</time>
      </trkpt>
      <trkpt lat="46.76031" lon="-1.84695">
        <ele>20</ele>
        <time>2018-03-25T14:01:12Z</time>
      </trkpt>
      <trkpt lat="46.76032" lon="-1.84693">
        <ele>20</ele>
        <time>2018-03-25T14:02:12Z</time>
      </trkpt>
      <trkpt lat="46.76033" lon="-1.8469">
        <ele>20</ele>
        <time>2018-03-25T14:03:12Z</time>
      </trkpt>
      <trkpt lat="46.76036" lon="-1.84683">
        <ele>20</ele>
        <time>2018-03-25T14:04:12Z</time>
      </trkpt>
      <trkpt lat="46.76038" lon="-1.84676">
        <ele>20</ele>
        <time>2018-03-25T14:05:12Z</time>
      </trkpt>
      <trkpt lat="46.7604" lon="-1.84672">
        <ele>20</ele>
        <time>2018-03-25T14:06:12Z</time>
      </trkpt>
      <trkpt lat="46.76044" lon="-1.84658">
        <ele>21</ele>
        <time>2018-03-25T14:07:12Z</time>
      </trkpt>
      <trkpt lat="46.76047" lon="-1.84646">
        <ele>21</ele>
        <time>2018-03-25T14:08:12Z</time>
      </trkpt>
      <trkpt lat="46.76049" lon="-1.84639">
        <ele>21</ele>
        <time>2018-03-25T14:09:12Z</time>
      </trkpt>
      <trkpt lat="46.7605" lon="-1.84633">
        <ele>21</ele>
        <time>2018-03-25T14:10:12Z</time>
      </trkpt>
      <trkpt lat="46.76052" lon="-1.84626">
        <ele>21</ele>
        <time>2018-03-25T14:11:12Z</time>
      </trkpt>
      <trkpt lat="46.76054" lon="-1.84612">
        <ele>21</ele>
        <time>2018-03-25T14:12:12Z</time>
      </trkpt>
      <trkpt lat="46.76061" lon="-1.84565">
        <ele>21</ele>
        <time>2018-03-25T14:13:12Z</time>
      </trkpt>
      <trkpt lat="46.76067" lon="-1.84521">
        <ele>20</ele>
        <time>2018-03-25T14:14:12Z</time>
      </trkpt>
      <trkpt lat="46.76068" lon="-1.84511">
        <ele>20</ele>
        <time>2018-03-25T14:15:12Z</time>
      </trkpt>
      <trkpt lat="46.7607" lon="-1.84493">
        <ele>20</ele>
        <time>2018-03-25T14:16:12Z</time>
      </trkpt>
      <trkpt lat="46.76072" lon="-1.84459">
        <ele>21</ele>
        <time>2018-03-25T14:17:12Z</time>
      </trkpt>
      <trkpt lat="46.76074" lon="-1.84436">
        <ele>21</ele>
        <time>2018-03-25T14:18:12Z</time>
      </trkpt>
      <trkpt lat="46.76075" lon="-1.84426">
        <ele>21</ele>
        <time>2018-03-25T14:19:12Z</time>
      </trkpt>
      <trkpt lat="46.76075" lon="-1.8442">
        <ele>21</ele>
        <time>2018-03-25T14:20:12Z</time>
      </trkpt>
      <trkpt lat="46.76075" lon="-1.84402">
        <ele>21</ele>
        <time>2018-03-25T14:21:12Z</time>
      </trkpt>
      <trkpt lat="46.76075" lon="-1.84382">
        <ele>21</ele>
        <time>2018-03-25T14:22:12Z</time>
      </trkpt>
      <trkpt lat="46.76075" lon="-1.84368">
        <ele>21</ele>
        <time>2018-03-25T14:23:12Z</time>
      </trkpt>
      <trkpt lat="46.76073" lon="-1.84343">
        <ele>21</ele>
        <time>2018-03-25T14:24:12Z</time>
      </trkpt>
      <trkpt lat="46.7607" lon="-1.84322">
        <ele>21</ele>
        <time>2018-03-25T14:25:12Z</time>
      </trkpt>
      <trkpt lat="46.76069" lon="-1.84301">
        <ele>21</ele>
        <time>2018-03-25T14:26:12Z</time>
      </trkpt>
      <trkpt lat="46.76068" lon="-1.84286">
        <ele>21</ele>
        <time>2018-03-25T14:27:12Z</time>
      </trkpt>
      <trkpt lat="46.76067" lon="-1.84269">
        <ele>21</ele>
        <time>2018-03-25T14:28:12Z</time>
      </trkpt>
      <trkpt lat="46.76066" lon="-1.84253">
        <ele>22</ele>
        <time>2018-03-25T14:29:12Z</time>
      </trkpt>
      <trkpt lat="46.76065" lon="-1.84236">
        <ele>22</ele>
        <time>2018-03-25T14:30:12Z</time>
      </trkpt>
      <trkpt lat="46.76064" lon="-1.84217">
        <ele>22</ele>
        <time>2018-03-25T14:31:12Z</time>
      </trkpt>
      <trkpt lat="46.76061" lon="-1.84195">
        <ele>22</ele>
        <time>2018-03-25T14:32:12Z</time>
      </trkpt>
      <trkpt lat="46.76058" lon="-1.84162">
        <ele>22</ele>
        <time>2018-03-25T14:33:12Z</time>
      </trkpt>
      <trkpt lat="46.76052" lon="-1.84108">
        <ele>21</ele>
        <time>2018-03-25T14:34:12Z</time>
      </trkpt>
      <trkpt lat="46.76049" lon="-1.84081">
        <ele>21</ele>
        <time>2018-03-25T14:35:12Z</time>
      </trkpt>
      <trkpt lat="46.76049" lon="-1.84068">
        <ele>21</ele>
        <time>2018-03-25T14:36:12Z</time>
      </trkpt>
      <trkpt lat="46.76048" lon="-1.84041">
        <ele>21</ele>
        <time>2018-03-25T14:37:12Z</time>
      </trkpt>
      <trkpt lat="46.76047" lon="-1.84017">
        <ele>21</ele>
        <time>2018-03-25T14:38:12Z</time>
      </trkpt>
      <trkpt lat="46.76046" lon="-1.83993">
        <ele>21</ele>
        <time>2018-03-25T14:39:12Z</time>
      </trkpt>
      <trkpt lat="46.76046" lon="-1.83973">
        <ele>21</ele>
        <time>2018-03-25T14:40:12Z</time>
      </trkpt>
      <trkpt lat="46.76047" lon="-1.83948">
        <ele>21</ele>
        <time>2018-03-25T14:41:12Z</time>
      </trkpt>
      <trkpt lat="46.76049" lon="-1.83928">
        <ele>21</ele>
        <time>2018-03-25T14:42:12Z</time>
      </trkpt>
      <trkpt lat="46.76049" lon="-1.83922">
        <ele>21</ele>
        <time>2018-03-25T14:43:12Z</time>
      </trkpt>
      <trkpt lat="46.76052" lon="-1.83903">
        <ele>21</ele>
        <time>2018-03-25T14:44:12Z</time>
      </trkpt>
      <trkpt lat="46.76054" lon="-1.83896">
        <ele>21</ele>
        <time>2018-03-25T14:45:12Z</time>
      </trkpt>
      <trkpt lat="46.76056" lon="-1.83892">
        <ele>21</ele>
        <time>2018-03-25T14:46:12Z</time>
      </trkpt>
      <trkpt lat="46.76075" lon="-1.8386">
        <ele>21</ele>
        <time>2018-03-25T14:47:12Z</time>
      </trkpt>
      <trkpt lat="46.76084" lon="-1.83843">
        <ele>21</ele>
        <time>2018-03-25T14:48:12Z</time>
      </trkpt>
      <trkpt lat="46.761" lon="-1.83814">
        <ele>21</ele>
        <time>2018-03-25T14:49:12Z</time>
      </trkpt>
      <trkpt lat="46.76119" lon="-1.8378">
        <ele>20</ele>
        <time>2018-03-25T14:50:12Z</time>
      </trkpt>
      <trkpt lat="46.76125" lon="-1.8377">
        <ele>20</ele>
        <time>2018-03-25T14:51:12Z</time>
      </trkpt>
      <trkpt lat="46.76129" lon="-1.83765">
        <ele>20</ele>
        <time>2018-03-25T14:52:12Z</time>
      </trkpt>
      <trkpt lat="46.76134" lon="-1.8376">
        <ele>20</ele>
        <time>2018-03-25T14:53:12Z</time>
      </trkpt>
      <trkpt lat="46.76139" lon="-1.83755">
        <ele>20</ele>
        <time>2018-03-25T14:54:12Z</time>
      </trkpt>
      <trkpt lat="46.76147" lon="-1.8375">
        <ele>20</ele>
        <time>2018-03-25T14:55:12Z</time>
      </trkpt>
      <trkpt lat="46.76168" lon="-1.83736">
        <ele>20</ele>
        <time>2018-03-25T14:56:12Z</time>
      </trkpt>
      <trkpt lat="46.76176" lon="-1.8373">
        <ele>20</ele>
        <time>2018-03-25T14:57:12Z</time>
      </trkpt>
      <trkpt lat="46.76182" lon="-1.83724">
        <ele>20</ele>
        <time>2018-03-25T14:58:12Z</time>
      </trkpt>
      <trkpt lat="46.76186" lon="-1.83718">
        <ele>19</ele>
        <time>2018-03-25T14:59:12Z</time>
      </trkpt>
      <trkpt lat="46.76191" lon="-1.8371">
        <ele>19</ele>
        <time>2018-03-25T15:00:12Z</time>
      </trkpt>
      <trkpt lat="46.76195" lon="-1.83703">
        <ele>19</ele>
        <time>2018-03-25T15:01:12Z</time>
      </trkpt>
      <trkpt lat="46.762" lon="-1.83696">
        <ele>19</ele>
        <time>2018-03-25T15:02:12Z</time>
      </trkpt>
      <trkpt lat="46.76207" lon="-1.83687">
        <ele>19</ele>
        <time>2018-03-25T15:03:12Z</time>
      </trkpt>
      <trkpt lat="46.7621" lon="-1.83684">
        <ele>19</ele>
        <time>2018-03-25T15:04:12Z</time>
      </trkpt>
      <trkpt lat="46.76212" lon="-1.83682">
        <ele>19</ele>
        <time>2018-03-25T15:05:12Z</time>
      </trkpt>
      <trkpt lat="46.76218" lon="-1.83677">
        <ele>19</ele>
        <time>2018-03-25T15:06:12Z</time>
      </trkpt>
      <trkpt lat="46.76226" lon="-1.83672">
        <ele>19</ele>
        <time>2018-03-25T15:07:12Z</time>
      </trkpt>
      <trkpt lat="46.76234" lon="-1.83668">
        <ele>19</ele>
        <time>2018-03-25T15:08:12Z</time>
      </trkpt>
      <trkpt lat="46.7624" lon="-1.83666">
        <ele>19</ele>
        <time>2018-03-25T15:09:12Z</time>
      </trkpt>
      <trkpt lat="46.76247" lon="-1.83667">
        <ele>19</ele>
        <time>2018-03-25T15:10:12Z</time>
      </trkpt>
      <trkpt lat="46.76251" lon="-1.83668">
        <ele>19</ele>
        <time>2018-03-25T15:11:12Z</time>
      </trkpt>
      <trkpt lat="46.7626" lon="-1.83671">
        <ele>19</ele>
        <time>2018-03-25T15:12:12Z</time>
      </trkpt>
      <trkpt lat="46.76263" lon="-1.83671">
        <ele>19</ele>
        <time>2018-03-25T15:13:12Z</time>
      </trkpt>
      <trkpt lat="46.7627" lon="-1.83671">
        <ele>19</ele>
        <time>2018-03-25T15:14:12Z</time>
      </trkpt>
      <trkpt lat="46.76279" lon="-1.8367">
        <ele>19</ele>
        <time>2018-03-25T15:15:12Z</time>
      </trkpt>
      <trkpt lat="46.76292" lon="-1.83667">
        <ele>19</ele>
        <time>2018-03-25T15:16:12Z</time>
      </trkpt>
      <trkpt lat="46.76305" lon="-1.83662">
        <ele>19</ele>
        <time>2018-03-25T15:17:12Z</time>
      </trkpt>
      <trkpt lat="46.76316" lon="-1.83658">
        <ele>19</ele>
        <time>2018-03-25T15:18:12Z</time>
      </trkpt>
      <trkpt lat="46.76327" lon="-1.83652">
        <ele>19</ele>
        <time>2018-03-25T15:19:12Z</time>
      </trkpt>
      <trkpt lat="46.76338" lon="-1.83644">
        <ele>19</ele>
        <time>2018-03-25T15:20:12Z</time>
      </trkpt>
      <trkpt lat="46.76348" lon="-1.83636">
        <ele>19</ele>
        <time>2018-03-25T15:21:12Z</time>
      </trkpt>
      <trkpt lat="46.76356" lon="-1.8363">
        <ele>18</ele>
        <time>2018-03-25T15:22:12Z</time>
      </trkpt>
      <trkpt lat="46.76366" lon="-1.83622">
        <ele>18</ele>
        <time>2018-03-25T15:23:12Z</time>
      </trkpt>
      <trkpt lat="46.7638" lon="-1.83613">
        <ele>18</ele>
        <time>2018-03-25T15:24:12Z</time>
      </trkpt>
      <trkpt lat="46.76395" lon="-1.83603">
        <ele>18</ele>
        <time>2018-03-25T15:25:12Z</time>
      </trkpt>
      <trkpt lat="46.7642" lon="-1.83588">
        <ele>18</ele>
        <time>2018-03-25T15:26:12Z</time>
      </trkpt>
      <trkpt lat="46.76438" lon="-1.83577">
        <ele>18</ele>
        <time>2018-03-25T15:27:12Z</time>
      </trkpt>
      <trkpt lat="46.7645" lon="-1.8357">
        <ele>17</ele>
        <time>2018-03-25T15:28:12Z</time>
      </trkpt>
      <trkpt lat="46.76458" lon="-1.83565">
        <ele>17</ele>
        <time>2018-03-25T15:29:12Z</time>
      </trkpt>
      <trkpt lat="46.76475" lon="-1.83556">
        <ele>17</ele>
        <time>2018-03-25T15:30:12Z</time>
      </trkpt>
      <trkpt lat="46.76482" lon="-1.83552">
        <ele>16</ele>
        <time>2018-03-25T15:31:12Z</time>
      </trkpt>
      <trkpt lat="46.76521" lon="-1.8353">
        <ele>16</ele>
        <time>2018-03-25T15:32:12Z</time>
      </trkpt>
      <trkpt lat="46.76564" lon="-1.83504">
        <ele>17</ele>
        <time>2018-03-25T15:33:12Z</time>
      </trkpt>
      <trkpt lat="46.76595" lon="-1.83484">
        <ele>17</ele>
        <time>2018-03-25T15:34:12Z</time>
      </trkpt>
      <trkpt lat="46.76611" lon="-1.83473">
        <ele>18</ele>
        <time>2018-03-25T15:35:12Z</time>
      </trkpt>
      <trkpt lat="46.76625" lon="-1.83462">
        <ele>18</ele>
        <time>2018-03-25T15:36:12Z</time>
      </trkpt>
      <trkpt lat="46.76636" lon="-1.83452">
        <ele>18</ele>
        <time>2018-03-25T15:37:12Z</time>
      </trkpt>
      <trkpt lat="46.76644" lon="-1.83445">
        <ele>19</ele>
        <time>2018-03-25T15:38:12Z</time>
      </trkpt>
      <trkpt lat="46.76653" lon="-1.83436">
        <ele>19</ele>
        <time>2018-03-25T15:39:12Z</time>
      </trkpt>
      <trkpt lat="46.76662" lon="-1.83427">
        <ele>19</ele>
        <time>2018-03-25T15:40:12Z</time>
      </trkpt>
      <trkpt lat="46.7667" lon="-1.83418">
        <ele>19</ele>
        <time>2018-03-25T15:41:12Z</time>
      </trkpt>
      <trkpt lat="46.76677" lon="-1.8341">
        <ele>19</ele>
        <time>2018-03-25T15:42:12Z</time>
      </trkpt>
      <trkpt lat="46.76689" lon="-1.83393">
        <ele>19</ele>
        <time>2018-03-25T15:43:12Z</time>
      </trkpt>
      <trkpt lat="46.76697" lon="-1.83383">
        <ele>19</ele>
        <time>2018-03-25T15:44:12Z</time>
      </trkpt>
      <trkpt lat="46.76704" lon="-1.83374">
        <ele>19</ele>
        <time>2018-03-25T15:45:12Z</time>
      </trkpt>
      <trkpt lat="46.76707" lon="-1.83368">
        <ele>19</ele>
        <time>2018-03-25T15:46:12Z</time>
      </trkpt>
      <trkpt lat="46.76715" lon="-1.83354">
        <ele>19</ele>
        <time>2018-03-25T15:47:12Z</time>
      </trkpt>
      <trkpt lat="46.76723" lon="-1.83342">
        <ele>19</ele>
        <time>2018-03-25T15:48:12Z</time>
      </trkpt>
      <trkpt lat="46.76738" lon="-1.83315">
        <ele>19</ele>
        <time>2018-03-25T15:49:12Z</time>
      </trkpt>
      <trkpt lat="46.76753" lon="-1.83287">
        <ele>19</ele>
        <time>2018-03-25T15:50:12Z</time>
      </trkpt>
      <trkpt lat="46.76761" lon="-1.83269">
        <ele>19</ele>
        <time>2018-03-25T15:51:12Z</time>
      </trkpt>
      <trkpt lat="46.76766" lon="-1.8326">
        <ele>19</ele>
        <time>2018-03-25T15:52:12Z</time>
      </trkpt>
      <trkpt lat="46.76777" lon="-1.83239">
        <ele>19</ele>
        <time>2018-03-25T15:53:12Z</time>
      </trkpt>
      <trkpt lat="46.76784" lon="-1.83221">
        <ele>19</ele>
        <time>2018-03-25T15:54:12Z</time>
      </trkpt>
      <trkpt lat="46.76787" lon="-1.83216">
        <ele>19</ele>
        <time>2018-03-25T15:55:12Z</time>
      </trkpt>
      <trkpt lat="46.76792" lon="-1.83201">
        <ele>19</ele>
        <time>2018-03-25T15:56:12Z</time>
      </trkpt>
      <trkpt lat="46.76797" lon="-1.83181">
        <ele>19</ele>
        <time>2018-03-25T15:57:12Z</time>
      </trkpt>
      <trkpt lat="46.76802" lon="-1.83166">
        <ele>19</ele>
        <time>2018-03-25T15:58:12Z</time>
      </trkpt>
      <trkpt lat="46.76813" lon="-1.83135">
        <ele>18</ele>
        <time>2018-03-25T15:59:12Z</time>
      </trkpt>
      <trkpt lat="46.76818" lon="-1.83118">
        <ele>18</ele>
        <time>2018-03-25T16:00:12Z</time>
      </trkpt>
      <trkpt lat="46.76824" lon="-1.83101">
        <ele>17</ele>
        <time>2018-03-25T16:01:12Z</time>
      </trkpt>
      <trkpt lat="46.76831" lon="-1.83082">
        <ele>17</ele>
        <time>2018-03-25T16:02:12Z</time>
      </trkpt>
      <trkpt lat="46.76838" lon="-1.83065">
        <ele>17</ele>
        <time>2018-03-25T16:03:12Z</time>
      </trkpt>
      <trkpt lat="46.76846" lon="-1.83047">
        <ele>18</ele>
        <time>2018-03-25T16:04:12Z</time>
      </trkpt>
      <trkpt lat="46.76857" lon="-1.83027">
        <ele>18</ele>
        <time>2018-03-25T16:05:12Z</time>
      </trkpt>
      <trkpt lat="46.76867" lon="-1.83007">
        <ele>19</ele>
        <time>2018-03-25T16:06:12Z</time>
      </trkpt>
      <trkpt lat="46.7688" lon="-1.82984">
        <ele>20</ele>
        <time>2018-03-25T16:07:12Z</time>
      </trkpt>
      <trkpt lat="46.7689" lon="-1.82965">
        <ele>21</ele>
        <time>2018-03-25T16:08:12Z</time>
      </trkpt>
      <trkpt lat="46.769" lon="-1.8295">
        <ele>22</ele>
        <time>2018-03-25T16:09:12Z</time>
      </trkpt>
      <trkpt lat="46.76915" lon="-1.82926">
        <ele>24</ele>
        <time>2018-03-25T16:10:12Z</time>
      </trkpt>
      <trkpt lat="46.76926" lon="-1.82909">
        <ele>24</ele>
        <time>2018-03-25T16:11:12Z</time>
      </trkpt>
      <trkpt lat="46.76936" lon="-1.82896">
        <ele>25</ele>
        <time>2018-03-25T16:12:12Z</time>
      </trkpt>
      <trkpt lat="46.76946" lon="-1.82882">
        <ele>25</ele>
        <time>2018-03-25T16:13:12Z</time>
      </trkpt>
      <trkpt lat="46.76955" lon="-1.82872">
        <ele>26</ele>
        <time>2018-03-25T16:14:12Z</time>
      </trkpt>
      <trkpt lat="46.76971" lon="-1.82857">
        <ele>26</ele>
        <time>2018-03-25T16:15:12Z</time>
      </trkpt>
      <trkpt lat="46.7699" lon="-1.82837">
        <ele>27</ele>
        <time>2018-03-25T16:16:12Z</time>
      </trkpt>
      <trkpt lat="46.77015" lon="-1.82811">
        <ele>27</ele>
        <time>2018-03-25T16:17:12Z</time>
      </trkpt>
      <trkpt lat="46.77041" lon="-1.82785">
        <ele>27</ele>
        <time>2018-03-25T16:18:12Z</time>
      </trkpt>
      <trkpt lat="46.7709" lon="-1.82734">
        <ele>28</ele>
        <time>2018-03-25T16:19:12Z</time>
      </trkpt>
      <trkpt lat="46.77134" lon="-1.82688">
        <ele>27</ele>
        <time>2018-03-25T16:20:12Z</time>
      </trkpt>
      <trkpt lat="46.77146" lon="-1.82676">
        <ele>26</ele>
        <time>2018-03-25T16:21:12Z</time>
      </trkpt>
      <trkpt lat="46.77212" lon="-1.82608">
        <ele>27</ele>
        <time>2018-03-25T16:22:12Z</time>
      </trkpt>
      <trkpt lat="46.77264" lon="-1.82553">
        <ele>27</ele>
        <time>2018-03-25T16:23:12Z</time>
      </trkpt>
      <trkpt lat="46.77345" lon="-1.82467">
        <ele>26</ele>
        <time>2018-03-25T16:24:12Z</time>
      </trkpt>
      <trkpt lat="46.7742" lon="-1.82389">
        <ele>26</ele>
        <time>2018-03-25T16:25:12Z</time>
      </trkpt>
      <trkpt lat="46.77487" lon="-1.8232">
        <ele>28</ele>
        <time>2018-03-25T16:26:12Z</time>
      </trkpt>
      <trkpt lat="46.77525" lon="-1.8228">
        <ele>28</ele>
        <time>2018-03-25T16:27:12Z</time>
      </trkpt>
      <trkpt lat="46.77568" lon="-1.82235">
        <ele>29</ele>
        <time>2018-03-25T16:28:12Z</time>
      </trkpt>
      <trkpt lat="46.77659" lon="-1.82141">
        <ele>31</ele>
        <time>2018-03-25T16:29:12Z</time>
      </trkpt>
      <trkpt lat="46.77721" lon="-1.82077">
        <ele>33</ele>
        <time>2018-03-25T16:30:12Z</time>
      </trkpt>
      <trkpt lat="46.7775" lon="-1.82047">
        <ele>34</ele>
        <time>2018-03-25T16:31:12Z</time>
      </trkpt>
      <trkpt lat="46.778" lon="-1.81995">
        <ele>34</ele>
        <time>2018-03-25T16:32:12Z</time>
      </trkpt>
      <trkpt lat="46.77884" lon="-1.81909">
        <ele>33</ele>
        <time>2018-03-25T16:33:12Z</time>
      </trkpt>
      <trkpt lat="46.77961" lon="-1.81828">
        <ele>32</ele>
        <time>2018-03-25T16:34:12Z</time>
      </trkpt>
      <trkpt lat="46.7797" lon="-1.81819">
        <ele>32</ele>
        <time>2018-03-25T16:35:12Z</time>
      </trkpt>
      <trkpt lat="46.78038" lon="-1.81748">
        <ele>30</ele>
        <time>2018-03-25T16:36:12Z</time>
      </trkpt>
      <trkpt lat="46.78066" lon="-1.81721">
        <ele>30</ele>
        <time>2018-03-25T16:37:12Z</time>
      </trkpt>
      <trkpt lat="46.7809" lon="-1.81695">
        <ele>30</ele>
        <time>2018-03-25T16:38:12Z</time>
      </trkpt>
      <trkpt lat="46.78121" lon="-1.81662">
        <ele>30</ele>
        <time>2018-03-25T16:39:12Z</time>
      </trkpt>
      <trkpt lat="46.78148" lon="-1.81634">
        <ele>31</ele>
        <time>2018-03-25T16:40:12Z</time>
      </trkpt>
      <trkpt lat="46.78182" lon="-1.81598">
        <ele>32</ele>
        <time>2018-03-25T16:41:12Z</time>
      </trkpt>
      <trkpt lat="46.78226" lon="-1.81552">
        <ele>30</ele>
        <time>2018-03-25T16:42:12Z</time>
      </trkpt>
      <trkpt lat="46.78267" lon="-1.81509">
        <ele>30</ele>
        <time>2018-03-25T16:43:12Z</time>
      </trkpt>
      <trkpt lat="46.78322" lon="-1.81452">
        <ele>30</ele>
        <time>2018-03-25T16:44:12Z</time>
      </trkpt>
      <trkpt lat="46.78354" lon="-1.81418">
        <ele>30</ele>
        <time>2018-03-25T16:45:12Z</time>
      </trkpt>
      <trkpt lat="46.78391" lon="-1.81379">
        <ele>31</ele>
        <time>2018-03-25T16:46:12Z</time>
      </trkpt>
      <trkpt lat="46.78446" lon="-1.81321">
        <ele>29</ele>
        <time>2018-03-25T16:47:12Z</time>
      </trkpt>
      <trkpt lat="46.78498" lon="-1.81267">
        <ele>27</ele>
        <time>2018-03-25T16:48:12Z</time>
      </trkpt>
      <trkpt lat="46.78524" lon="-1.81239">
        <ele>28</ele>
        <time>2018-03-25T16:49:12Z</time>
      </trkpt>
      <trkpt lat="46.78569" lon="-1.81193">
        <ele>29</ele>
        <time>2018-03-25T16:50:12Z</time>
      </trkpt>
      <trkpt lat="46.78605" lon="-1.81154">
        <ele>29</ele>
        <time>2018-03-25T16:51:12Z</time>
      </trkpt>
      <trkpt lat="46.78624" lon="-1.81135">
        <ele>29</ele>
        <time>2018-03-25T16:52:12Z</time>
      </trkpt>
      <trkpt lat="46.7868" lon="-1.81077">
        <ele>30</ele>
        <time>2018-03-25T16:53:12Z</time>
      </trkpt>
      <trkpt lat="46.78719" lon="-1.81037">
        <ele>29</ele>
        <time>2018-03-25T16:54:12Z</time>
      </trkpt>
      <trkpt lat="46.78762" lon="-1.80991">
        <ele>29</ele>
        <time>2018-03-25T16:55:12Z</time>
      </trkpt>
      <trkpt lat="46.78854" lon="-1.80896">
        <ele>30</ele>
        <time>2018-03-25T16:56:12Z</time>
      </trkpt>
      <trkpt lat="46.78856" lon="-1.80893">
        <ele>30</ele>
        <time>2018-03-25T16:57:12Z</time>
      </trkpt>
      <trkpt lat="46.78953" lon="-1.80791">
        <ele>30</ele>
        <time>2018-03-25T16:58:12Z</time>
      </trkpt>
      <trkpt lat="46.79029" lon="-1.80711">
        <ele>30</ele>
        <time>2018-03-25T16:59:12Z</time>
      </trkpt>
      <trkpt lat="46.79097" lon="-1.80639">
        <ele>31</ele>
        <time>2018-03-25T17:00:12Z</time>
      </trkpt>
      <trkpt lat="46.79199" lon="-1.80531">
        <ele>28</ele>
        <time>2018-03-25T17:01:12Z</time>
      </trkpt>
      <trkpt lat="46.79278" lon="-1.80448">
        <ele>28</ele>
        <time>2018-03-25T17:02:12Z</time>
      </trkpt>
      <trkpt lat="46.79347" lon="-1.80375">
        <ele>27</ele>
        <time>2018-03-25T17:03:12Z</time>
      </trkpt>
      <trkpt lat="46.79397" lon="-1.80323">
        <ele>26</ele>
        <time>2018-03-25T17:04:12Z</time>
      </trkpt>
      <trkpt lat="46.79413" lon="-1.80306">
        <ele>25</ele>
        <time>2018-03-25T17:05:12Z</time>
      </trkpt>
      <trkpt lat="46.79421" lon="-1.80297">
        <ele>25</ele>
        <time>2018-03-25T17:06:12Z</time>
      </trkpt>
      <trkpt lat="46.7943" lon="-1.80284">
        <ele>25</ele>
        <time>2018-03-25T17:07:12Z</time>
      </trkpt>
      <trkpt lat="46.7944" lon="-1.8027">
        <ele>25</ele>
        <time>2018-03-25T17:08:12Z</time>
      </trkpt>
      <trkpt lat="46.79449" lon="-1.80257">
        <ele>25</ele>
        <time>2018-03-25T17:09:12Z</time>
      </trkpt>
      <trkpt lat="46.79457" lon="-1.80244">
        <ele>26</ele>
        <time>2018-03-25T17:10:12Z</time>
      </trkpt>
      <trkpt lat="46.79492" lon="-1.80181">
        <ele>26</ele>
        <time>2018-03-25T17:11:12Z</time>
      </trkpt>
      <trkpt lat="46.79533" lon="-1.80105">
        <ele>26</ele>
        <time>2018-03-25T17:12:12Z</time>
      </trkpt>
      <trkpt lat="46.79558" lon="-1.80055">
        <ele>27</ele>
        <time>2018-03-25T17:13:12Z</time>
      </trkpt>
      <trkpt lat="46.79594" lon="-1.79987">
        <ele>28</ele>
        <time>2018-03-25T17:14:12Z</time>
      </trkpt>
      <trkpt lat="46.7964" lon="-1.79901">
        <ele>29</ele>
        <time>2018-03-25T17:15:12Z</time>
      </trkpt>
      <trkpt lat="46.79669" lon="-1.79846">
        <ele>29</ele>
        <time>2018-03-25T17:16:12Z</time>
      </trkpt>
      <trkpt lat="46.79704" lon="-1.7978">
        <ele>28</ele>
        <time>2018-03-25T17:17:12Z</time>
      </trkpt>
      <trkpt lat="46.79747" lon="-1.797">
        <ele>25</ele>
        <time>2018-03-25T17:18:12Z</time>
      </trkpt>
      <trkpt lat="46.79787" lon="-1.79623">
        <ele>25</ele>
        <time>2018-03-25T17:19:12Z</time>
      </trkpt>
      <trkpt lat="46.79807" lon="-1.79586">
        <ele>24</ele>
        <time>2018-03-25T17:20:12Z</time>
      </trkpt>
      <trkpt lat="46.79817" lon="-1.79566">
        <ele>25</ele>
        <time>2018-03-25T17:21:12Z</time>
      </trkpt>
      <trkpt lat="46.79824" lon="-1.79554">
        <ele>25</ele>
        <time>2018-03-25T17:22:12Z</time>
      </trkpt>
      <trkpt lat="46.79829" lon="-1.79542">
        <ele>25</ele>
        <time>2018-03-25T17:23:12Z</time>
      </trkpt>
      <trkpt lat="46.79831" lon="-1.79536">
        <ele>25</ele>
        <time>2018-03-25T17:24:12Z</time>
      </trkpt>
      <trkpt lat="46.79834" lon="-1.79531">
        <ele>25</ele>
        <time>2018-03-25T17:25:12Z</time>
      </trkpt>
      <trkpt lat="46.79835" lon="-1.79527">
        <ele>25</ele>
        <time>2018-03-25T17:26:12Z</time>
      </trkpt>
      <trkpt lat="46.7984" lon="-1.79516">
        <ele>26</ele>
        <time>2018-03-25T17:27:12Z</time>
      </trkpt>
      <trkpt lat="46.79848" lon="-1.79494">
        <ele>26</ele>
        <time>2018-03-25T17:28:12Z</time>
      </trkpt>
      <trkpt lat="46.79882" lon="-1.79392">
        <ele>27</ele>
        <time>2018-03-25T17:29:12Z</time>
      </trkpt>
      <trkpt lat="46.79897" lon="-1.79349">
        <ele>27</ele>
        <time>2018-03-25T17:30:12Z</time>
      </trkpt>
      <trkpt lat="46.79923" lon="-1.79276">
        <ele>27</ele>
        <time>2018-03-25T17:31:12Z</time>
      </trkpt>
      <trkpt lat="46.79944" lon="-1.79213">
        <ele>27</ele>
        <time>2018-03-25T17:32:12Z</time>
      </trkpt>
      <trkpt lat="46.79945" lon="-1.7921">
        <ele>27</ele>
        <time>2018-03-25T17:33:12Z</time>
      </trkpt>
      <trkpt lat="46.79948" lon="-1.79202">
        <ele>27</ele>
        <time>2018-03-25T17:34:12Z</time>
      </trkpt>
      <trkpt lat="46.79949" lon="-1.79199">
        <ele>27</ele>
        <time>2018-03-25T17:35:12Z</time>
      </trkpt>
      <trkpt lat="46.79955" lon="-1.79184">
        <ele>27</ele>
        <time>2018-03-25T17:36:12Z</time>
      </trkpt>
      <trkpt lat="46.7996" lon="-1.79172">
        <ele>27</ele>
        <time>2018-03-25T17:37:12Z</time>
      </trkpt>
      <trkpt lat="46.79964" lon="-1.79161">
        <ele>27</ele>
        <time>2018-03-25T17:38:12Z</time>
      </trkpt>
      <trkpt lat="46.79965" lon="-1.79158">
        <ele>27</ele>
        <time>2018-03-25T17:39:12Z</time>
      </trkpt>
      <trkpt lat="46.7998" lon="-1.79121">
        <ele>26</ele>
        <time>2018-03-25T17:40:12Z</time>
      </trkpt>
      <trkpt lat="46.7999" lon="-1.791">
        <ele>26</ele>
        <time>2018-03-25T17:41:12Z</time>
      </trkpt>
      <trkpt lat="46.80005" lon="-1.79063">
        <ele>26</ele>
        <time>2018-03-25T17:42:12Z</time>
      </trkpt>
      <trkpt lat="46.80036" lon="-1.7899">
        <ele>26</ele>
        <time>2018-03-25T17:43:12Z</time>
      </trkpt>
      <trkpt lat="46.80082" lon="-1.7888">
        <ele>27</ele>
        <time>2018-03-25T17:44:12Z</time>
      </trkpt>
      <trkpt lat="46.80108" lon="-1.78821">
        <ele>27</ele>
        <time>2018-03-25T17:45:12Z</time>
      </trkpt>
      <trkpt lat="46.8014" lon="-1.78744">
        <ele>25</ele>
        <time>2018-03-25T17:46:12Z</time>
      </trkpt>
      <trkpt lat="46.80174" lon="-1.78666">
        <ele>24</ele>
        <time>2018-03-25T17:47:12Z</time>
      </trkpt>
      <trkpt lat="46.80183" lon="-1.78645">
        <ele>23</ele>
        <time>2018-03-25T17:48:12Z</time>
      </trkpt>
      <trkpt lat="46.80187" lon="-1.78634">
        <ele>23</ele>
        <time>2018-03-25T17:49:12Z</time>
      </trkpt>
      <trkpt lat="46.80212" lon="-1.78578">
        <ele>23</ele>
        <time>2018-03-25T17:50:12Z</time>
      </trkpt>
      <trkpt lat="46.80221" lon="-1.78555">
        <ele>24</ele>
        <time>2018-03-25T17:51:12Z</time>
      </trkpt>
      <trkpt lat="46.80236" lon="-1.7852">
        <ele>25</ele>
        <time>2018-03-25T17:52:12Z</time>
      </trkpt>
      <trkpt lat="46.80254" lon="-1.78477">
        <ele>26</ele>
        <time>2018-03-25T17:53:12Z</time>
      </trkpt>
      <trkpt lat="46.80272" lon="-1.78436">
        <ele>26</ele>
        <time>2018-03-25T17:54:12Z</time>
      </trkpt>
      <trkpt lat="46.8031" lon="-1.78345">
        <ele>25</ele>
        <time>2018-03-25T17:55:12Z</time>
      </trkpt>
      <trkpt lat="46.80337" lon="-1.78283">
        <ele>26</ele>
        <time>2018-03-25T17:56:12Z</time>
      </trkpt>
      <trkpt lat="46.80373" lon="-1.78197">
        <ele>26</ele>
        <time>2018-03-25T17:57:12Z</time>
      </trkpt>
      <trkpt lat="46.80381" lon="-1.78179">
        <ele>26</ele>
        <time>2018-03-25T17:58:12Z</time>
      </trkpt>
      <trkpt lat="46.80387" lon="-1.78165">
        <ele>25</ele>
        <time>2018-03-25T17:59:12Z</time>
      </trkpt>
      <trkpt lat="46.80393" lon="-1.78153">
        <ele>25</ele>
        <time>2018-03-25T18:00:12Z</time>
      </trkpt>
      <trkpt lat="46.80397" lon="-1.78142">
        <ele>25</ele>
        <time>2018-03-25T18:01:12Z</time>
      </trkpt>
      <trkpt lat="46.80401" lon="-1.78133">
        <ele>25</ele>
        <time>2018-03-25T18:02:12Z</time>
      </trkpt>
      <trkpt lat="46.80408" lon="-1.7812">
        <ele>25</ele>
        <time>2018-03-25T18:03:12Z</time>
      </trkpt>
      <trkpt lat="46.80416" lon="-1.78107">
        <ele>25</ele>
        <time>2018-03-25T18:04:12Z</time>
      </trkpt>
      <trkpt lat="46.80425" lon="-1.78092">
        <ele>25</ele>
        <time>2018-03-25T18:05:12Z</time>
      </trkpt>
      <trkpt lat="46.80434" lon="-1.78077">
        <ele>25</ele>
        <time>2018-03-25T18:06:12Z</time>
      </trkpt>
      <trkpt lat="46.80445" lon="-1.78062">
        <ele>25</ele>
        <time>2018-03-25T18:07:12Z</time>
      </trkpt>
      <trkpt lat="46.80478" lon="-1.78017">
        <ele>24</ele>
        <time>2018-03-25T18:08:12Z</time>
      </trkpt>
      <trkpt lat="46.80505" lon="-1.77981">
        <ele>23</ele>
        <time>2018-03-25T18:09:12Z</time>
      </trkpt>
      <trkpt lat="46.80623" lon="-1.77821">
        <ele>21</ele>
        <time>2018-03-25T18:10:12Z</time>
      </trkpt>
      <trkpt lat="46.80674" lon="-1.77751">
        <ele>24</ele>
        <time>2018-03-25T18:11:12Z</time>
      </trkpt>
      <trkpt lat="46.807" lon="-1.77716">
        <ele>24</ele>
        <time>2018-03-25T18:12:12Z</time>
      </trkpt>
      <trkpt lat="46.80702" lon="-1.77713">
        <ele>24</ele>
        <time>2018-03-25T18:13:12Z</time>
      </trkpt>
      <trkpt lat="46.80735" lon="-1.77667">
        <ele>24</ele>
        <time>2018-03-25T18:14:12Z</time>
      </trkpt>
      <trkpt lat="46.8075" lon="-1.77647">
        <ele>24</ele>
        <time>2018-03-25T18:15:12Z</time>
      </trkpt>
      <trkpt lat="46.80765" lon="-1.77629">
        <ele>25</ele>
        <time>2018-03-25T18:16:12Z</time>
      </trkpt>
      <trkpt lat="46.80784" lon="-1.77608">
        <ele>25</ele>
        <time>2018-03-25T18:17:12Z</time>
      </trkpt>
      <trkpt lat="46.80803" lon="-1.77591">
        <ele>25</ele>
        <time>2018-03-25T18:18:12Z</time>
      </trkpt>
      <trkpt lat="46.80826" lon="-1.77574">
        <ele>25</ele>
        <time>2018-03-25T18:19:12Z</time>
      </trkpt>
      <trkpt lat="46.80858" lon="-1.77553">
        <ele>26</ele>
        <time>2018-03-25T18:20:12Z</time>
      </trkpt>
      <trkpt lat="46.80873" lon="-1.77543">
        <ele>26</ele>
        <time>2018-03-25T18:21:12Z</time>
      </trkpt>
      <trkpt lat="46.80888" lon="-1.77534">
        <ele>26</ele>
        <time>2018-03-25T18:22:12Z</time>
      </trkpt>
      <trkpt lat="46.80928" lon="-1.77507">
        <ele>26</ele>
        <time>2018-03-25T18:23:12Z</time>
      </trkpt>
      <trkpt lat="46.80977" lon="-1.77474">
        <ele>25</ele>
        <time>2018-03-25T18:24:12Z</time>
      </trkpt>
      <trkpt lat="46.80982" lon="-1.77471">
        <ele>25</ele>
        <time>2018-03-25T18:25:12Z</time>
      </trkpt>
      <trkpt lat="46.80995" lon="-1.77461">
        <ele>25</ele>
        <time>2018-03-25T18:26:12Z</time>
      </trkpt>
      <trkpt lat="46.81055" lon="-1.7742">
        <ele>23</ele>
        <time>2018-03-25T18:27:12Z</time>
      </trkpt>
      <trkpt lat="46.81057" lon="-1.77419">
        <ele>23</ele>
        <time>2018-03-25T18:28:12Z</time>
      </trkpt>
      <trkpt lat="46.81098" lon="-1.77391">
        <ele>22</ele>
        <time>2018-03-25T18:29:12Z</time>
      </trkpt>
      <trkpt lat="46.81134" lon="-1.77367">
        <ele>21</ele>
        <time>2018-03-25T18:30:12Z</time>
      </trkpt>
      <trkpt lat="46.81139" lon="-1.77364">
        <ele>21</ele>
        <time>2018-03-25T18:31:12Z</time>
      </trkpt>
      <trkpt lat="46.81142" lon="-1.77358">
        <ele>21</ele>
        <time>2018-03-25T18:32:12Z</time>
      </trkpt>
      <trkpt lat="46.81143" lon="-1.77358">
        <ele>21</ele>
        <time>2018-03-25T18:33:12Z</time>
      </trkpt>
      <trkpt lat="46.81153" lon="-1.7735">
        <ele>21</ele>
        <time>2018-03-25T18:34:12Z</time>
      </trkpt>
      <trkpt lat="46.81164" lon="-1.77341">
        <ele>21</ele>
        <time>2018-03-25T18:35:12Z</time>
      </trkpt>
      <trkpt lat="46.8118" lon="-1.7733">
        <ele>21</ele>
        <time>2018-03-25T18:36:12Z</time>
      </trkpt>
      <trkpt lat="46.812" lon="-1.77316">
        <ele>22</ele>
        <time>2018-03-25T18:37:12Z</time>
      </trkpt>
      <trkpt lat="46.81202" lon="-1.77315">
        <ele>22</ele>
        <time>2018-03-25T18:38:12Z</time>
      </trkpt>
      <trkpt lat="46.81212" lon="-1.77307">
        <ele>22</ele>
        <time>2018-03-25T18:39:12Z</time>
      </trkpt>
      <trkpt lat="46.81228" lon="-1.77294">
        <ele>22</ele>
        <time>2018-03-25T18:40:12Z</time>
      </trkpt>
      <trkpt lat="46.81242" lon="-1.77282">
        <ele>23</ele>
        <time>2018-03-25T18:41:12Z</time>
      </trkpt>
      <trkpt lat="46.81268" lon="-1.77258">
        <ele>23</ele>
        <time>2018-03-25T18:42:12Z</time>
      </trkpt>
      <trkpt lat="46.81292" lon="-1.77234">
        <ele>23</ele>
        <time>2018-03-25T18:43:12Z</time>
      </trkpt>
      <trkpt lat="46.813" lon="-1.77229">
        <ele>22</ele>
        <time>2018-03-25T18:44:12Z</time>
      </trkpt>
      <trkpt lat="46.81318" lon="-1.77207">
        <ele>22</ele>
        <time>2018-03-25T18:45:12Z</time>
      </trkpt>
      <trkpt lat="46.81338" lon="-1.77185">
        <ele>22</ele>
        <time>2018-03-25T18:46:12Z</time>
      </trkpt>
      <trkpt lat="46.8141" lon="-1.77102">
        <ele>25</ele>
        <time>2018-03-25T18:47:12Z</time>
      </trkpt>
      <trkpt lat="46.81485" lon="-1.77016">
        <ele>25</ele>
        <time>2018-03-25T18:48:12Z</time>
      </trkpt>
      <trkpt lat="46.81549" lon="-1.76943">
        <ele>26</ele>
        <time>2018-03-25T18:49:12Z</time>
      </trkpt>
      <trkpt lat="46.81582" lon="-1.76905">
        <ele>27</ele>
        <time>2018-03-25T18:50:12Z</time>
      </trkpt>
      <trkpt lat="46.81598" lon="-1.76886">
        <ele>28</ele>
        <time>2018-03-25T18:51:12Z</time>
      </trkpt>
      <trkpt lat="46.81614" lon="-1.76868">
        <ele>29</ele>
        <time>2018-03-25T18:52:12Z</time>
      </trkpt>
      <trkpt lat="46.8166" lon="-1.76816">
        <ele>31</ele>
        <time>2018-03-25T18:53:12Z</time>
      </trkpt>
      <trkpt lat="46.81689" lon="-1.76782">
        <ele>31</ele>
        <time>2018-03-25T18:54:12Z</time>
      </trkpt>
      <trkpt lat="46.81724" lon="-1.76741">
        <ele>32</ele>
        <time>2018-03-25T18:55:12Z</time>
      </trkpt>
      <trkpt lat="46.81731" lon="-1.76733">
        <ele>33</ele>
        <time>2018-03-25T18:56:12Z</time>
      </trkpt>
      <trkpt lat="46.81761" lon="-1.76699">
        <ele>34</ele>
        <time>2018-03-25T18:57:12Z</time>
      </trkpt>
      <trkpt lat="46.81785" lon="-1.76672">
        <ele>34</ele>
        <time>2018-03-25T18:58:12Z</time>
      </trkpt>
      <trkpt lat="46.8179" lon="-1.76666">
        <ele>34</ele>
        <time>2018-03-25T18:59:12Z</time>
      </trkpt>
      <trkpt lat="46.81799" lon="-1.76657">
        <ele>35</ele>
        <time>2018-03-25T19:00:12Z</time>
      </trkpt>
      <trkpt lat="46.8181" lon="-1.76648">
        <ele>35</ele>
        <time>2018-03-25T19:01:12Z</time>
      </trkpt>
      <trkpt lat="46.81839" lon="-1.76625">
        <ele>36</ele>
        <time>2018-03-25T19:02:12Z</time>
      </trkpt>
      <trkpt lat="46.8185" lon="-1.76617">
        <ele>36</ele>
        <time>2018-03-25T19:03:12Z</time>
      </trkpt>
      <trkpt lat="46.81861" lon="-1.7661">
        <ele>36</ele>
        <time>2018-03-25T19:04:12Z</time>
      </trkpt>
      <trkpt lat="46.81875" lon="-1.76603">
        <ele>36</ele>
        <time>2018-03-25T19:05:12Z</time>
      </trkpt>
      <trkpt lat="46.81906" lon="-1.76589">
        <ele>36</ele>
        <time>2018-03-25T19:06:12Z</time>
      </trkpt>
      <trkpt lat="46.81923" lon="-1.7658">
        <ele>36</ele>
        <time>2018-03-25T19:07:12Z</time>
      </trkpt>
      <trkpt lat="46.81931" lon="-1.76576">
        <ele>37</ele>
        <time>2018-03-25T19:08:12Z</time>
      </trkpt>
      <trkpt lat="46.81944" lon="-1.76569">
        <ele>37</ele>
        <time>2018-03-25T19:09:12Z</time>
      </trkpt>
      <trkpt lat="46.81944" lon="-1.76569">
        <ele>37</ele>
        <time>2018-03-25T19:10:12Z</time>
      </trkpt>
      <trkpt lat="46.81944" lon="-1.76567">
        <ele>37</ele>
        <time>2018-03-25T19:11:12Z</time>
      </trkpt>
      <trkpt lat="46.81944" lon="-1.76565">
        <ele>37</ele>
        <time>2018-03-25T19:12:12Z</time>
      </trkpt>
      <trkpt lat="46.81943" lon="-1.76564">
        <ele>37</ele>
        <time>2018-03-25T19:13:12Z</time>
      </trkpt>
      <trkpt lat="46.81943" lon="-1.76562">
        <ele>37</ele>
        <time>2018-03-25T19:14:12Z</time>
      </trkpt>
      <trkpt lat="46.81943" lon="-1.7656">
        <ele>37</ele>
        <time>2018-03-25T19:15:12Z</time>
      </trkpt>
      <trkpt lat="46.81943" lon="-1.76559">
        <ele>37</ele>
        <time>2018-03-25T19:16:12Z</time>
      </trkpt>
      <trkpt lat="46.81943" lon="-1.76557">
        <ele>37</ele>
        <time>2018-03-25T19:17:12Z</time>
      </trkpt>
      <trkpt lat="46.81943" lon="-1.76556">
        <ele>37</ele>
        <time>2018-03-25T19:18:12Z</time>
      </trkpt>
      <trkpt lat="46.81943" lon="-1.76554">
        <ele>37</ele>
        <time>2018-03-25T19:19:12Z</time>
      </trkpt>
      <trkpt lat="46.81944" lon="-1.76552">
        <ele>37</ele>
        <time>2018-03-25T19:20:12Z</time>
      </trkpt>
      <trkpt lat="46.81944" lon="-1.76551">
        <ele>37</ele>
        <time>2018-03-25T19:21:12Z</time>
      </trkpt>
      <trkpt lat="46.81945" lon="-1.76549">
        <ele>37</ele>
        <time>2018-03-25T19:22:12Z</time>
      </trkpt>
      <trkpt lat="46.81945" lon="-1.76548">
        <ele>37</ele>
        <time>2018-03-25T19:23:12Z</time>
      </trkpt>
      <trkpt lat="46.81946" lon="-1.76547">
        <ele>37</ele>
        <time>2018-03-25T19:24:12Z</time>
      </trkpt>
      <trkpt lat="46.81946" lon="-1.76545">
        <ele>37</ele>
        <time>2018-03-25T19:25:12Z</time>
      </trkpt>
      <trkpt lat="46.81947" lon="-1.76544">
        <ele>37</ele>
        <time>2018-03-25T19:26:12Z</time>
      </trkpt>
      <trkpt lat="46.81948" lon="-1.76543">
        <ele>37</ele>
        <time>2018-03-25T19:27:12Z</time>
      </trkpt>
      <trkpt lat="46.81949" lon="-1.76542">
        <ele>37</ele>
        <time>2018-03-25T19:28:12Z</time>
      </trkpt>
      <trkpt lat="46.8195" lon="-1.76541">
        <ele>38</ele>
        <time>2018-03-25T19:29:12Z</time>
      </trkpt>
      <trkpt lat="46.8195" lon="-1.7654">
        <ele>38</ele>
        <time>2018-03-25T19:30:12Z</time>
      </trkpt>
      <trkpt lat="46.81951" lon="-1.76539">
        <ele>38</ele>
        <time>2018-03-25T19:31:12Z</time>
      </trkpt>
      <trkpt lat="46.81952" lon="-1.76538">
        <ele>38</ele>
        <time>2018-03-25T19:32:12Z</time>
      </trkpt>
      <trkpt lat="46.81953" lon="-1.76538">
        <ele>38</ele>
        <time>2018-03-25T19:33:12Z</time>
      </trkpt>
      <trkpt lat="46.81954" lon="-1.76537">
        <ele>38</ele>
        <time>2018-03-25T19:34:12Z</time>
      </trkpt>
      <trkpt lat="46.81956" lon="-1.76537">
        <ele>38</ele>
        <time>2018-03-25T19:35:12Z</time>
      </trkpt>
      <trkpt lat="46.81957" lon="-1.76537">
        <ele>38</ele>
        <time>2018-03-25T19:36:12Z</time>
      </trkpt>
      <trkpt lat="46.81958" lon="-1.76536">
        <ele>38</ele>
        <time>2018-03-25T19:37:12Z</time>
      </trkpt>
      <trkpt lat="46.81959" lon="-1.76536">
        <ele>38</ele>
        <time>2018-03-25T19:38:12Z</time>
      </trkpt>
      <trkpt lat="46.8196" lon="-1.76536">
        <ele>38</ele>
        <time>2018-03-25T19:39:12Z</time>
      </trkpt>
      <trkpt lat="46.81961" lon="-1.76536">
        <ele>38</ele>
        <time>2018-03-25T19:40:12Z</time>
      </trkpt>
      <trkpt lat="46.81962" lon="-1.76537">
        <ele>38</ele>
        <time>2018-03-25T19:41:12Z</time>
      </trkpt>
      <trkpt lat="46.81963" lon="-1.76537">
        <ele>38</ele>
        <time>2018-03-25T19:42:12Z</time>
      </trkpt>
      <trkpt lat="46.81964" lon="-1.76538">
        <ele>38</ele>
        <time>2018-03-25T19:43:12Z</time>
      </trkpt>
      <trkpt lat="46.81965" lon="-1.76538">
        <ele>38</ele>
        <time>2018-03-25T19:44:12Z</time>
      </trkpt>
      <trkpt lat="46.81966" lon="-1.76539">
        <ele>38</ele>
        <time>2018-03-25T19:45:12Z</time>
      </trkpt>
      <trkpt lat="46.81967" lon="-1.7654">
        <ele>38</ele>
        <time>2018-03-25T19:46:12Z</time>
      </trkpt>
      <trkpt lat="46.81968" lon="-1.76541">
        <ele>38</ele>
        <time>2018-03-25T19:47:12Z</time>
      </trkpt>
      <trkpt lat="46.81969" lon="-1.76542">
        <ele>38</ele>
        <time>2018-03-25T19:48:12Z</time>
      </trkpt>
      <trkpt lat="46.8197" lon="-1.76543">
        <ele>38</ele>
        <time>2018-03-25T19:49:12Z</time>
      </trkpt>
      <trkpt lat="46.81971" lon="-1.76544">
        <ele>38</ele>
        <time>2018-03-25T19:50:12Z</time>
      </trkpt>
      <trkpt lat="46.81971" lon="-1.76545">
        <ele>38</ele>
        <time>2018-03-25T19:51:12Z</time>
      </trkpt>
      <trkpt lat="46.81972" lon="-1.76547">
        <ele>38</ele>
        <time>2018-03-25T19:52:12Z</time>
      </trkpt>
      <trkpt lat="46.81973" lon="-1.76549">
        <ele>38</ele>
        <time>2018-03-25T19:53:12Z</time>
      </trkpt>
      <trkpt lat="46.81986" lon="-1.76539">
        <ele>39</ele>
        <time>2018-03-25T19:54:12Z</time>
      </trkpt>
      <trkpt lat="46.81997" lon="-1.76529">
        <ele>39</ele>
        <time>2018-03-25T19:55:12Z</time>
      </trkpt>
      <trkpt lat="46.82013" lon="-1.76512">
        <ele>40</ele>
        <time>2018-03-25T19:56:12Z</time>
      </trkpt>
      <trkpt lat="46.8205" lon="-1.76468">
        <ele>41</ele>
        <time>2018-03-25T19:57:12Z</time>
      </trkpt>
      <trkpt lat="46.82056" lon="-1.76457">
        <ele>41</ele>
        <time>2018-03-25T19:58:12Z</time>
      </trkpt>
      <trkpt lat="46.82071" lon="-1.76436">
        <ele>42</ele>
        <time>2018-03-25T19:59:12Z</time>
      </trkpt>
      <trkpt lat="46.82089" lon="-1.76414">
        <ele>42</ele>
        <time>2018-03-25T20:00:12Z</time>
      </trkpt>
      <trkpt lat="46.82099" lon="-1.76404">
        <ele>43</ele>
        <time>2018-03-25T20:01:12Z</time>
      </trkpt>
      <trkpt lat="46.82115" lon="-1.76393">
        <ele>45</ele>
        <time>2018-03-25T20:02:12Z</time>
      </trkpt>
      <trkpt lat="46.82127" lon="-1.76385">
        <ele>46</ele>
        <time>2018-03-25T20:03:12Z</time>
      </trkpt>
      <trkpt lat="46.8214" lon="-1.76378">
        <ele>47</ele>
        <time>2018-03-25T20:04:12Z</time>
      </trkpt>
      <trkpt lat="46.82151" lon="-1.76373">
        <ele>47</ele>
        <time>2018-03-25T20:05:12Z</time>
      </trkpt>
      <trkpt lat="46.82159" lon="-1.76372">
        <ele>48</ele>
        <time>2018-03-25T20:06:12Z</time>
      </trkpt>
      <trkpt lat="46.82181" lon="-1.76363">
        <ele>49</ele>
        <time>2018-03-25T20:07:12Z</time>
      </trkpt>
      <trkpt lat="46.82221" lon="-1.7635">
        <ele>49</ele>
        <time>2018-03-25T20:08:12Z</time>
      </trkpt>
      <trkpt lat="46.82224" lon="-1.76348">
        <ele>50</ele>
        <time>2018-03-25T20:09:12Z</time>
      </trkpt>
      <trkpt lat="46.82263" lon="-1.76329">
        <ele>50</ele>
        <time>2018-03-25T20:10:12Z</time>
      </trkpt>
      <trkpt lat="46.82272" lon="-1.76323">
        <ele>51</ele>
        <time>2018-03-25T20:11:12Z</time>
      </trkpt>
      <trkpt lat="46.82282" lon="-1.76316">
        <ele>51</ele>
        <time>2018-03-25T20:12:12Z</time>
      </trkpt>
      <trkpt lat="46.82294" lon="-1.76306">
        <ele>52</ele>
        <time>2018-03-25T20:13:12Z</time>
      </trkpt>
      <trkpt lat="46.82306" lon="-1.76294">
        <ele>53</ele>
        <time>2018-03-25T20:14:12Z</time>
      </trkpt>
      <trkpt lat="46.82324" lon="-1.76274">
        <ele>54</ele>
        <time>2018-03-25T20:15:12Z</time>
      </trkpt>
      <trkpt lat="46.82335" lon="-1.76263">
        <ele>55</ele>
        <time>2018-03-25T20:16:12Z</time>
      </trkpt>
      <trkpt lat="46.82344" lon="-1.76255">
        <ele>56</ele>
        <time>2018-03-25T20:17:12Z</time>
      </trkpt>
      <trkpt lat="46.82351" lon="-1.76249">
        <ele>56</ele>
        <time>2018-03-25T20:18:12Z</time>
      </trkpt>
      <trkpt lat="46.82366" lon="-1.76239">
        <ele>56</ele>
        <time>2018-03-25T20:19:12Z</time>
      </trkpt>
      <trkpt lat="46.82375" lon="-1.76233">
        <ele>56</ele>
        <time>2018-03-25T20:20:12Z</time>
      </trkpt>
      <trkpt lat="46.82406" lon="-1.76212">
        <ele>57</ele>
        <time>2018-03-25T20:21:12Z</time>
      </trkpt>
      <trkpt lat="46.8241" lon="-1.76209">
        <ele>57</ele>
        <time>2018-03-25T20:22:12Z</time>
      </trkpt>
      <trkpt lat="46.82411" lon="-1.76208">
        <ele>57</ele>
        <time>2018-03-25T20:23:12Z</time>
      </trkpt>
      <trkpt lat="46.82465" lon="-1.7617">
        <ele>57</ele>
        <time>2018-03-25T20:24:12Z</time>
      </trkpt>
      <trkpt lat="46.82468" lon="-1.76168">
        <ele>57</ele>
        <time>2018-03-25T20:25:12Z</time>
      </trkpt>
      <trkpt lat="46.8248" lon="-1.7616">
        <ele>57</ele>
        <time>2018-03-25T20:26:12Z</time>
      </trkpt>
      <trkpt lat="46.82492" lon="-1.76154">
        <ele>57</ele>
        <time>2018-03-25T20:27:12Z</time>
      </trkpt>
      <trkpt lat="46.82502" lon="-1.76148">
        <ele>56</ele>
        <time>2018-03-25T20:28:12Z</time>
      </trkpt>
      <trkpt lat="46.82513" lon="-1.76144">
        <ele>56</ele>
        <time>2018-03-25T20:29:12Z</time>
      </trkpt>
      <trkpt lat="46.82524" lon="-1.76142">
        <ele>56</ele>
        <time>2018-03-25T20:30:12Z</time>
      </trkpt>
      <trkpt lat="46.82535" lon="-1.7614">
        <ele>55</ele>
        <time>2018-03-25T20:31:12Z</time>
      </trkpt>
      <trkpt lat="46.82545" lon="-1.7614">
        <ele>55</ele>
        <time>2018-03-25T20:32:12Z</time>
      </trkpt>
      <trkpt lat="46.82557" lon="-1.76141">
        <ele>55</ele>
        <time>2018-03-25T20:33:12Z</time>
      </trkpt>
      <trkpt lat="46.82575" lon="-1.76144">
        <ele>54</ele>
        <time>2018-03-25T20:34:12Z</time>
      </trkpt>
      <trkpt lat="46.82584" lon="-1.76146">
        <ele>54</ele>
        <time>2018-03-25T20:35:12Z</time>
      </trkpt>
      <trkpt lat="46.82588" lon="-1.76147">
        <ele>54</ele>
        <time>2018-03-25T20:36:12Z</time>
      </trkpt>
      <trkpt lat="46.82627" lon="-1.76157">
        <ele>55</ele>
        <time>2018-03-25T20:37:12Z</time>
      </trkpt>
      <trkpt lat="46.82635" lon="-1.7616">
        <ele>55</ele>
        <time>2018-03-25T20:38:12Z</time>
      </trkpt>
      <trkpt lat="46.82649" lon="-1.76163">
        <ele>55</ele>
        <time>2018-03-25T20:39:12Z</time>
      </trkpt>
      <trkpt lat="46.82672" lon="-1.76168">
        <ele>56</ele>
        <time>2018-03-25T20:40:12Z</time>
      </trkpt>
      <trkpt lat="46.82687" lon="-1.7617">
        <ele>56</ele>
        <time>2018-03-25T20:41:12Z</time>
      </trkpt>
      <trkpt lat="46.82687" lon="-1.7617">
        <ele>56</ele>
        <time>2018-03-25T20:42:12Z</time>
      </trkpt>
      <trkpt lat="46.82687" lon="-1.76169">
        <ele>56</ele>
        <time>2018-03-25T20:43:12Z</time>
      </trkpt>
      <trkpt lat="46.82687" lon="-1.76168">
        <ele>56</ele>
        <time>2018-03-25T20:44:12Z</time>
      </trkpt>
      <trkpt lat="46.82687" lon="-1.76167">
        <ele>56</ele>
        <time>2018-03-25T20:45:12Z</time>
      </trkpt>
      <trkpt lat="46.82687" lon="-1.76166">
        <ele>56</ele>
        <time>2018-03-25T20:46:12Z</time>
      </trkpt>
      <trkpt lat="46.82687" lon="-1.76165">
        <ele>56</ele>
        <time>2018-03-25T20:47:12Z</time>
      </trkpt>
      <trkpt lat="46.82687" lon="-1.76164">
        <ele>56</ele>
        <time>2018-03-25T20:48:12Z</time>
      </trkpt>
      <trkpt lat="46.82688" lon="-1.76164">
        <ele>56</ele>
        <time>2018-03-25T20:49:12Z</time>
      </trkpt>
      <trkpt lat="46.82688" lon="-1.76163">
        <ele>56</ele>
        <time>2018-03-25T20:50:12Z</time>
      </trkpt>
      <trkpt lat="46.82688" lon="-1.76162">
        <ele>56</ele>
        <time>2018-03-25T20:51:12Z</time>
      </trkpt>
      <trkpt lat="46.82689" lon="-1.76162">
        <ele>56</ele>
        <time>2018-03-25T20:52:12Z</time>
      </trkpt>
      <trkpt lat="46.82689" lon="-1.76161">
        <ele>56</ele>
        <time>2018-03-25T20:53:12Z</time>
      </trkpt>
      <trkpt lat="46.8269" lon="-1.76161">
        <ele>56</ele>
        <time>2018-03-25T20:54:12Z</time>
      </trkpt>
      <trkpt lat="46.8269" lon="-1.7616">
        <ele>56</ele>
        <time>2018-03-25T20:55:12Z</time>
      </trkpt>
      <trkpt lat="46.82691" lon="-1.7616">
        <ele>56</ele>
        <time>2018-03-25T20:56:12Z</time>
      </trkpt>
      <trkpt lat="46.82691" lon="-1.76159">
        <ele>56</ele>
        <time>2018-03-25T20:57:12Z</time>
      </trkpt>
      <trkpt lat="46.82692" lon="-1.76159">
        <ele>56</ele>
        <time>2018-03-25T20:58:12Z</time>
      </trkpt>
      <trkpt lat="46.82693" lon="-1.76159">
        <ele>56</ele>
        <time>2018-03-25T20:59:12Z</time>
      </trkpt>
      <trkpt lat="46.82694" lon="-1.76159">
        <ele>56</ele>
        <time>2018-03-25T21:00:12Z</time>
      </trkpt>
      <trkpt lat="46.82695" lon="-1.76159">
        <ele>56</ele>
        <time>2018-03-25T21:01:12Z</time>
      </trkpt>
      <trkpt lat="46.82696" lon="-1.76159">
        <ele>56</ele>
        <time>2018-03-25T21:02:12Z</time>
      </trkpt>
      <trkpt lat="46.82696" lon="-1.7616">
        <ele>56</ele>
        <time>2018-03-25T21:03:12Z</time>
      </trkpt>
      <trkpt lat="46.82697" lon="-1.7616">
        <ele>56</ele>
        <time>2018-03-25T21:04:12Z</time>
      </trkpt>
      <trkpt lat="46.82697" lon="-1.76161">
        <ele>56</ele>
        <time>2018-03-25T21:05:12Z</time>
      </trkpt>
      <trkpt lat="46.82698" lon="-1.76161">
        <ele>56</ele>
        <time>2018-03-25T21:06:12Z</time>
      </trkpt>
      <trkpt lat="46.82698" lon="-1.76162">
        <ele>56</ele>
        <time>2018-03-25T21:07:12Z</time>
      </trkpt>
      <trkpt lat="46.82699" lon="-1.76162">
        <ele>56</ele>
        <time>2018-03-25T21:08:12Z</time>
      </trkpt>
      <trkpt lat="46.82699" lon="-1.76163">
        <ele>56</ele>
        <time>2018-03-25T21:09:12Z</time>
      </trkpt>
      <trkpt lat="46.82699" lon="-1.76164">
        <ele>56</ele>
        <time>2018-03-25T21:10:12Z</time>
      </trkpt>
      <trkpt lat="46.827" lon="-1.76164">
        <ele>56</ele>
        <time>2018-03-25T21:11:12Z</time>
      </trkpt>
      <trkpt lat="46.827" lon="-1.76165">
        <ele>56</ele>
        <time>2018-03-25T21:12:12Z</time>
      </trkpt>
      <trkpt lat="46.827" lon="-1.76166">
        <ele>56</ele>
        <time>2018-03-25T21:13:12Z</time>
      </trkpt>
      <trkpt lat="46.827" lon="-1.76167">
        <ele>56</ele>
        <time>2018-03-25T21:14:12Z</time>
      </trkpt>
      <trkpt lat="46.82701" lon="-1.76168">
        <ele>56</ele>
        <time>2018-03-25T21:15:12Z</time>
      </trkpt>
      <trkpt lat="46.82701" lon="-1.76169">
        <ele>56</ele>
        <time>2018-03-25T21:16:12Z</time>
      </trkpt>
      <trkpt lat="46.82701" lon="-1.7617">
        <ele>56</ele>
        <time>2018-03-25T21:17:12Z</time>
      </trkpt>
      <trkpt lat="46.827" lon="-1.76171">
        <ele>56</ele>
        <time>2018-03-25T21:18:12Z</time>
      </trkpt>
      <trkpt lat="46.827" lon="-1.76172">
        <ele>56</ele>
        <time>2018-03-25T21:19:12Z</time>
      </trkpt>
      <trkpt lat="46.827" lon="-1.76173">
        <ele>56</ele>
        <time>2018-03-25T21:20:12Z</time>
      </trkpt>
      <trkpt lat="46.827" lon="-1.76174">
        <ele>56</ele>
        <time>2018-03-25T21:21:12Z</time>
      </trkpt>
      <trkpt lat="46.82699" lon="-1.76175">
        <ele>56</ele>
        <time>2018-03-25T21:22:12Z</time>
      </trkpt>
      <trkpt lat="46.82699" lon="-1.76176">
        <ele>56</ele>
        <time>2018-03-25T21:23:12Z</time>
      </trkpt>
      <trkpt lat="46.82698" lon="-1.76176">
        <ele>56</ele>
        <time>2018-03-25T21:24:12Z</time>
      </trkpt>
      <trkpt lat="46.82698" lon="-1.76177">
        <ele>56</ele>
        <time>2018-03-25T21:25:12Z</time>
      </trkpt>
      <trkpt lat="46.82697" lon="-1.76178">
        <ele>56</ele>
        <time>2018-03-25T21:26:12Z</time>
      </trkpt>
      <trkpt lat="46.82705" lon="-1.76187">
        <ele>56</ele>
        <time>2018-03-25T21:27:12Z</time>
      </trkpt>
      <trkpt lat="46.8271" lon="-1.76193">
        <ele>56</ele>
        <time>2018-03-25T21:28:12Z</time>
      </trkpt>
      <trkpt lat="46.82719" lon="-1.76199">
        <ele>56</ele>
        <time>2018-03-25T21:29:12Z</time>
      </trkpt>
      <trkpt lat="46.82735" lon="-1.76207">
        <ele>56</ele>
        <time>2018-03-25T21:30:12Z</time>
      </trkpt>
      <trkpt lat="46.8275" lon="-1.76214">
        <ele>56</ele>
        <time>2018-03-25T21:31:12Z</time>
      </trkpt>
      <trkpt lat="46.82761" lon="-1.76219">
        <ele>56</ele>
        <time>2018-03-25T21:32:12Z</time>
      </trkpt>
      <trkpt lat="46.82806" lon="-1.7624">
        <ele>57</ele>
        <time>2018-03-25T21:33:12Z</time>
      </trkpt>
      <trkpt lat="46.82852" lon="-1.76264">
        <ele>58</ele>
        <time>2018-03-25T21:34:12Z</time>
      </trkpt>
      <trkpt lat="46.82861" lon="-1.76268">
        <ele>58</ele>
        <time>2018-03-25T21:35:12Z</time>
      </trkpt>
      <trkpt lat="46.82871" lon="-1.76274">
        <ele>58</ele>
        <time>2018-03-25T21:36:12Z</time>
      </trkpt>
      <trkpt lat="46.82892" lon="-1.76272">
        <ele>59</ele>
        <time>2018-03-25T21:37:12Z</time>
      </trkpt>
      <trkpt lat="46.82892" lon="-1.76272">
        <ele>59</ele>
        <time>2018-03-25T21:38:12Z</time>
      </trkpt>
      <trkpt lat="46.82893" lon="-1.76271">
        <ele>59</ele>
        <time>2018-03-25T21:39:12Z</time>
      </trkpt>
      <trkpt lat="46.82894" lon="-1.76271">
        <ele>59</ele>
        <time>2018-03-25T21:40:12Z</time>
      </trkpt>
      <trkpt lat="46.82895" lon="-1.76271">
        <ele>59</ele>
        <time>2018-03-25T21:41:12Z</time>
      </trkpt>
      <trkpt lat="46.82896" lon="-1.76271">
        <ele>59</ele>
        <time>2018-03-25T21:42:12Z</time>
      </trkpt>
      <trkpt lat="46.82897" lon="-1.76271">
        <ele>59</ele>
        <time>2018-03-25T21:43:12Z</time>
      </trkpt>
      <trkpt lat="46.82898" lon="-1.76271">
        <ele>60</ele>
        <time>2018-03-25T21:44:12Z</time>
      </trkpt>
      <trkpt lat="46.82899" lon="-1.76271">
        <ele>60</ele>
        <time>2018-03-25T21:45:12Z</time>
      </trkpt>
      <trkpt lat="46.82899" lon="-1.76272">
        <ele>60</ele>
        <time>2018-03-25T21:46:12Z</time>
      </trkpt>
      <trkpt lat="46.82908" lon="-1.76265">
        <ele>60</ele>
        <time>2018-03-25T21:47:12Z</time>
      </trkpt>
      <trkpt lat="46.82911" lon="-1.76263">
        <ele>60</ele>
        <time>2018-03-25T21:48:12Z</time>
      </trkpt>
      <trkpt lat="46.82915" lon="-1.76263">
        <ele>60</ele>
        <time>2018-03-25T21:49:12Z</time>
      </trkpt>
      <trkpt lat="46.82936" lon="-1.76263">
        <ele>60</ele>
        <time>2018-03-25T21:50:12Z</time>
      </trkpt>
      <trkpt lat="46.82937" lon="-1.76263">
        <ele>60</ele>
        <time>2018-03-25T21:51:12Z</time>
      </trkpt>
      <trkpt lat="46.82942" lon="-1.76264">
        <ele>60</ele>
        <time>2018-03-25T21:52:12Z</time>
      </trkpt>
      <trkpt lat="46.8295" lon="-1.76263">
        <ele>60</ele>
        <time>2018-03-25T21:53:12Z</time>
      </trkpt>
      <trkpt lat="46.82967" lon="-1.76259">
        <ele>61</ele>
        <time>2018-03-25T21:54:12Z</time>
      </trkpt>
      <trkpt lat="46.82991" lon="-1.76254">
        <ele>61</ele>
        <time>2018-03-25T21:55:12Z</time>
      </trkpt>
      <trkpt lat="46.83001" lon="-1.76252">
        <ele>61</ele>
        <time>2018-03-25T21:56:12Z</time>
      </trkpt>
      <trkpt lat="46.83031" lon="-1.76246">
        <ele>61</ele>
        <time>2018-03-25T21:57:12Z</time>
      </trkpt>
      <trkpt lat="46.83058" lon="-1.76241">
        <ele>61</ele>
        <time>2018-03-25T21:58:12Z</time>
      </trkpt>
      <trkpt lat="46.83077" lon="-1.76238">
        <ele>61</ele>
        <time>2018-03-25T21:59:12Z</time>
      </trkpt>
      <trkpt lat="46.83098" lon="-1.76235">
        <ele>61</ele>
        <time>2018-03-25T22:00:12Z</time>
      </trkpt>
      <trkpt lat="46.83119" lon="-1.76233">
        <ele>61</ele>
        <time>2018-03-25T22:01:12Z</time>
      </trkpt>
      <trkpt lat="46.83138" lon="-1.76232">
        <ele>61</ele>
        <time>2018-03-25T22:02:12Z</time>
      </trkpt>
      <trkpt lat="46.83152" lon="-1.76232">
        <ele>61</ele>
        <time>2018-03-25T22:03:12Z</time>
      </trkpt>
      <trkpt lat="46.83176" lon="-1.76234">
        <ele>61</ele>
        <time>2018-03-25T22:04:12Z</time>
      </trkpt>
      <trkpt lat="46.83197" lon="-1.76238">
        <ele>61</ele>
        <time>2018-03-25T22:05:12Z</time>
      </trkpt>
      <trkpt lat="46.83216" lon="-1.76243">
        <ele>60</ele>
        <time>2018-03-25T22:06:12Z</time>
      </trkpt>
      <trkpt lat="46.83236" lon="-1.76248">
        <ele>60</ele>
        <time>2018-03-25T22:07:12Z</time>
      </trkpt>
      <trkpt lat="46.83255" lon="-1.76256">
        <ele>60</ele>
        <time>2018-03-25T22:08:12Z</time>
      </trkpt>
      <trkpt lat="46.8328" lon="-1.76267">
        <ele>61</ele>
        <time>2018-03-25T22:09:12Z</time>
      </trkpt>
      <trkpt lat="46.8331" lon="-1.7628">
        <ele>62</ele>
        <time>2018-03-25T22:10:12Z</time>
      </trkpt>
      <trkpt lat="46.83333" lon="-1.76291">
        <ele>62</ele>
        <time>2018-03-25T22:11:12Z</time>
      </trkpt>
      <trkpt lat="46.83352" lon="-1.763">
        <ele>63</ele>
        <time>2018-03-25T22:12:12Z</time>
      </trkpt>
      <trkpt lat="46.8336" lon="-1.76303">
        <ele>63</ele>
        <time>2018-03-25T22:13:12Z</time>
      </trkpt>
      <trkpt lat="46.83377" lon="-1.76311">
        <ele>62</ele>
        <time>2018-03-25T22:14:12Z</time>
      </trkpt>
      <trkpt lat="46.83385" lon="-1.76314">
        <ele>62</ele>
        <time>2018-03-25T22:15:12Z</time>
      </trkpt>
      <trkpt lat="46.83391" lon="-1.76317">
        <ele>62</ele>
        <time>2018-03-25T22:16:12Z</time>
      </trkpt>
      <trkpt lat="46.83439" lon="-1.76339">
        <ele>62</ele>
        <time>2018-03-25T22:17:12Z</time>
      </trkpt>
      <trkpt lat="46.83472" lon="-1.76354">
        <ele>62</ele>
        <time>2018-03-25T22:18:12Z</time>
      </trkpt>
      <trkpt lat="46.83503" lon="-1.76368">
        <ele>61</ele>
        <time>2018-03-25T22:19:12Z</time>
      </trkpt>
      <trkpt lat="46.83542" lon="-1.76385">
        <ele>62</ele>
        <time>2018-03-25T22:20:12Z</time>
      </trkpt>
      <trkpt lat="46.83566" lon="-1.76392">
        <ele>63</ele>
        <time>2018-03-25T22:21:12Z</time>
      </trkpt>
      <trkpt lat="46.8359" lon="-1.76398">
        <ele>63</ele>
        <time>2018-03-25T22:22:12Z</time>
      </trkpt>
      <trkpt lat="46.83611" lon="-1.764">
        <ele>63</ele>
        <time>2018-03-25T22:23:12Z</time>
      </trkpt>
      <trkpt lat="46.83635" lon="-1.76401">
        <ele>62</ele>
        <time>2018-03-25T22:24:12Z</time>
      </trkpt>
      <trkpt lat="46.83665" lon="-1.76401">
        <ele>62</ele>
        <time>2018-03-25T22:25:12Z</time>
      </trkpt>
      <trkpt lat="46.83692" lon="-1.764">
        <ele>62</ele>
        <time>2018-03-25T22:26:12Z</time>
      </trkpt>
      <trkpt lat="46.83719" lon="-1.76399">
        <ele>62</ele>
        <time>2018-03-25T22:27:12Z</time>
      </trkpt>
      <trkpt lat="46.8376" lon="-1.76399">
        <ele>62</ele>
        <time>2018-03-25T22:28:12Z</time>
      </trkpt>
      <trkpt lat="46.83811" lon="-1.76399">
        <ele>63</ele>
        <time>2018-03-25T22:29:12Z</time>
      </trkpt>
      <trkpt lat="46.83863" lon="-1.76398">
        <ele>63</ele>
        <time>2018-03-25T22:30:12Z</time>
      </trkpt>
      <trkpt lat="46.83911" lon="-1.76398">
        <ele>62</ele>
        <time>2018-03-25T22:31:12Z</time>
      </trkpt>
      <trkpt lat="46.83958" lon="-1.76398">
        <ele>62</ele>
        <time>2018-03-25T22:32:12Z</time>
      </trkpt>
      <trkpt lat="46.83963" lon="-1.76398">
        <ele>62</ele>
        <time>2018-03-25T22:33:12Z</time>
      </trkpt>
      <trkpt lat="46.84012" lon="-1.76397">
        <ele>62</ele>
        <time>2018-03-25T22:34:12Z</time>
      </trkpt>
      <trkpt lat="46.84064" lon="-1.76396">
        <ele>62</ele>
        <time>2018-03-25T22:35:12Z</time>
      </trkpt>
      <trkpt lat="46.84077" lon="-1.76396">
        <ele>62</ele>
        <time>2018-03-25T22:36:12Z</time>
      </trkpt>
      <trkpt lat="46.84106" lon="-1.76396">
        <ele>62</ele>
        <time>2018-03-25T22:37:12Z</time>
      </trkpt>
      <trkpt lat="46.8413" lon="-1.76396">
        <ele>62</ele>
        <time>2018-03-25T22:38:12Z</time>
      </trkpt>
      <trkpt lat="46.84134" lon="-1.76396">
        <ele>62</ele>
        <time>2018-03-25T22:39:12Z</time>
      </trkpt>
      <trkpt lat="46.84183" lon="-1.76396">
        <ele>63</ele>
        <time>2018-03-25T22:40:12Z</time>
      </trkpt>
      <trkpt lat="46.84216" lon="-1.76395">
        <ele>62</ele>
        <time>2018-03-25T22:41:12Z</time>
      </trkpt>
      <trkpt lat="46.8425" lon="-1.76391">
        <ele>62</ele>
        <time>2018-03-25T22:42:12Z</time>
      </trkpt>
      <trkpt lat="46.84287" lon="-1.76386">
        <ele>62</ele>
        <time>2018-03-25T22:43:12Z</time>
      </trkpt>
      <trkpt lat="46.84322" lon="-1.76381">
        <ele>62</ele>
        <time>2018-03-25T22:44:12Z</time>
      </trkpt>
      <trkpt lat="46.84367" lon="-1.76374">
        <ele>62</ele>
        <time>2018-03-25T22:45:12Z</time>
      </trkpt>
      <trkpt lat="46.84406" lon="-1.76368">
        <ele>62</ele>
        <time>2018-03-25T22:46:12Z</time>
      </trkpt>
      <trkpt lat="46.84458" lon="-1.7636">
        <ele>62</ele>
        <time>2018-03-25T22:47:12Z</time>
      </trkpt>
      <trkpt lat="46.84505" lon="-1.76353">
        <ele>61</ele>
        <time>2018-03-25T22:48:12Z</time>
      </trkpt>
      <trkpt lat="46.84541" lon="-1.76349">
        <ele>61</ele>
        <time>2018-03-25T22:49:12Z</time>
      </trkpt>
      <trkpt lat="46.8457" lon="-1.76346">
        <ele>61</ele>
        <time>2018-03-25T22:50:12Z</time>
      </trkpt>
      <trkpt lat="46.84602" lon="-1.76344">
        <ele>61</ele>
        <time>2018-03-25T22:51:12Z</time>
      </trkpt>
      <trkpt lat="46.84635" lon="-1.76344">
        <ele>61</ele>
        <time>2018-03-25T22:52:12Z</time>
      </trkpt>
      <trkpt lat="46.84671" lon="-1.76344">
        <ele>61</ele>
        <time>2018-03-25T22:53:12Z</time>
      </trkpt>
      <trkpt lat="46.847" lon="-1.76343">
        <ele>61</ele>
        <time>2018-03-25T22:54:12Z</time>
      </trkpt>
      <trkpt lat="46.84756" lon="-1.76342">
        <ele>61</ele>
        <time>2018-03-25T22:55:12Z</time>
      </trkpt>
      <trkpt lat="46.84815" lon="-1.76341">
        <ele>60</ele>
        <time>2018-03-25T22:56:12Z</time>
      </trkpt>
      <trkpt lat="46.8487" lon="-1.7634">
        <ele>59</ele>
        <time>2018-03-25T22:57:12Z</time>
      </trkpt>
      <trkpt lat="46.84902" lon="-1.7634">
        <ele>59</ele>
        <time>2018-03-25T22:58:12Z</time>
      </trkpt>
      <trkpt lat="46.84946" lon="-1.76341">
        <ele>59</ele>
        <time>2018-03-25T22:59:12Z</time>
      </trkpt>
      <trkpt lat="46.8501" lon="-1.76341">
        <ele>60</ele>
        <time>2018-03-25T23:00:12Z</time>
      </trkpt>
      <trkpt lat="46.85103" lon="-1.76341">
        <ele>59</ele>
        <time>2018-03-25T23:01:12Z</time>
      </trkpt>
      <trkpt lat="46.85145" lon="-1.7634">
        <ele>59</ele>
        <time>2018-03-25T23:02:12Z</time>
      </trkpt>
      <trkpt lat="46.85177" lon="-1.76333">
        <ele>59</ele>
        <time>2018-03-25T23:03:12Z</time>
      </trkpt>
      <trkpt lat="46.85218" lon="-1.7632">
        <ele>59</ele>
        <time>2018-03-25T23:04:12Z</time>
      </trkpt>
      <trkpt lat="46.85222" lon="-1.76317">
        <ele>59</ele>
        <time>2018-03-25T23:05:12Z</time>
      </trkpt>
      <trkpt lat="46.85228" lon="-1.76315">
        <ele>59</ele>
        <time>2018-03-25T23:06:12Z</time>
      </trkpt>
      <trkpt lat="46.85258" lon="-1.76304">
        <ele>59</ele>
        <time>2018-03-25T23:07:12Z</time>
      </trkpt>
      <trkpt lat="46.85293" lon="-1.76294">
        <ele>59</ele>
        <time>2018-03-25T23:08:12Z</time>
      </trkpt>
      <trkpt lat="46.85326" lon="-1.76291">
        <ele>59</ele>
        <time>2018-03-25T23:09:12Z</time>
      </trkpt>
      <trkpt lat="46.85326" lon="-1.76291">
        <ele>59</ele>
        <time>2018-03-25T23:10:12Z</time>
      </trkpt>
      <trkpt lat="46.8534" lon="-1.76289">
        <ele>59</ele>
        <time>2018-03-25T23:11:12Z</time>
      </trkpt>
      <trkpt lat="46.8537" lon="-1.76288">
        <ele>59</ele>
        <time>2018-03-25T23:12:12Z</time>
      </trkpt>
      <trkpt lat="46.85441" lon="-1.76287">
        <ele>58</ele>
        <time>2018-03-25T23:13:12Z</time>
      </trkpt>
      <trkpt lat="46.85509" lon="-1.76281">
        <ele>57</ele>
        <time>2018-03-25T23:14:12Z</time>
      </trkpt>
      <trkpt lat="46.85568" lon="-1.7627">
        <ele>58</ele>
        <time>2018-03-25T23:15:12Z</time>
      </trkpt>
      <trkpt lat="46.85652" lon="-1.76253">
        <ele>56</ele>
        <time>2018-03-25T23:16:12Z</time>
      </trkpt>
      <trkpt lat="46.85692" lon="-1.76239">
        <ele>55</ele>
        <time>2018-03-25T23:17:12Z</time>
      </trkpt>
      <trkpt lat="46.85734" lon="-1.76221">
        <ele>55</ele>
        <time>2018-03-25T23:18:12Z</time>
      </trkpt>
      <trkpt lat="46.85789" lon="-1.76197">
        <ele>54</ele>
        <time>2018-03-25T23:19:12Z</time>
      </trkpt>
      <trkpt lat="46.85805" lon="-1.76191">
        <ele>54</ele>
        <time>2018-03-25T23:20:12Z</time>
      </trkpt>
      <trkpt lat="46.85849" lon="-1.76177">
        <ele>54</ele>
        <time>2018-03-25T23:21:12Z</time>
      </trkpt>
      <trkpt lat="46.85891" lon="-1.76164">
        <ele>55</ele>
        <time>2018-03-25T23:22:12Z</time>
      </trkpt>
      <trkpt lat="46.85926" lon="-1.76153">
        <ele>55</ele>
        <time>2018-03-25T23:23:12Z</time>
      </trkpt>
      <trkpt lat="46.85992" lon="-1.76135">
        <ele>54</ele>
        <time>2018-03-25T23:24:12Z</time>
      </trkpt>
      <trkpt lat="46.86019" lon="-1.76127">
        <ele>53</ele>
        <time>2018-03-25T23:25:12Z</time>
      </trkpt>
      <trkpt lat="46.86023" lon="-1.76126">
        <ele>53</ele>
        <time>2018-03-25T23:26:12Z</time>
      </trkpt>
      <trkpt lat="46.86136" lon="-1.76093">
        <ele>52</ele>
        <time>2018-03-25T23:27:12Z</time>
      </trkpt>
      <trkpt lat="46.86243" lon="-1.76061">
        <ele>51</ele>
        <time>2018-03-25T23:28:12Z</time>
      </trkpt>
      <trkpt lat="46.86261" lon="-1.76056">
        <ele>51</ele>
        <time>2018-03-25T23:29:12Z</time>
      </trkpt>
      <trkpt lat="46.86345" lon="-1.7603">
        <ele>52</ele>
        <time>2018-03-25T23:30:12Z</time>
      </trkpt>
      <trkpt lat="46.86388" lon="-1.76018">
        <ele>51</ele>
        <time>2018-03-25T23:31:12Z</time>
      </trkpt>
      <trkpt lat="46.86449" lon="-1.75999">
        <ele>51</ele>
        <time>2018-03-25T23:32:12Z</time>
      </trkpt>
      <trkpt lat="46.86515" lon="-1.7598">
        <ele>49</ele>
        <time>2018-03-25T23:33:12Z</time>
      </trkpt>
      <trkpt lat="46.86588" lon="-1.75957">
        <ele>49</ele>
        <time>2018-03-25T23:34:12Z</time>
      </trkpt>
      <trkpt lat="46.86637" lon="-1.75943">
        <ele>49</ele>
        <time>2018-03-25T23:35:12Z</time>
      </trkpt>
      <trkpt lat="46.86686" lon="-1.75927">
        <ele>48</ele>
        <time>2018-03-25T23:36:12Z</time>
      </trkpt>
      <trkpt lat="46.86729" lon="-1.75915">
        <ele>47</ele>
        <time>2018-03-25T23:37:12Z</time>
      </trkpt>
      <trkpt lat="46.8677" lon="-1.75903">
        <ele>46</ele>
        <time>2018-03-25T23:38:12Z</time>
      </trkpt>
      <trkpt lat="46.86779" lon="-1.759">
        <ele>45</ele>
        <time>2018-03-25T23:39:12Z</time>
      </trkpt>
      <trkpt lat="46.86787" lon="-1.75896">
        <ele>45</ele>
        <time>2018-03-25T23:40:12Z</time>
      </trkpt>
      <trkpt lat="46.86792" lon="-1.75893">
        <ele>45</ele>
        <time>2018-03-25T23:41:12Z</time>
      </trkpt>
      <trkpt lat="46.86801" lon="-1.75888">
        <ele>45</ele>
        <time>2018-03-25T23:42:12Z</time>
      </trkpt>
      <trkpt lat="46.8681" lon="-1.75882">
        <ele>45</ele>
        <time>2018-03-25T23:43:12Z</time>
      </trkpt>
      <trkpt lat="46.86819" lon="-1.75874">
        <ele>45</ele>
        <time>2018-03-25T23:44:12Z</time>
      </trkpt>
      <trkpt lat="46.86823" lon="-1.7587">
        <ele>45</ele>
        <time>2018-03-25T23:45:12Z</time>
      </trkpt>
      <trkpt lat="46.86826" lon="-1.75866">
        <ele>45</ele>
        <time>2018-03-25T23:46:12Z</time>
      </trkpt>
      <trkpt lat="46.86826" lon="-1.75865">
        <ele>45</ele>
        <time>2018-03-25T23:47:12Z</time>
      </trkpt>
      <trkpt lat="46.86826" lon="-1.75864">
        <ele>45</ele>
        <time>2018-03-25T23:48:12Z</time>
      </trkpt>
      <trkpt lat="46.86827" lon="-1.75864">
        <ele>45</ele>
        <time>2018-03-25T23:49:12Z</time>
      </trkpt>
      <trkpt lat="46.86827" lon="-1.75863">
        <ele>45</ele>
        <time>2018-03-25T23:50:12Z</time>
      </trkpt>
      <trkpt lat="46.86827" lon="-1.75862">
        <ele>45</ele>
        <time>2018-03-25T23:51:12Z</time>
      </trkpt>
      <trkpt lat="46.86827" lon="-1.75861">
        <ele>45</ele>
        <time>2018-03-25T23:52:12Z</time>
      </trkpt>
      <trkpt lat="46.86828" lon="-1.75861">
        <ele>45</ele>
        <time>2018-03-25T23:53:12Z</time>
      </trkpt>
      <trkpt lat="46.86828" lon="-1.7586">
        <ele>45</ele>
        <time>2018-03-25T23:54:12Z</time>
      </trkpt>
      <trkpt lat="46.86829" lon="-1.7586">
        <ele>45</ele>
        <time>2018-03-25T23:55:12Z</time>
      </trkpt>
      <trkpt lat="46.86829" lon="-1.75859">
        <ele>45</ele>
        <time>2018-03-25T23:56:12Z</time>
      </trkpt>
      <trkpt lat="46.8683" lon="-1.75859">
        <ele>45</ele>
        <time>2018-03-25T23:57:12Z</time>
      </trkpt>
      <trkpt lat="46.8683" lon="-1.75858">
        <ele>45</ele>
        <time>2018-03-25T23:58:12Z</time>
      </trkpt>
      <trkpt lat="46.86831" lon="-1.75858">
        <ele>45</ele>
        <time>2018-03-25T23:59:12Z</time>
      </trkpt>
      <trkpt lat="46.86832" lon="-1.75858">
        <ele>44</ele>
        <time>2018-03-26T00:00:12Z</time>
      </trkpt>
      <trkpt lat="46.86832" lon="-1.75857">
        <ele>44</ele>
        <time>2018-03-26T00:01:12Z</time>
      </trkpt>
      <trkpt lat="46.86833" lon="-1.75857">
        <ele>44</ele>
        <time>2018-03-26T00:02:12Z</time>
      </trkpt>
      <trkpt lat="46.86834" lon="-1.75857">
        <ele>44</ele>
        <time>2018-03-26T00:03:12Z</time>
      </trkpt>
      <trkpt lat="46.86835" lon="-1.75858">
        <ele>44</ele>
        <time>2018-03-26T00:04:12Z</time>
      </trkpt>
      <trkpt lat="46.86836" lon="-1.75858">
        <ele>44</ele>
        <time>2018-03-26T00:05:12Z</time>
      </trkpt>
      <trkpt lat="46.86838" lon="-1.75852">
        <ele>44</ele>
        <time>2018-03-26T00:06:12Z</time>
      </trkpt>
      <trkpt lat="46.86846" lon="-1.75838">
        <ele>44</ele>
        <time>2018-03-26T00:07:12Z</time>
      </trkpt>
      <trkpt lat="46.86864" lon="-1.75804">
        <ele>44</ele>
        <time>2018-03-26T00:08:12Z</time>
      </trkpt>
      <trkpt lat="46.86881" lon="-1.75775">
        <ele>43</ele>
        <time>2018-03-26T00:09:12Z</time>
      </trkpt>
      <trkpt lat="46.86888" lon="-1.75763">
        <ele>43</ele>
        <time>2018-03-26T00:10:12Z</time>
      </trkpt>
      <trkpt lat="46.86903" lon="-1.75736">
        <ele>43</ele>
        <time>2018-03-26T00:11:12Z</time>
      </trkpt>
      <trkpt lat="46.86925" lon="-1.75695">
        <ele>44</ele>
        <time>2018-03-26T00:12:12Z</time>
      </trkpt>
      <trkpt lat="46.86936" lon="-1.75675">
        <ele>44</ele>
        <time>2018-03-26T00:13:12Z</time>
      </trkpt>
      <trkpt lat="46.86941" lon="-1.75664">
        <ele>44</ele>
        <time>2018-03-26T00:14:12Z</time>
      </trkpt>
      <trkpt lat="46.86943" lon="-1.75656">
        <ele>44</ele>
        <time>2018-03-26T00:15:12Z</time>
      </trkpt>
      <trkpt lat="46.86944" lon="-1.75651">
        <ele>44</ele>
        <time>2018-03-26T00:16:12Z</time>
      </trkpt>
      <trkpt lat="46.86946" lon="-1.7564">
        <ele>43</ele>
        <time>2018-03-26T00:17:12Z</time>
      </trkpt>
      <trkpt lat="46.86959" lon="-1.75642">
        <ele>43</ele>
        <time>2018-03-26T00:18:12Z</time>
      </trkpt>
      <trkpt lat="46.86971" lon="-1.75642">
        <ele>43</ele>
        <time>2018-03-26T00:19:12Z</time>
      </trkpt>
      <trkpt lat="46.8698" lon="-1.75643">
        <ele>43</ele>
        <time>2018-03-26T00:20:12Z</time>
      </trkpt>
      <trkpt lat="46.8698" lon="-1.75643">
        <ele>43</ele>
        <time>2018-03-26T00:21:12Z</time>
      </trkpt>
      <trkpt lat="46.86985" lon="-1.7562">
        <ele>43</ele>
        <time>2018-03-26T00:22:12Z</time>
      </trkpt>
      <trkpt lat="46.87004" lon="-1.75544">
        <ele>43</ele>
        <time>2018-03-26T00:23:12Z</time>
      </trkpt>
      <trkpt lat="46.87006" lon="-1.75534">
        <ele>42</ele>
        <time>2018-03-26T00:24:12Z</time>
      </trkpt>
      <trkpt lat="46.87018" lon="-1.75478">
        <ele>42</ele>
        <time>2018-03-26T00:25:12Z</time>
      </trkpt>
      <trkpt lat="46.87018" lon="-1.75478">
        <ele>42</ele>
        <time>2018-03-26T00:26:12Z</time>
      </trkpt>
      <trkpt lat="46.87022" lon="-1.75479">
        <ele>42</ele>
        <time>2018-03-26T00:27:12Z</time>
      </trkpt>
      <trkpt lat="46.87024" lon="-1.75479">
        <ele>42</ele>
        <time>2018-03-26T00:28:12Z</time>
      </trkpt>
      <trkpt lat="46.87027" lon="-1.75478">
        <ele>42</ele>
        <time>2018-03-26T00:29:12Z</time>
      </trkpt>
      <trkpt lat="46.87031" lon="-1.75476">
        <ele>42</ele>
        <time>2018-03-26T00:30:12Z</time>
      </trkpt>
      <trkpt lat="46.87095" lon="-1.75436">
        <ele>41</ele>
        <time>2018-03-26T00:31:12Z</time>
      </trkpt>
      <trkpt lat="46.87122" lon="-1.75421">
        <ele>41</ele>
        <time>2018-03-26T00:32:12Z</time>
      </trkpt>
      <trkpt lat="46.8717" lon="-1.75393">
        <ele>42</ele>
        <time>2018-03-26T00:33:12Z</time>
      </trkpt>
      <trkpt lat="46.87217" lon="-1.75363">
        <ele>41</ele>
        <time>2018-03-26T00:34:12Z</time>
      </trkpt>
      <trkpt lat="46.8727" lon="-1.75329">
        <ele>40</ele>
        <time>2018-03-26T00:35:12Z</time>
      </trkpt>
      <trkpt lat="46.87304" lon="-1.7531">
        <ele>39</ele>
        <time>2018-03-26T00:36:12Z</time>
      </trkpt>
      <trkpt lat="46.87332" lon="-1.75293">
        <ele>38</ele>
        <time>2018-03-26T00:37:12Z</time>
      </trkpt>
      <trkpt lat="46.87356" lon="-1.7528">
        <ele>37</ele>
        <time>2018-03-26T00:38:12Z</time>
      </trkpt>
      <trkpt lat="46.87381" lon="-1.7527">
        <ele>37</ele>
        <time>2018-03-26T00:39:12Z</time>
      </trkpt>
      <trkpt lat="46.87414" lon="-1.75262">
        <ele>37</ele>
        <time>2018-03-26T00:40:12Z</time>
      </trkpt>
      <trkpt lat="46.87417" lon="-1.75261">
        <ele>37</ele>
        <time>2018-03-26T00:41:12Z</time>
      </trkpt>
      <trkpt lat="46.87452" lon="-1.75254">
        <ele>36</ele>
        <time>2018-03-26T00:42:12Z</time>
      </trkpt>
      <trkpt lat="46.87513" lon="-1.75243">
        <ele>35</ele>
        <time>2018-03-26T00:43:12Z</time>
      </trkpt>
      <trkpt lat="46.87565" lon="-1.75232">
        <ele>36</ele>
        <time>2018-03-26T00:44:12Z</time>
      </trkpt>
      <trkpt lat="46.87574" lon="-1.75229">
        <ele>36</ele>
        <time>2018-03-26T00:45:12Z</time>
      </trkpt>
      <trkpt lat="46.87606" lon="-1.75219">
        <ele>36</ele>
        <time>2018-03-26T00:46:12Z</time>
      </trkpt>
      <trkpt lat="46.87636" lon="-1.75203">
        <ele>35</ele>
        <time>2018-03-26T00:47:12Z</time>
      </trkpt>
      <trkpt lat="46.87666" lon="-1.75186">
        <ele>34</ele>
        <time>2018-03-26T00:48:12Z</time>
      </trkpt>
      <trkpt lat="46.8774" lon="-1.75142">
        <ele>35</ele>
        <time>2018-03-26T00:49:12Z</time>
      </trkpt>
      <trkpt lat="46.87773" lon="-1.75123">
        <ele>36</ele>
        <time>2018-03-26T00:50:12Z</time>
      </trkpt>
      <trkpt lat="46.8782" lon="-1.75097">
        <ele>37</ele>
        <time>2018-03-26T00:51:12Z</time>
      </trkpt>
      <trkpt lat="46.87853" lon="-1.75079">
        <ele>37</ele>
        <time>2018-03-26T00:52:12Z</time>
      </trkpt>
      <trkpt lat="46.87857" lon="-1.75077">
        <ele>37</ele>
        <time>2018-03-26T00:53:12Z</time>
      </trkpt>
      <trkpt lat="46.87867" lon="-1.75074">
        <ele>36</ele>
        <time>2018-03-26T00:54:12Z</time>
      </trkpt>
      <trkpt lat="46.87885" lon="-1.75068">
        <ele>36</ele>
        <time>2018-03-26T00:55:12Z</time>
      </trkpt>
      <trkpt lat="46.87905" lon="-1.75064">
        <ele>36</ele>
        <time>2018-03-26T00:56:12Z</time>
      </trkpt>
      <trkpt lat="46.87929" lon="-1.75061">
        <ele>36</ele>
        <time>2018-03-26T00:57:12Z</time>
      </trkpt>
      <trkpt lat="46.87955" lon="-1.75058">
        <ele>35</ele>
        <time>2018-03-26T00:58:12Z</time>
      </trkpt>
      <trkpt lat="46.87977" lon="-1.75055">
        <ele>35</ele>
        <time>2018-03-26T00:59:12Z</time>
      </trkpt>
      <trkpt lat="46.87998" lon="-1.75052">
        <ele>35</ele>
        <time>2018-03-26T01:00:12Z</time>
      </trkpt>
      <trkpt lat="46.88018" lon="-1.75047">
        <ele>35</ele>
        <time>2018-03-26T01:01:12Z</time>
      </trkpt>
      <trkpt lat="46.88034" lon="-1.75042">
        <ele>36</ele>
        <time>2018-03-26T01:02:12Z</time>
      </trkpt>
      <trkpt lat="46.88047" lon="-1.75035">
        <ele>36</ele>
        <time>2018-03-26T01:03:12Z</time>
      </trkpt>
      <trkpt lat="46.88059" lon="-1.75028">
        <ele>37</ele>
        <time>2018-03-26T01:04:12Z</time>
      </trkpt>
      <trkpt lat="46.88067" lon="-1.75023">
        <ele>37</ele>
        <time>2018-03-26T01:05:12Z</time>
      </trkpt>
      <trkpt lat="46.8809" lon="-1.75008">
        <ele>38</ele>
        <time>2018-03-26T01:06:12Z</time>
      </trkpt>
      <trkpt lat="46.88117" lon="-1.74992">
        <ele>39</ele>
        <time>2018-03-26T01:07:12Z</time>
      </trkpt>
      <trkpt lat="46.88151" lon="-1.74971">
        <ele>40</ele>
        <time>2018-03-26T01:08:12Z</time>
      </trkpt>
      <trkpt lat="46.88187" lon="-1.74949">
        <ele>41</ele>
        <time>2018-03-26T01:09:12Z</time>
      </trkpt>
      <trkpt lat="46.88233" lon="-1.7492">
        <ele>44</ele>
        <time>2018-03-26T01:10:12Z</time>
      </trkpt>
      <trkpt lat="46.88269" lon="-1.74898">
        <ele>45</ele>
        <time>2018-03-26T01:11:12Z</time>
      </trkpt>
      <trkpt lat="46.88311" lon="-1.74871">
        <ele>44</ele>
        <time>2018-03-26T01:12:12Z</time>
      </trkpt>
      <trkpt lat="46.88353" lon="-1.74845">
        <ele>43</ele>
        <time>2018-03-26T01:13:12Z</time>
      </trkpt>
      <trkpt lat="46.88398" lon="-1.74817">
        <ele>42</ele>
        <time>2018-03-26T01:14:12Z</time>
      </trkpt>
      <trkpt lat="46.88408" lon="-1.74809">
        <ele>42</ele>
        <time>2018-03-26T01:15:12Z</time>
      </trkpt>
      <trkpt lat="46.88409" lon="-1.74808">
        <ele>42</ele>
        <time>2018-03-26T01:16:12Z</time>
      </trkpt>
      <trkpt lat="46.88451" lon="-1.74783">
        <ele>42</ele>
        <time>2018-03-26T01:17:12Z</time>
      </trkpt>
      <trkpt lat="46.88491" lon="-1.74757">
        <ele>42</ele>
        <time>2018-03-26T01:18:12Z</time>
      </trkpt>
      <trkpt lat="46.88535" lon="-1.7473">
        <ele>41</ele>
        <time>2018-03-26T01:19:12Z</time>
      </trkpt>
      <trkpt lat="46.88557" lon="-1.74716">
        <ele>41</ele>
        <time>2018-03-26T01:20:12Z</time>
      </trkpt>
      <trkpt lat="46.8856" lon="-1.74714">
        <ele>41</ele>
        <time>2018-03-26T01:21:12Z</time>
      </trkpt>
      <trkpt lat="46.88563" lon="-1.74712">
        <ele>41</ele>
        <time>2018-03-26T01:22:12Z</time>
      </trkpt>
      <trkpt lat="46.88581" lon="-1.74701">
        <ele>40</ele>
        <time>2018-03-26T01:23:12Z</time>
      </trkpt>
      <trkpt lat="46.88598" lon="-1.74691">
        <ele>40</ele>
        <time>2018-03-26T01:24:12Z</time>
      </trkpt>
      <trkpt lat="46.88612" lon="-1.74684">
        <ele>40</ele>
        <time>2018-03-26T01:25:12Z</time>
      </trkpt>
      <trkpt lat="46.88625" lon="-1.74679">
        <ele>40</ele>
        <time>2018-03-26T01:26:12Z</time>
      </trkpt>
      <trkpt lat="46.88638" lon="-1.74675">
        <ele>40</ele>
        <time>2018-03-26T01:27:12Z</time>
      </trkpt>
      <trkpt lat="46.8865" lon="-1.74673">
        <ele>39</ele>
        <time>2018-03-26T01:28:12Z</time>
      </trkpt>
      <trkpt lat="46.8867" lon="-1.74673">
        <ele>39</ele>
        <time>2018-03-26T01:29:12Z</time>
      </trkpt>
      <trkpt lat="46.88691" lon="-1.74675">
        <ele>39</ele>
        <time>2018-03-26T01:30:12Z</time>
      </trkpt>
      <trkpt lat="46.88714" lon="-1.74677">
        <ele>38</ele>
        <time>2018-03-26T01:31:12Z</time>
      </trkpt>
      <trkpt lat="46.88756" lon="-1.74683">
        <ele>37</ele>
        <time>2018-03-26T01:32:12Z</time>
      </trkpt>
      <trkpt lat="46.88792" lon="-1.74687">
        <ele>37</ele>
        <time>2018-03-26T01:33:12Z</time>
      </trkpt>
      <trkpt lat="46.88817" lon="-1.7469">
        <ele>36</ele>
        <time>2018-03-26T01:34:12Z</time>
      </trkpt>
      <trkpt lat="46.88844" lon="-1.74693">
        <ele>36</ele>
        <time>2018-03-26T01:35:12Z</time>
      </trkpt>
      <trkpt lat="46.8885" lon="-1.74694">
        <ele>37</ele>
        <time>2018-03-26T01:36:12Z</time>
      </trkpt>
      <trkpt lat="46.88869" lon="-1.74696">
        <ele>37</ele>
        <time>2018-03-26T01:37:12Z</time>
      </trkpt>
      <trkpt lat="46.889" lon="-1.747">
        <ele>38</ele>
        <time>2018-03-26T01:38:12Z</time>
      </trkpt>
      <trkpt lat="46.88936" lon="-1.74703">
        <ele>40</ele>
        <time>2018-03-26T01:39:12Z</time>
      </trkpt>
      <trkpt lat="46.88978" lon="-1.74708">
        <ele>43</ele>
        <time>2018-03-26T01:40:12Z</time>
      </trkpt>
      <trkpt lat="46.89002" lon="-1.74711">
        <ele>44</ele>
        <time>2018-03-26T01:41:12Z</time>
      </trkpt>
      <trkpt lat="46.89021" lon="-1.74713">
        <ele>45</ele>
        <time>2018-03-26T01:42:12Z</time>
      </trkpt>
      <trkpt lat="46.8905" lon="-1.74715">
        <ele>46</ele>
        <time>2018-03-26T01:43:12Z</time>
      </trkpt>
      <trkpt lat="46.89084" lon="-1.7472">
        <ele>47</ele>
        <time>2018-03-26T01:44:12Z</time>
      </trkpt>
      <trkpt lat="46.89131" lon="-1.74726">
        <ele>48</ele>
        <time>2018-03-26T01:45:12Z</time>
      </trkpt>
      <trkpt lat="46.89167" lon="-1.74729">
        <ele>48</ele>
        <time>2018-03-26T01:46:12Z</time>
      </trkpt>
      <trkpt lat="46.89217" lon="-1.74735">
        <ele>49</ele>
        <time>2018-03-26T01:47:12Z</time>
      </trkpt>
      <trkpt lat="46.8926" lon="-1.7474">
        <ele>49</ele>
        <time>2018-03-26T01:48:12Z</time>
      </trkpt>
      <trkpt lat="46.89306" lon="-1.74745">
        <ele>50</ele>
        <time>2018-03-26T01:49:12Z</time>
      </trkpt>
      <trkpt lat="46.89351" lon="-1.7475">
        <ele>50</ele>
        <time>2018-03-26T01:50:12Z</time>
      </trkpt>
      <trkpt lat="46.89392" lon="-1.74753">
        <ele>51</ele>
        <time>2018-03-26T01:51:12Z</time>
      </trkpt>
      <trkpt lat="46.89429" lon="-1.74753">
        <ele>52</ele>
        <time>2018-03-26T01:52:12Z</time>
      </trkpt>
      <trkpt lat="46.89454" lon="-1.74752">
        <ele>52</ele>
        <time>2018-03-26T01:53:12Z</time>
      </trkpt>
      <trkpt lat="46.89498" lon="-1.74751">
        <ele>52</ele>
        <time>2018-03-26T01:54:12Z</time>
      </trkpt>
      <trkpt lat="46.89514" lon="-1.74751">
        <ele>52</ele>
        <time>2018-03-26T01:55:12Z</time>
      </trkpt>
      <trkpt lat="46.89545" lon="-1.74752">
        <ele>51</ele>
        <time>2018-03-26T01:56:12Z</time>
      </trkpt>
      <trkpt lat="46.89588" lon="-1.74752">
        <ele>51</ele>
        <time>2018-03-26T01:57:12Z</time>
      </trkpt>
      <trkpt lat="46.89639" lon="-1.74752">
        <ele>49</ele>
        <time>2018-03-26T01:58:12Z</time>
      </trkpt>
      <trkpt lat="46.8969" lon="-1.74752">
        <ele>48</ele>
        <time>2018-03-26T01:59:12Z</time>
      </trkpt>
      <trkpt lat="46.89728" lon="-1.74753">
        <ele>47</ele>
        <time>2018-03-26T02:00:12Z</time>
      </trkpt>
      <trkpt lat="46.89754" lon="-1.74753">
        <ele>47</ele>
        <time>2018-03-26T02:01:12Z</time>
      </trkpt>
      <trkpt lat="46.89758" lon="-1.74753">
        <ele>47</ele>
        <time>2018-03-26T02:02:12Z</time>
      </trkpt>
      <trkpt lat="46.89796" lon="-1.74754">
        <ele>48</ele>
        <time>2018-03-26T02:03:12Z</time>
      </trkpt>
      <trkpt lat="46.89856" lon="-1.74755">
        <ele>50</ele>
        <time>2018-03-26T02:04:12Z</time>
      </trkpt>
      <trkpt lat="46.89907" lon="-1.74755">
        <ele>51</ele>
        <time>2018-03-26T02:05:12Z</time>
      </trkpt>
      <trkpt lat="46.89949" lon="-1.74754">
        <ele>51</ele>
        <time>2018-03-26T02:06:12Z</time>
      </trkpt>
      <trkpt lat="46.90004" lon="-1.74755">
        <ele>50</ele>
        <time>2018-03-26T02:07:12Z</time>
      </trkpt>
      <trkpt lat="46.90054" lon="-1.74755">
        <ele>51</ele>
        <time>2018-03-26T02:08:12Z</time>
      </trkpt>
      <trkpt lat="46.90085" lon="-1.74756">
        <ele>51</ele>
        <time>2018-03-26T02:09:12Z</time>
      </trkpt>
      <trkpt lat="46.90128" lon="-1.74756">
        <ele>49</ele>
        <time>2018-03-26T02:10:12Z</time>
      </trkpt>
      <trkpt lat="46.9017" lon="-1.74756">
        <ele>47</ele>
        <time>2018-03-26T02:11:12Z</time>
      </trkpt>
      <trkpt lat="46.90245" lon="-1.74757">
        <ele>46</ele>
        <time>2018-03-26T02:12:12Z</time>
      </trkpt>
      <trkpt lat="46.90308" lon="-1.74758">
        <ele>45</ele>
        <time>2018-03-26T02:13:12Z</time>
      </trkpt>
      <trkpt lat="46.90389" lon="-1.7476">
        <ele>45</ele>
        <time>2018-03-26T02:14:12Z</time>
      </trkpt>
      <trkpt lat="46.90448" lon="-1.7476">
        <ele>44</ele>
        <time>2018-03-26T02:15:12Z</time>
      </trkpt>
      <trkpt lat="46.90515" lon="-1.74761">
        <ele>44</ele>
        <time>2018-03-26T02:16:12Z</time>
      </trkpt>
      <trkpt lat="46.9058" lon="-1.74762">
        <ele>45</ele>
        <time>2018-03-26T02:17:12Z</time>
      </trkpt>
      <trkpt lat="46.90588" lon="-1.74762">
        <ele>45</ele>
        <time>2018-03-26T02:18:12Z</time>
      </trkpt>
      <trkpt lat="46.90653" lon="-1.74765">
        <ele>47</ele>
        <time>2018-03-26T02:19:12Z</time>
      </trkpt>
      <trkpt lat="46.90736" lon="-1.74766">
        <ele>47</ele>
        <time>2018-03-26T02:20:12Z</time>
      </trkpt>
      <trkpt lat="46.90817" lon="-1.74769">
        <ele>46</ele>
        <time>2018-03-26T02:21:12Z</time>
      </trkpt>
      <trkpt lat="46.90878" lon="-1.7477">
        <ele>45</ele>
        <time>2018-03-26T02:22:12Z</time>
      </trkpt>
      <trkpt lat="46.90935" lon="-1.74771">
        <ele>44</ele>
        <time>2018-03-26T02:23:12Z</time>
      </trkpt>
      <trkpt lat="46.90979" lon="-1.74772">
        <ele>44</ele>
        <time>2018-03-26T02:24:12Z</time>
      </trkpt>
      <trkpt lat="46.91015" lon="-1.74773">
        <ele>43</ele>
        <time>2018-03-26T02:25:12Z</time>
      </trkpt>
      <trkpt lat="46.91047" lon="-1.74773">
        <ele>42</ele>
        <time>2018-03-26T02:26:12Z</time>
      </trkpt>
      <trkpt lat="46.91076" lon="-1.74773">
        <ele>41</ele>
        <time>2018-03-26T02:27:12Z</time>
      </trkpt>
      <trkpt lat="46.91102" lon="-1.74771">
        <ele>39</ele>
        <time>2018-03-26T02:28:12Z</time>
      </trkpt>
      <trkpt lat="46.91128" lon="-1.74765">
        <ele>38</ele>
        <time>2018-03-26T02:29:12Z</time>
      </trkpt>
      <trkpt lat="46.91152" lon="-1.74757">
        <ele>36</ele>
        <time>2018-03-26T02:30:12Z</time>
      </trkpt>
      <trkpt lat="46.91163" lon="-1.74751">
        <ele>35</ele>
        <time>2018-03-26T02:31:12Z</time>
      </trkpt>
      <trkpt lat="46.91175" lon="-1.74744">
        <ele>35</ele>
        <time>2018-03-26T02:32:12Z</time>
      </trkpt>
      <trkpt lat="46.91212" lon="-1.74717">
        <ele>32</ele>
        <time>2018-03-26T02:33:12Z</time>
      </trkpt>
      <trkpt lat="46.9125" lon="-1.74686">
        <ele>29</ele>
        <time>2018-03-26T02:34:12Z</time>
      </trkpt>
      <trkpt lat="46.91292" lon="-1.74652">
        <ele>28</ele>
        <time>2018-03-26T02:35:12Z</time>
      </trkpt>
      <trkpt lat="46.9134" lon="-1.74613">
        <ele>27</ele>
        <time>2018-03-26T02:36:12Z</time>
      </trkpt>
      <trkpt lat="46.91379" lon="-1.74581">
        <ele>26</ele>
        <time>2018-03-26T02:37:12Z</time>
      </trkpt>
      <trkpt lat="46.91412" lon="-1.74555">
        <ele>25</ele>
        <time>2018-03-26T02:38:12Z</time>
      </trkpt>
      <trkpt lat="46.91437" lon="-1.74534">
        <ele>24</ele>
        <time>2018-03-26T02:39:12Z</time>
      </trkpt>
      <trkpt lat="46.91439" lon="-1.74532">
        <ele>24</ele>
        <time>2018-03-26T02:40:12Z</time>
      </trkpt>
      <trkpt lat="46.91472" lon="-1.74505">
        <ele>22</ele>
        <time>2018-03-26T02:41:12Z</time>
      </trkpt>
      <trkpt lat="46.91517" lon="-1.74469">
        <ele>20</ele>
        <time>2018-03-26T02:42:12Z</time>
      </trkpt>
      <trkpt lat="46.91576" lon="-1.74421">
        <ele>18</ele>
        <time>2018-03-26T02:43:12Z</time>
      </trkpt>
      <trkpt lat="46.91603" lon="-1.74397">
        <ele>19</ele>
        <time>2018-03-26T02:44:12Z</time>
      </trkpt>
      <trkpt lat="46.91607" lon="-1.74393">
        <ele>19</ele>
        <time>2018-03-26T02:45:12Z</time>
      </trkpt>
      <trkpt lat="46.91611" lon="-1.7439">
        <ele>19</ele>
        <time>2018-03-26T02:46:12Z</time>
      </trkpt>
      <trkpt lat="46.91611" lon="-1.7439">
        <ele>19</ele>
        <time>2018-03-26T02:47:12Z</time>
      </trkpt>
      <trkpt lat="46.91614" lon="-1.74388">
        <ele>19</ele>
        <time>2018-03-26T02:48:12Z</time>
      </trkpt>
      <trkpt lat="46.91616" lon="-1.74386">
        <ele>19</ele>
        <time>2018-03-26T02:49:12Z</time>
      </trkpt>
      <trkpt lat="46.91638" lon="-1.74368">
        <ele>20</ele>
        <time>2018-03-26T02:50:12Z</time>
      </trkpt>
      <trkpt lat="46.91687" lon="-1.7433">
        <ele>23</ele>
        <time>2018-03-26T02:51:12Z</time>
      </trkpt>
      <trkpt lat="46.91745" lon="-1.74282">
        <ele>27</ele>
        <time>2018-03-26T02:52:12Z</time>
      </trkpt>
      <trkpt lat="46.9177" lon="-1.74263">
        <ele>27</ele>
        <time>2018-03-26T02:53:12Z</time>
      </trkpt>
      <trkpt lat="46.91811" lon="-1.74231">
        <ele>26</ele>
        <time>2018-03-26T02:54:12Z</time>
      </trkpt>
      <trkpt lat="46.91884" lon="-1.74188">
        <ele>26</ele>
        <time>2018-03-26T02:55:12Z</time>
      </trkpt>
      <trkpt lat="46.91953" lon="-1.74149">
        <ele>29</ele>
        <time>2018-03-26T02:56:12Z</time>
      </trkpt>
      <trkpt lat="46.92001" lon="-1.74121">
        <ele>31</ele>
        <time>2018-03-26T02:57:12Z</time>
      </trkpt>
      <trkpt lat="46.92015" lon="-1.74115">
        <ele>31</ele>
        <time>2018-03-26T02:58:12Z</time>
      </trkpt>
      <trkpt lat="46.92026" lon="-1.74112">
        <ele>31</ele>
        <time>2018-03-26T02:59:12Z</time>
      </trkpt>
      <trkpt lat="46.92046" lon="-1.74111">
        <ele>31</ele>
        <time>2018-03-26T03:00:12Z</time>
      </trkpt>
      <trkpt lat="46.92053" lon="-1.74111">
        <ele>31</ele>
        <time>2018-03-26T03:01:12Z</time>
      </trkpt>
      <trkpt lat="46.92075" lon="-1.74116">
        <ele>30</ele>
        <time>2018-03-26T03:02:12Z</time>
      </trkpt>
      <trkpt lat="46.92106" lon="-1.74124">
        <ele>31</ele>
        <time>2018-03-26T03:03:12Z</time>
      </trkpt>
      <trkpt lat="46.92128" lon="-1.74133">
        <ele>31</ele>
        <time>2018-03-26T03:04:12Z</time>
      </trkpt>
      <trkpt lat="46.92148" lon="-1.74141">
        <ele>31</ele>
        <time>2018-03-26T03:05:12Z</time>
      </trkpt>
      <trkpt lat="46.92197" lon="-1.74169">
        <ele>32</ele>
        <time>2018-03-26T03:06:12Z</time>
      </trkpt>
      <trkpt lat="46.92217" lon="-1.7418">
        <ele>33</ele>
        <time>2018-03-26T03:07:12Z</time>
      </trkpt>
      <trkpt lat="46.92234" lon="-1.7419">
        <ele>33</ele>
        <time>2018-03-26T03:08:12Z</time>
      </trkpt>
      <trkpt lat="46.92276" lon="-1.74216">
        <ele>32</ele>
        <time>2018-03-26T03:09:12Z</time>
      </trkpt>
      <trkpt lat="46.92338" lon="-1.74253">
        <ele>34</ele>
        <time>2018-03-26T03:10:12Z</time>
      </trkpt>
      <trkpt lat="46.92364" lon="-1.74268">
        <ele>33</ele>
        <time>2018-03-26T03:11:12Z</time>
      </trkpt>
      <trkpt lat="46.9241" lon="-1.74295">
        <ele>32</ele>
        <time>2018-03-26T03:12:12Z</time>
      </trkpt>
      <trkpt lat="46.92448" lon="-1.74316">
        <ele>31</ele>
        <time>2018-03-26T03:13:12Z</time>
      </trkpt>
      <trkpt lat="46.92476" lon="-1.74326">
        <ele>30</ele>
        <time>2018-03-26T03:14:12Z</time>
      </trkpt>
      <trkpt lat="46.92504" lon="-1.74331">
        <ele>29</ele>
        <time>2018-03-26T03:15:12Z</time>
      </trkpt>
      <trkpt lat="46.92525" lon="-1.74332">
        <ele>28</ele>
        <time>2018-03-26T03:16:12Z</time>
      </trkpt>
      <trkpt lat="46.92542" lon="-1.7433">
        <ele>28</ele>
        <time>2018-03-26T03:17:12Z</time>
      </trkpt>
      <trkpt lat="46.92566" lon="-1.74323">
        <ele>27</ele>
        <time>2018-03-26T03:18:12Z</time>
      </trkpt>
      <trkpt lat="46.92595" lon="-1.74311">
        <ele>26</ele>
        <time>2018-03-26T03:19:12Z</time>
      </trkpt>
      <trkpt lat="46.92634" lon="-1.74293">
        <ele>26</ele>
        <time>2018-03-26T03:20:12Z</time>
      </trkpt>
      <trkpt lat="46.92674" lon="-1.74274">
        <ele>26</ele>
        <time>2018-03-26T03:21:12Z</time>
      </trkpt>
      <trkpt lat="46.92674" lon="-1.74274">
        <ele>26</ele>
        <time>2018-03-26T03:22:12Z</time>
      </trkpt>
      <trkpt lat="46.92678" lon="-1.74298">
        <ele>25</ele>
        <time>2018-03-26T03:23:12Z</time>
      </trkpt>
      <trkpt lat="46.92687" lon="-1.7434">
        <ele>24</ele>
        <time>2018-03-26T03:24:12Z</time>
      </trkpt>
      <trkpt lat="46.927" lon="-1.74383">
        <ele>23</ele>
        <time>2018-03-26T03:25:12Z</time>
      </trkpt>
      <trkpt lat="46.92712" lon="-1.74411">
        <ele>22</ele>
        <time>2018-03-26T03:26:12Z</time>
      </trkpt>
      <trkpt lat="46.92723" lon="-1.74427">
        <ele>22</ele>
        <time>2018-03-26T03:27:12Z</time>
      </trkpt>
      <trkpt lat="46.92737" lon="-1.74438">
        <ele>22</ele>
        <time>2018-03-26T03:28:12Z</time>
      </trkpt>
      <trkpt lat="46.92737" lon="-1.74438">
        <ele>22</ele>
        <time>2018-03-26T03:29:12Z</time>
      </trkpt>
      <trkpt lat="46.92737" lon="-1.74453">
        <ele>21</ele>
        <time>2018-03-26T03:30:12Z</time>
      </trkpt>
      <trkpt lat="46.92743" lon="-1.74488">
        <ele>20</ele>
        <time>2018-03-26T03:31:12Z</time>
      </trkpt>
      <trkpt lat="46.92754" lon="-1.74551">
        <ele>19</ele>
        <time>2018-03-26T03:32:12Z</time>
      </trkpt>
      <trkpt lat="46.92755" lon="-1.74561">
        <ele>19</ele>
        <time>2018-03-26T03:33:12Z</time>
      </trkpt>
      <trkpt lat="46.92757" lon="-1.7457">
        <ele>19</ele>
        <time>2018-03-26T03:34:12Z</time>
      </trkpt>
      <trkpt lat="46.92757" lon="-1.74575">
        <ele>19</ele>
        <time>2018-03-26T03:35:12Z</time>
      </trkpt>
      <trkpt lat="46.92758" lon="-1.74579">
        <ele>19</ele>
        <time>2018-03-26T03:36:12Z</time>
      </trkpt>
      <trkpt lat="46.9276" lon="-1.74591">
        <ele>19</ele>
        <time>2018-03-26T03:37:12Z</time>
      </trkpt>
      <trkpt lat="46.92764" lon="-1.7461">
        <ele>20</ele>
        <time>2018-03-26T03:38:12Z</time>
      </trkpt>
      <trkpt lat="46.92766" lon="-1.74622">
        <ele>20</ele>
        <time>2018-03-26T03:39:12Z</time>
      </trkpt>
      <trkpt lat="46.92769" lon="-1.74639">
        <ele>20</ele>
        <time>2018-03-26T03:40:12Z</time>
      </trkpt>
      <trkpt lat="46.92769" lon="-1.74639">
        <ele>20</ele>
        <time>2018-03-26T03:41:12Z</time>
      </trkpt>
      <trkpt lat="46.92771" lon="-1.74649">
        <ele>20</ele>
        <time>2018-03-26T03:42:12Z</time>
      </trkpt>
      <trkpt lat="46.92773" lon="-1.74662">
        <ele>21</ele>
        <time>2018-03-26T03:43:12Z</time>
      </trkpt>
      <trkpt lat="46.92775" lon="-1.74676">
        <ele>21</ele>
        <time>2018-03-26T03:44:12Z</time>
      </trkpt>
      <trkpt lat="46.92776" lon="-1.74691">
        <ele>21</ele>
        <time>2018-03-26T03:45:12Z</time>
      </trkpt>
      <trkpt lat="46.92777" lon="-1.74705">
        <ele>22</ele>
        <time>2018-03-26T03:46:12Z</time>
      </trkpt>
      <trkpt lat="46.92777" lon="-1.74719">
        <ele>22</ele>
        <time>2018-03-26T03:47:12Z</time>
      </trkpt>
      <trkpt lat="46.92776" lon="-1.74734">
        <ele>23</ele>
        <time>2018-03-26T03:48:12Z</time>
      </trkpt>
      <trkpt lat="46.92775" lon="-1.74743">
        <ele>23</ele>
        <time>2018-03-26T03:49:12Z</time>
      </trkpt>
      <trkpt lat="46.92774" lon="-1.74753">
        <ele>23</ele>
        <time>2018-03-26T03:50:12Z</time>
      </trkpt>
      <trkpt lat="46.92772" lon="-1.74764">
        <ele>24</ele>
        <time>2018-03-26T03:51:12Z</time>
      </trkpt>
      <trkpt lat="46.9277" lon="-1.74774">
        <ele>24</ele>
        <time>2018-03-26T03:52:12Z</time>
      </trkpt>
      <trkpt lat="46.92767" lon="-1.74786">
        <ele>24</ele>
        <time>2018-03-26T03:53:12Z</time>
      </trkpt>
      <trkpt lat="46.92763" lon="-1.74796">
        <ele>25</ele>
        <time>2018-03-26T03:54:12Z</time>
      </trkpt>
      <trkpt lat="46.9276" lon="-1.74805">
        <ele>25</ele>
        <time>2018-03-26T03:55:12Z</time>
      </trkpt>
      <trkpt lat="46.92757" lon="-1.74812">
        <ele>25</ele>
        <time>2018-03-26T03:56:12Z</time>
      </trkpt>
      <trkpt lat="46.92753" lon="-1.74821">
        <ele>26</ele>
        <time>2018-03-26T03:57:12Z</time>
      </trkpt>
      <trkpt lat="46.92729" lon="-1.74865">
        <ele>27</ele>
        <time>2018-03-26T03:58:12Z</time>
      </trkpt>
      <trkpt lat="46.92719" lon="-1.74882">
        <ele>28</ele>
        <time>2018-03-26T03:59:12Z</time>
      </trkpt>
      <trkpt lat="46.92712" lon="-1.74893">
        <ele>28</ele>
        <time>2018-03-26T04:00:12Z</time>
      </trkpt>
      <trkpt lat="46.92706" lon="-1.74904">
        <ele>28</ele>
        <time>2018-03-26T04:01:12Z</time>
      </trkpt>
      <trkpt lat="46.92694" lon="-1.74923">
        <ele>29</ele>
        <time>2018-03-26T04:02:12Z</time>
      </trkpt>
      <trkpt lat="46.92665" lon="-1.74974">
        <ele>30</ele>
        <time>2018-03-26T04:03:12Z</time>
      </trkpt>
      <trkpt lat="46.92647" lon="-1.75007">
        <ele>31</ele>
        <time>2018-03-26T04:04:12Z</time>
      </trkpt>
      <trkpt lat="46.92618" lon="-1.75062">
        <ele>31</ele>
        <time>2018-03-26T04:05:12Z</time>
      </trkpt>
      <trkpt lat="46.9261" lon="-1.75075">
        <ele>32</ele>
        <time>2018-03-26T04:06:12Z</time>
      </trkpt>
      <trkpt lat="46.92603" lon="-1.75088">
        <ele>32</ele>
        <time>2018-03-26T04:07:12Z</time>
      </trkpt>
      <trkpt lat="46.92594" lon="-1.75102">
        <ele>32</ele>
        <time>2018-03-26T04:08:12Z</time>
      </trkpt>
      <trkpt lat="46.92588" lon="-1.75112">
        <ele>33</ele>
        <time>2018-03-26T04:09:12Z</time>
      </trkpt>
      <trkpt lat="46.92576" lon="-1.75126">
        <ele>33</ele>
        <time>2018-03-26T04:10:12Z</time>
      </trkpt>
      <trkpt lat="46.92569" lon="-1.75134">
        <ele>33</ele>
        <time>2018-03-26T04:11:12Z</time>
      </trkpt>
      <trkpt lat="46.92563" lon="-1.7514">
        <ele>33</ele>
        <time>2018-03-26T04:12:12Z</time>
      </trkpt>
      <trkpt lat="46.92556" lon="-1.75147">
        <ele>33</ele>
        <time>2018-03-26T04:13:12Z</time>
      </trkpt>
      <trkpt lat="46.92549" lon="-1.75152">
        <ele>33</ele>
        <time>2018-03-26T04:14:12Z</time>
      </trkpt>
      <trkpt lat="46.92542" lon="-1.75156">
        <ele>33</ele>
        <time>2018-03-26T04:15:12Z</time>
      </trkpt>
      <trkpt lat="46.92535" lon="-1.75161">
        <ele>33</ele>
        <time>2018-03-26T04:16:12Z</time>
      </trkpt>
      <trkpt lat="46.92529" lon="-1.75164">
        <ele>33</ele>
        <time>2018-03-26T04:17:12Z</time>
      </trkpt>
      <trkpt lat="46.92524" lon="-1.75167">
        <ele>33</ele>
        <time>2018-03-26T04:18:12Z</time>
      </trkpt>
      <trkpt lat="46.92517" lon="-1.7517">
        <ele>33</ele>
        <time>2018-03-26T04:19:12Z</time>
      </trkpt>
      <trkpt lat="46.92511" lon="-1.75173">
        <ele>33</ele>
        <time>2018-03-26T04:20:12Z</time>
      </trkpt>
      <trkpt lat="46.92501" lon="-1.75178">
        <ele>33</ele>
        <time>2018-03-26T04:21:12Z</time>
      </trkpt>
      <trkpt lat="46.9247" lon="-1.75191">
        <ele>33</ele>
        <time>2018-03-26T04:22:12Z</time>
      </trkpt>
      <trkpt lat="46.92439" lon="-1.75205">
        <ele>33</ele>
        <time>2018-03-26T04:23:12Z</time>
      </trkpt>
      <trkpt lat="46.92407" lon="-1.75219">
        <ele>33</ele>
        <time>2018-03-26T04:24:12Z</time>
      </trkpt>
      <trkpt lat="46.92373" lon="-1.75235">
        <ele>34</ele>
        <time>2018-03-26T04:25:12Z</time>
      </trkpt>
      <trkpt lat="46.92339" lon="-1.75251">
        <ele>34</ele>
        <time>2018-03-26T04:26:12Z</time>
      </trkpt>
      <trkpt lat="46.923" lon="-1.75269">
        <ele>35</ele>
        <time>2018-03-26T04:27:12Z</time>
      </trkpt>
      <trkpt lat="46.92269" lon="-1.75284">
        <ele>35</ele>
        <time>2018-03-26T04:28:12Z</time>
      </trkpt>
      <trkpt lat="46.92229" lon="-1.75308">
        <ele>35</ele>
        <time>2018-03-26T04:29:12Z</time>
      </trkpt>
      <trkpt lat="46.922" lon="-1.75325">
        <ele>35</ele>
        <time>2018-03-26T04:30:12Z</time>
      </trkpt>
      <trkpt lat="46.92173" lon="-1.75339">
        <ele>35</ele>
        <time>2018-03-26T04:31:12Z</time>
      </trkpt>
      <trkpt lat="46.92173" lon="-1.75339">
        <ele>35</ele>
        <time>2018-03-26T04:32:12Z</time>
      </trkpt>
      <trkpt lat="46.92098" lon="-1.75382">
        <ele>34</ele>
        <time>2018-03-26T04:33:12Z</time>
      </trkpt>
      <trkpt lat="46.92051" lon="-1.75411">
        <ele>34</ele>
        <time>2018-03-26T04:34:12Z</time>
      </trkpt>
      <trkpt lat="46.92018" lon="-1.75432">
        <ele>34</ele>
        <time>2018-03-26T04:35:12Z</time>
      </trkpt>
      <trkpt lat="46.92016" lon="-1.75433">
        <ele>34</ele>
        <time>2018-03-26T04:36:12Z</time>
      </trkpt>
      <trkpt lat="46.9198" lon="-1.75461">
        <ele>35</ele>
        <time>2018-03-26T04:37:12Z</time>
      </trkpt>
      <trkpt lat="46.91978" lon="-1.75463">
        <ele>35</ele>
        <time>2018-03-26T04:38:12Z</time>
      </trkpt>
      <trkpt lat="46.91974" lon="-1.75468">
        <ele>35</ele>
        <time>2018-03-26T04:39:12Z</time>
      </trkpt>
      <trkpt lat="46.91959" lon="-1.75481">
        <ele>35</ele>
        <time>2018-03-26T04:40:12Z</time>
      </trkpt>
      <trkpt lat="46.91958" lon="-1.75482">
        <ele>35</ele>
        <time>2018-03-26T04:41:12Z</time>
      </trkpt>
      <trkpt lat="46.91944" lon="-1.75494">
        <ele>35</ele>
        <time>2018-03-26T04:42:12Z</time>
      </trkpt>
      <trkpt lat="46.91943" lon="-1.75495">
        <ele>35</ele>
        <time>2018-03-26T04:43:12Z</time>
      </trkpt>
      <trkpt lat="46.91912" lon="-1.75525">
        <ele>34</ele>
        <time>2018-03-26T04:44:12Z</time>
      </trkpt>
      <trkpt lat="46.91889" lon="-1.75544">
        <ele>34</ele>
        <time>2018-03-26T04:45:12Z</time>
      </trkpt>
      <trkpt lat="46.91887" lon="-1.75546">
        <ele>34</ele>
        <time>2018-03-26T04:46:12Z</time>
      </trkpt>
      <trkpt lat="46.91846" lon="-1.75583">
        <ele>34</ele>
        <time>2018-03-26T04:47:12Z</time>
      </trkpt>
      <trkpt lat="46.91816" lon="-1.75615">
        <ele>33</ele>
        <time>2018-03-26T04:48:12Z</time>
      </trkpt>
      <trkpt lat="46.91798" lon="-1.75636">
        <ele>33</ele>
        <time>2018-03-26T04:49:12Z</time>
      </trkpt>
      <trkpt lat="46.91792" lon="-1.75646">
        <ele>32</ele>
        <time>2018-03-26T04:50:12Z</time>
      </trkpt>
      <trkpt lat="46.91788" lon="-1.75653">
        <ele>32</ele>
        <time>2018-03-26T04:51:12Z</time>
      </trkpt>
      <trkpt lat="46.91788" lon="-1.75653">
        <ele>32</ele>
        <time>2018-03-26T04:52:12Z</time>
      </trkpt>
      <trkpt lat="46.91786" lon="-1.75664">
        <ele>32</ele>
        <time>2018-03-26T04:53:12Z</time>
      </trkpt>
      <trkpt lat="46.91782" lon="-1.75713">
        <ele>32</ele>
        <time>2018-03-26T04:54:12Z</time>
      </trkpt>
      <trkpt lat="46.91778" lon="-1.75772">
        <ele>31</ele>
        <time>2018-03-26T04:55:12Z</time>
      </trkpt>
      <trkpt lat="46.91769" lon="-1.75883">
        <ele>30</ele>
        <time>2018-03-26T04:56:12Z</time>
      </trkpt>
      <trkpt lat="46.91767" lon="-1.75921">
        <ele>31</ele>
        <time>2018-03-26T04:57:12Z</time>
      </trkpt>
      <trkpt lat="46.91766" lon="-1.75937">
        <ele>31</ele>
        <time>2018-03-26T04:58:12Z</time>
      </trkpt>
      <trkpt lat="46.9176" lon="-1.76014">
        <ele>31</ele>
        <time>2018-03-26T04:59:12Z</time>
      </trkpt>
      <trkpt lat="46.91753" lon="-1.76082">
        <ele>30</ele>
        <time>2018-03-26T05:00:12Z</time>
      </trkpt>
      <trkpt lat="46.91748" lon="-1.76135">
        <ele>31</ele>
        <time>2018-03-26T05:01:12Z</time>
      </trkpt>
      <trkpt lat="46.91744" lon="-1.76167">
        <ele>32</ele>
        <time>2018-03-26T05:02:12Z</time>
      </trkpt>
      <trkpt lat="46.91738" lon="-1.76218">
        <ele>33</ele>
        <time>2018-03-26T05:03:12Z</time>
      </trkpt>
      <trkpt lat="46.9173" lon="-1.7628">
        <ele>35</ele>
        <time>2018-03-26T05:04:12Z</time>
      </trkpt>
      <trkpt lat="46.91726" lon="-1.76313">
        <ele>35</ele>
        <time>2018-03-26T05:05:12Z</time>
      </trkpt>
      <trkpt lat="46.91726" lon="-1.76322">
        <ele>36</ele>
        <time>2018-03-26T05:06:12Z</time>
      </trkpt>
      <trkpt lat="46.91724" lon="-1.76348">
        <ele>36</ele>
        <time>2018-03-26T05:07:12Z</time>
      </trkpt>
      <trkpt lat="46.91724" lon="-1.76354">
        <ele>36</ele>
        <time>2018-03-26T05:08:12Z</time>
      </trkpt>
      <trkpt lat="46.91723" lon="-1.76371">
        <ele>36</ele>
        <time>2018-03-26T05:09:12Z</time>
      </trkpt>
      <trkpt lat="46.91723" lon="-1.764">
        <ele>36</ele>
        <time>2018-03-26T05:10:12Z</time>
      </trkpt>
      <trkpt lat="46.91724" lon="-1.76422">
        <ele>36</ele>
        <time>2018-03-26T05:11:12Z</time>
      </trkpt>
      <trkpt lat="46.91727" lon="-1.76439">
        <ele>36</ele>
        <time>2018-03-26T05:12:12Z</time>
      </trkpt>
      <trkpt lat="46.91732" lon="-1.76465">
        <ele>36</ele>
        <time>2018-03-26T05:13:12Z</time>
      </trkpt>
      <trkpt lat="46.91742" lon="-1.76502">
        <ele>36</ele>
        <time>2018-03-26T05:14:12Z</time>
      </trkpt>
      <trkpt lat="46.91745" lon="-1.7652">
        <ele>35</ele>
        <time>2018-03-26T05:15:12Z</time>
      </trkpt>
      <trkpt lat="46.91746" lon="-1.76531">
        <ele>35</ele>
        <time>2018-03-26T05:16:12Z</time>
      </trkpt>
      <trkpt lat="46.91746" lon="-1.76552">
        <ele>35</ele>
        <time>2018-03-26T05:17:12Z</time>
      </trkpt>
      <trkpt lat="46.91741" lon="-1.76597">
        <ele>34</ele>
        <time>2018-03-26T05:18:12Z</time>
      </trkpt>
      <trkpt lat="46.91736" lon="-1.76651">
        <ele>35</ele>
        <time>2018-03-26T05:19:12Z</time>
      </trkpt>
      <trkpt lat="46.91733" lon="-1.76683">
        <ele>34</ele>
        <time>2018-03-26T05:20:12Z</time>
      </trkpt>
      <trkpt lat="46.91732" lon="-1.76701">
        <ele>34</ele>
        <time>2018-03-26T05:21:12Z</time>
      </trkpt>
      <trkpt lat="46.91728" lon="-1.76747">
        <ele>33</ele>
        <time>2018-03-26T05:22:12Z</time>
      </trkpt>
      <trkpt lat="46.91725" lon="-1.76776">
        <ele>32</ele>
        <time>2018-03-26T05:23:12Z</time>
      </trkpt>
      <trkpt lat="46.91723" lon="-1.76787">
        <ele>32</ele>
        <time>2018-03-26T05:24:12Z</time>
      </trkpt>
      <trkpt lat="46.9172" lon="-1.76798">
        <ele>32</ele>
        <time>2018-03-26T05:25:12Z</time>
      </trkpt>
      <trkpt lat="46.91715" lon="-1.76812">
        <ele>31</ele>
        <time>2018-03-26T05:26:12Z</time>
      </trkpt>
      <trkpt lat="46.91706" lon="-1.7683">
        <ele>31</ele>
        <time>2018-03-26T05:27:12Z</time>
      </trkpt>
      <trkpt lat="46.917" lon="-1.7684">
        <ele>31</ele>
        <time>2018-03-26T05:28:12Z</time>
      </trkpt>
      <trkpt lat="46.91692" lon="-1.76859">
        <ele>31</ele>
        <time>2018-03-26T05:29:12Z</time>
      </trkpt>
      <trkpt lat="46.91683" lon="-1.76891">
        <ele>31</ele>
        <time>2018-03-26T05:30:12Z</time>
      </trkpt>
      <trkpt lat="46.91671" lon="-1.76982">
        <ele>29</ele>
        <time>2018-03-26T05:31:12Z</time>
      </trkpt>
      <trkpt lat="46.91661" lon="-1.7705">
        <ele>28</ele>
        <time>2018-03-26T05:32:12Z</time>
      </trkpt>
      <trkpt lat="46.91654" lon="-1.771">
        <ele>27</ele>
        <time>2018-03-26T05:33:12Z</time>
      </trkpt>
      <trkpt lat="46.9164" lon="-1.7719">
        <ele>25</ele>
        <time>2018-03-26T05:34:12Z</time>
      </trkpt>
      <trkpt lat="46.91631" lon="-1.77244">
        <ele>25</ele>
        <time>2018-03-26T05:35:12Z</time>
      </trkpt>
      <trkpt lat="46.91624" lon="-1.77273">
        <ele>24</ele>
        <time>2018-03-26T05:36:12Z</time>
      </trkpt>
      <trkpt lat="46.91621" lon="-1.77287">
        <ele>24</ele>
        <time>2018-03-26T05:37:12Z</time>
      </trkpt>
      <trkpt lat="46.91615" lon="-1.77314">
        <ele>25</ele>
        <time>2018-03-26T05:38:12Z</time>
      </trkpt>
      <trkpt lat="46.91614" lon="-1.77323">
        <ele>25</ele>
        <time>2018-03-26T05:39:12Z</time>
      </trkpt>
      <trkpt lat="46.91613" lon="-1.77349">
        <ele>25</ele>
        <time>2018-03-26T05:40:12Z</time>
      </trkpt>
      <trkpt lat="46.91613" lon="-1.77377">
        <ele>25</ele>
        <time>2018-03-26T05:41:12Z</time>
      </trkpt>
      <trkpt lat="46.91613" lon="-1.77423">
        <ele>25</ele>
        <time>2018-03-26T05:42:12Z</time>
      </trkpt>
      <trkpt lat="46.91611" lon="-1.77439">
        <ele>26</ele>
        <time>2018-03-26T05:43:12Z</time>
      </trkpt>
      <trkpt lat="46.91605" lon="-1.77452">
        <ele>26</ele>
        <time>2018-03-26T05:44:12Z</time>
      </trkpt>
      <trkpt lat="46.91597" lon="-1.77462">
        <ele>27</ele>
        <time>2018-03-26T05:45:12Z</time>
      </trkpt>
      <trkpt lat="46.91579" lon="-1.77475">
        <ele>27</ele>
        <time>2018-03-26T05:46:12Z</time>
      </trkpt>
      <trkpt lat="46.91548" lon="-1.77496">
        <ele>28</ele>
        <time>2018-03-26T05:47:12Z</time>
      </trkpt>
      <trkpt lat="46.91519" lon="-1.77518">
        <ele>29</ele>
        <time>2018-03-26T05:48:12Z</time>
      </trkpt>
      <trkpt lat="46.91519" lon="-1.77518">
        <ele>29</ele>
        <time>2018-03-26T05:49:12Z</time>
      </trkpt>
      <trkpt lat="46.91506" lon="-1.77531">
        <ele>29</ele>
        <time>2018-03-26T05:50:12Z</time>
      </trkpt>
      <trkpt lat="46.91488" lon="-1.77556">
        <ele>30</ele>
        <time>2018-03-26T05:51:12Z</time>
      </trkpt>
      <trkpt lat="46.91477" lon="-1.77577">
        <ele>31</ele>
        <time>2018-03-26T05:52:12Z</time>
      </trkpt>
      <trkpt lat="46.91471" lon="-1.77588">
        <ele>31</ele>
        <time>2018-03-26T05:53:12Z</time>
      </trkpt>
      <trkpt lat="46.9146" lon="-1.7761">
        <ele>31</ele>
        <time>2018-03-26T05:54:12Z</time>
      </trkpt>
      <trkpt lat="46.91443" lon="-1.77645">
        <ele>31</ele>
        <time>2018-03-26T05:55:12Z</time>
      </trkpt>
      <trkpt lat="46.91436" lon="-1.77659">
        <ele>31</ele>
        <time>2018-03-26T05:56:12Z</time>
      </trkpt>
      <trkpt lat="46.9143" lon="-1.77674">
        <ele>31</ele>
        <time>2018-03-26T05:57:12Z</time>
      </trkpt>
      <trkpt lat="46.91422" lon="-1.77696">
        <ele>31</ele>
        <time>2018-03-26T05:58:12Z</time>
      </trkpt>
      <trkpt lat="46.91419" lon="-1.77708">
        <ele>31</ele>
        <time>2018-03-26T05:59:12Z</time>
      </trkpt>
      <trkpt lat="46.91413" lon="-1.77727">
        <ele>31</ele>
        <time>2018-03-26T06:00:12Z</time>
      </trkpt>
      <trkpt lat="46.91407" lon="-1.77744">
        <ele>31</ele>
        <time>2018-03-26T06:01:12Z</time>
      </trkpt>
      <trkpt lat="46.91397" lon="-1.77764">
        <ele>30</ele>
        <time>2018-03-26T06:02:12Z</time>
      </trkpt>
      <trkpt lat="46.91384" lon="-1.77783">
        <ele>30</ele>
        <time>2018-03-26T06:03:12Z</time>
      </trkpt>
      <trkpt lat="46.91372" lon="-1.77796">
        <ele>30</ele>
        <time>2018-03-26T06:04:12Z</time>
      </trkpt>
      <trkpt lat="46.91348" lon="-1.77816">
        <ele>29</ele>
        <time>2018-03-26T06:05:12Z</time>
      </trkpt>
      <trkpt lat="46.91321" lon="-1.77838">
        <ele>29</ele>
        <time>2018-03-26T06:06:12Z</time>
      </trkpt>
      <trkpt lat="46.91295" lon="-1.77861">
        <ele>29</ele>
        <time>2018-03-26T06:07:12Z</time>
      </trkpt>
      <trkpt lat="46.91284" lon="-1.77871">
        <ele>30</ele>
        <time>2018-03-26T06:08:12Z</time>
      </trkpt>
      <trkpt lat="46.91279" lon="-1.77877">
        <ele>30</ele>
        <time>2018-03-26T06:09:12Z</time>
      </trkpt>
      <trkpt lat="46.91277" lon="-1.77881">
        <ele>30</ele>
        <time>2018-03-26T06:10:12Z</time>
      </trkpt>
      <trkpt lat="46.91277" lon="-1.77881">
        <ele>30</ele>
        <time>2018-03-26T06:11:12Z</time>
      </trkpt>
      <trkpt lat="46.91274" lon="-1.77887">
        <ele>30</ele>
        <time>2018-03-26T06:12:12Z</time>
      </trkpt>
      <trkpt lat="46.91271" lon="-1.77898">
        <ele>30</ele>
        <time>2018-03-26T06:13:12Z</time>
      </trkpt>
      <trkpt lat="46.91264" lon="-1.77928">
        <ele>31</ele>
        <time>2018-03-26T06:14:12Z</time>
      </trkpt>
      <trkpt lat="46.91257" lon="-1.77969">
        <ele>31</ele>
        <time>2018-03-26T06:15:12Z</time>
      </trkpt>
      <trkpt lat="46.91244" lon="-1.78044">
        <ele>31</ele>
        <time>2018-03-26T06:16:12Z</time>
      </trkpt>
      <trkpt lat="46.91241" lon="-1.78068">
        <ele>31</ele>
        <time>2018-03-26T06:17:12Z</time>
      </trkpt>
      <trkpt lat="46.91241" lon="-1.78068">
        <ele>31</ele>
        <time>2018-03-26T06:18:12Z</time>
      </trkpt>
      <trkpt lat="46.91237" lon="-1.7811">
        <ele>31</ele>
        <time>2018-03-26T06:19:12Z</time>
      </trkpt>
      <trkpt lat="46.91235" lon="-1.78129">
        <ele>31</ele>
        <time>2018-03-26T06:20:12Z</time>
      </trkpt>
      <trkpt lat="46.91234" lon="-1.78142">
        <ele>31</ele>
        <time>2018-03-26T06:21:12Z</time>
      </trkpt>
      <trkpt lat="46.91235" lon="-1.78175">
        <ele>31</ele>
        <time>2018-03-26T06:22:12Z</time>
      </trkpt>
      <trkpt lat="46.91238" lon="-1.78209">
        <ele>32</ele>
        <time>2018-03-26T06:23:12Z</time>
      </trkpt>
      <trkpt lat="46.91243" lon="-1.78242">
        <ele>32</ele>
        <time>2018-03-26T06:24:12Z</time>
      </trkpt>
      <trkpt lat="46.91254" lon="-1.7829">
        <ele>31</ele>
        <time>2018-03-26T06:25:12Z</time>
      </trkpt>
      <trkpt lat="46.91271" lon="-1.78377">
        <ele>31</ele>
        <time>2018-03-26T06:26:12Z</time>
      </trkpt>
      <trkpt lat="46.91282" lon="-1.78431">
        <ele>31</ele>
        <time>2018-03-26T06:27:12Z</time>
      </trkpt>
      <trkpt lat="46.91286" lon="-1.78453">
        <ele>31</ele>
        <time>2018-03-26T06:28:12Z</time>
      </trkpt>
      <trkpt lat="46.91295" lon="-1.785">
        <ele>31</ele>
        <time>2018-03-26T06:29:12Z</time>
      </trkpt>
      <trkpt lat="46.91295" lon="-1.785">
        <ele>31</ele>
        <time>2018-03-26T06:30:12Z</time>
      </trkpt>
      <trkpt lat="46.91292" lon="-1.78514">
        <ele>31</ele>
        <time>2018-03-26T06:31:12Z</time>
      </trkpt>
      <trkpt lat="46.91289" lon="-1.78521">
        <ele>31</ele>
        <time>2018-03-26T06:32:12Z</time>
      </trkpt>
      <trkpt lat="46.91284" lon="-1.78527">
        <ele>31</ele>
        <time>2018-03-26T06:33:12Z</time>
      </trkpt>
      <trkpt lat="46.91275" lon="-1.78535">
        <ele>31</ele>
        <time>2018-03-26T06:34:12Z</time>
      </trkpt>
      <trkpt lat="46.91241" lon="-1.78548">
        <ele>31</ele>
        <time>2018-03-26T06:35:12Z</time>
      </trkpt>
      <trkpt lat="46.9117" lon="-1.78575">
        <ele>31</ele>
        <time>2018-03-26T06:36:12Z</time>
      </trkpt>
      <trkpt lat="46.91112" lon="-1.78603">
        <ele>31</ele>
        <time>2018-03-26T06:37:12Z</time>
      </trkpt>
      <trkpt lat="46.91065" lon="-1.78627">
        <ele>31</ele>
        <time>2018-03-26T06:38:12Z</time>
      </trkpt>
      <trkpt lat="46.91046" lon="-1.78638">
        <ele>31</ele>
        <time>2018-03-26T06:39:12Z</time>
      </trkpt>
      <trkpt lat="46.91031" lon="-1.78649">
        <ele>31</ele>
        <time>2018-03-26T06:40:12Z</time>
      </trkpt>
      <trkpt lat="46.91011" lon="-1.78667">
        <ele>31</ele>
        <time>2018-03-26T06:41:12Z</time>
      </trkpt>
      <trkpt lat="46.90982" lon="-1.787">
        <ele>31</ele>
        <time>2018-03-26T06:42:12Z</time>
      </trkpt>
      <trkpt lat="46.90955" lon="-1.78733">
        <ele>31</ele>
        <time>2018-03-26T06:43:12Z</time>
      </trkpt>
      <trkpt lat="46.90927" lon="-1.78769">
        <ele>31</ele>
        <time>2018-03-26T06:44:12Z</time>
      </trkpt>
      <trkpt lat="46.90904" lon="-1.78792">
        <ele>31</ele>
        <time>2018-03-26T06:45:12Z</time>
      </trkpt>
      <trkpt lat="46.90889" lon="-1.78801">
        <ele>31</ele>
        <time>2018-03-26T06:46:12Z</time>
      </trkpt>
      <trkpt lat="46.90877" lon="-1.78808">
        <ele>31</ele>
        <time>2018-03-26T06:47:12Z</time>
      </trkpt>
      <trkpt lat="46.90849" lon="-1.7882">
        <ele>31</ele>
        <time>2018-03-26T06:48:12Z</time>
      </trkpt>
      <trkpt lat="46.90839" lon="-1.78825">
        <ele>31</ele>
        <time>2018-03-26T06:49:12Z</time>
      </trkpt>
      <trkpt lat="46.90793" lon="-1.78849">
        <ele>31</ele>
        <time>2018-03-26T06:50:12Z</time>
      </trkpt>
      <trkpt lat="46.9076" lon="-1.78869">
        <ele>32</ele>
        <time>2018-03-26T06:51:12Z</time>
      </trkpt>
      <trkpt lat="46.90738" lon="-1.78882">
        <ele>32</ele>
        <time>2018-03-26T06:52:12Z</time>
      </trkpt>
      <trkpt lat="46.90728" lon="-1.7889">
        <ele>32</ele>
        <time>2018-03-26T06:53:12Z</time>
      </trkpt>
      <trkpt lat="46.90708" lon="-1.78908">
        <ele>32</ele>
        <time>2018-03-26T06:54:12Z</time>
      </trkpt>
      <trkpt lat="46.90688" lon="-1.78929">
        <ele>32</ele>
        <time>2018-03-26T06:55:12Z</time>
      </trkpt>
      <trkpt lat="46.90666" lon="-1.78956">
        <ele>32</ele>
        <time>2018-03-26T06:56:12Z</time>
      </trkpt>
      <trkpt lat="46.90655" lon="-1.78971">
        <ele>32</ele>
        <time>2018-03-26T06:57:12Z</time>
      </trkpt>
      <trkpt lat="46.9064" lon="-1.78995">
        <ele>32</ele>
        <time>2018-03-26T06:58:12Z</time>
      </trkpt>
      <trkpt lat="46.90627" lon="-1.79024">
        <ele>32</ele>
        <time>2018-03-26T06:59:12Z</time>
      </trkpt>
      <trkpt lat="46.90611" lon="-1.79062">
        <ele>31</ele>
        <time>2018-03-26T07:00:12Z</time>
      </trkpt>
      <trkpt lat="46.90591" lon="-1.79108">
        <ele>31</ele>
        <time>2018-03-26T07:01:12Z</time>
      </trkpt>
      <trkpt lat="46.90574" lon="-1.79147">
        <ele>30</ele>
        <time>2018-03-26T07:02:12Z</time>
      </trkpt>
      <trkpt lat="46.90564" lon="-1.79168">
        <ele>30</ele>
        <time>2018-03-26T07:03:12Z</time>
      </trkpt>
      <trkpt lat="46.90562" lon="-1.79171">
        <ele>30</ele>
        <time>2018-03-26T07:04:12Z</time>
      </trkpt>
      <trkpt lat="46.90552" lon="-1.79193">
        <ele>30</ele>
        <time>2018-03-26T07:05:12Z</time>
      </trkpt>
      <trkpt lat="46.90541" lon="-1.79215">
        <ele>30</ele>
        <time>2018-03-26T07:06:12Z</time>
      </trkpt>
      <trkpt lat="46.90521" lon="-1.79252">
        <ele>29</ele>
        <time>2018-03-26T07:07:12Z</time>
      </trkpt>
      <trkpt lat="46.90496" lon="-1.793">
        <ele>29</ele>
        <time>2018-03-26T07:08:12Z</time>
      </trkpt>
      <trkpt lat="46.90485" lon="-1.79322">
        <ele>29</ele>
        <time>2018-03-26T07:09:12Z</time>
      </trkpt>
      <trkpt lat="46.9047" lon="-1.79354">
        <ele>29</ele>
        <time>2018-03-26T07:10:12Z</time>
      </trkpt>
      <trkpt lat="46.90457" lon="-1.79385">
        <ele>28</ele>
        <time>2018-03-26T07:11:12Z</time>
      </trkpt>
      <trkpt lat="46.90449" lon="-1.79409">
        <ele>27</ele>
        <time>2018-03-26T07:12:12Z</time>
      </trkpt>
      <trkpt lat="46.90426" lon="-1.79479">
        <ele>26</ele>
        <time>2018-03-26T07:13:12Z</time>
      </trkpt>
      <trkpt lat="46.90407" lon="-1.79536">
        <ele>26</ele>
        <time>2018-03-26T07:14:12Z</time>
      </trkpt>
      <trkpt lat="46.90392" lon="-1.79584">
        <ele>27</ele>
        <time>2018-03-26T07:15:12Z</time>
      </trkpt>
      <trkpt lat="46.90378" lon="-1.79626">
        <ele>27</ele>
        <time>2018-03-26T07:16:12Z</time>
      </trkpt>
      <trkpt lat="46.90367" lon="-1.7966">
        <ele>27</ele>
        <time>2018-03-26T07:17:12Z</time>
      </trkpt>
      <trkpt lat="46.9036" lon="-1.7968">
        <ele>27</ele>
        <time>2018-03-26T07:18:12Z</time>
      </trkpt>
      <trkpt lat="46.90355" lon="-1.79691">
        <ele>27</ele>
        <time>2018-03-26T07:19:12Z</time>
      </trkpt>
      <trkpt lat="46.9035" lon="-1.79702">
        <ele>26</ele>
        <time>2018-03-26T07:20:12Z</time>
      </trkpt>
      <trkpt lat="46.90342" lon="-1.79716">
        <ele>26</ele>
        <time>2018-03-26T07:21:12Z</time>
      </trkpt>
      <trkpt lat="46.90334" lon="-1.79728">
        <ele>26</ele>
        <time>2018-03-26T07:22:12Z</time>
      </trkpt>
      <trkpt lat="46.90323" lon="-1.79742">
        <ele>25</ele>
        <time>2018-03-26T07:23:12Z</time>
      </trkpt>
      <trkpt lat="46.90303" lon="-1.79764">
        <ele>26</ele>
        <time>2018-03-26T07:24:12Z</time>
      </trkpt>
      <trkpt lat="46.90262" lon="-1.79808">
        <ele>26</ele>
        <time>2018-03-26T07:25:12Z</time>
      </trkpt>
      <trkpt lat="46.90205" lon="-1.79868">
        <ele>27</ele>
        <time>2018-03-26T07:26:12Z</time>
      </trkpt>
      <trkpt lat="46.90184" lon="-1.79891">
        <ele>27</ele>
        <time>2018-03-26T07:27:12Z</time>
      </trkpt>
      <trkpt lat="46.90151" lon="-1.79926">
        <ele>28</ele>
        <time>2018-03-26T07:28:12Z</time>
      </trkpt>
      <trkpt lat="46.901" lon="-1.79981">
        <ele>30</ele>
        <time>2018-03-26T07:29:12Z</time>
      </trkpt>
      <trkpt lat="46.90086" lon="-1.79997">
        <ele>30</ele>
        <time>2018-03-26T07:30:12Z</time>
      </trkpt>
      <trkpt lat="46.90059" lon="-1.80024">
        <ele>30</ele>
        <time>2018-03-26T07:31:12Z</time>
      </trkpt>
      <trkpt lat="46.90045" lon="-1.8004">
        <ele>30</ele>
        <time>2018-03-26T07:32:12Z</time>
      </trkpt>
      <trkpt lat="46.90028" lon="-1.80056">
        <ele>30</ele>
        <time>2018-03-26T07:33:12Z</time>
      </trkpt>
      <trkpt lat="46.90013" lon="-1.80069">
        <ele>31</ele>
        <time>2018-03-26T07:34:12Z</time>
      </trkpt>
      <trkpt lat="46.90006" lon="-1.80074">
        <ele>31</ele>
        <time>2018-03-26T07:35:12Z</time>
      </trkpt>
      <trkpt lat="46.89963" lon="-1.80105">
        <ele>31</ele>
        <time>2018-03-26T07:36:12Z</time>
      </trkpt>
      <trkpt lat="46.89941" lon="-1.8012">
        <ele>31</ele>
        <time>2018-03-26T07:37:12Z</time>
      </trkpt>
      <trkpt lat="46.89931" lon="-1.80129">
        <ele>31</ele>
        <time>2018-03-26T07:38:12Z</time>
      </trkpt>
      <trkpt lat="46.89924" lon="-1.80135">
        <ele>32</ele>
        <time>2018-03-26T07:39:12Z</time>
      </trkpt>
      <trkpt lat="46.89917" lon="-1.80142">
        <ele>32</ele>
        <time>2018-03-26T07:40:12Z</time>
      </trkpt>
      <trkpt lat="46.8991" lon="-1.80149">
        <ele>32</ele>
        <time>2018-03-26T07:41:12Z</time>
      </trkpt>
      <trkpt lat="46.89889" lon="-1.80169">
        <ele>32</ele>
        <time>2018-03-26T07:42:12Z</time>
      </trkpt>
      <trkpt lat="46.89854" lon="-1.802">
        <ele>33</ele>
        <time>2018-03-26T07:43:12Z</time>
      </trkpt>
      <trkpt lat="46.89834" lon="-1.80219">
        <ele>34</ele>
        <time>2018-03-26T07:44:12Z</time>
      </trkpt>
      <trkpt lat="46.89813" lon="-1.8024">
        <ele>34</ele>
        <time>2018-03-26T07:45:12Z</time>
      </trkpt>
      <trkpt lat="46.89781" lon="-1.80276">
        <ele>34</ele>
        <time>2018-03-26T07:46:12Z</time>
      </trkpt>
      <trkpt lat="46.89753" lon="-1.80309">
        <ele>34</ele>
        <time>2018-03-26T07:47:12Z</time>
      </trkpt>
      <trkpt lat="46.89718" lon="-1.8035">
        <ele>35</ele>
        <time>2018-03-26T07:48:12Z</time>
      </trkpt>
      <trkpt lat="46.89697" lon="-1.80376">
        <ele>35</ele>
        <time>2018-03-26T07:49:12Z</time>
      </trkpt>
      <trkpt lat="46.89681" lon="-1.80395">
        <ele>36</ele>
        <time>2018-03-26T07:50:12Z</time>
      </trkpt>
      <trkpt lat="46.89673" lon="-1.80405">
        <ele>36</ele>
        <time>2018-03-26T07:51:12Z</time>
      </trkpt>
      <trkpt lat="46.89669" lon="-1.80411">
        <ele>36</ele>
        <time>2018-03-26T07:52:12Z</time>
      </trkpt>
      <trkpt lat="46.89653" lon="-1.80436">
        <ele>36</ele>
        <time>2018-03-26T07:53:12Z</time>
      </trkpt>
      <trkpt lat="46.8962" lon="-1.8049">
        <ele>37</ele>
        <time>2018-03-26T07:54:12Z</time>
      </trkpt>
      <trkpt lat="46.89604" lon="-1.80519">
        <ele>37</ele>
        <time>2018-03-26T07:55:12Z</time>
      </trkpt>
      <trkpt lat="46.89589" lon="-1.80545">
        <ele>38</ele>
        <time>2018-03-26T07:56:12Z</time>
      </trkpt>
      <trkpt lat="46.89571" lon="-1.80579">
        <ele>39</ele>
        <time>2018-03-26T07:57:12Z</time>
      </trkpt>
      <trkpt lat="46.89562" lon="-1.80597">
        <ele>40</ele>
        <time>2018-03-26T07:58:12Z</time>
      </trkpt>
      <trkpt lat="46.89554" lon="-1.80615">
        <ele>40</ele>
        <time>2018-03-26T07:59:12Z</time>
      </trkpt>
      <trkpt lat="46.89536" lon="-1.80649">
        <ele>42</ele>
        <time>2018-03-26T08:00:12Z</time>
      </trkpt>
      <trkpt lat="46.89516" lon="-1.8069">
        <ele>43</ele>
        <time>2018-03-26T08:01:12Z</time>
      </trkpt>
      <trkpt lat="46.89501" lon="-1.80721">
        <ele>44</ele>
        <time>2018-03-26T08:02:12Z</time>
      </trkpt>
      <trkpt lat="46.89489" lon="-1.80744">
        <ele>44</ele>
        <time>2018-03-26T08:03:12Z</time>
      </trkpt>
      <trkpt lat="46.89469" lon="-1.80784">
        <ele>44</ele>
        <time>2018-03-26T08:04:12Z</time>
      </trkpt>
      <trkpt lat="46.89458" lon="-1.80807">
        <ele>44</ele>
        <time>2018-03-26T08:05:12Z</time>
      </trkpt>
      <trkpt lat="46.89447" lon="-1.80828">
        <ele>44</ele>
        <time>2018-03-26T08:06:12Z</time>
      </trkpt>
      <trkpt lat="46.89427" lon="-1.80868">
        <ele>45</ele>
        <time>2018-03-26T08:07:12Z</time>
      </trkpt>
      <trkpt lat="46.89404" lon="-1.80917">
        <ele>45</ele>
        <time>2018-03-26T08:08:12Z</time>
      </trkpt>
      <trkpt lat="46.8939" lon="-1.80951">
        <ele>46</ele>
        <time>2018-03-26T08:09:12Z</time>
      </trkpt>
      <trkpt lat="46.89374" lon="-1.80989">
        <ele>46</ele>
        <time>2018-03-26T08:10:12Z</time>
      </trkpt>
      <trkpt lat="46.89373" lon="-1.80991">
        <ele>46</ele>
        <time>2018-03-26T08:11:12Z</time>
      </trkpt>
      <trkpt lat="46.89357" lon="-1.8103">
        <ele>45</ele>
        <time>2018-03-26T08:12:12Z</time>
      </trkpt>
      <trkpt lat="46.89344" lon="-1.81059">
        <ele>45</ele>
        <time>2018-03-26T08:13:12Z</time>
      </trkpt>
      <trkpt lat="46.89341" lon="-1.81066">
        <ele>45</ele>
        <time>2018-03-26T08:14:12Z</time>
      </trkpt>
      <trkpt lat="46.89334" lon="-1.81079">
        <ele>45</ele>
        <time>2018-03-26T08:15:12Z</time>
      </trkpt>
      <trkpt lat="46.8933" lon="-1.81084">
        <ele>45</ele>
        <time>2018-03-26T08:16:12Z</time>
      </trkpt>
      <trkpt lat="46.89327" lon="-1.8109">
        <ele>45</ele>
        <time>2018-03-26T08:17:12Z</time>
      </trkpt>
      <trkpt lat="46.89322" lon="-1.81094">
        <ele>45</ele>
        <time>2018-03-26T08:18:12Z</time>
      </trkpt>
      <trkpt lat="46.89314" lon="-1.81103">
        <ele>45</ele>
        <time>2018-03-26T08:19:12Z</time>
      </trkpt>
      <trkpt lat="46.89309" lon="-1.81107">
        <ele>45</ele>
        <time>2018-03-26T08:20:12Z</time>
      </trkpt>
      <trkpt lat="46.89293" lon="-1.81118">
        <ele>46</ele>
        <time>2018-03-26T08:21:12Z</time>
      </trkpt>
      <trkpt lat="46.89286" lon="-1.81123">
        <ele>46</ele>
        <time>2018-03-26T08:22:12Z</time>
      </trkpt>
      <trkpt lat="46.89278" lon="-1.81129">
        <ele>46</ele>
        <time>2018-03-26T08:23:12Z</time>
      </trkpt>
      <trkpt lat="46.89271" lon="-1.81135">
        <ele>46</ele>
        <time>2018-03-26T08:24:12Z</time>
      </trkpt>
      <trkpt lat="46.89261" lon="-1.81146">
        <ele>47</ele>
        <time>2018-03-26T08:25:12Z</time>
      </trkpt>
      <trkpt lat="46.89255" lon="-1.81152">
        <ele>47</ele>
        <time>2018-03-26T08:26:12Z</time>
      </trkpt>
      <trkpt lat="46.8923" lon="-1.81184">
        <ele>47</ele>
        <time>2018-03-26T08:27:12Z</time>
      </trkpt>
      <trkpt lat="46.89226" lon="-1.8119">
        <ele>47</ele>
        <time>2018-03-26T08:28:12Z</time>
      </trkpt>
      <trkpt lat="46.892" lon="-1.81222">
        <ele>47</ele>
        <time>2018-03-26T08:29:12Z</time>
      </trkpt>
      <trkpt lat="46.89166" lon="-1.81267">
        <ele>48</ele>
        <time>2018-03-26T08:30:12Z</time>
      </trkpt>
      <trkpt lat="46.89166" lon="-1.81267">
        <ele>48</ele>
        <time>2018-03-26T08:31:12Z</time>
      </trkpt>
      <trkpt lat="46.89167" lon="-1.81282">
        <ele>47</ele>
        <time>2018-03-26T08:32:12Z</time>
      </trkpt>
      <trkpt lat="46.89168" lon="-1.81291">
        <ele>47</ele>
        <time>2018-03-26T08:33:12Z</time>
      </trkpt>
      <trkpt lat="46.89168" lon="-1.81302">
        <ele>47</ele>
        <time>2018-03-26T08:34:12Z</time>
      </trkpt>
      <trkpt lat="46.89169" lon="-1.81318">
        <ele>46</ele>
        <time>2018-03-26T08:35:12Z</time>
      </trkpt>
      <trkpt lat="46.89168" lon="-1.81355">
        <ele>45</ele>
        <time>2018-03-26T08:36:12Z</time>
      </trkpt>
      <trkpt lat="46.89168" lon="-1.81369">
        <ele>45</ele>
        <time>2018-03-26T08:37:12Z</time>
      </trkpt>
      <trkpt lat="46.89166" lon="-1.81385">
        <ele>45</ele>
        <time>2018-03-26T08:38:12Z</time>
      </trkpt>
      <trkpt lat="46.89164" lon="-1.81407">
        <ele>44</ele>
        <time>2018-03-26T08:39:12Z</time>
      </trkpt>
      <trkpt lat="46.89161" lon="-1.81424">
        <ele>44</ele>
        <time>2018-03-26T08:40:12Z</time>
      </trkpt>
      <trkpt lat="46.89154" lon="-1.81456">
        <ele>42</ele>
        <time>2018-03-26T08:41:12Z</time>
      </trkpt>
      <trkpt lat="46.8914" lon="-1.81517">
        <ele>40</ele>
        <time>2018-03-26T08:42:12Z</time>
      </trkpt>
      <trkpt lat="46.89125" lon="-1.81579">
        <ele>38</ele>
        <time>2018-03-26T08:43:12Z</time>
      </trkpt>
      <trkpt lat="46.89107" lon="-1.81652">
        <ele>36</ele>
        <time>2018-03-26T08:44:12Z</time>
      </trkpt>
      <trkpt lat="46.8909" lon="-1.81725">
        <ele>35</ele>
        <time>2018-03-26T08:45:12Z</time>
      </trkpt>
      <trkpt lat="46.89074" lon="-1.81794">
        <ele>33</ele>
        <time>2018-03-26T08:46:12Z</time>
      </trkpt>
      <trkpt lat="46.89066" lon="-1.81829">
        <ele>31</ele>
        <time>2018-03-26T08:47:12Z</time>
      </trkpt>
      <trkpt lat="46.89061" lon="-1.81857">
        <ele>30</ele>
        <time>2018-03-26T08:48:12Z</time>
      </trkpt>
      <trkpt lat="46.89059" lon="-1.81871">
        <ele>30</ele>
        <time>2018-03-26T08:49:12Z</time>
      </trkpt>
      <trkpt lat="46.89056" lon="-1.81888">
        <ele>29</ele>
        <time>2018-03-26T08:50:12Z</time>
      </trkpt>
      <trkpt lat="46.89054" lon="-1.81905">
        <ele>29</ele>
        <time>2018-03-26T08:51:12Z</time>
      </trkpt>
      <trkpt lat="46.89053" lon="-1.81921">
        <ele>28</ele>
        <time>2018-03-26T08:52:12Z</time>
      </trkpt>
      <trkpt lat="46.89052" lon="-1.8194">
        <ele>28</ele>
        <time>2018-03-26T08:53:12Z</time>
      </trkpt>
      <trkpt lat="46.89051" lon="-1.81976">
        <ele>27</ele>
        <time>2018-03-26T08:54:12Z</time>
      </trkpt>
      <trkpt lat="46.8905" lon="-1.82011">
        <ele>27</ele>
        <time>2018-03-26T08:55:12Z</time>
      </trkpt>
      <trkpt lat="46.89049" lon="-1.82052">
        <ele>27</ele>
        <time>2018-03-26T08:56:12Z</time>
      </trkpt>
      <trkpt lat="46.89049" lon="-1.82075">
        <ele>27</ele>
        <time>2018-03-26T08:57:12Z</time>
      </trkpt>
      <trkpt lat="46.89048" lon="-1.82098">
        <ele>27</ele>
        <time>2018-03-26T08:58:12Z</time>
      </trkpt>
      <trkpt lat="46.89047" lon="-1.82124">
        <ele>27</ele>
        <time>2018-03-26T08:59:12Z</time>
      </trkpt>
      <trkpt lat="46.89047" lon="-1.82138">
        <ele>27</ele>
        <time>2018-03-26T09:00:12Z</time>
      </trkpt>
      <trkpt lat="46.89045" lon="-1.82154">
        <ele>27</ele>
        <time>2018-03-26T09:01:12Z</time>
      </trkpt>
      <trkpt lat="46.89043" lon="-1.82165">
        <ele>27</ele>
        <time>2018-03-26T09:02:12Z</time>
      </trkpt>
      <trkpt lat="46.89042" lon="-1.82177">
        <ele>27</ele>
        <time>2018-03-26T09:03:12Z</time>
      </trkpt>
      <trkpt lat="46.8904" lon="-1.82189">
        <ele>27</ele>
        <time>2018-03-26T09:04:12Z</time>
      </trkpt>
      <trkpt lat="46.89038" lon="-1.82199">
        <ele>26</ele>
        <time>2018-03-26T09:05:12Z</time>
      </trkpt>
      <trkpt lat="46.89034" lon="-1.82223">
        <ele>26</ele>
        <time>2018-03-26T09:06:12Z</time>
      </trkpt>
      <trkpt lat="46.89027" lon="-1.82261">
        <ele>25</ele>
        <time>2018-03-26T09:07:12Z</time>
      </trkpt>
      <trkpt lat="46.89024" lon="-1.82279">
        <ele>25</ele>
        <time>2018-03-26T09:08:12Z</time>
      </trkpt>
      <trkpt lat="46.89022" lon="-1.82296">
        <ele>25</ele>
        <time>2018-03-26T09:09:12Z</time>
      </trkpt>
      <trkpt lat="46.89021" lon="-1.82312">
        <ele>25</ele>
        <time>2018-03-26T09:10:12Z</time>
      </trkpt>
      <trkpt lat="46.89019" lon="-1.82333">
        <ele>25</ele>
        <time>2018-03-26T09:11:12Z</time>
      </trkpt>
      <trkpt lat="46.89018" lon="-1.82343">
        <ele>25</ele>
        <time>2018-03-26T09:12:12Z</time>
      </trkpt>
      <trkpt lat="46.89016" lon="-1.82373">
        <ele>24</ele>
        <time>2018-03-26T09:13:12Z</time>
      </trkpt>
      <trkpt lat="46.89013" lon="-1.82406">
        <ele>24</ele>
        <time>2018-03-26T09:14:12Z</time>
      </trkpt>
      <trkpt lat="46.89011" lon="-1.82442">
        <ele>24</ele>
        <time>2018-03-26T09:15:12Z</time>
      </trkpt>
      <trkpt lat="46.8901" lon="-1.8246">
        <ele>24</ele>
        <time>2018-03-26T09:16:12Z</time>
      </trkpt>
      <trkpt lat="46.89009" lon="-1.82468">
        <ele>24</ele>
        <time>2018-03-26T09:17:12Z</time>
      </trkpt>
      <trkpt lat="46.89007" lon="-1.82477">
        <ele>25</ele>
        <time>2018-03-26T09:18:12Z</time>
      </trkpt>
      <trkpt lat="46.89006" lon="-1.82485">
        <ele>25</ele>
        <time>2018-03-26T09:19:12Z</time>
      </trkpt>
      <trkpt lat="46.89004" lon="-1.82493">
        <ele>25</ele>
        <time>2018-03-26T09:20:12Z</time>
      </trkpt>
      <trkpt lat="46.89003" lon="-1.82495">
        <ele>25</ele>
        <time>2018-03-26T09:21:12Z</time>
      </trkpt>
      <trkpt lat="46.89" lon="-1.82506">
        <ele>25</ele>
        <time>2018-03-26T09:22:12Z</time>
      </trkpt>
      <trkpt lat="46.88997" lon="-1.82514">
        <ele>25</ele>
        <time>2018-03-26T09:23:12Z</time>
      </trkpt>
      <trkpt lat="46.88994" lon="-1.82521">
        <ele>25</ele>
        <time>2018-03-26T09:24:12Z</time>
      </trkpt>
      <trkpt lat="46.88991" lon="-1.82527">
        <ele>25</ele>
        <time>2018-03-26T09:25:12Z</time>
      </trkpt>
      <trkpt lat="46.88985" lon="-1.82538">
        <ele>25</ele>
        <time>2018-03-26T09:26:12Z</time>
      </trkpt>
      <trkpt lat="46.88982" lon="-1.82546">
        <ele>25</ele>
        <time>2018-03-26T09:27:12Z</time>
      </trkpt>
      <trkpt lat="46.88978" lon="-1.82555">
        <ele>25</ele>
        <time>2018-03-26T09:28:12Z</time>
      </trkpt>
      <trkpt lat="46.88975" lon="-1.82565">
        <ele>25</ele>
        <time>2018-03-26T09:29:12Z</time>
      </trkpt>
      <trkpt lat="46.88974" lon="-1.82568">
        <ele>25</ele>
        <time>2018-03-26T09:30:12Z</time>
      </trkpt>
      <trkpt lat="46.88973" lon="-1.82573">
        <ele>25</ele>
        <time>2018-03-26T09:31:12Z</time>
      </trkpt>
      <trkpt lat="46.88971" lon="-1.8258">
        <ele>25</ele>
        <time>2018-03-26T09:32:12Z</time>
      </trkpt>
      <trkpt lat="46.88968" lon="-1.82593">
        <ele>25</ele>
        <time>2018-03-26T09:33:12Z</time>
      </trkpt>
      <trkpt lat="46.88965" lon="-1.82608">
        <ele>25</ele>
        <time>2018-03-26T09:34:12Z</time>
      </trkpt>
      <trkpt lat="46.88963" lon="-1.8262">
        <ele>25</ele>
        <time>2018-03-26T09:35:12Z</time>
      </trkpt>
      <trkpt lat="46.88961" lon="-1.82634">
        <ele>25</ele>
        <time>2018-03-26T09:36:12Z</time>
      </trkpt>
      <trkpt lat="46.88957" lon="-1.82654">
        <ele>25</ele>
        <time>2018-03-26T09:37:12Z</time>
      </trkpt>
      <trkpt lat="46.88951" lon="-1.82697">
        <ele>25</ele>
        <time>2018-03-26T09:38:12Z</time>
      </trkpt>
      <trkpt lat="46.88945" lon="-1.82729">
        <ele>25</ele>
        <time>2018-03-26T09:39:12Z</time>
      </trkpt>
      <trkpt lat="46.88942" lon="-1.82745">
        <ele>25</ele>
        <time>2018-03-26T09:40:12Z</time>
      </trkpt>
      <trkpt lat="46.88941" lon="-1.82756">
        <ele>25</ele>
        <time>2018-03-26T09:41:12Z</time>
      </trkpt>
      <trkpt lat="46.8894" lon="-1.82761">
        <ele>25</ele>
        <time>2018-03-26T09:42:12Z</time>
      </trkpt>
      <trkpt lat="46.88938" lon="-1.82769">
        <ele>25</ele>
        <time>2018-03-26T09:43:12Z</time>
      </trkpt>
      <trkpt lat="46.88937" lon="-1.82773">
        <ele>25</ele>
        <time>2018-03-26T09:44:12Z</time>
      </trkpt>
      <trkpt lat="46.88935" lon="-1.82777">
        <ele>25</ele>
        <time>2018-03-26T09:45:12Z</time>
      </trkpt>
      <trkpt lat="46.88935" lon="-1.82777">
        <ele>25</ele>
        <time>2018-03-26T09:46:12Z</time>
      </trkpt>
      <trkpt lat="46.8894" lon="-1.82821">
        <ele>23</ele>
        <time>2018-03-26T09:47:12Z</time>
      </trkpt>
      <trkpt lat="46.88943" lon="-1.82836">
        <ele>23</ele>
        <time>2018-03-26T09:48:12Z</time>
      </trkpt>
      <trkpt lat="46.88944" lon="-1.82843">
        <ele>23</ele>
        <time>2018-03-26T09:49:12Z</time>
      </trkpt>
      <trkpt lat="46.88946" lon="-1.82854">
        <ele>23</ele>
        <time>2018-03-26T09:50:12Z</time>
      </trkpt>
      <trkpt lat="46.88949" lon="-1.82868">
        <ele>23</ele>
        <time>2018-03-26T09:51:12Z</time>
      </trkpt>
      <trkpt lat="46.88954" lon="-1.82888">
        <ele>23</ele>
        <time>2018-03-26T09:52:12Z</time>
      </trkpt>
      <trkpt lat="46.88958" lon="-1.82907">
        <ele>23</ele>
        <time>2018-03-26T09:53:12Z</time>
      </trkpt>
      <trkpt lat="46.88962" lon="-1.82926">
        <ele>24</ele>
        <time>2018-03-26T09:54:12Z</time>
      </trkpt>
      <trkpt lat="46.88964" lon="-1.82934">
        <ele>24</ele>
        <time>2018-03-26T09:55:12Z</time>
      </trkpt>
      <trkpt lat="46.88965" lon="-1.82937">
        <ele>24</ele>
        <time>2018-03-26T09:56:12Z</time>
      </trkpt>
      <trkpt lat="46.88967" lon="-1.82942">
        <ele>24</ele>
        <time>2018-03-26T09:57:12Z</time>
      </trkpt>
      <trkpt lat="46.88968" lon="-1.82945">
        <ele>24</ele>
        <time>2018-03-26T09:58:12Z</time>
      </trkpt>
      <trkpt lat="46.8897" lon="-1.82949">
        <ele>24</ele>
        <time>2018-03-26T09:59:12Z</time>
      </trkpt>
      <trkpt lat="46.88974" lon="-1.82954">
        <ele>24</ele>
        <time>2018-03-26T10:00:12Z</time>
      </trkpt>
      <trkpt lat="46.88976" lon="-1.82956">
        <ele>24</ele>
        <time>2018-03-26T10:01:12Z</time>
      </trkpt>
      <trkpt lat="46.88978" lon="-1.82958">
        <ele>24</ele>
        <time>2018-03-26T10:02:12Z</time>
      </trkpt>
      <trkpt lat="46.88981" lon="-1.82961">
        <ele>25</ele>
        <time>2018-03-26T10:03:12Z</time>
      </trkpt>
      <trkpt lat="46.88985" lon="-1.82964">
        <ele>25</ele>
        <time>2018-03-26T10:04:12Z</time>
      </trkpt>
      <trkpt lat="46.88992" lon="-1.82969">
        <ele>25</ele>
        <time>2018-03-26T10:05:12Z</time>
      </trkpt>
      <trkpt lat="46.88995" lon="-1.82972">
        <ele>25</ele>
        <time>2018-03-26T10:06:12Z</time>
      </trkpt>
      <trkpt lat="46.89" lon="-1.82976">
        <ele>25</ele>
        <time>2018-03-26T10:07:12Z</time>
      </trkpt>
      <trkpt lat="46.89016" lon="-1.82994">
        <ele>26</ele>
        <time>2018-03-26T10:08:12Z</time>
      </trkpt>
      <trkpt lat="46.89037" lon="-1.83021">
        <ele>27</ele>
        <time>2018-03-26T10:09:12Z</time>
      </trkpt>
      <trkpt lat="46.89038" lon="-1.83023">
        <ele>28</ele>
        <time>2018-03-26T10:10:12Z</time>
      </trkpt>
      <trkpt lat="46.89041" lon="-1.83027">
        <ele>28</ele>
        <time>2018-03-26T10:11:12Z</time>
      </trkpt>
      <trkpt lat="46.89052" lon="-1.83037">
        <ele>28</ele>
        <time>2018-03-26T10:12:12Z</time>
      </trkpt>
      <trkpt lat="46.89073" lon="-1.83058">
        <ele>30</ele>
        <time>2018-03-26T10:13:12Z</time>
      </trkpt>
      <trkpt lat="46.89089" lon="-1.83073">
        <ele>31</ele>
        <time>2018-03-26T10:14:12Z</time>
      </trkpt>
      <trkpt lat="46.89095" lon="-1.8308">
        <ele>31</ele>
        <time>2018-03-26T10:15:12Z</time>
      </trkpt>
      <trkpt lat="46.89104" lon="-1.83089">
        <ele>31</ele>
        <time>2018-03-26T10:16:12Z</time>
      </trkpt>
      <trkpt lat="46.89105" lon="-1.8309">
        <ele>31</ele>
        <time>2018-03-26T10:17:12Z</time>
      </trkpt>
      <trkpt lat="46.89111" lon="-1.83096">
        <ele>31</ele>
        <time>2018-03-26T10:18:12Z</time>
      </trkpt>
      <trkpt lat="46.89117" lon="-1.83102">
        <ele>31</ele>
        <time>2018-03-26T10:19:12Z</time>
      </trkpt>
      <trkpt lat="46.8912" lon="-1.83104">
        <ele>31</ele>
        <time>2018-03-26T10:20:12Z</time>
      </trkpt>
      <trkpt lat="46.89122" lon="-1.83106">
        <ele>31</ele>
        <time>2018-03-26T10:21:12Z</time>
      </trkpt>
      <trkpt lat="46.89134" lon="-1.83105">
        <ele>31</ele>
        <time>2018-03-26T10:22:12Z</time>
      </trkpt>
      <trkpt lat="46.89135" lon="-1.83117">
        <ele>32</ele>
        <time>2018-03-26T10:23:12Z</time>
      </trkpt>
      <trkpt lat="46.89135" lon="-1.83136">
        <ele>32</ele>
        <time>2018-03-26T10:24:12Z</time>
      </trkpt>
      <trkpt lat="46.89135" lon="-1.8315">
        <ele>32</ele>
        <time>2018-03-26T10:25:12Z</time>
      </trkpt>
      <trkpt lat="46.89135" lon="-1.8315">
        <ele>32</ele>
        <time>2018-03-26T10:26:12Z</time>
      </trkpt>
      <trkpt lat="46.89129" lon="-1.83151">
        <ele>32</ele>
        <time>2018-03-26T10:27:12Z</time>
      </trkpt>
      <trkpt lat="46.89125" lon="-1.83152">
        <ele>32</ele>
        <time>2018-03-26T10:28:12Z</time>
      </trkpt>
      <trkpt lat="46.89115" lon="-1.83164">
        <ele>32</ele>
        <time>2018-03-26T10:29:12Z</time>
      </trkpt>
      <trkpt lat="46.8908" lon="-1.83201">
        <ele>31</ele>
        <time>2018-03-26T10:30:12Z</time>
      </trkpt>
      <trkpt lat="46.89061" lon="-1.83221">
        <ele>31</ele>
        <time>2018-03-26T10:31:12Z</time>
      </trkpt>
      <trkpt lat="46.89036" lon="-1.8325">
        <ele>30</ele>
        <time>2018-03-26T10:32:12Z</time>
      </trkpt>
      <trkpt lat="46.8901" lon="-1.83278">
        <ele>29</ele>
        <time>2018-03-26T10:33:12Z</time>
      </trkpt>
      <trkpt lat="46.88992" lon="-1.83297">
        <ele>28</ele>
        <time>2018-03-26T10:34:12Z</time>
      </trkpt>
      <trkpt lat="46.88961" lon="-1.83329">
        <ele>27</ele>
        <time>2018-03-26T10:35:12Z</time>
      </trkpt>
      <trkpt lat="46.8895" lon="-1.8334">
        <ele>27</ele>
        <time>2018-03-26T10:36:12Z</time>
      </trkpt>
      <trkpt lat="46.88947" lon="-1.83347">
        <ele>27</ele>
        <time>2018-03-26T10:37:12Z</time>
      </trkpt>
      <trkpt lat="46.88945" lon="-1.83352">
        <ele>27</ele>
        <time>2018-03-26T10:38:12Z</time>
      </trkpt>
      <trkpt lat="46.88941" lon="-1.8336">
        <ele>27</ele>
        <time>2018-03-26T10:39:12Z</time>
      </trkpt>
      <trkpt lat="46.88937" lon="-1.83371">
        <ele>26</ele>
        <time>2018-03-26T10:40:12Z</time>
      </trkpt>
      <trkpt lat="46.88937" lon="-1.83371">
        <ele>26</ele>
        <time>2018-03-26T10:41:12Z</time>
      </trkpt>
      <trkpt lat="46.88937" lon="-1.83372">
        <ele>26</ele>
        <time>2018-03-26T10:42:12Z</time>
      </trkpt>
      <trkpt lat="46.88938" lon="-1.83372">
        <ele>26</ele>
        <time>2018-03-26T10:43:12Z</time>
      </trkpt>
      <trkpt lat="46.88938" lon="-1.83373">
        <ele>26</ele>
        <time>2018-03-26T10:44:12Z</time>
      </trkpt>
      <trkpt lat="46.88938" lon="-1.83374">
        <ele>26</ele>
        <time>2018-03-26T10:45:12Z</time>
      </trkpt>
      <trkpt lat="46.88938" lon="-1.83375">
        <ele>26</ele>
        <time>2018-03-26T10:46:12Z</time>
      </trkpt>
      <trkpt lat="46.88939" lon="-1.83375">
        <ele>26</ele>
        <time>2018-03-26T10:47:12Z</time>
      </trkpt>
      <trkpt lat="46.88939" lon="-1.83376">
        <ele>26</ele>
        <time>2018-03-26T10:48:12Z</time>
      </trkpt>
      <trkpt lat="46.88939" lon="-1.83377">
        <ele>26</ele>
        <time>2018-03-26T10:49:12Z</time>
      </trkpt>
      <trkpt lat="46.88939" lon="-1.83378">
        <ele>26</ele>
        <time>2018-03-26T10:50:12Z</time>
      </trkpt>
      <trkpt lat="46.88939" lon="-1.83379">
        <ele>26</ele>
        <time>2018-03-26T10:51:12Z</time>
      </trkpt>
      <trkpt lat="46.88939" lon="-1.8338">
        <ele>26</ele>
        <time>2018-03-26T10:52:12Z</time>
      </trkpt>
      <trkpt lat="46.88944" lon="-1.83388">
        <ele>26</ele>
        <time>2018-03-26T10:53:12Z</time>
      </trkpt>
      <trkpt lat="46.88949" lon="-1.83397">
        <ele>26</ele>
        <time>2018-03-26T10:54:12Z</time>
      </trkpt>
      <trkpt lat="46.8895" lon="-1.834">
        <ele>26</ele>
        <time>2018-03-26T10:55:12Z</time>
      </trkpt>
      <trkpt lat="46.88952" lon="-1.83404">
        <ele>26</ele>
        <time>2018-03-26T10:56:12Z</time>
      </trkpt>
      <trkpt lat="46.88954" lon="-1.83414">
        <ele>26</ele>
        <time>2018-03-26T10:57:12Z</time>
      </trkpt>
      <trkpt lat="46.88955" lon="-1.83425">
        <ele>26</ele>
        <time>2018-03-26T10:58:12Z</time>
      </trkpt>
      <trkpt lat="46.88955" lon="-1.83435">
        <ele>26</ele>
        <time>2018-03-26T10:59:12Z</time>
      </trkpt>
      <trkpt lat="46.88954" lon="-1.83447">
        <ele>26</ele>
        <time>2018-03-26T11:00:12Z</time>
      </trkpt>
      <trkpt lat="46.88954" lon="-1.83454">
        <ele>26</ele>
        <time>2018-03-26T11:01:12Z</time>
      </trkpt>
      <trkpt lat="46.88951" lon="-1.83509">
        <ele>25</ele>
        <time>2018-03-26T11:02:12Z</time>
      </trkpt>
      <trkpt lat="46.88948" lon="-1.83542">
        <ele>25</ele>
        <time>2018-03-26T11:03:12Z</time>
      </trkpt>
      <trkpt lat="46.88948" lon="-1.83556">
        <ele>25</ele>
        <time>2018-03-26T11:04:12Z</time>
      </trkpt>
      <trkpt lat="46.88948" lon="-1.83566">
        <ele>25</ele>
        <time>2018-03-26T11:05:12Z</time>
      </trkpt>
      <trkpt lat="46.88949" lon="-1.83579">
        <ele>26</ele>
        <time>2018-03-26T11:06:12Z</time>
      </trkpt>
      <trkpt lat="46.88951" lon="-1.83607">
        <ele>25</ele>
        <time>2018-03-26T11:07:12Z</time>
      </trkpt>
      <trkpt lat="46.88952" lon="-1.83613">
        <ele>25</ele>
        <time>2018-03-26T11:08:12Z</time>
      </trkpt>
      <trkpt lat="46.88953" lon="-1.83623">
        <ele>25</ele>
        <time>2018-03-26T11:09:12Z</time>
      </trkpt>
      <trkpt lat="46.88956" lon="-1.83652">
        <ele>25</ele>
        <time>2018-03-26T11:10:12Z</time>
      </trkpt>
      <trkpt lat="46.88957" lon="-1.83662">
        <ele>25</ele>
        <time>2018-03-26T11:11:12Z</time>
      </trkpt>
      <trkpt lat="46.88957" lon="-1.83671">
        <ele>24</ele>
        <time>2018-03-26T11:12:12Z</time>
      </trkpt>
      <trkpt lat="46.88957" lon="-1.83682">
        <ele>24</ele>
        <time>2018-03-26T11:13:12Z</time>
      </trkpt>
      <trkpt lat="46.88955" lon="-1.8372">
        <ele>23</ele>
        <time>2018-03-26T11:14:12Z</time>
      </trkpt>
      <trkpt lat="46.88947" lon="-1.83811">
        <ele>20</ele>
        <time>2018-03-26T11:15:12Z</time>
      </trkpt>
      <trkpt lat="46.88942" lon="-1.83872">
        <ele>19</ele>
        <time>2018-03-26T11:16:12Z</time>
      </trkpt>
      <trkpt lat="46.88941" lon="-1.83881">
        <ele>19</ele>
        <time>2018-03-26T11:17:12Z</time>
      </trkpt>
      <trkpt lat="46.88941" lon="-1.83893">
        <ele>19</ele>
        <time>2018-03-26T11:18:12Z</time>
      </trkpt>
      <trkpt lat="46.8894" lon="-1.83906">
        <ele>19</ele>
        <time>2018-03-26T11:19:12Z</time>
      </trkpt>
      <trkpt lat="46.8894" lon="-1.83916">
        <ele>19</ele>
        <time>2018-03-26T11:20:12Z</time>
      </trkpt>
      <trkpt lat="46.8894" lon="-1.83923">
        <ele>19</ele>
        <time>2018-03-26T11:21:12Z</time>
      </trkpt>
      <trkpt lat="46.88945" lon="-1.83946">
        <ele>19</ele>
        <time>2018-03-26T11:22:12Z</time>
      </trkpt>
      <trkpt lat="46.88947" lon="-1.83953">
        <ele>19</ele>
        <time>2018-03-26T11:23:12Z</time>
      </trkpt>
      <trkpt lat="46.88953" lon="-1.83986">
        <ele>19</ele>
        <time>2018-03-26T11:24:12Z</time>
      </trkpt>
      <trkpt lat="46.88965" lon="-1.84046">
        <ele>19</ele>
        <time>2018-03-26T11:25:12Z</time>
      </trkpt>
      <trkpt lat="46.88983" lon="-1.84129">
        <ele>18</ele>
        <time>2018-03-26T11:26:12Z</time>
      </trkpt>
      <trkpt lat="46.89003" lon="-1.84227">
        <ele>17</ele>
        <time>2018-03-26T11:27:12Z</time>
      </trkpt>
      <trkpt lat="46.89008" lon="-1.8425">
        <ele>17</ele>
        <time>2018-03-26T11:28:12Z</time>
      </trkpt>
      <trkpt lat="46.89014" lon="-1.84276">
        <ele>17</ele>
        <time>2018-03-26T11:29:12Z</time>
      </trkpt>
      <trkpt lat="46.89019" lon="-1.84296">
        <ele>17</ele>
        <time>2018-03-26T11:30:12Z</time>
      </trkpt>
      <trkpt lat="46.89023" lon="-1.84312">
        <ele>17</ele>
        <time>2018-03-26T11:31:12Z</time>
      </trkpt>
      <trkpt lat="46.89027" lon="-1.84326">
        <ele>18</ele>
        <time>2018-03-26T11:32:12Z</time>
      </trkpt>
      <trkpt lat="46.89032" lon="-1.8434">
        <ele>18</ele>
        <time>2018-03-26T11:33:12Z</time>
      </trkpt>
      <trkpt lat="46.89038" lon="-1.84356">
        <ele>18</ele>
        <time>2018-03-26T11:34:12Z</time>
      </trkpt>
      <trkpt lat="46.89045" lon="-1.84374">
        <ele>19</ele>
        <time>2018-03-26T11:35:12Z</time>
      </trkpt>
      <trkpt lat="46.89052" lon="-1.84387">
        <ele>19</ele>
        <time>2018-03-26T11:36:12Z</time>
      </trkpt>
      <trkpt lat="46.89065" lon="-1.84409">
        <ele>20</ele>
        <time>2018-03-26T11:37:12Z</time>
      </trkpt>
      <trkpt lat="46.89074" lon="-1.84423">
        <ele>20</ele>
        <time>2018-03-26T11:38:12Z</time>
      </trkpt>
      <trkpt lat="46.89084" lon="-1.84437">
        <ele>21</ele>
        <time>2018-03-26T11:39:12Z</time>
      </trkpt>
      <trkpt lat="46.89098" lon="-1.84454">
        <ele>21</ele>
        <time>2018-03-26T11:40:12Z</time>
      </trkpt>
      <trkpt lat="46.89107" lon="-1.84462">
        <ele>22</ele>
        <time>2018-03-26T11:41:12Z</time>
      </trkpt>
      <trkpt lat="46.89116" lon="-1.84471">
        <ele>22</ele>
        <time>2018-03-26T11:42:12Z</time>
      </trkpt>
      <trkpt lat="46.89145" lon="-1.845">
        <ele>23</ele>
        <time>2018-03-26T11:43:12Z</time>
      </trkpt>
      <trkpt lat="46.8916" lon="-1.84515">
        <ele>23</ele>
        <time>2018-03-26T11:44:12Z</time>
      </trkpt>
      <trkpt lat="46.8917" lon="-1.84525">
        <ele>23</ele>
        <time>2018-03-26T11:45:12Z</time>
      </trkpt>
      <trkpt lat="46.89199" lon="-1.84553">
        <ele>24</ele>
        <time>2018-03-26T11:46:12Z</time>
      </trkpt>
      <trkpt lat="46.89227" lon="-1.8458">
        <ele>25</ele>
        <time>2018-03-26T11:47:12Z</time>
      </trkpt>
      <trkpt lat="46.89228" lon="-1.84579">
        <ele>25</ele>
        <time>2018-03-26T11:48:12Z</time>
      </trkpt>
      <trkpt lat="46.89229" lon="-1.84578">
        <ele>25</ele>
        <time>2018-03-26T11:49:12Z</time>
      </trkpt>
      <trkpt lat="46.89229" lon="-1.84577">
        <ele>25</ele>
        <time>2018-03-26T11:50:12Z</time>
      </trkpt>
      <trkpt lat="46.8923" lon="-1.84576">
        <ele>25</ele>
        <time>2018-03-26T11:51:12Z</time>
      </trkpt>
      <trkpt lat="46.89231" lon="-1.84576">
        <ele>25</ele>
        <time>2018-03-26T11:52:12Z</time>
      </trkpt>
      <trkpt lat="46.89232" lon="-1.84575">
        <ele>25</ele>
        <time>2018-03-26T11:53:12Z</time>
      </trkpt>
      <trkpt lat="46.89233" lon="-1.84574">
        <ele>25</ele>
        <time>2018-03-26T11:54:12Z</time>
      </trkpt>
      <trkpt lat="46.89234" lon="-1.84574">
        <ele>25</ele>
        <time>2018-03-26T11:55:12Z</time>
      </trkpt>
      <trkpt lat="46.89235" lon="-1.84573">
        <ele>25</ele>
        <time>2018-03-26T11:56:12Z</time>
      </trkpt>
      <trkpt lat="46.89236" lon="-1.84573">
        <ele>25</ele>
        <time>2018-03-26T11:57:12Z</time>
      </trkpt>
      <trkpt lat="46.89237" lon="-1.84573">
        <ele>25</ele>
        <time>2018-03-26T11:58:12Z</time>
      </trkpt>
      <trkpt lat="46.89238" lon="-1.84573">
        <ele>25</ele>
        <time>2018-03-26T11:59:12Z</time>
      </trkpt>
      <trkpt lat="46.89239" lon="-1.84573">
        <ele>25</ele>
        <time>2018-03-26T12:00:12Z</time>
      </trkpt>
      <trkpt lat="46.8924" lon="-1.84573">
        <ele>26</ele>
        <time>2018-03-26T12:01:12Z</time>
      </trkpt>
      <trkpt lat="46.89241" lon="-1.84573">
        <ele>26</ele>
        <time>2018-03-26T12:02:12Z</time>
      </trkpt>
      <trkpt lat="46.89242" lon="-1.84573">
        <ele>26</ele>
        <time>2018-03-26T12:03:12Z</time>
      </trkpt>
      <trkpt lat="46.89243" lon="-1.84574">
        <ele>26</ele>
        <time>2018-03-26T12:04:12Z</time>
      </trkpt>
      <trkpt lat="46.89244" lon="-1.84574">
        <ele>26</ele>
        <time>2018-03-26T12:05:12Z</time>
      </trkpt>
      <trkpt lat="46.89245" lon="-1.84575">
        <ele>26</ele>
        <time>2018-03-26T12:06:12Z</time>
      </trkpt>
      <trkpt lat="46.89246" lon="-1.84576">
        <ele>26</ele>
        <time>2018-03-26T12:07:12Z</time>
      </trkpt>
      <trkpt lat="46.89247" lon="-1.84577">
        <ele>26</ele>
        <time>2018-03-26T12:08:12Z</time>
      </trkpt>
      <trkpt lat="46.89248" lon="-1.84578">
        <ele>26</ele>
        <time>2018-03-26T12:09:12Z</time>
      </trkpt>
      <trkpt lat="46.89249" lon="-1.84579">
        <ele>26</ele>
        <time>2018-03-26T12:10:12Z</time>
      </trkpt>
      <trkpt lat="46.8925" lon="-1.84581">
        <ele>26</ele>
        <time>2018-03-26T12:11:12Z</time>
      </trkpt>
      <trkpt lat="46.89251" lon="-1.84582">
        <ele>26</ele>
        <time>2018-03-26T12:12:12Z</time>
      </trkpt>
      <trkpt lat="46.89251" lon="-1.84583">
        <ele>26</ele>
        <time>2018-03-26T12:13:12Z</time>
      </trkpt>
      <trkpt lat="46.89252" lon="-1.84585">
        <ele>26</ele>
        <time>2018-03-26T12:14:12Z</time>
      </trkpt>
      <trkpt lat="46.89252" lon="-1.84586">
        <ele>26</ele>
        <time>2018-03-26T12:15:12Z</time>
      </trkpt>
      <trkpt lat="46.89252" lon="-1.84587">
        <ele>26</ele>
        <time>2018-03-26T12:16:12Z</time>
      </trkpt>
      <trkpt lat="46.89253" lon="-1.84589">
        <ele>26</ele>
        <time>2018-03-26T12:17:12Z</time>
      </trkpt>
      <trkpt lat="46.89253" lon="-1.8459">
        <ele>26</ele>
        <time>2018-03-26T12:18:12Z</time>
      </trkpt>
      <trkpt lat="46.89253" lon="-1.84592">
        <ele>26</ele>
        <time>2018-03-26T12:19:12Z</time>
      </trkpt>
      <trkpt lat="46.89253" lon="-1.84593">
        <ele>26</ele>
        <time>2018-03-26T12:20:12Z</time>
      </trkpt>
      <trkpt lat="46.89253" lon="-1.84594">
        <ele>26</ele>
        <time>2018-03-26T12:21:12Z</time>
      </trkpt>
      <trkpt lat="46.89253" lon="-1.84596">
        <ele>26</ele>
        <time>2018-03-26T12:22:12Z</time>
      </trkpt>
      <trkpt lat="46.89253" lon="-1.84597">
        <ele>26</ele>
        <time>2018-03-26T12:23:12Z</time>
      </trkpt>
      <trkpt lat="46.89253" lon="-1.84599">
        <ele>26</ele>
        <time>2018-03-26T12:24:12Z</time>
      </trkpt>
      <trkpt lat="46.89253" lon="-1.846">
        <ele>26</ele>
        <time>2018-03-26T12:25:12Z</time>
      </trkpt>
      <trkpt lat="46.89252" lon="-1.84602">
        <ele>26</ele>
        <time>2018-03-26T12:26:12Z</time>
      </trkpt>
      <trkpt lat="46.89252" lon="-1.84603">
        <ele>26</ele>
        <time>2018-03-26T12:27:12Z</time>
      </trkpt>
      <trkpt lat="46.89252" lon="-1.84604">
        <ele>26</ele>
        <time>2018-03-26T12:28:12Z</time>
      </trkpt>
      <trkpt lat="46.89251" lon="-1.84606">
        <ele>26</ele>
        <time>2018-03-26T12:29:12Z</time>
      </trkpt>
      <trkpt lat="46.8925" lon="-1.84607">
        <ele>26</ele>
        <time>2018-03-26T12:30:12Z</time>
      </trkpt>
      <trkpt lat="46.89263" lon="-1.84624">
        <ele>26</ele>
        <time>2018-03-26T12:31:12Z</time>
      </trkpt>
      <trkpt lat="46.89286" lon="-1.84653">
        <ele>26</ele>
        <time>2018-03-26T12:32:12Z</time>
      </trkpt>
      <trkpt lat="46.89324" lon="-1.84703">
        <ele>27</ele>
        <time>2018-03-26T12:33:12Z</time>
      </trkpt>
      <trkpt lat="46.89365" lon="-1.84756">
        <ele>28</ele>
        <time>2018-03-26T12:34:12Z</time>
      </trkpt>
      <trkpt lat="46.89406" lon="-1.8481">
        <ele>28</ele>
        <time>2018-03-26T12:35:12Z</time>
      </trkpt>
      <trkpt lat="46.89431" lon="-1.84841">
        <ele>28</ele>
        <time>2018-03-26T12:36:12Z</time>
      </trkpt>
      <trkpt lat="46.89437" lon="-1.84849">
        <ele>28</ele>
        <time>2018-03-26T12:37:12Z</time>
      </trkpt>
      <trkpt lat="46.8944" lon="-1.84854">
        <ele>28</ele>
        <time>2018-03-26T12:38:12Z</time>
      </trkpt>
      <trkpt lat="46.8944" lon="-1.84854">
        <ele>28</ele>
        <time>2018-03-26T12:39:12Z</time>
      </trkpt>
      <trkpt lat="46.89443" lon="-1.84859">
        <ele>28</ele>
        <time>2018-03-26T12:40:12Z</time>
      </trkpt>
      <trkpt lat="46.89445" lon="-1.84868">
        <ele>28</ele>
        <time>2018-03-26T12:41:12Z</time>
      </trkpt>
      <trkpt lat="46.89447" lon="-1.84887">
        <ele>29</ele>
        <time>2018-03-26T12:42:12Z</time>
      </trkpt>
      <trkpt lat="46.8945" lon="-1.8495">
        <ele>28</ele>
        <time>2018-03-26T12:43:12Z</time>
      </trkpt>
      <trkpt lat="46.89451" lon="-1.8498">
        <ele>28</ele>
        <time>2018-03-26T12:44:12Z</time>
      </trkpt>
      <trkpt lat="46.89451" lon="-1.84985">
        <ele>28</ele>
        <time>2018-03-26T12:45:12Z</time>
      </trkpt>
      <trkpt lat="46.89451" lon="-1.85004">
        <ele>28</ele>
        <time>2018-03-26T12:46:12Z</time>
      </trkpt>
      <trkpt lat="46.8945" lon="-1.85021">
        <ele>28</ele>
        <time>2018-03-26T12:47:12Z</time>
      </trkpt>
      <trkpt lat="46.89449" lon="-1.85047">
        <ele>27</ele>
        <time>2018-03-26T12:48:12Z</time>
      </trkpt>
      <trkpt lat="46.89446" lon="-1.8507">
        <ele>27</ele>
        <time>2018-03-26T12:49:12Z</time>
      </trkpt>
      <trkpt lat="46.89444" lon="-1.8509">
        <ele>27</ele>
        <time>2018-03-26T12:50:12Z</time>
      </trkpt>
      <trkpt lat="46.8944" lon="-1.8511">
        <ele>27</ele>
        <time>2018-03-26T12:51:12Z</time>
      </trkpt>
      <trkpt lat="46.89436" lon="-1.85128">
        <ele>27</ele>
        <time>2018-03-26T12:52:12Z</time>
      </trkpt>
      <trkpt lat="46.89427" lon="-1.85165">
        <ele>26</ele>
        <time>2018-03-26T12:53:12Z</time>
      </trkpt>
      <trkpt lat="46.89419" lon="-1.85192">
        <ele>26</ele>
        <time>2018-03-26T12:54:12Z</time>
      </trkpt>
      <trkpt lat="46.89396" lon="-1.85276">
        <ele>25</ele>
        <time>2018-03-26T12:55:12Z</time>
      </trkpt>
      <trkpt lat="46.89392" lon="-1.85289">
        <ele>25</ele>
        <time>2018-03-26T12:56:12Z</time>
      </trkpt>
      <trkpt lat="46.89368" lon="-1.85372">
        <ele>25</ele>
        <time>2018-03-26T12:57:12Z</time>
      </trkpt>
      <trkpt lat="46.89359" lon="-1.85405">
        <ele>26</ele>
        <time>2018-03-26T12:58:12Z</time>
      </trkpt>
      <trkpt lat="46.89342" lon="-1.85467">
        <ele>26</ele>
        <time>2018-03-26T12:59:12Z</time>
      </trkpt>
      <trkpt lat="46.89333" lon="-1.85497">
        <ele>26</ele>
        <time>2018-03-26T13:00:12Z</time>
      </trkpt>
      <trkpt lat="46.8933" lon="-1.85512">
        <ele>26</ele>
        <time>2018-03-26T13:01:12Z</time>
      </trkpt>
      <trkpt lat="46.89326" lon="-1.85527">
        <ele>26</ele>
        <time>2018-03-26T13:02:12Z</time>
      </trkpt>
      <trkpt lat="46.89324" lon="-1.85544">
        <ele>25</ele>
        <time>2018-03-26T13:03:12Z</time>
      </trkpt>
      <trkpt lat="46.89321" lon="-1.85561">
        <ele>25</ele>
        <time>2018-03-26T13:04:12Z</time>
      </trkpt>
      <trkpt lat="46.8932" lon="-1.85576">
        <ele>25</ele>
        <time>2018-03-26T13:05:12Z</time>
      </trkpt>
      <trkpt lat="46.89315" lon="-1.85653">
        <ele>25</ele>
        <time>2018-03-26T13:06:12Z</time>
      </trkpt>
      <trkpt lat="46.89307" lon="-1.85788">
        <ele>24</ele>
        <time>2018-03-26T13:07:12Z</time>
      </trkpt>
      <trkpt lat="46.89301" lon="-1.85885">
        <ele>24</ele>
        <time>2018-03-26T13:08:12Z</time>
      </trkpt>
      <trkpt lat="46.89294" lon="-1.85992">
        <ele>24</ele>
        <time>2018-03-26T13:09:12Z</time>
      </trkpt>
      <trkpt lat="46.89293" lon="-1.86011">
        <ele>23</ele>
        <time>2018-03-26T13:10:12Z</time>
      </trkpt>
      <trkpt lat="46.8929" lon="-1.8606">
        <ele>23</ele>
        <time>2018-03-26T13:11:12Z</time>
      </trkpt>
      <trkpt lat="46.89288" lon="-1.86085">
        <ele>23</ele>
        <time>2018-03-26T13:12:12Z</time>
      </trkpt>
      <trkpt lat="46.89286" lon="-1.86107">
        <ele>24</ele>
        <time>2018-03-26T13:13:12Z</time>
      </trkpt>
      <trkpt lat="46.89283" lon="-1.8613">
        <ele>24</ele>
        <time>2018-03-26T13:14:12Z</time>
      </trkpt>
      <trkpt lat="46.89283" lon="-1.86132">
        <ele>24</ele>
        <time>2018-03-26T13:15:12Z</time>
      </trkpt>
      <trkpt lat="46.8928" lon="-1.8615">
        <ele>25</ele>
        <time>2018-03-26T13:16:12Z</time>
      </trkpt>
      <trkpt lat="46.89276" lon="-1.86174">
        <ele>25</ele>
        <time>2018-03-26T13:17:12Z</time>
      </trkpt>
      <trkpt lat="46.89269" lon="-1.86204">
        <ele>24</ele>
        <time>2018-03-26T13:18:12Z</time>
      </trkpt>
      <trkpt lat="46.89263" lon="-1.86229">
        <ele>24</ele>
        <time>2018-03-26T13:19:12Z</time>
      </trkpt>
      <trkpt lat="46.89251" lon="-1.8627">
        <ele>23</ele>
        <time>2018-03-26T13:20:12Z</time>
      </trkpt>
      <trkpt lat="46.89236" lon="-1.86316">
        <ele>21</ele>
        <time>2018-03-26T13:21:12Z</time>
      </trkpt>
      <trkpt lat="46.89217" lon="-1.86372">
        <ele>21</ele>
        <time>2018-03-26T13:22:12Z</time>
      </trkpt>
      <trkpt lat="46.89178" lon="-1.86486">
        <ele>20</ele>
        <time>2018-03-26T13:23:12Z</time>
      </trkpt>
      <trkpt lat="46.89157" lon="-1.86551">
        <ele>20</ele>
        <time>2018-03-26T13:24:12Z</time>
      </trkpt>
      <trkpt lat="46.8913" lon="-1.8663">
        <ele>20</ele>
        <time>2018-03-26T13:25:12Z</time>
      </trkpt>
      <trkpt lat="46.89103" lon="-1.86712">
        <ele>18</ele>
        <time>2018-03-26T13:26:12Z</time>
      </trkpt>
      <trkpt lat="46.89091" lon="-1.8675">
        <ele>17</ele>
        <time>2018-03-26T13:27:12Z</time>
      </trkpt>
      <trkpt lat="46.89084" lon="-1.8677">
        <ele>17</ele>
        <time>2018-03-26T13:28:12Z</time>
      </trkpt>
      <trkpt lat="46.8908" lon="-1.86785">
        <ele>16</ele>
        <time>2018-03-26T13:29:12Z</time>
      </trkpt>
      <trkpt lat="46.89076" lon="-1.86796">
        <ele>16</ele>
        <time>2018-03-26T13:30:12Z</time>
      </trkpt>
      <trkpt lat="46.89073" lon="-1.86812">
        <ele>16</ele>
        <time>2018-03-26T13:31:12Z</time>
      </trkpt>
      <trkpt lat="46.89067" lon="-1.86837">
        <ele>16</ele>
        <time>2018-03-26T13:32:12Z</time>
      </trkpt>
      <trkpt lat="46.89063" lon="-1.86859">
        <ele>16</ele>
        <time>2018-03-26T13:33:12Z</time>
      </trkpt>
      <trkpt lat="46.8906" lon="-1.86881">
        <ele>16</ele>
        <time>2018-03-26T13:34:12Z</time>
      </trkpt>
      <trkpt lat="46.89057" lon="-1.86907">
        <ele>16</ele>
        <time>2018-03-26T13:35:12Z</time>
      </trkpt>
      <trkpt lat="46.89054" lon="-1.86934">
        <ele>16</ele>
        <time>2018-03-26T13:36:12Z</time>
      </trkpt>
      <trkpt lat="46.89053" lon="-1.86965">
        <ele>17</ele>
        <time>2018-03-26T13:37:12Z</time>
      </trkpt>
      <trkpt lat="46.89052" lon="-1.86986">
        <ele>17</ele>
        <time>2018-03-26T13:38:12Z</time>
      </trkpt>
      <trkpt lat="46.8905" lon="-1.87054">
        <ele>16</ele>
        <time>2018-03-26T13:39:12Z</time>
      </trkpt>
      <trkpt lat="46.89046" lon="-1.87166">
        <ele>14</ele>
        <time>2018-03-26T13:40:12Z</time>
      </trkpt>
      <trkpt lat="46.89044" lon="-1.87237">
        <ele>15</ele>
        <time>2018-03-26T13:41:12Z</time>
      </trkpt>
      <trkpt lat="46.89042" lon="-1.87303">
        <ele>15</ele>
        <time>2018-03-26T13:42:12Z</time>
      </trkpt>
      <trkpt lat="46.89038" lon="-1.87398">
        <ele>15</ele>
        <time>2018-03-26T13:43:12Z</time>
      </trkpt>
      <trkpt lat="46.89037" lon="-1.87466">
        <ele>15</ele>
        <time>2018-03-26T13:44:12Z</time>
      </trkpt>
      <trkpt lat="46.89035" lon="-1.87513">
        <ele>15</ele>
        <time>2018-03-26T13:45:12Z</time>
      </trkpt>
      <trkpt lat="46.89032" lon="-1.87579">
        <ele>15</ele>
        <time>2018-03-26T13:46:12Z</time>
      </trkpt>
      <trkpt lat="46.8903" lon="-1.87651">
        <ele>14</ele>
        <time>2018-03-26T13:47:12Z</time>
      </trkpt>
      <trkpt lat="46.89029" lon="-1.87699">
        <ele>14</ele>
        <time>2018-03-26T13:48:12Z</time>
      </trkpt>
      <trkpt lat="46.89027" lon="-1.8774">
        <ele>14</ele>
        <time>2018-03-26T13:49:12Z</time>
      </trkpt>
      <trkpt lat="46.89025" lon="-1.87777">
        <ele>14</ele>
        <time>2018-03-26T13:50:12Z</time>
      </trkpt>
      <trkpt lat="46.89024" lon="-1.87795">
        <ele>14</ele>
        <time>2018-03-26T13:51:12Z</time>
      </trkpt>
      <trkpt lat="46.8902" lon="-1.87824">
        <ele>14</ele>
        <time>2018-03-26T13:52:12Z</time>
      </trkpt>
      <trkpt lat="46.8901" lon="-1.87874">
        <ele>14</ele>
        <time>2018-03-26T13:53:12Z</time>
      </trkpt>
      <trkpt lat="46.89002" lon="-1.87905">
        <ele>14</ele>
        <time>2018-03-26T13:54:12Z</time>
      </trkpt>
      <trkpt lat="46.88986" lon="-1.87952">
        <ele>13</ele>
        <time>2018-03-26T13:55:12Z</time>
      </trkpt>
      <trkpt lat="46.88961" lon="-1.88024">
        <ele>11</ele>
        <time>2018-03-26T13:56:12Z</time>
      </trkpt>
      <trkpt lat="46.88929" lon="-1.88111">
        <ele>10</ele>
        <time>2018-03-26T13:57:12Z</time>
      </trkpt>
      <trkpt lat="46.88911" lon="-1.88163">
        <ele>11</ele>
        <time>2018-03-26T13:58:12Z</time>
      </trkpt>
      <trkpt lat="46.88902" lon="-1.8819">
        <ele>12</ele>
        <time>2018-03-26T13:59:12Z</time>
      </trkpt>
      <trkpt lat="46.88877" lon="-1.88261">
        <ele>13</ele>
        <time>2018-03-26T14:00:12Z</time>
      </trkpt>
      <trkpt lat="46.88849" lon="-1.88338">
        <ele>13</ele>
        <time>2018-03-26T14:01:12Z</time>
      </trkpt>
      <trkpt lat="46.8882" lon="-1.88425">
        <ele>12</ele>
        <time>2018-03-26T14:02:12Z</time>
      </trkpt>
      <trkpt lat="46.88799" lon="-1.88486">
        <ele>13</ele>
        <time>2018-03-26T14:03:12Z</time>
      </trkpt>
      <trkpt lat="46.88779" lon="-1.88544">
        <ele>14</ele>
        <time>2018-03-26T14:04:12Z</time>
      </trkpt>
      <trkpt lat="46.88765" lon="-1.88586">
        <ele>15</ele>
        <time>2018-03-26T14:05:12Z</time>
      </trkpt>
      <trkpt lat="46.88744" lon="-1.88644">
        <ele>16</ele>
        <time>2018-03-26T14:06:12Z</time>
      </trkpt>
      <trkpt lat="46.88732" lon="-1.88678">
        <ele>17</ele>
        <time>2018-03-26T14:07:12Z</time>
      </trkpt>
      <trkpt lat="46.8873" lon="-1.88685">
        <ele>17</ele>
        <time>2018-03-26T14:08:12Z</time>
      </trkpt>
      <trkpt lat="46.88721" lon="-1.88713">
        <ele>18</ele>
        <time>2018-03-26T14:09:12Z</time>
      </trkpt>
      <trkpt lat="46.88717" lon="-1.88726">
        <ele>18</ele>
        <time>2018-03-26T14:10:12Z</time>
      </trkpt>
      <trkpt lat="46.88687" lon="-1.88812">
        <ele>21</ele>
        <time>2018-03-26T14:11:12Z</time>
      </trkpt>
      <trkpt lat="46.88665" lon="-1.88873">
        <ele>21</ele>
        <time>2018-03-26T14:12:12Z</time>
      </trkpt>
      <trkpt lat="46.88644" lon="-1.88933">
        <ele>18</ele>
        <time>2018-03-26T14:13:12Z</time>
      </trkpt>
      <trkpt lat="46.88636" lon="-1.88955">
        <ele>18</ele>
        <time>2018-03-26T14:14:12Z</time>
      </trkpt>
      <trkpt lat="46.88629" lon="-1.88975">
        <ele>17</ele>
        <time>2018-03-26T14:15:12Z</time>
      </trkpt>
      <trkpt lat="46.88625" lon="-1.8899">
        <ele>17</ele>
        <time>2018-03-26T14:16:12Z</time>
      </trkpt>
      <trkpt lat="46.88621" lon="-1.89006">
        <ele>16</ele>
        <time>2018-03-26T14:17:12Z</time>
      </trkpt>
      <trkpt lat="46.88618" lon="-1.8902">
        <ele>16</ele>
        <time>2018-03-26T14:18:12Z</time>
      </trkpt>
      <trkpt lat="46.88616" lon="-1.89036">
        <ele>16</ele>
        <time>2018-03-26T14:19:12Z</time>
      </trkpt>
      <trkpt lat="46.88615" lon="-1.89052">
        <ele>16</ele>
        <time>2018-03-26T14:20:12Z</time>
      </trkpt>
      <trkpt lat="46.88614" lon="-1.89065">
        <ele>16</ele>
        <time>2018-03-26T14:21:12Z</time>
      </trkpt>
      <trkpt lat="46.88614" lon="-1.89085">
        <ele>16</ele>
        <time>2018-03-26T14:22:12Z</time>
      </trkpt>
      <trkpt lat="46.88615" lon="-1.89108">
        <ele>16</ele>
        <time>2018-03-26T14:23:12Z</time>
      </trkpt>
      <trkpt lat="46.88617" lon="-1.89126">
        <ele>16</ele>
        <time>2018-03-26T14:24:12Z</time>
      </trkpt>
      <trkpt lat="46.88621" lon="-1.89172">
        <ele>15</ele>
        <time>2018-03-26T14:25:12Z</time>
      </trkpt>
      <trkpt lat="46.88626" lon="-1.8923">
        <ele>13</ele>
        <time>2018-03-26T14:26:12Z</time>
      </trkpt>
      <trkpt lat="46.88628" lon="-1.89257">
        <ele>12</ele>
        <time>2018-03-26T14:27:12Z</time>
      </trkpt>
      <trkpt lat="46.8863" lon="-1.89284">
        <ele>12</ele>
        <time>2018-03-26T14:28:12Z</time>
      </trkpt>
      <trkpt lat="46.8863" lon="-1.89298">
        <ele>12</ele>
        <time>2018-03-26T14:29:12Z</time>
      </trkpt>
      <trkpt lat="46.88631" lon="-1.89311">
        <ele>12</ele>
        <time>2018-03-26T14:30:12Z</time>
      </trkpt>
      <trkpt lat="46.88631" lon="-1.89325">
        <ele>12</ele>
        <time>2018-03-26T14:31:12Z</time>
      </trkpt>
      <trkpt lat="46.88632" lon="-1.89339">
        <ele>12</ele>
        <time>2018-03-26T14:32:12Z</time>
      </trkpt>
      <trkpt lat="46.88632" lon="-1.89353">
        <ele>12</ele>
        <time>2018-03-26T14:33:12Z</time>
      </trkpt>
      <trkpt lat="46.88631" lon="-1.89367">
        <ele>12</ele>
        <time>2018-03-26T14:34:12Z</time>
      </trkpt>
      <trkpt lat="46.88627" lon="-1.89424">
        <ele>12</ele>
        <time>2018-03-26T14:35:12Z</time>
      </trkpt>
      <trkpt lat="46.8862" lon="-1.89495">
        <ele>13</ele>
        <time>2018-03-26T14:36:12Z</time>
      </trkpt>
      <trkpt lat="46.88611" lon="-1.89597">
        <ele>12</ele>
        <time>2018-03-26T14:37:12Z</time>
      </trkpt>
      <trkpt lat="46.88593" lon="-1.89782">
        <ele>11</ele>
        <time>2018-03-26T14:38:12Z</time>
      </trkpt>
      <trkpt lat="46.88586" lon="-1.89856">
        <ele>11</ele>
        <time>2018-03-26T14:39:12Z</time>
      </trkpt>
      <trkpt lat="46.88584" lon="-1.89885">
        <ele>12</ele>
        <time>2018-03-26T14:40:12Z</time>
      </trkpt>
      <trkpt lat="46.88583" lon="-1.899">
        <ele>12</ele>
        <time>2018-03-26T14:41:12Z</time>
      </trkpt>
      <trkpt lat="46.88582" lon="-1.89915">
        <ele>12</ele>
        <time>2018-03-26T14:42:12Z</time>
      </trkpt>
      <trkpt lat="46.88582" lon="-1.89931">
        <ele>12</ele>
        <time>2018-03-26T14:43:12Z</time>
      </trkpt>
      <trkpt lat="46.88581" lon="-1.89958">
        <ele>12</ele>
        <time>2018-03-26T14:44:12Z</time>
      </trkpt>
      <trkpt lat="46.88581" lon="-1.89999">
        <ele>13</ele>
        <time>2018-03-26T14:45:12Z</time>
      </trkpt>
      <trkpt lat="46.88583" lon="-1.90088">
        <ele>11</ele>
        <time>2018-03-26T14:46:12Z</time>
      </trkpt>
      <trkpt lat="46.88585" lon="-1.90164">
        <ele>11</ele>
        <time>2018-03-26T14:47:12Z</time>
      </trkpt>
      <trkpt lat="46.88585" lon="-1.90203">
        <ele>11</ele>
        <time>2018-03-26T14:48:12Z</time>
      </trkpt>
      <trkpt lat="46.88585" lon="-1.90222">
        <ele>12</ele>
        <time>2018-03-26T14:49:12Z</time>
      </trkpt>
      <trkpt lat="46.88585" lon="-1.90247">
        <ele>12</ele>
        <time>2018-03-26T14:50:12Z</time>
      </trkpt>
      <trkpt lat="46.88584" lon="-1.90267">
        <ele>12</ele>
        <time>2018-03-26T14:51:12Z</time>
      </trkpt>
      <trkpt lat="46.88583" lon="-1.90298">
        <ele>12</ele>
        <time>2018-03-26T14:52:12Z</time>
      </trkpt>
      <trkpt lat="46.8858" lon="-1.90344">
        <ele>12</ele>
        <time>2018-03-26T14:53:12Z</time>
      </trkpt>
      <trkpt lat="46.88577" lon="-1.9041">
        <ele>13</ele>
        <time>2018-03-26T14:54:12Z</time>
      </trkpt>
      <trkpt lat="46.88575" lon="-1.90435">
        <ele>13</ele>
        <time>2018-03-26T14:55:12Z</time>
      </trkpt>
      <trkpt lat="46.88569" lon="-1.90529">
        <ele>13</ele>
        <time>2018-03-26T14:56:12Z</time>
      </trkpt>
      <trkpt lat="46.88565" lon="-1.90607">
        <ele>14</ele>
        <time>2018-03-26T14:57:12Z</time>
      </trkpt>
      <trkpt lat="46.88562" lon="-1.90658">
        <ele>15</ele>
        <time>2018-03-26T14:58:12Z</time>
      </trkpt>
      <trkpt lat="46.88559" lon="-1.90716">
        <ele>14</ele>
        <time>2018-03-26T14:59:12Z</time>
      </trkpt>
      <trkpt lat="46.88554" lon="-1.90787">
        <ele>14</ele>
        <time>2018-03-26T15:00:12Z</time>
      </trkpt>
      <trkpt lat="46.88551" lon="-1.90852">
        <ele>13</ele>
        <time>2018-03-26T15:01:12Z</time>
      </trkpt>
      <trkpt lat="46.88546" lon="-1.90913">
        <ele>13</ele>
        <time>2018-03-26T15:02:12Z</time>
      </trkpt>
      <trkpt lat="46.88544" lon="-1.90943">
        <ele>14</ele>
        <time>2018-03-26T15:03:12Z</time>
      </trkpt>
      <trkpt lat="46.88539" lon="-1.90986">
        <ele>14</ele>
        <time>2018-03-26T15:04:12Z</time>
      </trkpt>
      <trkpt lat="46.88536" lon="-1.91005">
        <ele>15</ele>
        <time>2018-03-26T15:05:12Z</time>
      </trkpt>
      <trkpt lat="46.88532" lon="-1.91027">
        <ele>15</ele>
        <time>2018-03-26T15:06:12Z</time>
      </trkpt>
      <trkpt lat="46.88525" lon="-1.91068">
        <ele>15</ele>
        <time>2018-03-26T15:07:12Z</time>
      </trkpt>
      <trkpt lat="46.88514" lon="-1.91112">
        <ele>15</ele>
        <time>2018-03-26T15:08:12Z</time>
      </trkpt>
      <trkpt lat="46.88504" lon="-1.91147">
        <ele>15</ele>
        <time>2018-03-26T15:09:12Z</time>
      </trkpt>
      <trkpt lat="46.88489" lon="-1.91206">
        <ele>15</ele>
        <time>2018-03-26T15:10:12Z</time>
      </trkpt>
      <trkpt lat="46.88477" lon="-1.91248">
        <ele>16</ele>
        <time>2018-03-26T15:11:12Z</time>
      </trkpt>
      <trkpt lat="46.88474" lon="-1.91262">
        <ele>16</ele>
        <time>2018-03-26T15:12:12Z</time>
      </trkpt>
      <trkpt lat="46.88473" lon="-1.91265">
        <ele>16</ele>
        <time>2018-03-26T15:13:12Z</time>
      </trkpt>
      <trkpt lat="46.88461" lon="-1.91312">
        <ele>16</ele>
        <time>2018-03-26T15:14:12Z</time>
      </trkpt>
      <trkpt lat="46.88457" lon="-1.91334">
        <ele>16</ele>
        <time>2018-03-26T15:15:12Z</time>
      </trkpt>
      <trkpt lat="46.88453" lon="-1.91356">
        <ele>15</ele>
        <time>2018-03-26T15:16:12Z</time>
      </trkpt>
      <trkpt lat="46.8845" lon="-1.91377">
        <ele>15</ele>
        <time>2018-03-26T15:17:12Z</time>
      </trkpt>
      <trkpt lat="46.88447" lon="-1.91396">
        <ele>15</ele>
        <time>2018-03-26T15:18:12Z</time>
      </trkpt>
      <trkpt lat="46.88445" lon="-1.91417">
        <ele>14</ele>
        <time>2018-03-26T15:19:12Z</time>
      </trkpt>
      <trkpt lat="46.88444" lon="-1.91441">
        <ele>14</ele>
        <time>2018-03-26T15:20:12Z</time>
      </trkpt>
      <trkpt lat="46.88441" lon="-1.91484">
        <ele>15</ele>
        <time>2018-03-26T15:21:12Z</time>
      </trkpt>
      <trkpt lat="46.88438" lon="-1.91555">
        <ele>15</ele>
        <time>2018-03-26T15:22:12Z</time>
      </trkpt>
      <trkpt lat="46.88435" lon="-1.91622">
        <ele>15</ele>
        <time>2018-03-26T15:23:12Z</time>
      </trkpt>
      <trkpt lat="46.88431" lon="-1.917">
        <ele>15</ele>
        <time>2018-03-26T15:24:12Z</time>
      </trkpt>
      <trkpt lat="46.88425" lon="-1.91795">
        <ele>15</ele>
        <time>2018-03-26T15:25:12Z</time>
      </trkpt>
      <trkpt lat="46.88422" lon="-1.91848">
        <ele>15</ele>
        <time>2018-03-26T15:26:12Z</time>
      </trkpt>
      <trkpt lat="46.88421" lon="-1.91877">
        <ele>14</ele>
        <time>2018-03-26T15:27:12Z</time>
      </trkpt>
      <trkpt lat="46.8842" lon="-1.91902">
        <ele>14</ele>
        <time>2018-03-26T15:28:12Z</time>
      </trkpt>
      <trkpt lat="46.88419" lon="-1.91922">
        <ele>14</ele>
        <time>2018-03-26T15:29:12Z</time>
      </trkpt>
      <trkpt lat="46.8842" lon="-1.91942">
        <ele>14</ele>
        <time>2018-03-26T15:30:12Z</time>
      </trkpt>
      <trkpt lat="46.8842" lon="-1.91962">
        <ele>15</ele>
        <time>2018-03-26T15:31:12Z</time>
      </trkpt>
      <trkpt lat="46.88421" lon="-1.9198">
        <ele>15</ele>
        <time>2018-03-26T15:32:12Z</time>
      </trkpt>
      <trkpt lat="46.88423" lon="-1.92005">
        <ele>15</ele>
        <time>2018-03-26T15:33:12Z</time>
      </trkpt>
      <trkpt lat="46.88429" lon="-1.92061">
        <ele>15</ele>
        <time>2018-03-26T15:34:12Z</time>
      </trkpt>
      <trkpt lat="46.88436" lon="-1.92136">
        <ele>15</ele>
        <time>2018-03-26T15:35:12Z</time>
      </trkpt>
      <trkpt lat="46.88449" lon="-1.92242">
        <ele>14</ele>
        <time>2018-03-26T15:36:12Z</time>
      </trkpt>
      <trkpt lat="46.8846" lon="-1.92342">
        <ele>14</ele>
        <time>2018-03-26T15:37:12Z</time>
      </trkpt>
      <trkpt lat="46.88475" lon="-1.9247">
        <ele>15</ele>
        <time>2018-03-26T15:38:12Z</time>
      </trkpt>
      <trkpt lat="46.88485" lon="-1.92559">
        <ele>15</ele>
        <time>2018-03-26T15:39:12Z</time>
      </trkpt>
      <trkpt lat="46.88487" lon="-1.92581">
        <ele>15</ele>
        <time>2018-03-26T15:40:12Z</time>
      </trkpt>
      <trkpt lat="46.88489" lon="-1.92608">
        <ele>15</ele>
        <time>2018-03-26T15:41:12Z</time>
      </trkpt>
      <trkpt lat="46.8849" lon="-1.9263">
        <ele>15</ele>
        <time>2018-03-26T15:42:12Z</time>
      </trkpt>
      <trkpt lat="46.8849" lon="-1.92652">
        <ele>15</ele>
        <time>2018-03-26T15:43:12Z</time>
      </trkpt>
      <trkpt lat="46.88489" lon="-1.92673">
        <ele>15</ele>
        <time>2018-03-26T15:44:12Z</time>
      </trkpt>
      <trkpt lat="46.88488" lon="-1.92697">
        <ele>15</ele>
        <time>2018-03-26T15:45:12Z</time>
      </trkpt>
      <trkpt lat="46.88485" lon="-1.92723">
        <ele>15</ele>
        <time>2018-03-26T15:46:12Z</time>
      </trkpt>
      <trkpt lat="46.8848" lon="-1.92755">
        <ele>15</ele>
        <time>2018-03-26T15:47:12Z</time>
      </trkpt>
      <trkpt lat="46.88469" lon="-1.92822">
        <ele>14</ele>
        <time>2018-03-26T15:48:12Z</time>
      </trkpt>
      <trkpt lat="46.8846" lon="-1.92871">
        <ele>14</ele>
        <time>2018-03-26T15:49:12Z</time>
      </trkpt>
      <trkpt lat="46.88453" lon="-1.92899">
        <ele>14</ele>
        <time>2018-03-26T15:50:12Z</time>
      </trkpt>
      <trkpt lat="46.88442" lon="-1.92949">
        <ele>14</ele>
        <time>2018-03-26T15:51:12Z</time>
      </trkpt>
      <trkpt lat="46.88426" lon="-1.93024">
        <ele>13</ele>
        <time>2018-03-26T15:52:12Z</time>
      </trkpt>
      <trkpt lat="46.88412" lon="-1.93086">
        <ele>12</ele>
        <time>2018-03-26T15:53:12Z</time>
      </trkpt>
      <trkpt lat="46.88406" lon="-1.9311">
        <ele>13</ele>
        <time>2018-03-26T15:54:12Z</time>
      </trkpt>
      <trkpt lat="46.88404" lon="-1.93121">
        <ele>13</ele>
        <time>2018-03-26T15:55:12Z</time>
      </trkpt>
      <trkpt lat="46.88402" lon="-1.9313">
        <ele>13</ele>
        <time>2018-03-26T15:56:12Z</time>
      </trkpt>
      <trkpt lat="46.88402" lon="-1.9313">
        <ele>13</ele>
        <time>2018-03-26T15:57:12Z</time>
      </trkpt>
      <trkpt lat="46.88393" lon="-1.93137">
        <ele>13</ele>
        <time>2018-03-26T15:58:12Z</time>
      </trkpt>
      <trkpt lat="46.88382" lon="-1.93146">
        <ele>14</ele>
        <time>2018-03-26T15:59:12Z</time>
      </trkpt>
      <trkpt lat="46.8837" lon="-1.93155">
        <ele>14</ele>
        <time>2018-03-26T16:00:12Z</time>
      </trkpt>
      <trkpt lat="46.8836" lon="-1.93161">
        <ele>14</ele>
        <time>2018-03-26T16:01:12Z</time>
      </trkpt>
      <trkpt lat="46.88345" lon="-1.93168">
        <ele>15</ele>
        <time>2018-03-26T16:02:12Z</time>
      </trkpt>
      <trkpt lat="46.88315" lon="-1.93181">
        <ele>15</ele>
        <time>2018-03-26T16:03:12Z</time>
      </trkpt>
      <trkpt lat="46.88297" lon="-1.93189">
        <ele>15</ele>
        <time>2018-03-26T16:04:12Z</time>
      </trkpt>
      <trkpt lat="46.88224" lon="-1.93218">
        <ele>14</ele>
        <time>2018-03-26T16:05:12Z</time>
      </trkpt>
      <trkpt lat="46.88193" lon="-1.9323">
        <ele>14</ele>
        <time>2018-03-26T16:06:12Z</time>
      </trkpt>
      <trkpt lat="46.88119" lon="-1.93261">
        <ele>14</ele>
        <time>2018-03-26T16:07:12Z</time>
      </trkpt>
      <trkpt lat="46.88008" lon="-1.93306">
        <ele>12</ele>
        <time>2018-03-26T16:08:12Z</time>
      </trkpt>
      <trkpt lat="46.88008" lon="-1.93306">
        <ele>12</ele>
        <time>2018-03-26T16:09:12Z</time>
      </trkpt>
      <trkpt lat="46.88017" lon="-1.93337">
        <ele>12</ele>
        <time>2018-03-26T16:10:12Z</time>
      </trkpt>
      <trkpt lat="46.88027" lon="-1.93369">
        <ele>12</ele>
        <time>2018-03-26T16:11:12Z</time>
      </trkpt>
      <trkpt lat="46.88036" lon="-1.93397">
        <ele>12</ele>
        <time>2018-03-26T16:12:12Z</time>
      </trkpt>
      <trkpt lat="46.88056" lon="-1.93453">
        <ele>12</ele>
        <time>2018-03-26T16:13:12Z</time>
      </trkpt>
      <trkpt lat="46.88064" lon="-1.93478">
        <ele>11</ele>
        <time>2018-03-26T16:14:12Z</time>
      </trkpt>
      <trkpt lat="46.88069" lon="-1.93498">
        <ele>11</ele>
        <time>2018-03-26T16:15:12Z</time>
      </trkpt>
      <trkpt lat="46.88087" lon="-1.93568">
        <ele>13</ele>
        <time>2018-03-26T16:16:12Z</time>
      </trkpt>
      <trkpt lat="46.88104" lon="-1.93637">
        <ele>13</ele>
        <time>2018-03-26T16:17:12Z</time>
      </trkpt>
      <trkpt lat="46.88117" lon="-1.93686">
        <ele>13</ele>
        <time>2018-03-26T16:18:12Z</time>
      </trkpt>
      <trkpt lat="46.88141" lon="-1.93769">
        <ele>12</ele>
        <time>2018-03-26T16:19:12Z</time>
      </trkpt>
      <trkpt lat="46.88158" lon="-1.93824">
        <ele>11</ele>
        <time>2018-03-26T16:20:12Z</time>
      </trkpt>
      <trkpt lat="46.88163" lon="-1.93853">
        <ele>11</ele>
        <time>2018-03-26T16:21:12Z</time>
      </trkpt>
      <trkpt lat="46.88167" lon="-1.9388">
        <ele>11</ele>
        <time>2018-03-26T16:22:12Z</time>
      </trkpt>
      <trkpt lat="46.88168" lon="-1.93893">
        <ele>11</ele>
        <time>2018-03-26T16:23:12Z</time>
      </trkpt>
      <trkpt lat="46.88168" lon="-1.93918">
        <ele>11</ele>
        <time>2018-03-26T16:24:12Z</time>
      </trkpt>
      <trkpt lat="46.88169" lon="-1.93959">
        <ele>11</ele>
        <time>2018-03-26T16:25:12Z</time>
      </trkpt>
      <trkpt lat="46.8817" lon="-1.93985">
        <ele>11</ele>
        <time>2018-03-26T16:26:12Z</time>
      </trkpt>
      <trkpt lat="46.88173" lon="-1.94118">
        <ele>11</ele>
        <time>2018-03-26T16:27:12Z</time>
      </trkpt>
      <trkpt lat="46.88174" lon="-1.94174">
        <ele>11</ele>
        <time>2018-03-26T16:28:12Z</time>
      </trkpt>
      <trkpt lat="46.88173" lon="-1.94202">
        <ele>11</ele>
        <time>2018-03-26T16:29:12Z</time>
      </trkpt>
      <trkpt lat="46.88173" lon="-1.94227">
        <ele>10</ele>
        <time>2018-03-26T16:30:12Z</time>
      </trkpt>
      <trkpt lat="46.88171" lon="-1.94259">
        <ele>10</ele>
        <time>2018-03-26T16:31:12Z</time>
      </trkpt>
      <trkpt lat="46.88166" lon="-1.94334">
        <ele>10</ele>
        <time>2018-03-26T16:32:12Z</time>
      </trkpt>
      <trkpt lat="46.8816" lon="-1.9442">
        <ele>9</ele>
        <time>2018-03-26T16:33:12Z</time>
      </trkpt>
      <trkpt lat="46.8816" lon="-1.9442">
        <ele>9</ele>
        <time>2018-03-26T16:34:12Z</time>
      </trkpt>
      <trkpt lat="46.88142" lon="-1.94418">
        <ele>9</ele>
        <time>2018-03-26T16:35:12Z</time>
      </trkpt>
      <trkpt lat="46.88128" lon="-1.94417">
        <ele>9</ele>
        <time>2018-03-26T16:36:12Z</time>
      </trkpt>
      <trkpt lat="46.88112" lon="-1.94417">
        <ele>9</ele>
        <time>2018-03-26T16:37:12Z</time>
      </trkpt>
      <trkpt lat="46.88099" lon="-1.94417">
        <ele>9</ele>
        <time>2018-03-26T16:38:12Z</time>
      </trkpt>
      <trkpt lat="46.88083" lon="-1.94418">
        <ele>9</ele>
        <time>2018-03-26T16:39:12Z</time>
      </trkpt>
      <trkpt lat="46.8807" lon="-1.94419">
        <ele>9</ele>
        <time>2018-03-26T16:40:12Z</time>
      </trkpt>
      <trkpt lat="46.88054" lon="-1.94421">
        <ele>9</ele>
        <time>2018-03-26T16:41:12Z</time>
      </trkpt>
      <trkpt lat="46.8804" lon="-1.94424">
        <ele>10</ele>
        <time>2018-03-26T16:42:12Z</time>
      </trkpt>
      <trkpt lat="46.88025" lon="-1.94428">
        <ele>10</ele>
        <time>2018-03-26T16:43:12Z</time>
      </trkpt>
      <trkpt lat="46.88009" lon="-1.94434">
        <ele>10</ele>
        <time>2018-03-26T16:44:12Z</time>
      </trkpt>
      <trkpt lat="46.88" lon="-1.94438">
        <ele>10</ele>
        <time>2018-03-26T16:45:12Z</time>
      </trkpt>
      <trkpt lat="46.87981" lon="-1.94447">
        <ele>11</ele>
        <time>2018-03-26T16:46:12Z</time>
      </trkpt>
      <trkpt lat="46.87966" lon="-1.94456">
        <ele>11</ele>
        <time>2018-03-26T16:47:12Z</time>
      </trkpt>
      <trkpt lat="46.87943" lon="-1.94469">
        <ele>12</ele>
        <time>2018-03-26T16:48:12Z</time>
      </trkpt>
      <trkpt lat="46.87913" lon="-1.94487">
        <ele>12</ele>
        <time>2018-03-26T16:49:12Z</time>
      </trkpt>
      <trkpt lat="46.87896" lon="-1.94497">
        <ele>12</ele>
        <time>2018-03-26T16:50:12Z</time>
      </trkpt>
      <trkpt lat="46.87881" lon="-1.94509">
        <ele>12</ele>
        <time>2018-03-26T16:51:12Z</time>
      </trkpt>
      <trkpt lat="46.87843" lon="-1.94541">
        <ele>12</ele>
        <time>2018-03-26T16:52:12Z</time>
      </trkpt>
      <trkpt lat="46.87843" lon="-1.94541">
        <ele>12</ele>
        <time>2018-03-26T16:53:12Z</time>
      </trkpt>
      <trkpt lat="46.87813" lon="-1.94561">
        <ele>12</ele>
        <time>2018-03-26T16:54:12Z</time>
      </trkpt>
      <trkpt lat="46.87795" lon="-1.94573">
        <ele>12</ele>
        <time>2018-03-26T16:55:12Z</time>
      </trkpt>
      <trkpt lat="46.87788" lon="-1.94578">
        <ele>12</ele>
        <time>2018-03-26T16:56:12Z</time>
      </trkpt>
      <trkpt lat="46.87773" lon="-1.94586">
        <ele>12</ele>
        <time>2018-03-26T16:57:12Z</time>
      </trkpt>
      <trkpt lat="46.87761" lon="-1.94593">
        <ele>12</ele>
        <time>2018-03-26T16:58:12Z</time>
      </trkpt>
      <trkpt lat="46.87746" lon="-1.946">
        <ele>12</ele>
        <time>2018-03-26T16:59:12Z</time>
      </trkpt>
      <trkpt lat="46.87729" lon="-1.94606">
        <ele>12</ele>
        <time>2018-03-26T17:00:12Z</time>
      </trkpt>
      <trkpt lat="46.87689" lon="-1.94618">
        <ele>13</ele>
        <time>2018-03-26T17:01:12Z</time>
      </trkpt>
      <trkpt lat="46.87672" lon="-1.94623">
        <ele>14</ele>
        <time>2018-03-26T17:02:12Z</time>
      </trkpt>
      <trkpt lat="46.8765" lon="-1.94631">
        <ele>14</ele>
        <time>2018-03-26T17:03:12Z</time>
      </trkpt>
      <trkpt lat="46.87617" lon="-1.94645">
        <ele>15</ele>
        <time>2018-03-26T17:04:12Z</time>
      </trkpt>
      <trkpt lat="46.87578" lon="-1.94663">
        <ele>16</ele>
        <time>2018-03-26T17:05:12Z</time>
      </trkpt>
      <trkpt lat="46.87558" lon="-1.94671">
        <ele>16</ele>
        <time>2018-03-26T17:06:12Z</time>
      </trkpt>
      <trkpt lat="46.87547" lon="-1.94674">
        <ele>16</ele>
        <time>2018-03-26T17:07:12Z</time>
      </trkpt>
      <trkpt lat="46.87535" lon="-1.94678">
        <ele>15</ele>
        <time>2018-03-26T17:08:12Z</time>
      </trkpt>
      <trkpt lat="46.87529" lon="-1.94679">
        <ele>15</ele>
        <time>2018-03-26T17:09:12Z</time>
      </trkpt>
      <trkpt lat="46.87529" lon="-1.94679">
        <ele>15</ele>
        <time>2018-03-26T17:10:12Z</time>
      </trkpt>
      <trkpt lat="46.8752" lon="-1.94681">
        <ele>15</ele>
        <time>2018-03-26T17:11:12Z</time>
      </trkpt>
      <trkpt lat="46.87505" lon="-1.94685">
        <ele>15</ele>
        <time>2018-03-26T17:12:12Z</time>
      </trkpt>
      <trkpt lat="46.87468" lon="-1.94693">
        <ele>15</ele>
        <time>2018-03-26T17:13:12Z</time>
      </trkpt>
      <trkpt lat="46.87445" lon="-1.94698">
        <ele>15</ele>
        <time>2018-03-26T17:14:12Z</time>
      </trkpt>
      <trkpt lat="46.87445" lon="-1.94698">
        <ele>15</ele>
        <time>2018-03-26T17:15:12Z</time>
      </trkpt>
      <trkpt lat="46.87433" lon="-1.94702">
        <ele>14</ele>
        <time>2018-03-26T17:16:12Z</time>
      </trkpt>
      <trkpt lat="46.87417" lon="-1.9471">
        <ele>14</ele>
        <time>2018-03-26T17:17:12Z</time>
      </trkpt>
      <trkpt lat="46.87375" lon="-1.94729">
        <ele>13</ele>
        <time>2018-03-26T17:18:12Z</time>
      </trkpt>
      <trkpt lat="46.87358" lon="-1.94738">
        <ele>12</ele>
        <time>2018-03-26T17:19:12Z</time>
      </trkpt>
      <trkpt lat="46.87305" lon="-1.94767">
        <ele>11</ele>
        <time>2018-03-26T17:20:12Z</time>
      </trkpt>
      <trkpt lat="46.87233" lon="-1.94806">
        <ele>10</ele>
        <time>2018-03-26T17:21:12Z</time>
      </trkpt>
      <trkpt lat="46.87172" lon="-1.94839">
        <ele>10</ele>
        <time>2018-03-26T17:22:12Z</time>
      </trkpt>
      <trkpt lat="46.87133" lon="-1.9486">
        <ele>9</ele>
        <time>2018-03-26T17:23:12Z</time>
      </trkpt>
      <trkpt lat="46.87103" lon="-1.94875">
        <ele>8</ele>
        <time>2018-03-26T17:24:12Z</time>
      </trkpt>
      <trkpt lat="46.87079" lon="-1.94886">
        <ele>8</ele>
        <time>2018-03-26T17:25:12Z</time>
      </trkpt>
      <trkpt lat="46.87" lon="-1.94919">
        <ele>8</ele>
        <time>2018-03-26T17:26:12Z</time>
      </trkpt>
      <trkpt lat="46.86927" lon="-1.9495">
        <ele>6</ele>
        <time>2018-03-26T17:27:12Z</time>
      </trkpt>
      <trkpt lat="46.86897" lon="-1.94963">
        <ele>5</ele>
        <time>2018-03-26T17:28:12Z</time>
      </trkpt>
      <trkpt lat="46.86878" lon="-1.9497">
        <ele>5</ele>
        <time>2018-03-26T17:29:12Z</time>
      </trkpt>
      <trkpt lat="46.86867" lon="-1.94974">
        <ele>5</ele>
        <time>2018-03-26T17:30:12Z</time>
      </trkpt>
      <trkpt lat="46.86856" lon="-1.94977">
        <ele>5</ele>
        <time>2018-03-26T17:31:12Z</time>
      </trkpt>
      <trkpt lat="46.86845" lon="-1.94979">
        <ele>5</ele>
        <time>2018-03-26T17:32:12Z</time>
      </trkpt>
      <trkpt lat="46.86834" lon="-1.94981">
        <ele>5</ele>
        <time>2018-03-26T17:33:12Z</time>
      </trkpt>
      <trkpt lat="46.86823" lon="-1.94982">
        <ele>5</ele>
        <time>2018-03-26T17:34:12Z</time>
      </trkpt>
      <trkpt lat="46.868" lon="-1.94984">
        <ele>5</ele>
        <time>2018-03-26T17:35:12Z</time>
      </trkpt>
      <trkpt lat="46.86793" lon="-1.94987">
        <ele>5</ele>
        <time>2018-03-26T17:36:12Z</time>
      </trkpt>
      <trkpt lat="46.86793" lon="-1.94988">
        <ele>5</ele>
        <time>2018-03-26T17:37:12Z</time>
      </trkpt>
      <trkpt lat="46.86793" lon="-1.94989">
        <ele>5</ele>
        <time>2018-03-26T17:38:12Z</time>
      </trkpt>
      <trkpt lat="46.86793" lon="-1.9499">
        <ele>5</ele>
        <time>2018-03-26T17:39:12Z</time>
      </trkpt>
      <trkpt lat="46.86793" lon="-1.94991">
        <ele>5</ele>
        <time>2018-03-26T17:40:12Z</time>
      </trkpt>
      <trkpt lat="46.86793" lon="-1.94992">
        <ele>5</ele>
        <time>2018-03-26T17:41:12Z</time>
      </trkpt>
      <trkpt lat="46.86793" lon="-1.94993">
        <ele>5</ele>
        <time>2018-03-26T17:42:12Z</time>
      </trkpt>
      <trkpt lat="46.86793" lon="-1.94994">
        <ele>5</ele>
        <time>2018-03-26T17:43:12Z</time>
      </trkpt>
      <trkpt lat="46.86792" lon="-1.94995">
        <ele>5</ele>
        <time>2018-03-26T17:44:12Z</time>
      </trkpt>
      <trkpt lat="46.86792" lon="-1.94996">
        <ele>5</ele>
        <time>2018-03-26T17:45:12Z</time>
      </trkpt>
      <trkpt lat="46.86792" lon="-1.94997">
        <ele>5</ele>
        <time>2018-03-26T17:46:12Z</time>
      </trkpt>
      <trkpt lat="46.86791" lon="-1.94998">
        <ele>5</ele>
        <time>2018-03-26T17:47:12Z</time>
      </trkpt>
      <trkpt lat="46.86791" lon="-1.94999">
        <ele>5</ele>
        <time>2018-03-26T17:48:12Z</time>
      </trkpt>
      <trkpt lat="46.86791" lon="-1.95">
        <ele>5</ele>
        <time>2018-03-26T17:49:12Z</time>
      </trkpt>
      <trkpt lat="46.8679" lon="-1.95">
        <ele>5</ele>
        <time>2018-03-26T17:50:12Z</time>
      </trkpt>
      <trkpt lat="46.8679" lon="-1.95001">
        <ele>5</ele>
        <time>2018-03-26T17:51:12Z</time>
      </trkpt>
      <trkpt lat="46.86789" lon="-1.95001">
        <ele>5</ele>
        <time>2018-03-26T17:52:12Z</time>
      </trkpt>
      <trkpt lat="46.86789" lon="-1.95002">
        <ele>5</ele>
        <time>2018-03-26T17:53:12Z</time>
      </trkpt>
      <trkpt lat="46.86788" lon="-1.95003">
        <ele>5</ele>
        <time>2018-03-26T17:54:12Z</time>
      </trkpt>
      <trkpt lat="46.86787" lon="-1.95003">
        <ele>5</ele>
        <time>2018-03-26T17:55:12Z</time>
      </trkpt>
      <trkpt lat="46.86787" lon="-1.95004">
        <ele>5</ele>
        <time>2018-03-26T17:56:12Z</time>
      </trkpt>
      <trkpt lat="46.86786" lon="-1.95004">
        <ele>5</ele>
        <time>2018-03-26T17:57:12Z</time>
      </trkpt>
      <trkpt lat="46.86785" lon="-1.95004">
        <ele>5</ele>
        <time>2018-03-26T17:58:12Z</time>
      </trkpt>
      <trkpt lat="46.86785" lon="-1.95005">
        <ele>5</ele>
        <time>2018-03-26T17:59:12Z</time>
      </trkpt>
      <trkpt lat="46.86784" lon="-1.95005">
        <ele>5</ele>
        <time>2018-03-26T18:00:12Z</time>
      </trkpt>
      <trkpt lat="46.86783" lon="-1.95005">
        <ele>5</ele>
        <time>2018-03-26T18:01:12Z</time>
      </trkpt>
      <trkpt lat="46.86782" lon="-1.95005">
        <ele>5</ele>
        <time>2018-03-26T18:02:12Z</time>
      </trkpt>
      <trkpt lat="46.86781" lon="-1.95005">
        <ele>5</ele>
        <time>2018-03-26T18:03:12Z</time>
      </trkpt>
      <trkpt lat="46.8678" lon="-1.95005">
        <ele>5</ele>
        <time>2018-03-26T18:04:12Z</time>
      </trkpt>
      <trkpt lat="46.8678" lon="-1.95004">
        <ele>5</ele>
        <time>2018-03-26T18:05:12Z</time>
      </trkpt>
      <trkpt lat="46.86779" lon="-1.95004">
        <ele>5</ele>
        <time>2018-03-26T18:06:12Z</time>
      </trkpt>
      <trkpt lat="46.86778" lon="-1.95004">
        <ele>5</ele>
        <time>2018-03-26T18:07:12Z</time>
      </trkpt>
      <trkpt lat="46.86778" lon="-1.95003">
        <ele>5</ele>
        <time>2018-03-26T18:08:12Z</time>
      </trkpt>
      <trkpt lat="46.86777" lon="-1.95003">
        <ele>5</ele>
        <time>2018-03-26T18:09:12Z</time>
      </trkpt>
      <trkpt lat="46.86777" lon="-1.95002">
        <ele>5</ele>
        <time>2018-03-26T18:10:12Z</time>
      </trkpt>
      <trkpt lat="46.86776" lon="-1.95002">
        <ele>5</ele>
        <time>2018-03-26T18:11:12Z</time>
      </trkpt>
      <trkpt lat="46.86776" lon="-1.95001">
        <ele>5</ele>
        <time>2018-03-26T18:12:12Z</time>
      </trkpt>
      <trkpt lat="46.86775" lon="-1.95">
        <ele>5</ele>
        <time>2018-03-26T18:13:12Z</time>
      </trkpt>
      <trkpt lat="46.86775" lon="-1.94999">
        <ele>5</ele>
        <time>2018-03-26T18:14:12Z</time>
      </trkpt>
      <trkpt lat="46.86774" lon="-1.94999">
        <ele>5</ele>
        <time>2018-03-26T18:15:12Z</time>
      </trkpt>
      <trkpt lat="46.86774" lon="-1.94998">
        <ele>5</ele>
        <time>2018-03-26T18:16:12Z</time>
      </trkpt>
      <trkpt lat="46.86774" lon="-1.94997">
        <ele>5</ele>
        <time>2018-03-26T18:17:12Z</time>
      </trkpt>
      <trkpt lat="46.86773" lon="-1.94997">
        <ele>5</ele>
        <time>2018-03-26T18:18:12Z</time>
      </trkpt>
      <trkpt lat="46.86773" lon="-1.94996">
        <ele>5</ele>
        <time>2018-03-26T18:19:12Z</time>
      </trkpt>
      <trkpt lat="46.86773" lon="-1.94995">
        <ele>5</ele>
        <time>2018-03-26T18:20:12Z</time>
      </trkpt>
      <trkpt lat="46.86773" lon="-1.94994">
        <ele>5</ele>
        <time>2018-03-26T18:21:12Z</time>
      </trkpt>
      <trkpt lat="46.86773" lon="-1.94993">
        <ele>5</ele>
        <time>2018-03-26T18:22:12Z</time>
      </trkpt>
      <trkpt lat="46.86772" lon="-1.94992">
        <ele>5</ele>
        <time>2018-03-26T18:23:12Z</time>
      </trkpt>
      <trkpt lat="46.86772" lon="-1.94991">
        <ele>5</ele>
        <time>2018-03-26T18:24:12Z</time>
      </trkpt>
      <trkpt lat="46.86772" lon="-1.9499">
        <ele>5</ele>
        <time>2018-03-26T18:25:12Z</time>
      </trkpt>
      <trkpt lat="46.86772" lon="-1.94989">
        <ele>5</ele>
        <time>2018-03-26T18:26:12Z</time>
      </trkpt>
      <trkpt lat="46.86765" lon="-1.94989">
        <ele>5</ele>
        <time>2018-03-26T18:27:12Z</time>
      </trkpt>
      <trkpt lat="46.86756" lon="-1.9499">
        <ele>5</ele>
        <time>2018-03-26T18:28:12Z</time>
      </trkpt>
      <trkpt lat="46.86747" lon="-1.94991">
        <ele>5</ele>
        <time>2018-03-26T18:29:12Z</time>
      </trkpt>
      <trkpt lat="46.86738" lon="-1.94993">
        <ele>5</ele>
        <time>2018-03-26T18:30:12Z</time>
      </trkpt>
      <trkpt lat="46.86719" lon="-1.94998">
        <ele>5</ele>
        <time>2018-03-26T18:31:12Z</time>
      </trkpt>
      <trkpt lat="46.86702" lon="-1.95006">
        <ele>4</ele>
        <time>2018-03-26T18:32:12Z</time>
      </trkpt>
      <trkpt lat="46.86682" lon="-1.95014">
        <ele>4</ele>
        <time>2018-03-26T18:33:12Z</time>
      </trkpt>
      <trkpt lat="46.86658" lon="-1.95025">
        <ele>4</ele>
        <time>2018-03-26T18:34:12Z</time>
      </trkpt>
      <trkpt lat="46.86633" lon="-1.95037">
        <ele>4</ele>
        <time>2018-03-26T18:35:12Z</time>
      </trkpt>
      <trkpt lat="46.86608" lon="-1.95047">
        <ele>4</ele>
        <time>2018-03-26T18:36:12Z</time>
      </trkpt>
      <trkpt lat="46.86584" lon="-1.95054">
        <ele>4</ele>
        <time>2018-03-26T18:37:12Z</time>
      </trkpt>
      <trkpt lat="46.86576" lon="-1.95057">
        <ele>4</ele>
        <time>2018-03-26T18:38:12Z</time>
      </trkpt>
      <trkpt lat="46.86567" lon="-1.95061">
        <ele>4</ele>
        <time>2018-03-26T18:39:12Z</time>
      </trkpt>
      <trkpt lat="46.86563" lon="-1.95062">
        <ele>4</ele>
        <time>2018-03-26T18:40:12Z</time>
      </trkpt>
      <trkpt lat="46.86555" lon="-1.95064">
        <ele>4</ele>
        <time>2018-03-26T18:41:12Z</time>
      </trkpt>
      <trkpt lat="46.86544" lon="-1.95068">
        <ele>3</ele>
        <time>2018-03-26T18:42:12Z</time>
      </trkpt>
      <trkpt lat="46.86543" lon="-1.95071">
        <ele>3</ele>
        <time>2018-03-26T18:43:12Z</time>
      </trkpt>
      <trkpt lat="46.86542" lon="-1.95073">
        <ele>3</ele>
        <time>2018-03-26T18:44:12Z</time>
      </trkpt>
      <trkpt lat="46.8654" lon="-1.95076">
        <ele>3</ele>
        <time>2018-03-26T18:45:12Z</time>
      </trkpt>
      <trkpt lat="46.86538" lon="-1.95077">
        <ele>3</ele>
        <time>2018-03-26T18:46:12Z</time>
      </trkpt>
      <trkpt lat="46.86535" lon="-1.95078">
        <ele>3</ele>
        <time>2018-03-26T18:47:12Z</time>
      </trkpt>
      <trkpt lat="46.86532" lon="-1.95078">
        <ele>3</ele>
        <time>2018-03-26T18:48:12Z</time>
      </trkpt>
      <trkpt lat="46.8653" lon="-1.95077">
        <ele>3</ele>
        <time>2018-03-26T18:49:12Z</time>
      </trkpt>
      <trkpt lat="46.86528" lon="-1.95075">
        <ele>3</ele>
        <time>2018-03-26T18:50:12Z</time>
      </trkpt>
      <trkpt lat="46.86527" lon="-1.95074">
        <ele>3</ele>
        <time>2018-03-26T18:51:12Z</time>
      </trkpt>
      <trkpt lat="46.86526" lon="-1.95072">
        <ele>3</ele>
        <time>2018-03-26T18:52:12Z</time>
      </trkpt>
      <trkpt lat="46.86525" lon="-1.9507">
        <ele>3</ele>
        <time>2018-03-26T18:53:12Z</time>
      </trkpt>
      <trkpt lat="46.86525" lon="-1.95069">
        <ele>3</ele>
        <time>2018-03-26T18:54:12Z</time>
      </trkpt>
      <trkpt lat="46.86514" lon="-1.95074">
        <ele>3</ele>
        <time>2018-03-26T18:55:12Z</time>
      </trkpt>
      <trkpt lat="46.86498" lon="-1.95084">
        <ele>3</ele>
        <time>2018-03-26T18:56:12Z</time>
      </trkpt>
      <trkpt lat="46.86491" lon="-1.95088">
        <ele>3</ele>
        <time>2018-03-26T18:57:12Z</time>
      </trkpt>
      <trkpt lat="46.8648" lon="-1.95091">
        <ele>3</ele>
        <time>2018-03-26T18:58:12Z</time>
      </trkpt>
      <trkpt lat="46.8647" lon="-1.95096">
        <ele>3</ele>
        <time>2018-03-26T18:59:12Z</time>
      </trkpt>
      <trkpt lat="46.86457" lon="-1.95102">
        <ele>3</ele>
        <time>2018-03-26T19:00:12Z</time>
      </trkpt>
      <trkpt lat="46.86422" lon="-1.9512">
        <ele>2</ele>
        <time>2018-03-26T19:01:12Z</time>
      </trkpt>
      <trkpt lat="46.86403" lon="-1.95129">
        <ele>2</ele>
        <time>2018-03-26T19:02:12Z</time>
      </trkpt>
      <trkpt lat="46.86389" lon="-1.95136">
        <ele>3</ele>
        <time>2018-03-26T19:03:12Z</time>
      </trkpt>
      <trkpt lat="46.86383" lon="-1.95138">
        <ele>3</ele>
        <time>2018-03-26T19:04:12Z</time>
      </trkpt>
      <trkpt lat="46.86377" lon="-1.95141">
        <ele>3</ele>
        <time>2018-03-26T19:05:12Z</time>
      </trkpt>
      <trkpt lat="46.86367" lon="-1.95144">
        <ele>3</ele>
        <time>2018-03-26T19:06:12Z</time>
      </trkpt>
      <trkpt lat="46.86357" lon="-1.95147">
        <ele>3</ele>
        <time>2018-03-26T19:07:12Z</time>
      </trkpt>
      <trkpt lat="46.86344" lon="-1.9515">
        <ele>3</ele>
        <time>2018-03-26T19:08:12Z</time>
      </trkpt>
      <trkpt lat="46.86319" lon="-1.95152">
        <ele>2</ele>
        <time>2018-03-26T19:09:12Z</time>
      </trkpt>
      <trkpt lat="46.86287" lon="-1.95157">
        <ele>2</ele>
        <time>2018-03-26T19:10:12Z</time>
      </trkpt>
      <trkpt lat="46.86264" lon="-1.95159">
        <ele>1</ele>
        <time>2018-03-26T19:11:12Z</time>
      </trkpt>
      <trkpt lat="46.86237" lon="-1.95163">
        <ele>1</ele>
        <time>2018-03-26T19:12:12Z</time>
      </trkpt>
      <trkpt lat="46.86199" lon="-1.95169">
        <ele>1</ele>
        <time>2018-03-26T19:13:12Z</time>
      </trkpt>
      <trkpt lat="46.86174" lon="-1.95172">
        <ele>1</ele>
        <time>2018-03-26T19:14:12Z</time>
      </trkpt>
      <trkpt lat="46.8616" lon="-1.95172">
        <ele>1</ele>
        <time>2018-03-26T19:15:12Z</time>
      </trkpt>
      <trkpt lat="46.86151" lon="-1.95171">
        <ele>1</ele>
        <time>2018-03-26T19:16:12Z</time>
      </trkpt>
      <trkpt lat="46.86141" lon="-1.9517">
        <ele>2</ele>
        <time>2018-03-26T19:17:12Z</time>
      </trkpt>
      <trkpt lat="46.86128" lon="-1.95168">
        <ele>2</ele>
        <time>2018-03-26T19:18:12Z</time>
      </trkpt>
      <trkpt lat="46.86113" lon="-1.95165">
        <ele>2</ele>
        <time>2018-03-26T19:19:12Z</time>
      </trkpt>
      <trkpt lat="46.86106" lon="-1.95164">
        <ele>2</ele>
        <time>2018-03-26T19:20:12Z</time>
      </trkpt>
      <trkpt lat="46.86098" lon="-1.95163">
        <ele>3</ele>
        <time>2018-03-26T19:21:12Z</time>
      </trkpt>
      <trkpt lat="46.86085" lon="-1.95162">
        <ele>3</ele>
        <time>2018-03-26T19:22:12Z</time>
      </trkpt>
      <trkpt lat="46.86076" lon="-1.95164">
        <ele>3</ele>
        <time>2018-03-26T19:23:12Z</time>
      </trkpt>
      <trkpt lat="46.86063" lon="-1.95169">
        <ele>4</ele>
        <time>2018-03-26T19:24:12Z</time>
      </trkpt>
      <trkpt lat="46.86054" lon="-1.95174">
        <ele>4</ele>
        <time>2018-03-26T19:25:12Z</time>
      </trkpt>
      <trkpt lat="46.8605" lon="-1.9518">
        <ele>4</ele>
        <time>2018-03-26T19:26:12Z</time>
      </trkpt>
      <trkpt lat="46.86046" lon="-1.9519">
        <ele>4</ele>
        <time>2018-03-26T19:27:12Z</time>
      </trkpt>
      <trkpt lat="46.86044" lon="-1.952">
        <ele>5</ele>
        <time>2018-03-26T19:28:12Z</time>
      </trkpt>
      <trkpt lat="46.86043" lon="-1.95211">
        <ele>5</ele>
        <time>2018-03-26T19:29:12Z</time>
      </trkpt>
      <trkpt lat="46.86041" lon="-1.9522">
        <ele>5</ele>
        <time>2018-03-26T19:30:12Z</time>
      </trkpt>
      <trkpt lat="46.86041" lon="-1.95248">
        <ele>5</ele>
        <time>2018-03-26T19:31:12Z</time>
      </trkpt>
      <trkpt lat="46.86043" lon="-1.95294">
        <ele>5</ele>
        <time>2018-03-26T19:32:12Z</time>
      </trkpt>
      <trkpt lat="46.86044" lon="-1.95308">
        <ele>5</ele>
        <time>2018-03-26T19:33:12Z</time>
      </trkpt>
      <trkpt lat="46.86044" lon="-1.95319">
        <ele>5</ele>
        <time>2018-03-26T19:34:12Z</time>
      </trkpt>
      <trkpt lat="46.86045" lon="-1.95366">
        <ele>4</ele>
        <time>2018-03-26T19:35:12Z</time>
      </trkpt>
      <trkpt lat="46.86045" lon="-1.95373">
        <ele>4</ele>
        <time>2018-03-26T19:36:12Z</time>
      </trkpt>
      <trkpt lat="46.86046" lon="-1.95426">
        <ele>4</ele>
        <time>2018-03-26T19:37:12Z</time>
      </trkpt>
      <trkpt lat="46.86047" lon="-1.95441">
        <ele>4</ele>
        <time>2018-03-26T19:38:12Z</time>
      </trkpt>
      <trkpt lat="46.86048" lon="-1.95485">
        <ele>4</ele>
        <time>2018-03-26T19:39:12Z</time>
      </trkpt>
      <trkpt lat="46.86048" lon="-1.95505">
        <ele>4</ele>
        <time>2018-03-26T19:40:12Z</time>
      </trkpt>
      <trkpt lat="46.86049" lon="-1.95515">
        <ele>4</ele>
        <time>2018-03-26T19:41:12Z</time>
      </trkpt>
      <trkpt lat="46.8605" lon="-1.95526">
        <ele>4</ele>
        <time>2018-03-26T19:42:12Z</time>
      </trkpt>
      <trkpt lat="46.86051" lon="-1.95537">
        <ele>4</ele>
        <time>2018-03-26T19:43:12Z</time>
      </trkpt>
      <trkpt lat="46.86052" lon="-1.95551">
        <ele>4</ele>
        <time>2018-03-26T19:44:12Z</time>
      </trkpt>
      <trkpt lat="46.86054" lon="-1.95565">
        <ele>5</ele>
        <time>2018-03-26T19:45:12Z</time>
      </trkpt>
      <trkpt lat="46.86057" lon="-1.95592">
        <ele>5</ele>
        <time>2018-03-26T19:46:12Z</time>
      </trkpt>
      <trkpt lat="46.86059" lon="-1.95621">
        <ele>4</ele>
        <time>2018-03-26T19:47:12Z</time>
      </trkpt>
      <trkpt lat="46.8606" lon="-1.95639">
        <ele>4</ele>
        <time>2018-03-26T19:48:12Z</time>
      </trkpt>
      <trkpt lat="46.86061" lon="-1.95654">
        <ele>4</ele>
        <time>2018-03-26T19:49:12Z</time>
      </trkpt>
      <trkpt lat="46.8606" lon="-1.95665">
        <ele>4</ele>
        <time>2018-03-26T19:50:12Z</time>
      </trkpt>
      <trkpt lat="46.86059" lon="-1.95676">
        <ele>4</ele>
        <time>2018-03-26T19:51:12Z</time>
      </trkpt>
      <trkpt lat="46.86057" lon="-1.95685">
        <ele>4</ele>
        <time>2018-03-26T19:52:12Z</time>
      </trkpt>
      <trkpt lat="46.86044" lon="-1.95707">
        <ele>4</ele>
        <time>2018-03-26T19:53:12Z</time>
      </trkpt>
      <trkpt lat="46.86036" lon="-1.95719">
        <ele>4</ele>
        <time>2018-03-26T19:54:12Z</time>
      </trkpt>
      <trkpt lat="46.86034" lon="-1.95722">
        <ele>4</ele>
        <time>2018-03-26T19:55:12Z</time>
      </trkpt>
      <trkpt lat="46.86014" lon="-1.95747">
        <ele>4</ele>
        <time>2018-03-26T19:56:12Z</time>
      </trkpt>
      <trkpt lat="46.86008" lon="-1.95755">
        <ele>4</ele>
        <time>2018-03-26T19:57:12Z</time>
      </trkpt>
      <trkpt lat="46.86002" lon="-1.95765">
        <ele>4</ele>
        <time>2018-03-26T19:58:12Z</time>
      </trkpt>
      <trkpt lat="46.85995" lon="-1.95778">
        <ele>4</ele>
        <time>2018-03-26T19:59:12Z</time>
      </trkpt>
      <trkpt lat="46.85977" lon="-1.95814">
        <ele>4</ele>
        <time>2018-03-26T20:00:12Z</time>
      </trkpt>
      <trkpt lat="46.85973" lon="-1.95824">
        <ele>4</ele>
        <time>2018-03-26T20:01:12Z</time>
      </trkpt>
      <trkpt lat="46.85965" lon="-1.95842">
        <ele>4</ele>
        <time>2018-03-26T20:02:12Z</time>
      </trkpt>
      <trkpt lat="46.85959" lon="-1.95854">
        <ele>4</ele>
        <time>2018-03-26T20:03:12Z</time>
      </trkpt>
      <trkpt lat="46.8595" lon="-1.95867">
        <ele>4</ele>
        <time>2018-03-26T20:04:12Z</time>
      </trkpt>
      <trkpt lat="46.85945" lon="-1.95874">
        <ele>4</ele>
        <time>2018-03-26T20:05:12Z</time>
      </trkpt>
      <trkpt lat="46.85942" lon="-1.95878">
        <ele>4</ele>
        <time>2018-03-26T20:06:12Z</time>
      </trkpt>
      <trkpt lat="46.85928" lon="-1.95893">
        <ele>4</ele>
        <time>2018-03-26T20:07:12Z</time>
      </trkpt>
      <trkpt lat="46.85923" lon="-1.95901">
        <ele>4</ele>
        <time>2018-03-26T20:08:12Z</time>
      </trkpt>
      <trkpt lat="46.85909" lon="-1.95921">
        <ele>4</ele>
        <time>2018-03-26T20:09:12Z</time>
      </trkpt>
      <trkpt lat="46.8589" lon="-1.95949">
        <ele>3</ele>
        <time>2018-03-26T20:10:12Z</time>
      </trkpt>
      <trkpt lat="46.85887" lon="-1.95952">
        <ele>3</ele>
        <time>2018-03-26T20:11:12Z</time>
      </trkpt>
      <trkpt lat="46.85878" lon="-1.95966">
        <ele>3</ele>
        <time>2018-03-26T20:12:12Z</time>
      </trkpt>
      <trkpt lat="46.85875" lon="-1.9597">
        <ele>3</ele>
        <time>2018-03-26T20:13:12Z</time>
      </trkpt>
      <trkpt lat="46.85867" lon="-1.95981">
        <ele>3</ele>
        <time>2018-03-26T20:14:12Z</time>
      </trkpt>
      <trkpt lat="46.85857" lon="-1.95996">
        <ele>2</ele>
        <time>2018-03-26T20:15:12Z</time>
      </trkpt>
      <trkpt lat="46.85847" lon="-1.9601">
        <ele>2</ele>
        <time>2018-03-26T20:16:12Z</time>
      </trkpt>
      <trkpt lat="46.85844" lon="-1.96015">
        <ele>2</ele>
        <time>2018-03-26T20:17:12Z</time>
      </trkpt>
      <trkpt lat="46.8584" lon="-1.9602">
        <ele>2</ele>
        <time>2018-03-26T20:18:12Z</time>
      </trkpt>
      <trkpt lat="46.85833" lon="-1.96032">
        <ele>2</ele>
        <time>2018-03-26T20:19:12Z</time>
      </trkpt>
      <trkpt lat="46.85825" lon="-1.96046">
        <ele>2</ele>
        <time>2018-03-26T20:20:12Z</time>
      </trkpt>
      <trkpt lat="46.85816" lon="-1.96064">
        <ele>2</ele>
        <time>2018-03-26T20:21:12Z</time>
      </trkpt>
      <trkpt lat="46.85812" lon="-1.96072">
        <ele>2</ele>
        <time>2018-03-26T20:22:12Z</time>
      </trkpt>
      <trkpt lat="46.85801" lon="-1.96094">
        <ele>2</ele>
        <time>2018-03-26T20:23:12Z</time>
      </trkpt>
      <trkpt lat="46.85775" lon="-1.96148">
        <ele>2</ele>
        <time>2018-03-26T20:24:12Z</time>
      </trkpt>
      <trkpt lat="46.85766" lon="-1.96164">
        <ele>2</ele>
        <time>2018-03-26T20:25:12Z</time>
      </trkpt>
      <trkpt lat="46.85753" lon="-1.9619">
        <ele>1</ele>
        <time>2018-03-26T20:26:12Z</time>
      </trkpt>
      <trkpt lat="46.85748" lon="-1.96197">
        <ele>1</ele>
        <time>2018-03-26T20:27:12Z</time>
      </trkpt>
      <trkpt lat="46.85732" lon="-1.96254">
        <ele>1.4</ele>
        <time>2018-03-26T20:28:12Z</time>
      </trkpt>
      <trkpt lat="46.85727" lon="-1.96266">
        <ele>1.6</ele>
        <time>2018-03-26T20:29:12Z</time>
      </trkpt>
      <trkpt lat="46.85723" lon="-1.96274">
        <ele>1.9</ele>
        <time>2018-03-26T20:30:12Z</time>
      </trkpt>
      <trkpt lat="46.85717" lon="-1.96285">
        <ele>1.8</ele>
        <time>2018-03-26T20:31:12Z</time>
      </trkpt>
      <trkpt lat="46.85712" lon="-1.96291">
        <ele>1.7</ele>
        <time>2018-03-26T20:32:12Z</time>
      </trkpt>
      <trkpt lat="46.85703" lon="-1.963">
        <ele>1.8</ele>
        <time>2018-03-26T20:33:12Z</time>
      </trkpt>
      <trkpt lat="46.85684" lon="-1.96315">
        <ele>2</ele>
        <time>2018-03-26T20:34:12Z</time>
      </trkpt>
      <trkpt lat="46.8567" lon="-1.96331">
        <ele>2</ele>
        <time>2018-03-26T20:35:12Z</time>
      </trkpt>
      <trkpt lat="46.85657" lon="-1.96347">
        <ele>1.7</ele>
        <time>2018-03-26T20:36:12Z</time>
      </trkpt>
      <trkpt lat="46.85643" lon="-1.9637">
        <ele>1.9</ele>
        <time>2018-03-26T20:37:12Z</time>
      </trkpt>
      <trkpt lat="46.85637" lon="-1.9638">
        <ele>2</ele>
        <time>2018-03-26T20:38:12Z</time>
      </trkpt>
      <trkpt lat="46.85632" lon="-1.96393">
        <ele>1.9</ele>
        <time>2018-03-26T20:39:12Z</time>
      </trkpt>
      <trkpt lat="46.85627" lon="-1.96409">
        <ele>1.6</ele>
        <time>2018-03-26T20:40:12Z</time>
      </trkpt>
      <trkpt lat="46.85626" lon="-1.96423">
        <ele>1.5</ele>
        <time>2018-03-26T20:41:12Z</time>
      </trkpt>
      <trkpt lat="46.85627" lon="-1.96444">
        <ele>1.4</ele>
        <time>2018-03-26T20:42:12Z</time>
      </trkpt>
      <trkpt lat="46.85627" lon="-1.96462">
        <ele>1.4</ele>
        <time>2018-03-26T20:43:12Z</time>
      </trkpt>
      <trkpt lat="46.85626" lon="-1.96474">
        <ele>1.5</ele>
        <time>2018-03-26T20:44:12Z</time>
      </trkpt>
      <trkpt lat="46.85625" lon="-1.96484">
        <ele>1.7</ele>
        <time>2018-03-26T20:45:12Z</time>
      </trkpt>
      <trkpt lat="46.85622" lon="-1.96494">
        <ele>1.9</ele>
        <time>2018-03-26T20:46:12Z</time>
      </trkpt>
      <trkpt lat="46.85619" lon="-1.96501">
        <ele>2</ele>
        <time>2018-03-26T20:47:12Z</time>
      </trkpt>
      <trkpt lat="46.85615" lon="-1.96509">
        <ele>1.7</ele>
        <time>2018-03-26T20:48:12Z</time>
      </trkpt>
      <trkpt lat="46.85609" lon="-1.96515">
        <ele>1.5</ele>
        <time>2018-03-26T20:49:12Z</time>
      </trkpt>
      <trkpt lat="46.85603" lon="-1.96519">
        <ele>1.5</ele>
        <time>2018-03-26T20:50:12Z</time>
      </trkpt>
      <trkpt lat="46.85591" lon="-1.96525">
        <ele>1.8</ele>
        <time>2018-03-26T20:51:12Z</time>
      </trkpt>
      <trkpt lat="46.85582" lon="-1.9653">
        <ele>2</ele>
        <time>2018-03-26T20:52:12Z</time>
      </trkpt>
      <trkpt lat="46.85576" lon="-1.96534">
        <ele>2</ele>
        <time>2018-03-26T20:53:12Z</time>
      </trkpt>
      <trkpt lat="46.85569" lon="-1.96539">
        <ele>2</ele>
        <time>2018-03-26T20:54:12Z</time>
      </trkpt>
      <trkpt lat="46.85564" lon="-1.96545">
        <ele>2</ele>
        <time>2018-03-26T20:55:12Z</time>
      </trkpt>
      <trkpt lat="46.85558" lon="-1.96553">
        <ele>2</ele>
        <time>2018-03-26T20:56:12Z</time>
      </trkpt>
      <trkpt lat="46.85553" lon="-1.9656">
        <ele>2</ele>
        <time>2018-03-26T20:57:12Z</time>
      </trkpt>
      <trkpt lat="46.85547" lon="-1.96573">
        <ele>1.8</ele>
        <time>2018-03-26T20:58:12Z</time>
      </trkpt>
      <trkpt lat="46.85538" lon="-1.96599">
        <ele>1.7</ele>
        <time>2018-03-26T20:59:12Z</time>
      </trkpt>
      <trkpt lat="46.85529" lon="-1.9662">
        <ele>2</ele>
        <time>2018-03-26T21:00:12Z</time>
      </trkpt>
      <trkpt lat="46.85517" lon="-1.96653">
        <ele>2</ele>
        <time>2018-03-26T21:01:12Z</time>
      </trkpt>
      <trkpt lat="46.85505" lon="-1.96695">
        <ele>2</ele>
        <time>2018-03-26T21:02:12Z</time>
      </trkpt>
      <trkpt lat="46.85501" lon="-1.96708">
        <ele>2</ele>
        <time>2018-03-26T21:03:12Z</time>
      </trkpt>
      <trkpt lat="46.85499" lon="-1.96721">
        <ele>1</ele>
        <time>2018-03-26T21:04:12Z</time>
      </trkpt>
      <trkpt lat="46.85497" lon="-1.96734">
        <ele>1</ele>
        <time>2018-03-26T21:05:12Z</time>
      </trkpt>
      <trkpt lat="46.85497" lon="-1.96744">
        <ele>1</ele>
        <time>2018-03-26T21:06:12Z</time>
      </trkpt>
      <trkpt lat="46.85497" lon="-1.96756">
        <ele>1</ele>
        <time>2018-03-26T21:07:12Z</time>
      </trkpt>
      <trkpt lat="46.85499" lon="-1.96768">
        <ele>1</ele>
        <time>2018-03-26T21:08:12Z</time>
      </trkpt>
      <trkpt lat="46.855" lon="-1.96783">
        <ele>1</ele>
        <time>2018-03-26T21:09:12Z</time>
      </trkpt>
      <trkpt lat="46.85506" lon="-1.96806">
        <ele>2</ele>
        <time>2018-03-26T21:10:12Z</time>
      </trkpt>
      <trkpt lat="46.85517" lon="-1.96838">
        <ele>2</ele>
        <time>2018-03-26T21:11:12Z</time>
      </trkpt>
      <trkpt lat="46.85521" lon="-1.96852">
        <ele>1</ele>
        <time>2018-03-26T21:12:12Z</time>
      </trkpt>
      <trkpt lat="46.85525" lon="-1.96867">
        <ele>1</ele>
        <time>2018-03-26T21:13:12Z</time>
      </trkpt>
      <trkpt lat="46.85527" lon="-1.96882">
        <ele>1</ele>
        <time>2018-03-26T21:14:12Z</time>
      </trkpt>
      <trkpt lat="46.85531" lon="-1.96913">
        <ele>1</ele>
        <time>2018-03-26T21:15:12Z</time>
      </trkpt>
      <trkpt lat="46.85539" lon="-1.9699">
        <ele>1</ele>
        <time>2018-03-26T21:16:12Z</time>
      </trkpt>
      <trkpt lat="46.8554" lon="-1.97006">
        <ele>1</ele>
        <time>2018-03-26T21:17:12Z</time>
      </trkpt>
      <trkpt lat="46.85541" lon="-1.97016">
        <ele>1</ele>
        <time>2018-03-26T21:18:12Z</time>
      </trkpt>
      <trkpt lat="46.8554" lon="-1.97028">
        <ele>1</ele>
        <time>2018-03-26T21:19:12Z</time>
      </trkpt>
      <trkpt lat="46.85538" lon="-1.97039">
        <ele>1</ele>
        <time>2018-03-26T21:20:12Z</time>
      </trkpt>
      <trkpt lat="46.85535" lon="-1.9705">
        <ele>1</ele>
        <time>2018-03-26T21:21:12Z</time>
      </trkpt>
      <trkpt lat="46.85522" lon="-1.97086">
        <ele>1</ele>
        <time>2018-03-26T21:22:12Z</time>
      </trkpt>
      <trkpt lat="46.85515" lon="-1.97106">
        <ele>1</ele>
        <time>2018-03-26T21:23:12Z</time>
      </trkpt>
      <trkpt lat="46.85499" lon="-1.97151">
        <ele>3</ele>
        <time>2018-03-26T21:24:12Z</time>
      </trkpt>
      <trkpt lat="46.85475" lon="-1.97228">
        <ele>3</ele>
        <time>2018-03-26T21:25:12Z</time>
      </trkpt>
      <trkpt lat="46.85461" lon="-1.97276">
        <ele>2</ele>
        <time>2018-03-26T21:26:12Z</time>
      </trkpt>
      <trkpt lat="46.85452" lon="-1.97306">
        <ele>1</ele>
        <time>2018-03-26T21:27:12Z</time>
      </trkpt>
      <trkpt lat="46.85446" lon="-1.97329">
        <ele>1</ele>
        <time>2018-03-26T21:28:12Z</time>
      </trkpt>
      <trkpt lat="46.8544" lon="-1.97344">
        <ele>1</ele>
        <time>2018-03-26T21:29:12Z</time>
      </trkpt>
      <trkpt lat="46.85434" lon="-1.97359">
        <ele>1</ele>
        <time>2018-03-26T21:30:12Z</time>
      </trkpt>
      <trkpt lat="46.85426" lon="-1.97373">
        <ele>1</ele>
        <time>2018-03-26T21:31:12Z</time>
      </trkpt>
      <trkpt lat="46.85418" lon="-1.97385">
        <ele>1</ele>
        <time>2018-03-26T21:32:12Z</time>
      </trkpt>
      <trkpt lat="46.85416" lon="-1.97389">
        <ele>1</ele>
        <time>2018-03-26T21:33:12Z</time>
      </trkpt>
      <trkpt lat="46.85405" lon="-1.97401">
        <ele>1</ele>
        <time>2018-03-26T21:34:12Z</time>
      </trkpt>
      <trkpt lat="46.85399" lon="-1.97407">
        <ele>1</ele>
        <time>2018-03-26T21:35:12Z</time>
      </trkpt>
      <trkpt lat="46.85391" lon="-1.97413">
        <ele>1</ele>
        <time>2018-03-26T21:36:12Z</time>
      </trkpt>
      <trkpt lat="46.85384" lon="-1.97417">
        <ele>1</ele>
        <time>2018-03-26T21:37:12Z</time>
      </trkpt>
      <trkpt lat="46.85369" lon="-1.97425">
        <ele>1</ele>
        <time>2018-03-26T21:38:12Z</time>
      </trkpt>
      <trkpt lat="46.85335" lon="-1.97435">
        <ele>1</ele>
        <time>2018-03-26T21:39:12Z</time>
      </trkpt>
      <trkpt lat="46.85304" lon="-1.97447">
        <ele>1</ele>
        <time>2018-03-26T21:40:12Z</time>
      </trkpt>
      <trkpt lat="46.85291" lon="-1.97454">
        <ele>1</ele>
        <time>2018-03-26T21:41:12Z</time>
      </trkpt>
      <trkpt lat="46.85283" lon="-1.9746">
        <ele>1</ele>
        <time>2018-03-26T21:42:12Z</time>
      </trkpt>
      <trkpt lat="46.85276" lon="-1.97467">
        <ele>1</ele>
        <time>2018-03-26T21:43:12Z</time>
      </trkpt>
      <trkpt lat="46.8527" lon="-1.97475">
        <ele>1</ele>
        <time>2018-03-26T21:44:12Z</time>
      </trkpt>
      <trkpt lat="46.85253" lon="-1.975">
        <ele>1</ele>
        <time>2018-03-26T21:45:12Z</time>
      </trkpt>
      <trkpt lat="46.85224" lon="-1.97541">
        <ele>1</ele>
        <time>2018-03-26T21:46:12Z</time>
      </trkpt>
      <trkpt lat="46.85214" lon="-1.97555">
        <ele>1</ele>
        <time>2018-03-26T21:47:12Z</time>
      </trkpt>
      <trkpt lat="46.85146" lon="-1.97611">
        <ele>1</ele>
        <time>2018-03-26T21:48:12Z</time>
      </trkpt>
      <trkpt lat="46.85068" lon="-1.97676">
        <ele>2</ele>
        <time>2018-03-26T21:49:12Z</time>
      </trkpt>
      <trkpt lat="46.85032" lon="-1.97705">
        <ele>2</ele>
        <time>2018-03-26T21:50:12Z</time>
      </trkpt>
      <trkpt lat="46.8501" lon="-1.97723">
        <ele>1</ele>
        <time>2018-03-26T21:51:12Z</time>
      </trkpt>
      <trkpt lat="46.84993" lon="-1.97736">
        <ele>1</ele>
        <time>2018-03-26T21:52:12Z</time>
      </trkpt>
      <trkpt lat="46.8498" lon="-1.97747">
        <ele>1</ele>
        <time>2018-03-26T21:53:12Z</time>
      </trkpt>
      <trkpt lat="46.84976" lon="-1.9775">
        <ele>2</ele>
        <time>2018-03-26T21:54:12Z</time>
      </trkpt>
      <trkpt lat="46.84971" lon="-1.97755">
        <ele>2</ele>
        <time>2018-03-26T21:55:12Z</time>
      </trkpt>
      <trkpt lat="46.84963" lon="-1.97763">
        <ele>2</ele>
        <time>2018-03-26T21:56:12Z</time>
      </trkpt>
      <trkpt lat="46.8495" lon="-1.97776">
        <ele>2</ele>
        <time>2018-03-26T21:57:12Z</time>
      </trkpt>
      <trkpt lat="46.84938" lon="-1.97792">
        <ele>1.9</ele>
        <time>2018-03-26T21:58:12Z</time>
      </trkpt>
      <trkpt lat="46.8492" lon="-1.97816">
        <ele>1.5</ele>
        <time>2018-03-26T21:59:12Z</time>
      </trkpt>
      <trkpt lat="46.8489" lon="-1.97861">
        <ele>2</ele>
        <time>2018-03-26T22:00:12Z</time>
      </trkpt>
      <trkpt lat="46.84844" lon="-1.97927">
        <ele>2</ele>
        <time>2018-03-26T22:01:12Z</time>
      </trkpt>
      <trkpt lat="46.84802" lon="-1.9799">
        <ele>2</ele>
        <time>2018-03-26T22:02:12Z</time>
      </trkpt>
      <trkpt lat="46.84778" lon="-1.98025">
        <ele>2</ele>
        <time>2018-03-26T22:03:12Z</time>
      </trkpt>
      <trkpt lat="46.8476" lon="-1.98051">
        <ele>1.2</ele>
        <time>2018-03-26T22:04:12Z</time>
      </trkpt>
      <trkpt lat="46.84754" lon="-1.98059">
        <ele>1.1</ele>
        <time>2018-03-26T22:05:12Z</time>
      </trkpt>
      <trkpt lat="46.84749" lon="-1.98066">
        <ele>1.4</ele>
        <time>2018-03-26T22:06:12Z</time>
      </trkpt>
      <trkpt lat="46.84742" lon="-1.98073">
        <ele>1.7</ele>
        <time>2018-03-26T22:07:12Z</time>
      </trkpt>
      <trkpt lat="46.84737" lon="-1.98079">
        <ele>1.9</ele>
        <time>2018-03-26T22:08:12Z</time>
      </trkpt>
      <trkpt lat="46.84733" lon="-1.98083">
        <ele>2</ele>
        <time>2018-03-26T22:09:12Z</time>
      </trkpt>
      <trkpt lat="46.84725" lon="-1.98091">
        <ele>2</ele>
        <time>2018-03-26T22:10:12Z</time>
      </trkpt>
      <trkpt lat="46.84713" lon="-1.98101">
        <ele>2</ele>
        <time>2018-03-26T22:11:12Z</time>
      </trkpt>
      <trkpt lat="46.84696" lon="-1.98113">
        <ele>1.9</ele>
        <time>2018-03-26T22:12:12Z</time>
      </trkpt>
      <trkpt lat="46.84689" lon="-1.98118">
        <ele>1.8</ele>
        <time>2018-03-26T22:13:12Z</time>
      </trkpt>
      <trkpt lat="46.84685" lon="-1.98122">
        <ele>1.7</ele>
        <time>2018-03-26T22:14:12Z</time>
      </trkpt>
      <trkpt lat="46.84679" lon="-1.98129">
        <ele>1.7</ele>
        <time>2018-03-26T22:15:12Z</time>
      </trkpt>
      <trkpt lat="46.84673" lon="-1.98138">
        <ele>1.8</ele>
        <time>2018-03-26T22:16:12Z</time>
      </trkpt>
      <trkpt lat="46.84668" lon="-1.98146">
        <ele>1.7</ele>
        <time>2018-03-26T22:17:12Z</time>
      </trkpt>
      <trkpt lat="46.84662" lon="-1.98158">
        <ele>1.4</ele>
        <time>2018-03-26T22:18:12Z</time>
      </trkpt>
      <trkpt lat="46.84656" lon="-1.98174">
        <ele>1.5</ele>
        <time>2018-03-26T22:19:12Z</time>
      </trkpt>
      <trkpt lat="46.84647" lon="-1.98199">
        <ele>1</ele>
        <time>2018-03-26T22:20:12Z</time>
      </trkpt>
      <trkpt lat="46.84644" lon="-1.98207">
        <ele>1</ele>
        <time>2018-03-26T22:21:12Z</time>
      </trkpt>
      <trkpt lat="46.84639" lon="-1.98215">
        <ele>1</ele>
        <time>2018-03-26T22:22:12Z</time>
      </trkpt>
      <trkpt lat="46.84635" lon="-1.98223">
        <ele>1</ele>
        <time>2018-03-26T22:23:12Z</time>
      </trkpt>
      <trkpt lat="46.84626" lon="-1.98234">
        <ele>1</ele>
        <time>2018-03-26T22:24:12Z</time>
      </trkpt>
      <trkpt lat="46.84613" lon="-1.98247">
        <ele>1</ele>
        <time>2018-03-26T22:25:12Z</time>
      </trkpt>
      <trkpt lat="46.84606" lon="-1.98255">
        <ele>1</ele>
        <time>2018-03-26T22:26:12Z</time>
      </trkpt>
      <trkpt lat="46.84601" lon="-1.98264">
        <ele>1</ele>
        <time>2018-03-26T22:27:12Z</time>
      </trkpt>
      <trkpt lat="46.84594" lon="-1.98277">
        <ele>1</ele>
        <time>2018-03-26T22:28:12Z</time>
      </trkpt>
      <trkpt lat="46.84582" lon="-1.98301">
        <ele>2</ele>
        <time>2018-03-26T22:29:12Z</time>
      </trkpt>
      <trkpt lat="46.8457" lon="-1.98326">
        <ele>2</ele>
        <time>2018-03-26T22:30:12Z</time>
      </trkpt>
      <trkpt lat="46.84566" lon="-1.98338">
        <ele>2</ele>
        <time>2018-03-26T22:31:12Z</time>
      </trkpt>
      <trkpt lat="46.84562" lon="-1.98349">
        <ele>1</ele>
        <time>2018-03-26T22:32:12Z</time>
      </trkpt>
      <trkpt lat="46.84559" lon="-1.9836">
        <ele>1</ele>
        <time>2018-03-26T22:33:12Z</time>
      </trkpt>
      <trkpt lat="46.84556" lon="-1.9837">
        <ele>1</ele>
        <time>2018-03-26T22:34:12Z</time>
      </trkpt>
      <trkpt lat="46.84554" lon="-1.9838">
        <ele>1</ele>
        <time>2018-03-26T22:35:12Z</time>
      </trkpt>
      <trkpt lat="46.84553" lon="-1.9839">
        <ele>1</ele>
        <time>2018-03-26T22:36:12Z</time>
      </trkpt>
      <trkpt lat="46.84553" lon="-1.98403">
        <ele>1</ele>
        <time>2018-03-26T22:37:12Z</time>
      </trkpt>
      <trkpt lat="46.84553" lon="-1.98416">
        <ele>1</ele>
        <time>2018-03-26T22:38:12Z</time>
      </trkpt>
      <trkpt lat="46.84553" lon="-1.98441">
        <ele>1</ele>
        <time>2018-03-26T22:39:12Z</time>
      </trkpt>
      <trkpt lat="46.84553" lon="-1.98453">
        <ele>1</ele>
        <time>2018-03-26T22:40:12Z</time>
      </trkpt>
      <trkpt lat="46.84552" lon="-1.98463">
        <ele>1</ele>
        <time>2018-03-26T22:41:12Z</time>
      </trkpt>
      <trkpt lat="46.8455" lon="-1.98474">
        <ele>1</ele>
        <time>2018-03-26T22:42:12Z</time>
      </trkpt>
      <trkpt lat="46.84549" lon="-1.98483">
        <ele>2</ele>
        <time>2018-03-26T22:43:12Z</time>
      </trkpt>
      <trkpt lat="46.84544" lon="-1.98496">
        <ele>2</ele>
        <time>2018-03-26T22:44:12Z</time>
      </trkpt>
      <trkpt lat="46.84538" lon="-1.98511">
        <ele>1</ele>
        <time>2018-03-26T22:45:12Z</time>
      </trkpt>
      <trkpt lat="46.84508" lon="-1.98583">
        <ele>2</ele>
        <time>2018-03-26T22:46:12Z</time>
      </trkpt>
      <trkpt lat="46.8448" lon="-1.98649">
        <ele>1</ele>
        <time>2018-03-26T22:47:12Z</time>
      </trkpt>
      <trkpt lat="46.8447" lon="-1.9867">
        <ele>1</ele>
        <time>2018-03-26T22:48:12Z</time>
      </trkpt>
      <trkpt lat="46.84464" lon="-1.98681">
        <ele>1</ele>
        <time>2018-03-26T22:49:12Z</time>
      </trkpt>
      <trkpt lat="46.84459" lon="-1.9869">
        <ele>1</ele>
        <time>2018-03-26T22:50:12Z</time>
      </trkpt>
      <trkpt lat="46.84453" lon="-1.987">
        <ele>1</ele>
        <time>2018-03-26T22:51:12Z</time>
      </trkpt>
      <trkpt lat="46.84447" lon="-1.98708">
        <ele>1</ele>
        <time>2018-03-26T22:52:12Z</time>
      </trkpt>
      <trkpt lat="46.84441" lon="-1.98715">
        <ele>1</ele>
        <time>2018-03-26T22:53:12Z</time>
      </trkpt>
      <trkpt lat="46.84434" lon="-1.98721">
        <ele>1</ele>
        <time>2018-03-26T22:54:12Z</time>
      </trkpt>
      <trkpt lat="46.84412" lon="-1.98735">
        <ele>1</ele>
        <time>2018-03-26T22:55:12Z</time>
      </trkpt>
      <trkpt lat="46.84375" lon="-1.98755">
        <ele>1</ele>
        <time>2018-03-26T22:56:12Z</time>
      </trkpt>
      <trkpt lat="46.84336" lon="-1.98774">
        <ele>1</ele>
        <time>2018-03-26T22:57:12Z</time>
      </trkpt>
      <trkpt lat="46.84325" lon="-1.98779">
        <ele>1</ele>
        <time>2018-03-26T22:58:12Z</time>
      </trkpt>
      <trkpt lat="46.84314" lon="-1.98782">
        <ele>1</ele>
        <time>2018-03-26T22:59:12Z</time>
      </trkpt>
      <trkpt lat="46.84302" lon="-1.98786">
        <ele>1</ele>
        <time>2018-03-26T23:00:12Z</time>
      </trkpt>
      <trkpt lat="46.84291" lon="-1.98788">
        <ele>1</ele>
        <time>2018-03-26T23:01:12Z</time>
      </trkpt>
      <trkpt lat="46.84277" lon="-1.98791">
        <ele>1</ele>
        <time>2018-03-26T23:02:12Z</time>
      </trkpt>
      <trkpt lat="46.84227" lon="-1.988">
        <ele>1</ele>
        <time>2018-03-26T23:03:12Z</time>
      </trkpt>
      <trkpt lat="46.8419" lon="-1.98808">
        <ele>1</ele>
        <time>2018-03-26T23:04:12Z</time>
      </trkpt>
      <trkpt lat="46.84174" lon="-1.98811">
        <ele>1</ele>
        <time>2018-03-26T23:05:12Z</time>
      </trkpt>
      <trkpt lat="46.84163" lon="-1.98813">
        <ele>1</ele>
        <time>2018-03-26T23:06:12Z</time>
      </trkpt>
      <trkpt lat="46.8415" lon="-1.98817">
        <ele>1</ele>
        <time>2018-03-26T23:07:12Z</time>
      </trkpt>
      <trkpt lat="46.84139" lon="-1.9882">
        <ele>1</ele>
        <time>2018-03-26T23:08:12Z</time>
      </trkpt>
      <trkpt lat="46.84125" lon="-1.98824">
        <ele>1</ele>
        <time>2018-03-26T23:09:12Z</time>
      </trkpt>
      <trkpt lat="46.84109" lon="-1.9883">
        <ele>1</ele>
        <time>2018-03-26T23:10:12Z</time>
      </trkpt>
      <trkpt lat="46.84079" lon="-1.98841">
        <ele>1</ele>
        <time>2018-03-26T23:11:12Z</time>
      </trkpt>
      <trkpt lat="46.8403" lon="-1.98859">
        <ele>1</ele>
        <time>2018-03-26T23:12:12Z</time>
      </trkpt>
      <trkpt lat="46.84015" lon="-1.98865">
        <ele>1</ele>
        <time>2018-03-26T23:13:12Z</time>
      </trkpt>
      <trkpt lat="46.84007" lon="-1.98869">
        <ele>1</ele>
        <time>2018-03-26T23:14:12Z</time>
      </trkpt>
      <trkpt lat="46.83999" lon="-1.98873">
        <ele>1</ele>
        <time>2018-03-26T23:15:12Z</time>
      </trkpt>
      <trkpt lat="46.83989" lon="-1.98878">
        <ele>2</ele>
        <time>2018-03-26T23:16:12Z</time>
      </trkpt>
      <trkpt lat="46.83977" lon="-1.98887">
        <ele>2</ele>
        <time>2018-03-26T23:17:12Z</time>
      </trkpt>
      <trkpt lat="46.83968" lon="-1.98893">
        <ele>1.9</ele>
        <time>2018-03-26T23:18:12Z</time>
      </trkpt>
      <trkpt lat="46.83958" lon="-1.98898">
        <ele>1.7</ele>
        <time>2018-03-26T23:19:12Z</time>
      </trkpt>
      <trkpt lat="46.83948" lon="-1.98903">
        <ele>1.6</ele>
        <time>2018-03-26T23:20:12Z</time>
      </trkpt>
      <trkpt lat="46.83925" lon="-1.98914">
        <ele>1.9</ele>
        <time>2018-03-26T23:21:12Z</time>
      </trkpt>
      <trkpt lat="46.83884" lon="-1.9893">
        <ele>2</ele>
        <time>2018-03-26T23:22:12Z</time>
      </trkpt>
      <trkpt lat="46.83847" lon="-1.98945">
        <ele>2</ele>
        <time>2018-03-26T23:23:12Z</time>
      </trkpt>
      <trkpt lat="46.83808" lon="-1.9896">
        <ele>2</ele>
        <time>2018-03-26T23:24:12Z</time>
      </trkpt>
      <trkpt lat="46.83783" lon="-1.98971">
        <ele>2.8</ele>
        <time>2018-03-26T23:25:12Z</time>
      </trkpt>
      <trkpt lat="46.83771" lon="-1.98976">
        <ele>2.5</ele>
        <time>2018-03-26T23:26:12Z</time>
      </trkpt>
      <trkpt lat="46.83762" lon="-1.9898">
        <ele>2</ele>
        <time>2018-03-26T23:27:12Z</time>
      </trkpt>
      <trkpt lat="46.83717" lon="-1.98999">
        <ele>2</ele>
        <time>2018-03-26T23:28:12Z</time>
      </trkpt>
      <trkpt lat="46.83674" lon="-1.99021">
        <ele>1</ele>
        <time>2018-03-26T23:29:12Z</time>
      </trkpt>
      <trkpt lat="46.83604" lon="-1.99055">
        <ele>2</ele>
        <time>2018-03-26T23:30:12Z</time>
      </trkpt>
      <trkpt lat="46.83543" lon="-1.99087">
        <ele>1</ele>
        <time>2018-03-26T23:31:12Z</time>
      </trkpt>
      <trkpt lat="46.83489" lon="-1.99115">
        <ele>1</ele>
        <time>2018-03-26T23:32:12Z</time>
      </trkpt>
      <trkpt lat="46.83455" lon="-1.99134">
        <ele>1</ele>
        <time>2018-03-26T23:33:12Z</time>
      </trkpt>
      <trkpt lat="46.83404" lon="-1.99167">
        <ele>1</ele>
        <time>2018-03-26T23:34:12Z</time>
      </trkpt>
      <trkpt lat="46.83367" lon="-1.99191">
        <ele>1</ele>
        <time>2018-03-26T23:35:12Z</time>
      </trkpt>
      <trkpt lat="46.83342" lon="-1.99206">
        <ele>1</ele>
        <time>2018-03-26T23:36:12Z</time>
      </trkpt>
      <trkpt lat="46.83335" lon="-1.99209">
        <ele>1</ele>
        <time>2018-03-26T23:37:12Z</time>
      </trkpt>
      <trkpt lat="46.83309" lon="-1.9922">
        <ele>1</ele>
        <time>2018-03-26T23:38:12Z</time>
      </trkpt>
      <trkpt lat="46.8327" lon="-1.99231">
        <ele>1</ele>
        <time>2018-03-26T23:39:12Z</time>
      </trkpt>
      <trkpt lat="46.8322" lon="-1.99247">
        <ele>1</ele>
        <time>2018-03-26T23:40:12Z</time>
      </trkpt>
      <trkpt lat="46.83198" lon="-1.99253">
        <ele>1</ele>
        <time>2018-03-26T23:41:12Z</time>
      </trkpt>
      <trkpt lat="46.83191" lon="-1.99255">
        <ele>1</ele>
        <time>2018-03-26T23:42:12Z</time>
      </trkpt>
      <trkpt lat="46.83174" lon="-1.99259">
        <ele>1</ele>
        <time>2018-03-26T23:43:12Z</time>
      </trkpt>
      <trkpt lat="46.83133" lon="-1.99269">
        <ele>1</ele>
        <time>2018-03-26T23:44:12Z</time>
      </trkpt>
      <trkpt lat="46.83094" lon="-1.99284">
        <ele>1</ele>
        <time>2018-03-26T23:45:12Z</time>
      </trkpt>
      <trkpt lat="46.83052" lon="-1.99319">
        <ele>1</ele>
        <time>2018-03-26T23:46:12Z</time>
      </trkpt>
      <trkpt lat="46.83022" lon="-1.9935">
        <ele>1</ele>
        <time>2018-03-26T23:47:12Z</time>
      </trkpt>
      <trkpt lat="46.83002" lon="-1.99372">
        <ele>1</ele>
        <time>2018-03-26T23:48:12Z</time>
      </trkpt>
      <trkpt lat="46.82959" lon="-1.99417">
        <ele>1</ele>
        <time>2018-03-26T23:49:12Z</time>
      </trkpt>
      <trkpt lat="46.82925" lon="-1.99451">
        <ele>1</ele>
        <time>2018-03-26T23:50:12Z</time>
      </trkpt>
      <trkpt lat="46.82916" lon="-1.99455">
        <ele>1</ele>
        <time>2018-03-26T23:51:12Z</time>
      </trkpt>
      <trkpt lat="46.82905" lon="-1.99461">
        <ele>2</ele>
        <time>2018-03-26T23:52:12Z</time>
      </trkpt>
      <trkpt lat="46.82884" lon="-1.99464">
        <ele>1.9</ele>
        <time>2018-03-26T23:53:12Z</time>
      </trkpt>
      <trkpt lat="46.82865" lon="-1.99463">
        <ele>1.7</ele>
        <time>2018-03-26T23:54:12Z</time>
      </trkpt>
      <trkpt lat="46.82847" lon="-1.9946">
        <ele>1.8</ele>
        <time>2018-03-26T23:55:12Z</time>
      </trkpt>
      <trkpt lat="46.82822" lon="-1.99459">
        <ele>2.2</ele>
        <time>2018-03-26T23:56:12Z</time>
      </trkpt>
      <trkpt lat="46.82813" lon="-1.99459">
        <ele>2.4</ele>
        <time>2018-03-26T23:57:12Z</time>
      </trkpt>
      <trkpt lat="46.82801" lon="-1.99461">
        <ele>2.5</ele>
        <time>2018-03-26T23:58:12Z</time>
      </trkpt>
      <trkpt lat="46.8276" lon="-1.9947">
        <ele>2.6</ele>
        <time>2018-03-26T23:59:12Z</time>
      </trkpt>
      <trkpt lat="46.82718" lon="-1.99481">
        <ele>1</ele>
        <time>2018-03-27T00:00:12Z</time>
      </trkpt>
      <trkpt lat="46.82683" lon="-1.99489">
        <ele>1</ele>
        <time>2018-03-27T00:01:12Z</time>
      </trkpt>
      <trkpt lat="46.82639" lon="-1.99498">
        <ele>2</ele>
        <time>2018-03-27T00:02:12Z</time>
      </trkpt>
      <trkpt lat="46.82615" lon="-1.995">
        <ele>2</ele>
        <time>2018-03-27T00:03:12Z</time>
      </trkpt>
      <trkpt lat="46.82593" lon="-1.99497">
        <ele>1.9</ele>
        <time>2018-03-27T00:04:12Z</time>
      </trkpt>
      <trkpt lat="46.82563" lon="-1.99489">
        <ele>1.6</ele>
        <time>2018-03-27T00:05:12Z</time>
      </trkpt>
      <trkpt lat="46.82549" lon="-1.99485">
        <ele>1.6</ele>
        <time>2018-03-27T00:06:12Z</time>
      </trkpt>
      <trkpt lat="46.82518" lon="-1.99479">
        <ele>2</ele>
        <time>2018-03-27T00:07:12Z</time>
      </trkpt>
      <trkpt lat="46.82511" lon="-1.99481">
        <ele>2</ele>
        <time>2018-03-27T00:08:12Z</time>
      </trkpt>
      <trkpt lat="46.82506" lon="-1.99482">
        <ele>2</ele>
        <time>2018-03-27T00:09:12Z</time>
      </trkpt>
      <trkpt lat="46.82501" lon="-1.99483">
        <ele>2</ele>
        <time>2018-03-27T00:10:12Z</time>
      </trkpt>
      <trkpt lat="46.82494" lon="-1.99486">
        <ele>2</ele>
        <time>2018-03-27T00:11:12Z</time>
      </trkpt>
      <trkpt lat="46.82488" lon="-1.99488">
        <ele>2</ele>
        <time>2018-03-27T00:12:12Z</time>
      </trkpt>
      <trkpt lat="46.82486" lon="-1.9949">
        <ele>2</ele>
        <time>2018-03-27T00:13:12Z</time>
      </trkpt>
      <trkpt lat="46.82484" lon="-1.99492">
        <ele>2</ele>
        <time>2018-03-27T00:14:12Z</time>
      </trkpt>
      <trkpt lat="46.82479" lon="-1.99496">
        <ele>2</ele>
        <time>2018-03-27T00:15:12Z</time>
      </trkpt>
      <trkpt lat="46.82474" lon="-1.99502">
        <ele>2</ele>
        <time>2018-03-27T00:16:12Z</time>
      </trkpt>
      <trkpt lat="46.82469" lon="-1.9951">
        <ele>2</ele>
        <time>2018-03-27T00:17:12Z</time>
      </trkpt>
      <trkpt lat="46.82464" lon="-1.99518">
        <ele>1</ele>
        <time>2018-03-27T00:18:12Z</time>
      </trkpt>
      <trkpt lat="46.8246" lon="-1.99524">
        <ele>1</ele>
        <time>2018-03-27T00:19:12Z</time>
      </trkpt>
      <trkpt lat="46.82456" lon="-1.99533">
        <ele>1</ele>
        <time>2018-03-27T00:20:12Z</time>
      </trkpt>
      <trkpt lat="46.82453" lon="-1.99541">
        <ele>1</ele>
        <time>2018-03-27T00:21:12Z</time>
      </trkpt>
      <trkpt lat="46.8245" lon="-1.99551">
        <ele>1</ele>
        <time>2018-03-27T00:22:12Z</time>
      </trkpt>
      <trkpt lat="46.82445" lon="-1.99564">
        <ele>1</ele>
        <time>2018-03-27T00:23:12Z</time>
      </trkpt>
      <trkpt lat="46.82445" lon="-1.99564">
        <ele>1</ele>
        <time>2018-03-27T00:24:12Z</time>
      </trkpt>
      <trkpt lat="46.82446" lon="-1.99565">
        <ele>1</ele>
        <time>2018-03-27T00:25:12Z</time>
      </trkpt>
      <trkpt lat="46.82447" lon="-1.99566">
        <ele>1</ele>
        <time>2018-03-27T00:26:12Z</time>
      </trkpt>
      <trkpt lat="46.82447" lon="-1.99567">
        <ele>1</ele>
        <time>2018-03-27T00:27:12Z</time>
      </trkpt>
      <trkpt lat="46.82447" lon="-1.99568">
        <ele>1</ele>
        <time>2018-03-27T00:28:12Z</time>
      </trkpt>
      <trkpt lat="46.82448" lon="-1.99569">
        <ele>1</ele>
        <time>2018-03-27T00:29:12Z</time>
      </trkpt>
      <trkpt lat="46.82448" lon="-1.9957">
        <ele>1</ele>
        <time>2018-03-27T00:30:12Z</time>
      </trkpt>
      <trkpt lat="46.82448" lon="-1.99571">
        <ele>1</ele>
        <time>2018-03-27T00:31:12Z</time>
      </trkpt>
      <trkpt lat="46.82448" lon="-1.99572">
        <ele>1</ele>
        <time>2018-03-27T00:32:12Z</time>
      </trkpt>
      <trkpt lat="46.82449" lon="-1.99574">
        <ele>2</ele>
        <time>2018-03-27T00:33:12Z</time>
      </trkpt>
      <trkpt lat="46.82449" lon="-1.99575">
        <ele>2</ele>
        <time>2018-03-27T00:34:12Z</time>
      </trkpt>
      <trkpt lat="46.82449" lon="-1.99576">
        <ele>2</ele>
        <time>2018-03-27T00:35:12Z</time>
      </trkpt>
      <trkpt lat="46.82449" lon="-1.99577">
        <ele>2</ele>
        <time>2018-03-27T00:36:12Z</time>
      </trkpt>
      <trkpt lat="46.82449" lon="-1.99578">
        <ele>2</ele>
        <time>2018-03-27T00:37:12Z</time>
      </trkpt>
      <trkpt lat="46.82448" lon="-1.99579">
        <ele>2</ele>
        <time>2018-03-27T00:38:12Z</time>
      </trkpt>
      <trkpt lat="46.82448" lon="-1.9958">
        <ele>2</ele>
        <time>2018-03-27T00:39:12Z</time>
      </trkpt>
      <trkpt lat="46.82448" lon="-1.99581">
        <ele>2</ele>
        <time>2018-03-27T00:40:12Z</time>
      </trkpt>
      <trkpt lat="46.82448" lon="-1.99582">
        <ele>2</ele>
        <time>2018-03-27T00:41:12Z</time>
      </trkpt>
      <trkpt lat="46.82448" lon="-1.99583">
        <ele>2</ele>
        <time>2018-03-27T00:42:12Z</time>
      </trkpt>
      <trkpt lat="46.82447" lon="-1.99584">
        <ele>2</ele>
        <time>2018-03-27T00:43:12Z</time>
      </trkpt>
      <trkpt lat="46.82447" lon="-1.99585">
        <ele>2</ele>
        <time>2018-03-27T00:44:12Z</time>
      </trkpt>
      <trkpt lat="46.82447" lon="-1.99586">
        <ele>2</ele>
        <time>2018-03-27T00:45:12Z</time>
      </trkpt>
      <trkpt lat="46.82446" lon="-1.99587">
        <ele>2</ele>
        <time>2018-03-27T00:46:12Z</time>
      </trkpt>
      <trkpt lat="46.82445" lon="-1.99588">
        <ele>2</ele>
        <time>2018-03-27T00:47:12Z</time>
      </trkpt>
      <trkpt lat="46.82445" lon="-1.99589">
        <ele>2</ele>
        <time>2018-03-27T00:48:12Z</time>
      </trkpt>
      <trkpt lat="46.82444" lon="-1.9959">
        <ele>2</ele>
        <time>2018-03-27T00:49:12Z</time>
      </trkpt>
      <trkpt lat="46.82443" lon="-1.99591">
        <ele>2</ele>
        <time>2018-03-27T00:50:12Z</time>
      </trkpt>
      <trkpt lat="46.82442" lon="-1.99592">
        <ele>2</ele>
        <time>2018-03-27T00:51:12Z</time>
      </trkpt>
      <trkpt lat="46.82441" lon="-1.99592">
        <ele>2</ele>
        <time>2018-03-27T00:52:12Z</time>
      </trkpt>
      <trkpt lat="46.8244" lon="-1.99593">
        <ele>2</ele>
        <time>2018-03-27T00:53:12Z</time>
      </trkpt>
      <trkpt lat="46.82439" lon="-1.99593">
        <ele>2</ele>
        <time>2018-03-27T00:54:12Z</time>
      </trkpt>
      <trkpt lat="46.82439" lon="-1.99594">
        <ele>2</ele>
        <time>2018-03-27T00:55:12Z</time>
      </trkpt>
      <trkpt lat="46.82438" lon="-1.99594">
        <ele>2</ele>
        <time>2018-03-27T00:56:12Z</time>
      </trkpt>
      <trkpt lat="46.82437" lon="-1.99594">
        <ele>2</ele>
        <time>2018-03-27T00:57:12Z</time>
      </trkpt>
      <trkpt lat="46.82436" lon="-1.99594">
        <ele>2</ele>
        <time>2018-03-27T00:58:12Z</time>
      </trkpt>
      <trkpt lat="46.82435" lon="-1.99595">
        <ele>2</ele>
        <time>2018-03-27T00:59:12Z</time>
      </trkpt>
      <trkpt lat="46.82434" lon="-1.99594">
        <ele>2</ele>
        <time>2018-03-27T01:00:12Z</time>
      </trkpt>
      <trkpt lat="46.82433" lon="-1.99594">
        <ele>2</ele>
        <time>2018-03-27T01:01:12Z</time>
      </trkpt>
      <trkpt lat="46.82432" lon="-1.99594">
        <ele>2</ele>
        <time>2018-03-27T01:02:12Z</time>
      </trkpt>
      <trkpt lat="46.82431" lon="-1.99594">
        <ele>2</ele>
        <time>2018-03-27T01:03:12Z</time>
      </trkpt>
      <trkpt lat="46.8243" lon="-1.99593">
        <ele>2</ele>
        <time>2018-03-27T01:04:12Z</time>
      </trkpt>
      <trkpt lat="46.82429" lon="-1.99593">
        <ele>2</ele>
        <time>2018-03-27T01:05:12Z</time>
      </trkpt>
      <trkpt lat="46.82429" lon="-1.99592">
        <ele>2</ele>
        <time>2018-03-27T01:06:12Z</time>
      </trkpt>
      <trkpt lat="46.82428" lon="-1.99592">
        <ele>2</ele>
        <time>2018-03-27T01:07:12Z</time>
      </trkpt>
      <trkpt lat="46.82428" lon="-1.99591">
        <ele>2</ele>
        <time>2018-03-27T01:08:12Z</time>
      </trkpt>
      <trkpt lat="46.82427" lon="-1.99591">
        <ele>2</ele>
        <time>2018-03-27T01:09:12Z</time>
      </trkpt>
      <trkpt lat="46.82427" lon="-1.9959">
        <ele>2</ele>
        <time>2018-03-27T01:10:12Z</time>
      </trkpt>
      <trkpt lat="46.82426" lon="-1.9959">
        <ele>2</ele>
        <time>2018-03-27T01:11:12Z</time>
      </trkpt>
      <trkpt lat="46.82426" lon="-1.99589">
        <ele>2</ele>
        <time>2018-03-27T01:12:12Z</time>
      </trkpt>
      <trkpt lat="46.82426" lon="-1.99588">
        <ele>2</ele>
        <time>2018-03-27T01:13:12Z</time>
      </trkpt>
      <trkpt lat="46.82425" lon="-1.99587">
        <ele>2</ele>
        <time>2018-03-27T01:14:12Z</time>
      </trkpt>
      <trkpt lat="46.82425" lon="-1.99586">
        <ele>2</ele>
        <time>2018-03-27T01:15:12Z</time>
      </trkpt>
      <trkpt lat="46.82424" lon="-1.99585">
        <ele>2</ele>
        <time>2018-03-27T01:16:12Z</time>
      </trkpt>
      <trkpt lat="46.82424" lon="-1.99584">
        <ele>2</ele>
        <time>2018-03-27T01:17:12Z</time>
      </trkpt>
      <trkpt lat="46.82424" lon="-1.99583">
        <ele>2</ele>
        <time>2018-03-27T01:18:12Z</time>
      </trkpt>
      <trkpt lat="46.82423" lon="-1.99582">
        <ele>2</ele>
        <time>2018-03-27T01:19:12Z</time>
      </trkpt>
      <trkpt lat="46.82423" lon="-1.99581">
        <ele>2</ele>
        <time>2018-03-27T01:20:12Z</time>
      </trkpt>
      <trkpt lat="46.82423" lon="-1.9958">
        <ele>2</ele>
        <time>2018-03-27T01:21:12Z</time>
      </trkpt>
      <trkpt lat="46.8242" lon="-1.99577">
        <ele>2</ele>
        <time>2018-03-27T01:22:12Z</time>
      </trkpt>
      <trkpt lat="46.82411" lon="-1.99571">
        <ele>2</ele>
        <time>2018-03-27T01:23:12Z</time>
      </trkpt>
      <trkpt lat="46.82407" lon="-1.99568">
        <ele>2</ele>
        <time>2018-03-27T01:24:12Z</time>
      </trkpt>
      <trkpt lat="46.82403" lon="-1.99565">
        <ele>2</ele>
        <time>2018-03-27T01:25:12Z</time>
      </trkpt>
      <trkpt lat="46.82391" lon="-1.99559">
        <ele>1</ele>
        <time>2018-03-27T01:26:12Z</time>
      </trkpt>
      <trkpt lat="46.82371" lon="-1.99547">
        <ele>1</ele>
        <time>2018-03-27T01:27:12Z</time>
      </trkpt>
      <trkpt lat="46.82366" lon="-1.99544">
        <ele>1</ele>
        <time>2018-03-27T01:28:12Z</time>
      </trkpt>
      <trkpt lat="46.82352" lon="-1.9954">
        <ele>1</ele>
        <time>2018-03-27T01:29:12Z</time>
      </trkpt>
      <trkpt lat="46.82341" lon="-1.99533">
        <ele>1</ele>
        <time>2018-03-27T01:30:12Z</time>
      </trkpt>
      <trkpt lat="46.82326" lon="-1.99524">
        <ele>2</ele>
        <time>2018-03-27T01:31:12Z</time>
      </trkpt>
      <trkpt lat="46.82305" lon="-1.9951">
        <ele>2</ele>
        <time>2018-03-27T01:32:12Z</time>
      </trkpt>
      <trkpt lat="46.82286" lon="-1.99496">
        <ele>2</ele>
        <time>2018-03-27T01:33:12Z</time>
      </trkpt>
      <trkpt lat="46.82278" lon="-1.99491">
        <ele>2</ele>
        <time>2018-03-27T01:34:12Z</time>
      </trkpt>
      <trkpt lat="46.82271" lon="-1.99486">
        <ele>2</ele>
        <time>2018-03-27T01:35:12Z</time>
      </trkpt>
      <trkpt lat="46.82265" lon="-1.99482">
        <ele>2</ele>
        <time>2018-03-27T01:36:12Z</time>
      </trkpt>
      <trkpt lat="46.82264" lon="-1.99481">
        <ele>2</ele>
        <time>2018-03-27T01:37:12Z</time>
      </trkpt>
      <trkpt lat="46.82252" lon="-1.99472">
        <ele>2</ele>
        <time>2018-03-27T01:38:12Z</time>
      </trkpt>
      <trkpt lat="46.82229" lon="-1.99454">
        <ele>2</ele>
        <time>2018-03-27T01:39:12Z</time>
      </trkpt>
      <trkpt lat="46.82221" lon="-1.99448">
        <ele>2</ele>
        <time>2018-03-27T01:40:12Z</time>
      </trkpt>
      <trkpt lat="46.82201" lon="-1.99433">
        <ele>2</ele>
        <time>2018-03-27T01:41:12Z</time>
      </trkpt>
      <trkpt lat="46.82193" lon="-1.99427">
        <ele>1</ele>
        <time>2018-03-27T01:42:12Z</time>
      </trkpt>
      <trkpt lat="46.82177" lon="-1.99416">
        <ele>1</ele>
        <time>2018-03-27T01:43:12Z</time>
      </trkpt>
      <trkpt lat="46.82165" lon="-1.99409">
        <ele>1</ele>
        <time>2018-03-27T01:44:12Z</time>
      </trkpt>
      <trkpt lat="46.82159" lon="-1.99405">
        <ele>1</ele>
        <time>2018-03-27T01:45:12Z</time>
      </trkpt>
      <trkpt lat="46.82141" lon="-1.99391">
        <ele>1</ele>
        <time>2018-03-27T01:46:12Z</time>
      </trkpt>
      <trkpt lat="46.82127" lon="-1.99382">
        <ele>1</ele>
        <time>2018-03-27T01:47:12Z</time>
      </trkpt>
      <trkpt lat="46.8212" lon="-1.99379">
        <ele>1</ele>
        <time>2018-03-27T01:48:12Z</time>
      </trkpt>
      <trkpt lat="46.82116" lon="-1.99376">
        <ele>1</ele>
        <time>2018-03-27T01:49:12Z</time>
      </trkpt>
      <trkpt lat="46.82109" lon="-1.99373">
        <ele>1</ele>
        <time>2018-03-27T01:50:12Z</time>
      </trkpt>
      <trkpt lat="46.82103" lon="-1.99371">
        <ele>1</ele>
        <time>2018-03-27T01:51:12Z</time>
      </trkpt>
      <trkpt lat="46.82092" lon="-1.99366">
        <ele>1</ele>
        <time>2018-03-27T01:52:12Z</time>
      </trkpt>
      <trkpt lat="46.82064" lon="-1.99358">
        <ele>1</ele>
        <time>2018-03-27T01:53:12Z</time>
      </trkpt>
      <trkpt lat="46.82026" lon="-1.99347">
        <ele>2</ele>
        <time>2018-03-27T01:54:12Z</time>
      </trkpt>
      <trkpt lat="46.82024" lon="-1.99346">
        <ele>2</ele>
        <time>2018-03-27T01:55:12Z</time>
      </trkpt>
      <trkpt lat="46.82009" lon="-1.99341">
        <ele>2</ele>
        <time>2018-03-27T01:56:12Z</time>
      </trkpt>
      <trkpt lat="46.82001" lon="-1.99337">
        <ele>2</ele>
        <time>2018-03-27T01:57:12Z</time>
      </trkpt>
      <trkpt lat="46.81959" lon="-1.99318">
        <ele>2</ele>
        <time>2018-03-27T01:58:12Z</time>
      </trkpt>
      <trkpt lat="46.81957" lon="-1.99317">
        <ele>2</ele>
        <time>2018-03-27T01:59:12Z</time>
      </trkpt>
      <trkpt lat="46.8194" lon="-1.99309">
        <ele>2</ele>
        <time>2018-03-27T02:00:12Z</time>
      </trkpt>
      <trkpt lat="46.81938" lon="-1.99308">
        <ele>2</ele>
        <time>2018-03-27T02:01:12Z</time>
      </trkpt>
      <trkpt lat="46.8193" lon="-1.99305">
        <ele>2</ele>
        <time>2018-03-27T02:02:12Z</time>
      </trkpt>
      <trkpt lat="46.81912" lon="-1.99305">
        <ele>2</ele>
        <time>2018-03-27T02:03:12Z</time>
      </trkpt>
      <trkpt lat="46.81911" lon="-1.99306">
        <ele>2</ele>
        <time>2018-03-27T02:04:12Z</time>
      </trkpt>
      <trkpt lat="46.81911" lon="-1.99307">
        <ele>2</ele>
        <time>2018-03-27T02:05:12Z</time>
      </trkpt>
      <trkpt lat="46.8191" lon="-1.99307">
        <ele>2</ele>
        <time>2018-03-27T02:06:12Z</time>
      </trkpt>
      <trkpt lat="46.8191" lon="-1.99308">
        <ele>2</ele>
        <time>2018-03-27T02:07:12Z</time>
      </trkpt>
      <trkpt lat="46.81909" lon="-1.99308">
        <ele>2</ele>
        <time>2018-03-27T02:08:12Z</time>
      </trkpt>
      <trkpt lat="46.81908" lon="-1.99309">
        <ele>2</ele>
        <time>2018-03-27T02:09:12Z</time>
      </trkpt>
      <trkpt lat="46.81907" lon="-1.99309">
        <ele>2</ele>
        <time>2018-03-27T02:10:12Z</time>
      </trkpt>
      <trkpt lat="46.81906" lon="-1.99309">
        <ele>2</ele>
        <time>2018-03-27T02:11:12Z</time>
      </trkpt>
      <trkpt lat="46.81906" lon="-1.9931">
        <ele>2</ele>
        <time>2018-03-27T02:12:12Z</time>
      </trkpt>
      <trkpt lat="46.81905" lon="-1.9931">
        <ele>2</ele>
        <time>2018-03-27T02:13:12Z</time>
      </trkpt>
      <trkpt lat="46.81904" lon="-1.9931">
        <ele>2</ele>
        <time>2018-03-27T02:14:12Z</time>
      </trkpt>
      <trkpt lat="46.81904" lon="-1.99309">
        <ele>2</ele>
        <time>2018-03-27T02:15:12Z</time>
      </trkpt>
      <trkpt lat="46.81903" lon="-1.99309">
        <ele>2</ele>
        <time>2018-03-27T02:16:12Z</time>
      </trkpt>
      <trkpt lat="46.81902" lon="-1.99309">
        <ele>2</ele>
        <time>2018-03-27T02:17:12Z</time>
      </trkpt>
      <trkpt lat="46.81901" lon="-1.99309">
        <ele>2</ele>
        <time>2018-03-27T02:18:12Z</time>
      </trkpt>
      <trkpt lat="46.81901" lon="-1.99308">
        <ele>2</ele>
        <time>2018-03-27T02:19:12Z</time>
      </trkpt>
      <trkpt lat="46.819" lon="-1.99308">
        <ele>2</ele>
        <time>2018-03-27T02:20:12Z</time>
      </trkpt>
      <trkpt lat="46.819" lon="-1.99307">
        <ele>2</ele>
        <time>2018-03-27T02:21:12Z</time>
      </trkpt>
      <trkpt lat="46.81899" lon="-1.99307">
        <ele>2</ele>
        <time>2018-03-27T02:22:12Z</time>
      </trkpt>
      <trkpt lat="46.81899" lon="-1.99306">
        <ele>2</ele>
        <time>2018-03-27T02:23:12Z</time>
      </trkpt>
      <trkpt lat="46.81898" lon="-1.99306">
        <ele>2</ele>
        <time>2018-03-27T02:24:12Z</time>
      </trkpt>
      <trkpt lat="46.81898" lon="-1.99305">
        <ele>2</ele>
        <time>2018-03-27T02:25:12Z</time>
      </trkpt>
      <trkpt lat="46.81897" lon="-1.99304">
        <ele>2</ele>
        <time>2018-03-27T02:26:12Z</time>
      </trkpt>
      <trkpt lat="46.81897" lon="-1.99303">
        <ele>2</ele>
        <time>2018-03-27T02:27:12Z</time>
      </trkpt>
      <trkpt lat="46.81897" lon="-1.99302">
        <ele>2</ele>
        <time>2018-03-27T02:28:12Z</time>
      </trkpt>
      <trkpt lat="46.81896" lon="-1.99302">
        <ele>2</ele>
        <time>2018-03-27T02:29:12Z</time>
      </trkpt>
      <trkpt lat="46.81896" lon="-1.99301">
        <ele>2</ele>
        <time>2018-03-27T02:30:12Z</time>
      </trkpt>
      <trkpt lat="46.81896" lon="-1.993">
        <ele>2</ele>
        <time>2018-03-27T02:31:12Z</time>
      </trkpt>
      <trkpt lat="46.81896" lon="-1.99299">
        <ele>2</ele>
        <time>2018-03-27T02:32:12Z</time>
      </trkpt>
      <trkpt lat="46.81896" lon="-1.99298">
        <ele>2</ele>
        <time>2018-03-27T02:33:12Z</time>
      </trkpt>
      <trkpt lat="46.81896" lon="-1.99297">
        <ele>2</ele>
        <time>2018-03-27T02:34:12Z</time>
      </trkpt>
      <trkpt lat="46.81878" lon="-1.99285">
        <ele>2</ele>
        <time>2018-03-27T02:35:12Z</time>
      </trkpt>
      <trkpt lat="46.81874" lon="-1.99282">
        <ele>2</ele>
        <time>2018-03-27T02:36:12Z</time>
      </trkpt>
      <trkpt lat="46.81869" lon="-1.99278">
        <ele>2</ele>
        <time>2018-03-27T02:37:12Z</time>
      </trkpt>
      <trkpt lat="46.81835" lon="-1.99268">
        <ele>2</ele>
        <time>2018-03-27T02:38:12Z</time>
      </trkpt>
      <trkpt lat="46.81802" lon="-1.99259">
        <ele>2</ele>
        <time>2018-03-27T02:39:12Z</time>
      </trkpt>
      <trkpt lat="46.81748" lon="-1.99246">
        <ele>1</ele>
        <time>2018-03-27T02:40:12Z</time>
      </trkpt>
      <trkpt lat="46.81733" lon="-1.99241">
        <ele>1</ele>
        <time>2018-03-27T02:41:12Z</time>
      </trkpt>
      <trkpt lat="46.81702" lon="-1.99235">
        <ele>1</ele>
        <time>2018-03-27T02:42:12Z</time>
      </trkpt>
      <trkpt lat="46.81696" lon="-1.99234">
        <ele>2</ele>
        <time>2018-03-27T02:43:12Z</time>
      </trkpt>
      <trkpt lat="46.81672" lon="-1.99226">
        <ele>2</ele>
        <time>2018-03-27T02:44:12Z</time>
      </trkpt>
      <trkpt lat="46.8165" lon="-1.99216">
        <ele>2</ele>
        <time>2018-03-27T02:45:12Z</time>
      </trkpt>
      <trkpt lat="46.81645" lon="-1.99214">
        <ele>2</ele>
        <time>2018-03-27T02:46:12Z</time>
      </trkpt>
      <trkpt lat="46.81631" lon="-1.99207">
        <ele>2</ele>
        <time>2018-03-27T02:47:12Z</time>
      </trkpt>
      <trkpt lat="46.81604" lon="-1.99187">
        <ele>1</ele>
        <time>2018-03-27T02:48:12Z</time>
      </trkpt>
      <trkpt lat="46.81574" lon="-1.99159">
        <ele>1</ele>
        <time>2018-03-27T02:49:12Z</time>
      </trkpt>
      <trkpt lat="46.81544" lon="-1.99129">
        <ele>2</ele>
        <time>2018-03-27T02:50:12Z</time>
      </trkpt>
      <trkpt lat="46.81527" lon="-1.9911">
        <ele>2</ele>
        <time>2018-03-27T02:51:12Z</time>
      </trkpt>
      <trkpt lat="46.81522" lon="-1.99104">
        <ele>2</ele>
        <time>2018-03-27T02:52:12Z</time>
      </trkpt>
      <trkpt lat="46.81496" lon="-1.9908">
        <ele>3</ele>
        <time>2018-03-27T02:53:12Z</time>
      </trkpt>
      <trkpt lat="46.81461" lon="-1.99046">
        <ele>2</ele>
        <time>2018-03-27T02:54:12Z</time>
      </trkpt>
      <trkpt lat="46.81427" lon="-1.99014">
        <ele>2</ele>
        <time>2018-03-27T02:55:12Z</time>
      </trkpt>
      <trkpt lat="46.81385" lon="-1.98973">
        <ele>2</ele>
        <time>2018-03-27T02:56:12Z</time>
      </trkpt>
      <trkpt lat="46.8135" lon="-1.98938">
        <ele>2</ele>
        <time>2018-03-27T02:57:12Z</time>
      </trkpt>
      <trkpt lat="46.81297" lon="-1.98885">
        <ele>1</ele>
        <time>2018-03-27T02:58:12Z</time>
      </trkpt>
      <trkpt lat="46.81282" lon="-1.9887">
        <ele>1</ele>
        <time>2018-03-27T02:59:12Z</time>
      </trkpt>
      <trkpt lat="46.81251" lon="-1.98841">
        <ele>2</ele>
        <time>2018-03-27T03:00:12Z</time>
      </trkpt>
      <trkpt lat="46.81244" lon="-1.98835">
        <ele>1.8</ele>
        <time>2018-03-27T03:01:12Z</time>
      </trkpt>
      <trkpt lat="46.81234" lon="-1.98828">
        <ele>1.4</ele>
        <time>2018-03-27T03:02:12Z</time>
      </trkpt>
      <trkpt lat="46.81225" lon="-1.98822">
        <ele>1.1</ele>
        <time>2018-03-27T03:03:12Z</time>
      </trkpt>
      <trkpt lat="46.81212" lon="-1.98819">
        <ele>1.4</ele>
        <time>2018-03-27T03:04:12Z</time>
      </trkpt>
      <trkpt lat="46.81197" lon="-1.98819">
        <ele>1.9</ele>
        <time>2018-03-27T03:05:12Z</time>
      </trkpt>
      <trkpt lat="46.81188" lon="-1.98823">
        <ele>2</ele>
        <time>2018-03-27T03:06:12Z</time>
      </trkpt>
      <trkpt lat="46.81183" lon="-1.98825">
        <ele>2</ele>
        <time>2018-03-27T03:07:12Z</time>
      </trkpt>
      <trkpt lat="46.81176" lon="-1.98831">
        <ele>2</ele>
        <time>2018-03-27T03:08:12Z</time>
      </trkpt>
      <trkpt lat="46.81165" lon="-1.98844">
        <ele>1</ele>
        <time>2018-03-27T03:09:12Z</time>
      </trkpt>
      <trkpt lat="46.81149" lon="-1.98867">
        <ele>1</ele>
        <time>2018-03-27T03:10:12Z</time>
      </trkpt>
      <trkpt lat="46.81132" lon="-1.98892">
        <ele>1</ele>
        <time>2018-03-27T03:11:12Z</time>
      </trkpt>
      <trkpt lat="46.81124" lon="-1.98903">
        <ele>1</ele>
        <time>2018-03-27T03:12:12Z</time>
      </trkpt>
      <trkpt lat="46.81115" lon="-1.9891">
        <ele>1</ele>
        <time>2018-03-27T03:13:12Z</time>
      </trkpt>
      <trkpt lat="46.81109" lon="-1.98916">
        <ele>1</ele>
        <time>2018-03-27T03:14:12Z</time>
      </trkpt>
      <trkpt lat="46.81102" lon="-1.98915">
        <ele>1</ele>
        <time>2018-03-27T03:15:12Z</time>
      </trkpt>
      <trkpt lat="46.81092" lon="-1.98916">
        <ele>1</ele>
        <time>2018-03-27T03:16:12Z</time>
      </trkpt>
      <trkpt lat="46.81082" lon="-1.98915">
        <ele>1</ele>
        <time>2018-03-27T03:17:12Z</time>
      </trkpt>
      <trkpt lat="46.81076" lon="-1.98914">
        <ele>1</ele>
        <time>2018-03-27T03:18:12Z</time>
      </trkpt>
      <trkpt lat="46.81063" lon="-1.98909">
        <ele>1</ele>
        <time>2018-03-27T03:19:12Z</time>
      </trkpt>
      <trkpt lat="46.81049" lon="-1.98901">
        <ele>1</ele>
        <time>2018-03-27T03:20:12Z</time>
      </trkpt>
      <trkpt lat="46.81029" lon="-1.98885">
        <ele>1</ele>
        <time>2018-03-27T03:21:12Z</time>
      </trkpt>
      <trkpt lat="46.81011" lon="-1.98871">
        <ele>1</ele>
        <time>2018-03-27T03:22:12Z</time>
      </trkpt>
      <trkpt lat="46.80982" lon="-1.98848">
        <ele>2</ele>
        <time>2018-03-27T03:23:12Z</time>
      </trkpt>
      <trkpt lat="46.80932" lon="-1.98808">
        <ele>1</ele>
        <time>2018-03-27T03:24:12Z</time>
      </trkpt>
      <trkpt lat="46.80874" lon="-1.98762">
        <ele>1</ele>
        <time>2018-03-27T03:25:12Z</time>
      </trkpt>
      <trkpt lat="46.80823" lon="-1.98721">
        <ele>1.6</ele>
        <time>2018-03-27T03:26:12Z</time>
      </trkpt>
      <trkpt lat="46.80799" lon="-1.98696">
        <ele>2</ele>
        <time>2018-03-27T03:27:12Z</time>
      </trkpt>
      <trkpt lat="46.80741" lon="-1.98633">
        <ele>2</ele>
        <time>2018-03-27T03:28:12Z</time>
      </trkpt>
      <trkpt lat="46.80691" lon="-1.98577">
        <ele>1</ele>
        <time>2018-03-27T03:29:12Z</time>
      </trkpt>
      <trkpt lat="46.80628" lon="-1.9851">
        <ele>1</ele>
        <time>2018-03-27T03:30:12Z</time>
      </trkpt>
      <trkpt lat="46.80588" lon="-1.98468">
        <ele>2</ele>
        <time>2018-03-27T03:31:12Z</time>
      </trkpt>
      <trkpt lat="46.80588" lon="-1.98468">
        <ele>2</ele>
        <time>2018-03-27T03:32:12Z</time>
      </trkpt>
      <trkpt lat="46.8053" lon="-1.98408">
        <ele>2</ele>
        <time>2018-03-27T03:33:12Z</time>
      </trkpt>
      <trkpt lat="46.80522" lon="-1.98399">
        <ele>2.1</ele>
        <time>2018-03-27T03:34:12Z</time>
      </trkpt>
      <trkpt lat="46.80483" lon="-1.98363">
        <ele>1</ele>
        <time>2018-03-27T03:35:12Z</time>
      </trkpt>
      <trkpt lat="46.80479" lon="-1.98366">
        <ele>1</ele>
        <time>2018-03-27T03:36:12Z</time>
      </trkpt>
      <trkpt lat="46.80476" lon="-1.98368">
        <ele>1</ele>
        <time>2018-03-27T03:37:12Z</time>
      </trkpt>
      <trkpt lat="46.80472" lon="-1.98368">
        <ele>1</ele>
        <time>2018-03-27T03:38:12Z</time>
      </trkpt>
      <trkpt lat="46.80469" lon="-1.98368">
        <ele>1</ele>
        <time>2018-03-27T03:39:12Z</time>
      </trkpt>
      <trkpt lat="46.80465" lon="-1.98365">
        <ele>1</ele>
        <time>2018-03-27T03:40:12Z</time>
      </trkpt>
      <trkpt lat="46.80463" lon="-1.98363">
        <ele>1</ele>
        <time>2018-03-27T03:41:12Z</time>
      </trkpt>
      <trkpt lat="46.80461" lon="-1.9836">
        <ele>1</ele>
        <time>2018-03-27T03:42:12Z</time>
      </trkpt>
      <trkpt lat="46.80459" lon="-1.98357">
        <ele>1</ele>
        <time>2018-03-27T03:43:12Z</time>
      </trkpt>
      <trkpt lat="46.80457" lon="-1.9835">
        <ele>1</ele>
        <time>2018-03-27T03:44:12Z</time>
      </trkpt>
      <trkpt lat="46.80457" lon="-1.98345">
        <ele>1</ele>
        <time>2018-03-27T03:45:12Z</time>
      </trkpt>
      <trkpt lat="46.80457" lon="-1.98342">
        <ele>1</ele>
        <time>2018-03-27T03:46:12Z</time>
      </trkpt>
      <trkpt lat="46.80438" lon="-1.98312">
        <ele>1</ele>
        <time>2018-03-27T03:47:12Z</time>
      </trkpt>
      <trkpt lat="46.80426" lon="-1.98291">
        <ele>1</ele>
        <time>2018-03-27T03:48:12Z</time>
      </trkpt>
      <trkpt lat="46.80387" lon="-1.98245">
        <ele>2</ele>
        <time>2018-03-27T03:49:12Z</time>
      </trkpt>
      <trkpt lat="46.80368" lon="-1.98222">
        <ele>2</ele>
        <time>2018-03-27T03:50:12Z</time>
      </trkpt>
      <trkpt lat="46.80354" lon="-1.98206">
        <ele>2</ele>
        <time>2018-03-27T03:51:12Z</time>
      </trkpt>
      <trkpt lat="46.8033" lon="-1.98178">
        <ele>1</ele>
        <time>2018-03-27T03:52:12Z</time>
      </trkpt>
      <trkpt lat="46.80307" lon="-1.98155">
        <ele>1</ele>
        <time>2018-03-27T03:53:12Z</time>
      </trkpt>
      <trkpt lat="46.80291" lon="-1.98135">
        <ele>2</ele>
        <time>2018-03-27T03:54:12Z</time>
      </trkpt>
      <trkpt lat="46.8029" lon="-1.98133">
        <ele>2</ele>
        <time>2018-03-27T03:55:12Z</time>
      </trkpt>
      <trkpt lat="46.80276" lon="-1.98119">
        <ele>2</ele>
        <time>2018-03-27T03:56:12Z</time>
      </trkpt>
      <trkpt lat="46.80262" lon="-1.98105">
        <ele>2</ele>
        <time>2018-03-27T03:57:12Z</time>
      </trkpt>
      <trkpt lat="46.80244" lon="-1.98094">
        <ele>2</ele>
        <time>2018-03-27T03:58:12Z</time>
      </trkpt>
      <trkpt lat="46.80226" lon="-1.98085">
        <ele>2</ele>
        <time>2018-03-27T03:59:12Z</time>
      </trkpt>
      <trkpt lat="46.80212" lon="-1.9808">
        <ele>2</ele>
        <time>2018-03-27T04:00:12Z</time>
      </trkpt>
      <trkpt lat="46.80188" lon="-1.9807">
        <ele>2</ele>
        <time>2018-03-27T04:01:12Z</time>
      </trkpt>
      <trkpt lat="46.8016" lon="-1.98058">
        <ele>1</ele>
        <time>2018-03-27T04:02:12Z</time>
      </trkpt>
      <trkpt lat="46.8014" lon="-1.9805">
        <ele>1</ele>
        <time>2018-03-27T04:03:12Z</time>
      </trkpt>
      <trkpt lat="46.80128" lon="-1.98045">
        <ele>1</ele>
        <time>2018-03-27T04:04:12Z</time>
      </trkpt>
      <trkpt lat="46.80126" lon="-1.98045">
        <ele>1</ele>
        <time>2018-03-27T04:05:12Z</time>
      </trkpt>
      <trkpt lat="46.80097" lon="-1.98034">
        <ele>2</ele>
        <time>2018-03-27T04:06:12Z</time>
      </trkpt>
      <trkpt lat="46.80063" lon="-1.98017">
        <ele>2</ele>
        <time>2018-03-27T04:07:12Z</time>
      </trkpt>
      <trkpt lat="46.80035" lon="-1.98003">
        <ele>2.7</ele>
        <time>2018-03-27T04:08:12Z</time>
      </trkpt>
      <trkpt lat="46.80027" lon="-1.97997">
        <ele>2.9</ele>
        <time>2018-03-27T04:09:12Z</time>
      </trkpt>
      <trkpt lat="46.80002" lon="-1.97973">
        <ele>2</ele>
        <time>2018-03-27T04:10:12Z</time>
      </trkpt>
      <trkpt lat="46.79974" lon="-1.9794">
        <ele>2</ele>
        <time>2018-03-27T04:11:12Z</time>
      </trkpt>
      <trkpt lat="46.79972" lon="-1.97938">
        <ele>2</ele>
        <time>2018-03-27T04:12:12Z</time>
      </trkpt>
      <trkpt lat="46.79941" lon="-1.97903">
        <ele>2</ele>
        <time>2018-03-27T04:13:12Z</time>
      </trkpt>
      <trkpt lat="46.79912" lon="-1.97874">
        <ele>2</ele>
        <time>2018-03-27T04:14:12Z</time>
      </trkpt>
      <trkpt lat="46.79879" lon="-1.97853">
        <ele>2</ele>
        <time>2018-03-27T04:15:12Z</time>
      </trkpt>
      <trkpt lat="46.79845" lon="-1.97834">
        <ele>2</ele>
        <time>2018-03-27T04:16:12Z</time>
      </trkpt>
      <trkpt lat="46.79818" lon="-1.97823">
        <ele>2</ele>
        <time>2018-03-27T04:17:12Z</time>
      </trkpt>
      <trkpt lat="46.79791" lon="-1.97817">
        <ele>2</ele>
        <time>2018-03-27T04:18:12Z</time>
      </trkpt>
      <trkpt lat="46.7977" lon="-1.97818">
        <ele>1</ele>
        <time>2018-03-27T04:19:12Z</time>
      </trkpt>
      <trkpt lat="46.79753" lon="-1.97822">
        <ele>1</ele>
        <time>2018-03-27T04:20:12Z</time>
      </trkpt>
      <trkpt lat="46.79728" lon="-1.97832">
        <ele>1</ele>
        <time>2018-03-27T04:21:12Z</time>
      </trkpt>
      <trkpt lat="46.79705" lon="-1.97841">
        <ele>1</ele>
        <time>2018-03-27T04:22:12Z</time>
      </trkpt>
      <trkpt lat="46.79681" lon="-1.97851">
        <ele>1</ele>
        <time>2018-03-27T04:23:12Z</time>
      </trkpt>
      <trkpt lat="46.79642" lon="-1.97867">
        <ele>1</ele>
        <time>2018-03-27T04:24:12Z</time>
      </trkpt>
      <trkpt lat="46.79616" lon="-1.97877">
        <ele>2</ele>
        <time>2018-03-27T04:25:12Z</time>
      </trkpt>
      <trkpt lat="46.7959" lon="-1.97887">
        <ele>2</ele>
        <time>2018-03-27T04:26:12Z</time>
      </trkpt>
      <trkpt lat="46.79571" lon="-1.97892">
        <ele>2</ele>
        <time>2018-03-27T04:27:12Z</time>
      </trkpt>
      <trkpt lat="46.79557" lon="-1.97895">
        <ele>2</ele>
        <time>2018-03-27T04:28:12Z</time>
      </trkpt>
      <trkpt lat="46.79537" lon="-1.97898">
        <ele>1.8</ele>
        <time>2018-03-27T04:29:12Z</time>
      </trkpt>
      <trkpt lat="46.7949" lon="-1.97903">
        <ele>1.8</ele>
        <time>2018-03-27T04:30:12Z</time>
      </trkpt>
      <trkpt lat="46.79423" lon="-1.97912">
        <ele>2</ele>
        <time>2018-03-27T04:31:12Z</time>
      </trkpt>
      <trkpt lat="46.79351" lon="-1.9792">
        <ele>1</ele>
        <time>2018-03-27T04:32:12Z</time>
      </trkpt>
      <trkpt lat="46.79312" lon="-1.97923">
        <ele>1</ele>
        <time>2018-03-27T04:33:12Z</time>
      </trkpt>
      <trkpt lat="46.793" lon="-1.97923">
        <ele>1</ele>
        <time>2018-03-27T04:34:12Z</time>
      </trkpt>
      <trkpt lat="46.79294" lon="-1.97921">
        <ele>1</ele>
        <time>2018-03-27T04:35:12Z</time>
      </trkpt>
      <trkpt lat="46.79291" lon="-1.9792">
        <ele>1</ele>
        <time>2018-03-27T04:36:12Z</time>
      </trkpt>
      <trkpt lat="46.79287" lon="-1.97918">
        <ele>1</ele>
        <time>2018-03-27T04:37:12Z</time>
      </trkpt>
      <trkpt lat="46.79277" lon="-1.97913">
        <ele>1</ele>
        <time>2018-03-27T04:38:12Z</time>
      </trkpt>
      <trkpt lat="46.79273" lon="-1.9791">
        <ele>1</ele>
        <time>2018-03-27T04:39:12Z</time>
      </trkpt>
      <trkpt lat="46.79268" lon="-1.97907">
        <ele>1</ele>
        <time>2018-03-27T04:40:12Z</time>
      </trkpt>
      <trkpt lat="46.79261" lon="-1.97899">
        <ele>1</ele>
        <time>2018-03-27T04:41:12Z</time>
      </trkpt>
      <trkpt lat="46.79256" lon="-1.97893">
        <ele>1</ele>
        <time>2018-03-27T04:42:12Z</time>
      </trkpt>
      <trkpt lat="46.79245" lon="-1.97877">
        <ele>1</ele>
        <time>2018-03-27T04:43:12Z</time>
      </trkpt>
      <trkpt lat="46.79227" lon="-1.97845">
        <ele>1</ele>
        <time>2018-03-27T04:44:12Z</time>
      </trkpt>
      <trkpt lat="46.79202" lon="-1.97797">
        <ele>1</ele>
        <time>2018-03-27T04:45:12Z</time>
      </trkpt>
      <trkpt lat="46.79154" lon="-1.97705">
        <ele>2</ele>
        <time>2018-03-27T04:46:12Z</time>
      </trkpt>
      <trkpt lat="46.79132" lon="-1.97662">
        <ele>1.8</ele>
        <time>2018-03-27T04:47:12Z</time>
      </trkpt>
      <trkpt lat="46.79111" lon="-1.97621">
        <ele>1</ele>
        <time>2018-03-27T04:48:12Z</time>
      </trkpt>
      <trkpt lat="46.79076" lon="-1.97554">
        <ele>1</ele>
        <time>2018-03-27T04:49:12Z</time>
      </trkpt>
      <trkpt lat="46.7907" lon="-1.97542">
        <ele>1</ele>
        <time>2018-03-27T04:50:12Z</time>
      </trkpt>
      <trkpt lat="46.79053" lon="-1.9751">
        <ele>1</ele>
        <time>2018-03-27T04:51:12Z</time>
      </trkpt>
      <trkpt lat="46.7903" lon="-1.97473">
        <ele>1</ele>
        <time>2018-03-27T04:52:12Z</time>
      </trkpt>
      <trkpt lat="46.79006" lon="-1.97445">
        <ele>2</ele>
        <time>2018-03-27T04:53:12Z</time>
      </trkpt>
      <trkpt lat="46.78983" lon="-1.97425">
        <ele>2</ele>
        <time>2018-03-27T04:54:12Z</time>
      </trkpt>
      <trkpt lat="46.78968" lon="-1.97414">
        <ele>2</ele>
        <time>2018-03-27T04:55:12Z</time>
      </trkpt>
      <trkpt lat="46.78959" lon="-1.97409">
        <ele>2</ele>
        <time>2018-03-27T04:56:12Z</time>
      </trkpt>
      <trkpt lat="46.78935" lon="-1.97397">
        <ele>2</ele>
        <time>2018-03-27T04:57:12Z</time>
      </trkpt>
      <trkpt lat="46.78896" lon="-1.97382">
        <ele>3</ele>
        <time>2018-03-27T04:58:12Z</time>
      </trkpt>
      <trkpt lat="46.78843" lon="-1.97362">
        <ele>5</ele>
        <time>2018-03-27T04:59:12Z</time>
      </trkpt>
      <trkpt lat="46.78761" lon="-1.97331">
        <ele>3</ele>
        <time>2018-03-27T05:00:12Z</time>
      </trkpt>
      <trkpt lat="46.78708" lon="-1.97311">
        <ele>3</ele>
        <time>2018-03-27T05:01:12Z</time>
      </trkpt>
      <trkpt lat="46.78647" lon="-1.97287">
        <ele>3</ele>
        <time>2018-03-27T05:02:12Z</time>
      </trkpt>
      <trkpt lat="46.78638" lon="-1.97284">
        <ele>3</ele>
        <time>2018-03-27T05:03:12Z</time>
      </trkpt>
      <trkpt lat="46.78612" lon="-1.97274">
        <ele>4</ele>
        <time>2018-03-27T05:04:12Z</time>
      </trkpt>
      <trkpt lat="46.78587" lon="-1.97263">
        <ele>5</ele>
        <time>2018-03-27T05:05:12Z</time>
      </trkpt>
      <trkpt lat="46.7852" lon="-1.97238">
        <ele>5</ele>
        <time>2018-03-27T05:06:12Z</time>
      </trkpt>
      <trkpt lat="46.78503" lon="-1.97232">
        <ele>4</ele>
        <time>2018-03-27T05:07:12Z</time>
      </trkpt>
      <trkpt lat="46.78465" lon="-1.97216">
        <ele>4</ele>
        <time>2018-03-27T05:08:12Z</time>
      </trkpt>
      <trkpt lat="46.78423" lon="-1.97197">
        <ele>5</ele>
        <time>2018-03-27T05:09:12Z</time>
      </trkpt>
      <trkpt lat="46.78307" lon="-1.97133">
        <ele>5</ele>
        <time>2018-03-27T05:10:12Z</time>
      </trkpt>
      <trkpt lat="46.78282" lon="-1.97119">
        <ele>4</ele>
        <time>2018-03-27T05:11:12Z</time>
      </trkpt>
      <trkpt lat="46.78249" lon="-1.971">
        <ele>3</ele>
        <time>2018-03-27T05:12:12Z</time>
      </trkpt>
      <trkpt lat="46.7822" lon="-1.97084">
        <ele>3</ele>
        <time>2018-03-27T05:13:12Z</time>
      </trkpt>
      <trkpt lat="46.78207" lon="-1.97077">
        <ele>3</ele>
        <time>2018-03-27T05:14:12Z</time>
      </trkpt>
      <trkpt lat="46.78183" lon="-1.97064">
        <ele>3</ele>
        <time>2018-03-27T05:15:12Z</time>
      </trkpt>
      <trkpt lat="46.78149" lon="-1.97046">
        <ele>4</ele>
        <time>2018-03-27T05:16:12Z</time>
      </trkpt>
      <trkpt lat="46.78108" lon="-1.97022">
        <ele>5</ele>
        <time>2018-03-27T05:17:12Z</time>
      </trkpt>
      <trkpt lat="46.78048" lon="-1.96989">
        <ele>5</ele>
        <time>2018-03-27T05:18:12Z</time>
      </trkpt>
      <trkpt lat="46.77993" lon="-1.96959">
        <ele>4</ele>
        <time>2018-03-27T05:19:12Z</time>
      </trkpt>
      <trkpt lat="46.7796" lon="-1.9694">
        <ele>4</ele>
        <time>2018-03-27T05:20:12Z</time>
      </trkpt>
      <trkpt lat="46.77938" lon="-1.96929">
        <ele>3</ele>
        <time>2018-03-27T05:21:12Z</time>
      </trkpt>
      <trkpt lat="46.77917" lon="-1.96918">
        <ele>3</ele>
        <time>2018-03-27T05:22:12Z</time>
      </trkpt>
      <trkpt lat="46.77886" lon="-1.96906">
        <ele>4</ele>
        <time>2018-03-27T05:23:12Z</time>
      </trkpt>
      <trkpt lat="46.77842" lon="-1.96888">
        <ele>5</ele>
        <time>2018-03-27T05:24:12Z</time>
      </trkpt>
      <trkpt lat="46.77818" lon="-1.96879">
        <ele>5</ele>
        <time>2018-03-27T05:25:12Z</time>
      </trkpt>
      <trkpt lat="46.77782" lon="-1.96865">
        <ele>4</ele>
        <time>2018-03-27T05:26:12Z</time>
      </trkpt>
      <trkpt lat="46.77755" lon="-1.96851">
        <ele>4</ele>
        <time>2018-03-27T05:27:12Z</time>
      </trkpt>
      <trkpt lat="46.77731" lon="-1.96834">
        <ele>4</ele>
        <time>2018-03-27T05:28:12Z</time>
      </trkpt>
      <trkpt lat="46.77701" lon="-1.9681">
        <ele>3</ele>
        <time>2018-03-27T05:29:12Z</time>
      </trkpt>
      <trkpt lat="46.77684" lon="-1.96793">
        <ele>3</ele>
        <time>2018-03-27T05:30:12Z</time>
      </trkpt>
      <trkpt lat="46.77571" lon="-1.96688">
        <ele>5</ele>
        <time>2018-03-27T05:31:12Z</time>
      </trkpt>
      <trkpt lat="46.77524" lon="-1.96644">
        <ele>6</ele>
        <time>2018-03-27T05:32:12Z</time>
      </trkpt>
      <trkpt lat="46.77518" lon="-1.96641">
        <ele>6</ele>
        <time>2018-03-27T05:33:12Z</time>
      </trkpt>
      <trkpt lat="46.77481" lon="-1.96606">
        <ele>6</ele>
        <time>2018-03-27T05:34:12Z</time>
      </trkpt>
      <trkpt lat="46.77477" lon="-1.96599">
        <ele>6</ele>
        <time>2018-03-27T05:35:12Z</time>
      </trkpt>
      <trkpt lat="46.77468" lon="-1.9659">
        <ele>6</ele>
        <time>2018-03-27T05:36:12Z</time>
      </trkpt>
      <trkpt lat="46.77467" lon="-1.96589">
        <ele>6</ele>
        <time>2018-03-27T05:37:12Z</time>
      </trkpt>
      <trkpt lat="46.77365" lon="-1.96485">
        <ele>4</ele>
        <time>2018-03-27T05:38:12Z</time>
      </trkpt>
      <trkpt lat="46.77363" lon="-1.96484">
        <ele>4</ele>
        <time>2018-03-27T05:39:12Z</time>
      </trkpt>
      <trkpt lat="46.77306" lon="-1.96428">
        <ele>5</ele>
        <time>2018-03-27T05:40:12Z</time>
      </trkpt>
      <trkpt lat="46.77281" lon="-1.96404">
        <ele>5</ele>
        <time>2018-03-27T05:41:12Z</time>
      </trkpt>
      <trkpt lat="46.77263" lon="-1.96387">
        <ele>4</ele>
        <time>2018-03-27T05:42:12Z</time>
      </trkpt>
      <trkpt lat="46.77211" lon="-1.96338">
        <ele>5</ele>
        <time>2018-03-27T05:43:12Z</time>
      </trkpt>
      <trkpt lat="46.77186" lon="-1.9632">
        <ele>6</ele>
        <time>2018-03-27T05:44:12Z</time>
      </trkpt>
      <trkpt lat="46.77166" lon="-1.96314">
        <ele>7</ele>
        <time>2018-03-27T05:45:12Z</time>
      </trkpt>
      <trkpt lat="46.77166" lon="-1.96319">
        <ele>7</ele>
        <time>2018-03-27T05:46:12Z</time>
      </trkpt>
      <trkpt lat="46.77166" lon="-1.96322">
        <ele>7</ele>
        <time>2018-03-27T05:47:12Z</time>
      </trkpt>
      <trkpt lat="46.77165" lon="-1.96324">
        <ele>7</ele>
        <time>2018-03-27T05:48:12Z</time>
      </trkpt>
      <trkpt lat="46.77164" lon="-1.96327">
        <ele>7</ele>
        <time>2018-03-27T05:49:12Z</time>
      </trkpt>
      <trkpt lat="46.77162" lon="-1.96328">
        <ele>7</ele>
        <time>2018-03-27T05:50:12Z</time>
      </trkpt>
      <trkpt lat="46.7716" lon="-1.9633">
        <ele>7</ele>
        <time>2018-03-27T05:51:12Z</time>
      </trkpt>
      <trkpt lat="46.77158" lon="-1.9633">
        <ele>7</ele>
        <time>2018-03-27T05:52:12Z</time>
      </trkpt>
      <trkpt lat="46.77156" lon="-1.96329">
        <ele>7</ele>
        <time>2018-03-27T05:53:12Z</time>
      </trkpt>
      <trkpt lat="46.77154" lon="-1.96328">
        <ele>7</ele>
        <time>2018-03-27T05:54:12Z</time>
      </trkpt>
      <trkpt lat="46.77153" lon="-1.96326">
        <ele>7</ele>
        <time>2018-03-27T05:55:12Z</time>
      </trkpt>
      <trkpt lat="46.77152" lon="-1.96324">
        <ele>7</ele>
        <time>2018-03-27T05:56:12Z</time>
      </trkpt>
      <trkpt lat="46.77151" lon="-1.9632">
        <ele>7</ele>
        <time>2018-03-27T05:57:12Z</time>
      </trkpt>
      <trkpt lat="46.77151" lon="-1.96317">
        <ele>6</ele>
        <time>2018-03-27T05:58:12Z</time>
      </trkpt>
      <trkpt lat="46.77151" lon="-1.96315">
        <ele>6</ele>
        <time>2018-03-27T05:59:12Z</time>
      </trkpt>
      <trkpt lat="46.77132" lon="-1.96302">
        <ele>6</ele>
        <time>2018-03-27T06:00:12Z</time>
      </trkpt>
      <trkpt lat="46.77103" lon="-1.96298">
        <ele>6</ele>
        <time>2018-03-27T06:01:12Z</time>
      </trkpt>
      <trkpt lat="46.77029" lon="-1.96289">
        <ele>4</ele>
        <time>2018-03-27T06:02:12Z</time>
      </trkpt>
      <trkpt lat="46.77023" lon="-1.96289">
        <ele>3</ele>
        <time>2018-03-27T06:03:12Z</time>
      </trkpt>
      <trkpt lat="46.76955" lon="-1.96283">
        <ele>3</ele>
        <time>2018-03-27T06:04:12Z</time>
      </trkpt>
      <trkpt lat="46.76928" lon="-1.96281">
        <ele>3</ele>
        <time>2018-03-27T06:05:12Z</time>
      </trkpt>
      <trkpt lat="46.76887" lon="-1.96274">
        <ele>4</ele>
        <time>2018-03-27T06:06:12Z</time>
      </trkpt>
      <trkpt lat="46.76872" lon="-1.96271">
        <ele>3</ele>
        <time>2018-03-27T06:07:12Z</time>
      </trkpt>
      <trkpt lat="46.76817" lon="-1.96263">
        <ele>3</ele>
        <time>2018-03-27T06:08:12Z</time>
      </trkpt>
      <trkpt lat="46.76785" lon="-1.96253">
        <ele>3</ele>
        <time>2018-03-27T06:09:12Z</time>
      </trkpt>
      <trkpt lat="46.76722" lon="-1.9623">
        <ele>3</ele>
        <time>2018-03-27T06:10:12Z</time>
      </trkpt>
      <trkpt lat="46.76618" lon="-1.96189">
        <ele>4</ele>
        <time>2018-03-27T06:11:12Z</time>
      </trkpt>
      <trkpt lat="46.76539" lon="-1.9616">
        <ele>3</ele>
        <time>2018-03-27T06:12:12Z</time>
      </trkpt>
      <trkpt lat="46.76513" lon="-1.9615">
        <ele>3</ele>
        <time>2018-03-27T06:13:12Z</time>
      </trkpt>
      <trkpt lat="46.76485" lon="-1.96139">
        <ele>2</ele>
        <time>2018-03-27T06:14:12Z</time>
      </trkpt>
      <trkpt lat="46.76435" lon="-1.96123">
        <ele>2</ele>
        <time>2018-03-27T06:15:12Z</time>
      </trkpt>
      <trkpt lat="46.76431" lon="-1.96121">
        <ele>2</ele>
        <time>2018-03-27T06:16:12Z</time>
      </trkpt>
      <trkpt lat="46.76411" lon="-1.96114">
        <ele>2</ele>
        <time>2018-03-27T06:17:12Z</time>
      </trkpt>
      <trkpt lat="46.76383" lon="-1.96105">
        <ele>2</ele>
        <time>2018-03-27T06:18:12Z</time>
      </trkpt>
      <trkpt lat="46.76353" lon="-1.96093">
        <ele>3</ele>
        <time>2018-03-27T06:19:12Z</time>
      </trkpt>
      <trkpt lat="46.76325" lon="-1.9608">
        <ele>3</ele>
        <time>2018-03-27T06:20:12Z</time>
      </trkpt>
      <trkpt lat="46.76318" lon="-1.96076">
        <ele>3</ele>
        <time>2018-03-27T06:21:12Z</time>
      </trkpt>
      <trkpt lat="46.76308" lon="-1.9607">
        <ele>3</ele>
        <time>2018-03-27T06:22:12Z</time>
      </trkpt>
      <trkpt lat="46.76286" lon="-1.96055">
        <ele>3</ele>
        <time>2018-03-27T06:23:12Z</time>
      </trkpt>
      <trkpt lat="46.76249" lon="-1.96029">
        <ele>4</ele>
        <time>2018-03-27T06:24:12Z</time>
      </trkpt>
      <trkpt lat="46.76226" lon="-1.96014">
        <ele>4</ele>
        <time>2018-03-27T06:25:12Z</time>
      </trkpt>
      <trkpt lat="46.76203" lon="-1.96002">
        <ele>4</ele>
        <time>2018-03-27T06:26:12Z</time>
      </trkpt>
      <trkpt lat="46.76153" lon="-1.95979">
        <ele>3</ele>
        <time>2018-03-27T06:27:12Z</time>
      </trkpt>
      <trkpt lat="46.76101" lon="-1.95956">
        <ele>4</ele>
        <time>2018-03-27T06:28:12Z</time>
      </trkpt>
      <trkpt lat="46.76057" lon="-1.95938">
        <ele>5</ele>
        <time>2018-03-27T06:29:12Z</time>
      </trkpt>
      <trkpt lat="46.7605" lon="-1.95936">
        <ele>5</ele>
        <time>2018-03-27T06:30:12Z</time>
      </trkpt>
      <trkpt lat="46.76034" lon="-1.95931">
        <ele>5</ele>
        <time>2018-03-27T06:31:12Z</time>
      </trkpt>
      <trkpt lat="46.7602" lon="-1.95927">
        <ele>5</ele>
        <time>2018-03-27T06:32:12Z</time>
      </trkpt>
      <trkpt lat="46.76002" lon="-1.95925">
        <ele>6</ele>
        <time>2018-03-27T06:33:12Z</time>
      </trkpt>
      <trkpt lat="46.75982" lon="-1.95923">
        <ele>5</ele>
        <time>2018-03-27T06:34:12Z</time>
      </trkpt>
      <trkpt lat="46.75927" lon="-1.9592">
        <ele>4</ele>
        <time>2018-03-27T06:35:12Z</time>
      </trkpt>
      <trkpt lat="46.75906" lon="-1.9592">
        <ele>4</ele>
        <time>2018-03-27T06:36:12Z</time>
      </trkpt>
      <trkpt lat="46.75903" lon="-1.9592">
        <ele>4</ele>
        <time>2018-03-27T06:37:12Z</time>
      </trkpt>
      <trkpt lat="46.75857" lon="-1.95917">
        <ele>3</ele>
        <time>2018-03-27T06:38:12Z</time>
      </trkpt>
      <trkpt lat="46.75855" lon="-1.95917">
        <ele>3</ele>
        <time>2018-03-27T06:39:12Z</time>
      </trkpt>
      <trkpt lat="46.75766" lon="-1.95913">
        <ele>2</ele>
        <time>2018-03-27T06:40:12Z</time>
      </trkpt>
      <trkpt lat="46.75724" lon="-1.95909">
        <ele>3</ele>
        <time>2018-03-27T06:41:12Z</time>
      </trkpt>
      <trkpt lat="46.75696" lon="-1.95905">
        <ele>3</ele>
        <time>2018-03-27T06:42:12Z</time>
      </trkpt>
      <trkpt lat="46.75657" lon="-1.95895">
        <ele>3</ele>
        <time>2018-03-27T06:43:12Z</time>
      </trkpt>
      <trkpt lat="46.75612" lon="-1.95882">
        <ele>2</ele>
        <time>2018-03-27T06:44:12Z</time>
      </trkpt>
      <trkpt lat="46.75565" lon="-1.95868">
        <ele>1</ele>
        <time>2018-03-27T06:45:12Z</time>
      </trkpt>
      <trkpt lat="46.75564" lon="-1.95868">
        <ele>1</ele>
        <time>2018-03-27T06:46:12Z</time>
      </trkpt>
      <trkpt lat="46.7553" lon="-1.95855">
        <ele>2</ele>
        <time>2018-03-27T06:47:12Z</time>
      </trkpt>
      <trkpt lat="46.75522" lon="-1.95849">
        <ele>2</ele>
        <time>2018-03-27T06:48:12Z</time>
      </trkpt>
      <trkpt lat="46.75506" lon="-1.9584">
        <ele>3</ele>
        <time>2018-03-27T06:49:12Z</time>
      </trkpt>
      <trkpt lat="46.75477" lon="-1.95826">
        <ele>2</ele>
        <time>2018-03-27T06:50:12Z</time>
      </trkpt>
      <trkpt lat="46.75427" lon="-1.95799">
        <ele>2</ele>
        <time>2018-03-27T06:51:12Z</time>
      </trkpt>
      <trkpt lat="46.75367" lon="-1.95767">
        <ele>1</ele>
        <time>2018-03-27T06:52:12Z</time>
      </trkpt>
      <trkpt lat="46.75348" lon="-1.95757">
        <ele>1</ele>
        <time>2018-03-27T06:53:12Z</time>
      </trkpt>
      <trkpt lat="46.7531" lon="-1.95737">
        <ele>1</ele>
        <time>2018-03-27T06:54:12Z</time>
      </trkpt>
      <trkpt lat="46.75274" lon="-1.9572">
        <ele>1</ele>
        <time>2018-03-27T06:55:12Z</time>
      </trkpt>
      <trkpt lat="46.75243" lon="-1.95711">
        <ele>1</ele>
        <time>2018-03-27T06:56:12Z</time>
      </trkpt>
      <trkpt lat="46.75236" lon="-1.95709">
        <ele>1</ele>
        <time>2018-03-27T06:57:12Z</time>
      </trkpt>
      <trkpt lat="46.75217" lon="-1.95706">
        <ele>2</ele>
        <time>2018-03-27T06:58:12Z</time>
      </trkpt>
      <trkpt lat="46.75193" lon="-1.95706">
        <ele>1</ele>
        <time>2018-03-27T06:59:12Z</time>
      </trkpt>
      <trkpt lat="46.75163" lon="-1.95705">
        <ele>1</ele>
        <time>2018-03-27T07:00:12Z</time>
      </trkpt>
      <trkpt lat="46.75128" lon="-1.95704">
        <ele>1</ele>
        <time>2018-03-27T07:01:12Z</time>
      </trkpt>
      <trkpt lat="46.75102" lon="-1.95701">
        <ele>1</ele>
        <time>2018-03-27T07:02:12Z</time>
      </trkpt>
      <trkpt lat="46.7508" lon="-1.95696">
        <ele>1</ele>
        <time>2018-03-27T07:03:12Z</time>
      </trkpt>
      <trkpt lat="46.75053" lon="-1.95686">
        <ele>1</ele>
        <time>2018-03-27T07:04:12Z</time>
      </trkpt>
      <trkpt lat="46.75029" lon="-1.95675">
        <ele>1</ele>
        <time>2018-03-27T07:05:12Z</time>
      </trkpt>
      <trkpt lat="46.74994" lon="-1.95658">
        <ele>2</ele>
        <time>2018-03-27T07:06:12Z</time>
      </trkpt>
      <trkpt lat="46.74953" lon="-1.95639">
        <ele>1</ele>
        <time>2018-03-27T07:07:12Z</time>
      </trkpt>
      <trkpt lat="46.74928" lon="-1.95627">
        <ele>1</ele>
        <time>2018-03-27T07:08:12Z</time>
      </trkpt>
      <trkpt lat="46.7492" lon="-1.95623">
        <ele>1</ele>
        <time>2018-03-27T07:09:12Z</time>
      </trkpt>
      <trkpt lat="46.74893" lon="-1.95608">
        <ele>1</ele>
        <time>2018-03-27T07:10:12Z</time>
      </trkpt>
      <trkpt lat="46.74872" lon="-1.95599">
        <ele>1</ele>
        <time>2018-03-27T07:11:12Z</time>
      </trkpt>
      <trkpt lat="46.74848" lon="-1.95588">
        <ele>2</ele>
        <time>2018-03-27T07:12:12Z</time>
      </trkpt>
      <trkpt lat="46.74826" lon="-1.9558">
        <ele>2</ele>
        <time>2018-03-27T07:13:12Z</time>
      </trkpt>
      <trkpt lat="46.74806" lon="-1.95574">
        <ele>2</ele>
        <time>2018-03-27T07:14:12Z</time>
      </trkpt>
      <trkpt lat="46.74785" lon="-1.95572">
        <ele>1</ele>
        <time>2018-03-27T07:15:12Z</time>
      </trkpt>
      <trkpt lat="46.74771" lon="-1.9557">
        <ele>1</ele>
        <time>2018-03-27T07:16:12Z</time>
      </trkpt>
      <trkpt lat="46.74762" lon="-1.95571">
        <ele>1</ele>
        <time>2018-03-27T07:17:12Z</time>
      </trkpt>
      <trkpt lat="46.74738" lon="-1.95572">
        <ele>1</ele>
        <time>2018-03-27T07:18:12Z</time>
      </trkpt>
      <trkpt lat="46.74708" lon="-1.95575">
        <ele>2</ele>
        <time>2018-03-27T07:19:12Z</time>
      </trkpt>
      <trkpt lat="46.74688" lon="-1.95576">
        <ele>2</ele>
        <time>2018-03-27T07:20:12Z</time>
      </trkpt>
      <trkpt lat="46.74666" lon="-1.95578">
        <ele>2</ele>
        <time>2018-03-27T07:21:12Z</time>
      </trkpt>
      <trkpt lat="46.74644" lon="-1.95576">
        <ele>2</ele>
        <time>2018-03-27T07:22:12Z</time>
      </trkpt>
      <trkpt lat="46.7462" lon="-1.95573">
        <ele>2</ele>
        <time>2018-03-27T07:23:12Z</time>
      </trkpt>
      <trkpt lat="46.74591" lon="-1.95567">
        <ele>3</ele>
        <time>2018-03-27T07:24:12Z</time>
      </trkpt>
      <trkpt lat="46.74567" lon="-1.95561">
        <ele>3</ele>
        <time>2018-03-27T07:25:12Z</time>
      </trkpt>
      <trkpt lat="46.74531" lon="-1.95554">
        <ele>2</ele>
        <time>2018-03-27T07:26:12Z</time>
      </trkpt>
      <trkpt lat="46.74509" lon="-1.95549">
        <ele>2</ele>
        <time>2018-03-27T07:27:12Z</time>
      </trkpt>
      <trkpt lat="46.74493" lon="-1.95545">
        <ele>2</ele>
        <time>2018-03-27T07:28:12Z</time>
      </trkpt>
      <trkpt lat="46.74484" lon="-1.95541">
        <ele>1</ele>
        <time>2018-03-27T07:29:12Z</time>
      </trkpt>
      <trkpt lat="46.7448" lon="-1.9554">
        <ele>1</ele>
        <time>2018-03-27T07:30:12Z</time>
      </trkpt>
      <trkpt lat="46.74469" lon="-1.95537">
        <ele>1</ele>
        <time>2018-03-27T07:31:12Z</time>
      </trkpt>
      <trkpt lat="46.74469" lon="-1.95537">
        <ele>1</ele>
        <time>2018-03-27T07:32:12Z</time>
      </trkpt>
      <trkpt lat="46.74468" lon="-1.95542">
        <ele>2</ele>
        <time>2018-03-27T07:33:12Z</time>
      </trkpt>
      <trkpt lat="46.74466" lon="-1.95544">
        <ele>2</ele>
        <time>2018-03-27T07:34:12Z</time>
      </trkpt>
      <trkpt lat="46.74464" lon="-1.95547">
        <ele>2</ele>
        <time>2018-03-27T07:35:12Z</time>
      </trkpt>
      <trkpt lat="46.74461" lon="-1.95548">
        <ele>2</ele>
        <time>2018-03-27T07:36:12Z</time>
      </trkpt>
      <trkpt lat="46.74457" lon="-1.95548">
        <ele>1</ele>
        <time>2018-03-27T07:37:12Z</time>
      </trkpt>
      <trkpt lat="46.74452" lon="-1.95546">
        <ele>1</ele>
        <time>2018-03-27T07:38:12Z</time>
      </trkpt>
      <trkpt lat="46.74448" lon="-1.95542">
        <ele>1</ele>
        <time>2018-03-27T07:39:12Z</time>
      </trkpt>
      <trkpt lat="46.74447" lon="-1.95537">
        <ele>2</ele>
        <time>2018-03-27T07:40:12Z</time>
      </trkpt>
      <trkpt lat="46.74447" lon="-1.9553">
        <ele>2</ele>
        <time>2018-03-27T07:41:12Z</time>
      </trkpt>
      <trkpt lat="46.74432" lon="-1.95514">
        <ele>2</ele>
        <time>2018-03-27T07:42:12Z</time>
      </trkpt>
      <trkpt lat="46.74425" lon="-1.95511">
        <ele>2</ele>
        <time>2018-03-27T07:43:12Z</time>
      </trkpt>
      <trkpt lat="46.74416" lon="-1.95507">
        <ele>2</ele>
        <time>2018-03-27T07:44:12Z</time>
      </trkpt>
      <trkpt lat="46.74394" lon="-1.95502">
        <ele>2</ele>
        <time>2018-03-27T07:45:12Z</time>
      </trkpt>
      <trkpt lat="46.74368" lon="-1.95497">
        <ele>1</ele>
        <time>2018-03-27T07:46:12Z</time>
      </trkpt>
      <trkpt lat="46.7433" lon="-1.9549">
        <ele>1</ele>
        <time>2018-03-27T07:47:12Z</time>
      </trkpt>
      <trkpt lat="46.74293" lon="-1.95482">
        <ele>1</ele>
        <time>2018-03-27T07:48:12Z</time>
      </trkpt>
      <trkpt lat="46.74259" lon="-1.95474">
        <ele>1</ele>
        <time>2018-03-27T07:49:12Z</time>
      </trkpt>
      <trkpt lat="46.74234" lon="-1.95466">
        <ele>1</ele>
        <time>2018-03-27T07:50:12Z</time>
      </trkpt>
      <trkpt lat="46.74206" lon="-1.95455">
        <ele>2</ele>
        <time>2018-03-27T07:51:12Z</time>
      </trkpt>
      <trkpt lat="46.74188" lon="-1.95446">
        <ele>2</ele>
        <time>2018-03-27T07:52:12Z</time>
      </trkpt>
      <trkpt lat="46.74158" lon="-1.95432">
        <ele>2</ele>
        <time>2018-03-27T07:53:12Z</time>
      </trkpt>
      <trkpt lat="46.74136" lon="-1.95419">
        <ele>2</ele>
        <time>2018-03-27T07:54:12Z</time>
      </trkpt>
      <trkpt lat="46.74111" lon="-1.95404">
        <ele>3</ele>
        <time>2018-03-27T07:55:12Z</time>
      </trkpt>
      <trkpt lat="46.74106" lon="-1.954">
        <ele>3</ele>
        <time>2018-03-27T07:56:12Z</time>
      </trkpt>
      <trkpt lat="46.74095" lon="-1.95392">
        <ele>4</ele>
        <time>2018-03-27T07:57:12Z</time>
      </trkpt>
      <trkpt lat="46.7408" lon="-1.95382">
        <ele>5</ele>
        <time>2018-03-27T07:58:12Z</time>
      </trkpt>
      <trkpt lat="46.74062" lon="-1.9537">
        <ele>5</ele>
        <time>2018-03-27T07:59:12Z</time>
      </trkpt>
      <trkpt lat="46.74038" lon="-1.95351">
        <ele>5</ele>
        <time>2018-03-27T08:00:12Z</time>
      </trkpt>
      <trkpt lat="46.7402" lon="-1.95337">
        <ele>5</ele>
        <time>2018-03-27T08:01:12Z</time>
      </trkpt>
      <trkpt lat="46.74006" lon="-1.95327">
        <ele>5</ele>
        <time>2018-03-27T08:02:12Z</time>
      </trkpt>
      <trkpt lat="46.73984" lon="-1.95313">
        <ele>4</ele>
        <time>2018-03-27T08:03:12Z</time>
      </trkpt>
      <trkpt lat="46.73962" lon="-1.95302">
        <ele>4</ele>
        <time>2018-03-27T08:04:12Z</time>
      </trkpt>
      <trkpt lat="46.73939" lon="-1.95292">
        <ele>4</ele>
        <time>2018-03-27T08:05:12Z</time>
      </trkpt>
      <trkpt lat="46.7391" lon="-1.95281">
        <ele>3</ele>
        <time>2018-03-27T08:06:12Z</time>
      </trkpt>
      <trkpt lat="46.7389" lon="-1.95273">
        <ele>3</ele>
        <time>2018-03-27T08:07:12Z</time>
      </trkpt>
      <trkpt lat="46.73862" lon="-1.95261">
        <ele>3</ele>
        <time>2018-03-27T08:08:12Z</time>
      </trkpt>
      <trkpt lat="46.73826" lon="-1.95246">
        <ele>3</ele>
        <time>2018-03-27T08:09:12Z</time>
      </trkpt>
      <trkpt lat="46.73804" lon="-1.95237">
        <ele>4</ele>
        <time>2018-03-27T08:10:12Z</time>
      </trkpt>
      <trkpt lat="46.73784" lon="-1.95228">
        <ele>4</ele>
        <time>2018-03-27T08:11:12Z</time>
      </trkpt>
      <trkpt lat="46.73762" lon="-1.95218">
        <ele>4</ele>
        <time>2018-03-27T08:12:12Z</time>
      </trkpt>
      <trkpt lat="46.73742" lon="-1.95206">
        <ele>4</ele>
        <time>2018-03-27T08:13:12Z</time>
      </trkpt>
      <trkpt lat="46.73714" lon="-1.95191">
        <ele>3</ele>
        <time>2018-03-27T08:14:12Z</time>
      </trkpt>
      <trkpt lat="46.73687" lon="-1.95175">
        <ele>3</ele>
        <time>2018-03-27T08:15:12Z</time>
      </trkpt>
      <trkpt lat="46.73663" lon="-1.95161">
        <ele>3</ele>
        <time>2018-03-27T08:16:12Z</time>
      </trkpt>
      <trkpt lat="46.73662" lon="-1.9516">
        <ele>3</ele>
        <time>2018-03-27T08:17:12Z</time>
      </trkpt>
      <trkpt lat="46.73634" lon="-1.95144">
        <ele>2</ele>
        <time>2018-03-27T08:18:12Z</time>
      </trkpt>
      <trkpt lat="46.73609" lon="-1.9513">
        <ele>2</ele>
        <time>2018-03-27T08:19:12Z</time>
      </trkpt>
      <trkpt lat="46.73589" lon="-1.95117">
        <ele>2</ele>
        <time>2018-03-27T08:20:12Z</time>
      </trkpt>
      <trkpt lat="46.73573" lon="-1.95108">
        <ele>2</ele>
        <time>2018-03-27T08:21:12Z</time>
      </trkpt>
      <trkpt lat="46.73559" lon="-1.951">
        <ele>3</ele>
        <time>2018-03-27T08:22:12Z</time>
      </trkpt>
      <trkpt lat="46.73533" lon="-1.95087">
        <ele>3</ele>
        <time>2018-03-27T08:23:12Z</time>
      </trkpt>
      <trkpt lat="46.73524" lon="-1.95083">
        <ele>4</ele>
        <time>2018-03-27T08:24:12Z</time>
      </trkpt>
      <trkpt lat="46.73513" lon="-1.95077">
        <ele>4</ele>
        <time>2018-03-27T08:25:12Z</time>
      </trkpt>
      <trkpt lat="46.73507" lon="-1.95073">
        <ele>4</ele>
        <time>2018-03-27T08:26:12Z</time>
      </trkpt>
      <trkpt lat="46.73501" lon="-1.95069">
        <ele>4</ele>
        <time>2018-03-27T08:27:12Z</time>
      </trkpt>
      <trkpt lat="46.73497" lon="-1.95067">
        <ele>4</ele>
        <time>2018-03-27T08:28:12Z</time>
      </trkpt>
      <trkpt lat="46.7349" lon="-1.95067">
        <ele>4</ele>
        <time>2018-03-27T08:29:12Z</time>
      </trkpt>
      <trkpt lat="46.73483" lon="-1.95069">
        <ele>4</ele>
        <time>2018-03-27T08:30:12Z</time>
      </trkpt>
      <trkpt lat="46.73475" lon="-1.9507">
        <ele>4</ele>
        <time>2018-03-27T08:31:12Z</time>
      </trkpt>
      <trkpt lat="46.7347" lon="-1.9507">
        <ele>4</ele>
        <time>2018-03-27T08:32:12Z</time>
      </trkpt>
      <trkpt lat="46.73467" lon="-1.95069">
        <ele>4</ele>
        <time>2018-03-27T08:33:12Z</time>
      </trkpt>
      <trkpt lat="46.73456" lon="-1.95066">
        <ele>5</ele>
        <time>2018-03-27T08:34:12Z</time>
      </trkpt>
      <trkpt lat="46.73447" lon="-1.95064">
        <ele>5</ele>
        <time>2018-03-27T08:35:12Z</time>
      </trkpt>
      <trkpt lat="46.73421" lon="-1.9506">
        <ele>5</ele>
        <time>2018-03-27T08:36:12Z</time>
      </trkpt>
      <trkpt lat="46.73413" lon="-1.95056">
        <ele>5</ele>
        <time>2018-03-27T08:37:12Z</time>
      </trkpt>
      <trkpt lat="46.73392" lon="-1.95052">
        <ele>4</ele>
        <time>2018-03-27T08:38:12Z</time>
      </trkpt>
      <trkpt lat="46.73347" lon="-1.95044">
        <ele>4</ele>
        <time>2018-03-27T08:39:12Z</time>
      </trkpt>
      <trkpt lat="46.73309" lon="-1.95037">
        <ele>4</ele>
        <time>2018-03-27T08:40:12Z</time>
      </trkpt>
      <trkpt lat="46.73267" lon="-1.95029">
        <ele>4</ele>
        <time>2018-03-27T08:41:12Z</time>
      </trkpt>
      <trkpt lat="46.73184" lon="-1.95014">
        <ele>6</ele>
        <time>2018-03-27T08:42:12Z</time>
      </trkpt>
      <trkpt lat="46.73133" lon="-1.95002">
        <ele>7</ele>
        <time>2018-03-27T08:43:12Z</time>
      </trkpt>
      <trkpt lat="46.73121" lon="-1.95001">
        <ele>7</ele>
        <time>2018-03-27T08:44:12Z</time>
      </trkpt>
      <trkpt lat="46.73114" lon="-1.94997">
        <ele>7</ele>
        <time>2018-03-27T08:45:12Z</time>
      </trkpt>
      <trkpt lat="46.73055" lon="-1.94978">
        <ele>7</ele>
        <time>2018-03-27T08:46:12Z</time>
      </trkpt>
      <trkpt lat="46.73025" lon="-1.94967">
        <ele>6</ele>
        <time>2018-03-27T08:47:12Z</time>
      </trkpt>
      <trkpt lat="46.73" lon="-1.94957">
        <ele>5</ele>
        <time>2018-03-27T08:48:12Z</time>
      </trkpt>
      <trkpt lat="46.7298" lon="-1.9495">
        <ele>5</ele>
        <time>2018-03-27T08:49:12Z</time>
      </trkpt>
      <trkpt lat="46.72956" lon="-1.94942">
        <ele>5</ele>
        <time>2018-03-27T08:50:12Z</time>
      </trkpt>
      <trkpt lat="46.72938" lon="-1.94935">
        <ele>4</ele>
        <time>2018-03-27T08:51:12Z</time>
      </trkpt>
      <trkpt lat="46.72925" lon="-1.9493">
        <ele>4</ele>
        <time>2018-03-27T08:52:12Z</time>
      </trkpt>
      <trkpt lat="46.72917" lon="-1.94928">
        <ele>4</ele>
        <time>2018-03-27T08:53:12Z</time>
      </trkpt>
      <trkpt lat="46.72906" lon="-1.94925">
        <ele>4</ele>
        <time>2018-03-27T08:54:12Z</time>
      </trkpt>
      <trkpt lat="46.72898" lon="-1.94923">
        <ele>4</ele>
        <time>2018-03-27T08:55:12Z</time>
      </trkpt>
      <trkpt lat="46.72891" lon="-1.94922">
        <ele>4</ele>
        <time>2018-03-27T08:56:12Z</time>
      </trkpt>
      <trkpt lat="46.72884" lon="-1.94922">
        <ele>4</ele>
        <time>2018-03-27T08:57:12Z</time>
      </trkpt>
      <trkpt lat="46.72852" lon="-1.94927">
        <ele>4</ele>
        <time>2018-03-27T08:58:12Z</time>
      </trkpt>
      <trkpt lat="46.72831" lon="-1.94934">
        <ele>4</ele>
        <time>2018-03-27T08:59:12Z</time>
      </trkpt>
      <trkpt lat="46.72823" lon="-1.94937">
        <ele>4</ele>
        <time>2018-03-27T09:00:12Z</time>
      </trkpt>
      <trkpt lat="46.72811" lon="-1.94943">
        <ele>4</ele>
        <time>2018-03-27T09:01:12Z</time>
      </trkpt>
      <trkpt lat="46.72811" lon="-1.94943">
        <ele>4</ele>
        <time>2018-03-27T09:02:12Z</time>
      </trkpt>
      <trkpt lat="46.7281" lon="-1.94944">
        <ele>4</ele>
        <time>2018-03-27T09:03:12Z</time>
      </trkpt>
      <trkpt lat="46.7281" lon="-1.94946">
        <ele>4</ele>
        <time>2018-03-27T09:04:12Z</time>
      </trkpt>
      <trkpt lat="46.72809" lon="-1.94947">
        <ele>4</ele>
        <time>2018-03-27T09:05:12Z</time>
      </trkpt>
      <trkpt lat="46.72808" lon="-1.94949">
        <ele>4</ele>
        <time>2018-03-27T09:06:12Z</time>
      </trkpt>
      <trkpt lat="46.72807" lon="-1.9495">
        <ele>4</ele>
        <time>2018-03-27T09:07:12Z</time>
      </trkpt>
      <trkpt lat="46.72806" lon="-1.94952">
        <ele>4</ele>
        <time>2018-03-27T09:08:12Z</time>
      </trkpt>
      <trkpt lat="46.72805" lon="-1.94953">
        <ele>4</ele>
        <time>2018-03-27T09:09:12Z</time>
      </trkpt>
      <trkpt lat="46.72804" lon="-1.94955">
        <ele>4</ele>
        <time>2018-03-27T09:10:12Z</time>
      </trkpt>
      <trkpt lat="46.72801" lon="-1.94958">
        <ele>4</ele>
        <time>2018-03-27T09:11:12Z</time>
      </trkpt>
      <trkpt lat="46.72798" lon="-1.94961">
        <ele>4</ele>
        <time>2018-03-27T09:12:12Z</time>
      </trkpt>
      <trkpt lat="46.72795" lon="-1.94963">
        <ele>4</ele>
        <time>2018-03-27T09:13:12Z</time>
      </trkpt>
      <trkpt lat="46.72792" lon="-1.94965">
        <ele>4</ele>
        <time>2018-03-27T09:14:12Z</time>
      </trkpt>
      <trkpt lat="46.72788" lon="-1.94966">
        <ele>4</ele>
        <time>2018-03-27T09:15:12Z</time>
      </trkpt>
      <trkpt lat="46.72784" lon="-1.94967">
        <ele>4</ele>
        <time>2018-03-27T09:16:12Z</time>
      </trkpt>
      <trkpt lat="46.72781" lon="-1.94967">
        <ele>4</ele>
        <time>2018-03-27T09:17:12Z</time>
      </trkpt>
      <trkpt lat="46.72777" lon="-1.94967">
        <ele>4</ele>
        <time>2018-03-27T09:18:12Z</time>
      </trkpt>
      <trkpt lat="46.72776" lon="-1.94967">
        <ele>4</ele>
        <time>2018-03-27T09:19:12Z</time>
      </trkpt>
      <trkpt lat="46.72775" lon="-1.94966">
        <ele>4</ele>
        <time>2018-03-27T09:20:12Z</time>
      </trkpt>
      <trkpt lat="46.72774" lon="-1.94966">
        <ele>4</ele>
        <time>2018-03-27T09:21:12Z</time>
      </trkpt>
      <trkpt lat="46.72773" lon="-1.94966">
        <ele>4</ele>
        <time>2018-03-27T09:22:12Z</time>
      </trkpt>
      <trkpt lat="46.72772" lon="-1.94965">
        <ele>4</ele>
        <time>2018-03-27T09:23:12Z</time>
      </trkpt>
      <trkpt lat="46.72771" lon="-1.94965">
        <ele>4</ele>
        <time>2018-03-27T09:24:12Z</time>
      </trkpt>
      <trkpt lat="46.7277" lon="-1.94964">
        <ele>4</ele>
        <time>2018-03-27T09:25:12Z</time>
      </trkpt>
      <trkpt lat="46.72768" lon="-1.94964">
        <ele>4</ele>
        <time>2018-03-27T09:26:12Z</time>
      </trkpt>
      <trkpt lat="46.72767" lon="-1.94963">
        <ele>4</ele>
        <time>2018-03-27T09:27:12Z</time>
      </trkpt>
      <trkpt lat="46.72766" lon="-1.94962">
        <ele>4</ele>
        <time>2018-03-27T09:28:12Z</time>
      </trkpt>
      <trkpt lat="46.72765" lon="-1.94961">
        <ele>4</ele>
        <time>2018-03-27T09:29:12Z</time>
      </trkpt>
      <trkpt lat="46.72764" lon="-1.94961">
        <ele>4</ele>
        <time>2018-03-27T09:30:12Z</time>
      </trkpt>
      <trkpt lat="46.72763" lon="-1.9496">
        <ele>4</ele>
        <time>2018-03-27T09:31:12Z</time>
      </trkpt>
      <trkpt lat="46.72762" lon="-1.94959">
        <ele>4</ele>
        <time>2018-03-27T09:32:12Z</time>
      </trkpt>
      <trkpt lat="46.72761" lon="-1.94958">
        <ele>4</ele>
        <time>2018-03-27T09:33:12Z</time>
      </trkpt>
      <trkpt lat="46.72745" lon="-1.94954">
        <ele>4</ele>
        <time>2018-03-27T09:34:12Z</time>
      </trkpt>
      <trkpt lat="46.72736" lon="-1.94951">
        <ele>4</ele>
        <time>2018-03-27T09:35:12Z</time>
      </trkpt>
      <trkpt lat="46.72724" lon="-1.94945">
        <ele>4</ele>
        <time>2018-03-27T09:36:12Z</time>
      </trkpt>
      <trkpt lat="46.72714" lon="-1.94947">
        <ele>4</ele>
        <time>2018-03-27T09:37:12Z</time>
      </trkpt>
      <trkpt lat="46.72698" lon="-1.94948">
        <ele>4</ele>
        <time>2018-03-27T09:38:12Z</time>
      </trkpt>
      <trkpt lat="46.72689" lon="-1.9495">
        <ele>4</ele>
        <time>2018-03-27T09:39:12Z</time>
      </trkpt>
      <trkpt lat="46.72686" lon="-1.9495">
        <ele>4</ele>
        <time>2018-03-27T09:40:12Z</time>
      </trkpt>
      <trkpt lat="46.72674" lon="-1.94952">
        <ele>4</ele>
        <time>2018-03-27T09:41:12Z</time>
      </trkpt>
      <trkpt lat="46.72657" lon="-1.94954">
        <ele>4</ele>
        <time>2018-03-27T09:42:12Z</time>
      </trkpt>
      <trkpt lat="46.72642" lon="-1.94954">
        <ele>4</ele>
        <time>2018-03-27T09:43:12Z</time>
      </trkpt>
      <trkpt lat="46.72624" lon="-1.94953">
        <ele>4</ele>
        <time>2018-03-27T09:44:12Z</time>
      </trkpt>
      <trkpt lat="46.7261" lon="-1.94952">
        <ele>4</ele>
        <time>2018-03-27T09:45:12Z</time>
      </trkpt>
      <trkpt lat="46.72594" lon="-1.9495">
        <ele>4</ele>
        <time>2018-03-27T09:46:12Z</time>
      </trkpt>
      <trkpt lat="46.72578" lon="-1.94948">
        <ele>4</ele>
        <time>2018-03-27T09:47:12Z</time>
      </trkpt>
      <trkpt lat="46.72566" lon="-1.94946">
        <ele>5</ele>
        <time>2018-03-27T09:48:12Z</time>
      </trkpt>
      <trkpt lat="46.72553" lon="-1.94943">
        <ele>5</ele>
        <time>2018-03-27T09:49:12Z</time>
      </trkpt>
      <trkpt lat="46.72537" lon="-1.94939">
        <ele>5</ele>
        <time>2018-03-27T09:50:12Z</time>
      </trkpt>
      <trkpt lat="46.72525" lon="-1.94935">
        <ele>5</ele>
        <time>2018-03-27T09:51:12Z</time>
      </trkpt>
      <trkpt lat="46.72511" lon="-1.94929">
        <ele>5</ele>
        <time>2018-03-27T09:52:12Z</time>
      </trkpt>
      <trkpt lat="46.72495" lon="-1.94922">
        <ele>5</ele>
        <time>2018-03-27T09:53:12Z</time>
      </trkpt>
      <trkpt lat="46.72485" lon="-1.94918">
        <ele>5</ele>
        <time>2018-03-27T09:54:12Z</time>
      </trkpt>
      <trkpt lat="46.72476" lon="-1.94915">
        <ele>5</ele>
        <time>2018-03-27T09:55:12Z</time>
      </trkpt>
      <trkpt lat="46.72468" lon="-1.94912">
        <ele>5</ele>
        <time>2018-03-27T09:56:12Z</time>
      </trkpt>
      <trkpt lat="46.72461" lon="-1.94909">
        <ele>5</ele>
        <time>2018-03-27T09:57:12Z</time>
      </trkpt>
      <trkpt lat="46.72452" lon="-1.94907">
        <ele>6</ele>
        <time>2018-03-27T09:58:12Z</time>
      </trkpt>
      <trkpt lat="46.72444" lon="-1.94906">
        <ele>6</ele>
        <time>2018-03-27T09:59:12Z</time>
      </trkpt>
      <trkpt lat="46.72435" lon="-1.94906">
        <ele>6</ele>
        <time>2018-03-27T10:00:12Z</time>
      </trkpt>
      <trkpt lat="46.72423" lon="-1.94905">
        <ele>6</ele>
        <time>2018-03-27T10:01:12Z</time>
      </trkpt>
      <trkpt lat="46.72416" lon="-1.94905">
        <ele>6</ele>
        <time>2018-03-27T10:02:12Z</time>
      </trkpt>
      <trkpt lat="46.72406" lon="-1.94904">
        <ele>6</ele>
        <time>2018-03-27T10:03:12Z</time>
      </trkpt>
      <trkpt lat="46.72393" lon="-1.94904">
        <ele>6</ele>
        <time>2018-03-27T10:04:12Z</time>
      </trkpt>
      <trkpt lat="46.72384" lon="-1.94904">
        <ele>6</ele>
        <time>2018-03-27T10:05:12Z</time>
      </trkpt>
      <trkpt lat="46.72377" lon="-1.94905">
        <ele>6</ele>
        <time>2018-03-27T10:06:12Z</time>
      </trkpt>
      <trkpt lat="46.72368" lon="-1.94908">
        <ele>7</ele>
        <time>2018-03-27T10:07:12Z</time>
      </trkpt>
      <trkpt lat="46.72359" lon="-1.94911">
        <ele>7</ele>
        <time>2018-03-27T10:08:12Z</time>
      </trkpt>
      <trkpt lat="46.72359" lon="-1.94911">
        <ele>7</ele>
        <time>2018-03-27T10:09:12Z</time>
      </trkpt>
      <trkpt lat="46.72359" lon="-1.94915">
        <ele>7</ele>
        <time>2018-03-27T10:10:12Z</time>
      </trkpt>
      <trkpt lat="46.72358" lon="-1.94918">
        <ele>7</ele>
        <time>2018-03-27T10:11:12Z</time>
      </trkpt>
      <trkpt lat="46.72356" lon="-1.94921">
        <ele>7</ele>
        <time>2018-03-27T10:12:12Z</time>
      </trkpt>
      <trkpt lat="46.72355" lon="-1.94922">
        <ele>7</ele>
        <time>2018-03-27T10:13:12Z</time>
      </trkpt>
      <trkpt lat="46.72353" lon="-1.94923">
        <ele>7</ele>
        <time>2018-03-27T10:14:12Z</time>
      </trkpt>
      <trkpt lat="46.72351" lon="-1.94924">
        <ele>7</ele>
        <time>2018-03-27T10:15:12Z</time>
      </trkpt>
      <trkpt lat="46.72348" lon="-1.94924">
        <ele>7</ele>
        <time>2018-03-27T10:16:12Z</time>
      </trkpt>
      <trkpt lat="46.72345" lon="-1.94924">
        <ele>7</ele>
        <time>2018-03-27T10:17:12Z</time>
      </trkpt>
      <trkpt lat="46.72343" lon="-1.94923">
        <ele>7</ele>
        <time>2018-03-27T10:18:12Z</time>
      </trkpt>
      <trkpt lat="46.72341" lon="-1.9492">
        <ele>7</ele>
        <time>2018-03-27T10:19:12Z</time>
      </trkpt>
      <trkpt lat="46.72339" lon="-1.94918">
        <ele>7</ele>
        <time>2018-03-27T10:20:12Z</time>
      </trkpt>
      <trkpt lat="46.72338" lon="-1.94914">
        <ele>7</ele>
        <time>2018-03-27T10:21:12Z</time>
      </trkpt>
      <trkpt lat="46.72338" lon="-1.94911">
        <ele>7</ele>
        <time>2018-03-27T10:22:12Z</time>
      </trkpt>
      <trkpt lat="46.72338" lon="-1.94909">
        <ele>7</ele>
        <time>2018-03-27T10:23:12Z</time>
      </trkpt>
      <trkpt lat="46.72332" lon="-1.94895">
        <ele>7</ele>
        <time>2018-03-27T10:24:12Z</time>
      </trkpt>
      <trkpt lat="46.72332" lon="-1.94895">
        <ele>7</ele>
        <time>2018-03-27T10:25:12Z</time>
      </trkpt>
      <trkpt lat="46.72323" lon="-1.94892">
        <ele>7</ele>
        <time>2018-03-27T10:26:12Z</time>
      </trkpt>
      <trkpt lat="46.72313" lon="-1.94888">
        <ele>7</ele>
        <time>2018-03-27T10:27:12Z</time>
      </trkpt>
      <trkpt lat="46.72301" lon="-1.94886">
        <ele>7</ele>
        <time>2018-03-27T10:28:12Z</time>
      </trkpt>
      <trkpt lat="46.72279" lon="-1.9488">
        <ele>8</ele>
        <time>2018-03-27T10:29:12Z</time>
      </trkpt>
      <trkpt lat="46.72229" lon="-1.94864">
        <ele>9</ele>
        <time>2018-03-27T10:30:12Z</time>
      </trkpt>
      <trkpt lat="46.72173" lon="-1.94851">
        <ele>9</ele>
        <time>2018-03-27T10:31:12Z</time>
      </trkpt>
      <trkpt lat="46.72135" lon="-1.9485">
        <ele>10</ele>
        <time>2018-03-27T10:32:12Z</time>
      </trkpt>
      <trkpt lat="46.72103" lon="-1.94856">
        <ele>11</ele>
        <time>2018-03-27T10:33:12Z</time>
      </trkpt>
      <trkpt lat="46.72072" lon="-1.94873">
        <ele>12</ele>
        <time>2018-03-27T10:34:12Z</time>
      </trkpt>
      <trkpt lat="46.72056" lon="-1.94881">
        <ele>12</ele>
        <time>2018-03-27T10:35:12Z</time>
      </trkpt>
      <trkpt lat="46.72036" lon="-1.94891">
        <ele>12</ele>
        <time>2018-03-27T10:36:12Z</time>
      </trkpt>
      <trkpt lat="46.72021" lon="-1.94898">
        <ele>12</ele>
        <time>2018-03-27T10:37:12Z</time>
      </trkpt>
      <trkpt lat="46.71992" lon="-1.9491">
        <ele>13</ele>
        <time>2018-03-27T10:38:12Z</time>
      </trkpt>
      <trkpt lat="46.71969" lon="-1.94918">
        <ele>13</ele>
        <time>2018-03-27T10:39:12Z</time>
      </trkpt>
      <trkpt lat="46.71948" lon="-1.94924">
        <ele>14</ele>
        <time>2018-03-27T10:40:12Z</time>
      </trkpt>
      <trkpt lat="46.71914" lon="-1.94934">
        <ele>14</ele>
        <time>2018-03-27T10:41:12Z</time>
      </trkpt>
      <trkpt lat="46.71894" lon="-1.9494">
        <ele>14</ele>
        <time>2018-03-27T10:42:12Z</time>
      </trkpt>
      <trkpt lat="46.71878" lon="-1.94946">
        <ele>14</ele>
        <time>2018-03-27T10:43:12Z</time>
      </trkpt>
      <trkpt lat="46.71868" lon="-1.94951">
        <ele>14</ele>
        <time>2018-03-27T10:44:12Z</time>
      </trkpt>
      <trkpt lat="46.7186" lon="-1.94957">
        <ele>14</ele>
        <time>2018-03-27T10:45:12Z</time>
      </trkpt>
      <trkpt lat="46.71849" lon="-1.94963">
        <ele>14</ele>
        <time>2018-03-27T10:46:12Z</time>
      </trkpt>
      <trkpt lat="46.71836" lon="-1.94967">
        <ele>14</ele>
        <time>2018-03-27T10:47:12Z</time>
      </trkpt>
      <trkpt lat="46.71814" lon="-1.94979">
        <ele>15</ele>
        <time>2018-03-27T10:48:12Z</time>
      </trkpt>
      <trkpt lat="46.71778" lon="-1.94996">
        <ele>15</ele>
        <time>2018-03-27T10:49:12Z</time>
      </trkpt>
      <trkpt lat="46.71752" lon="-1.95011">
        <ele>16</ele>
        <time>2018-03-27T10:50:12Z</time>
      </trkpt>
      <trkpt lat="46.71729" lon="-1.95025">
        <ele>17</ele>
        <time>2018-03-27T10:51:12Z</time>
      </trkpt>
      <trkpt lat="46.717" lon="-1.95043">
        <ele>17</ele>
        <time>2018-03-27T10:52:12Z</time>
      </trkpt>
      <trkpt lat="46.7167" lon="-1.95065">
        <ele>18</ele>
        <time>2018-03-27T10:53:12Z</time>
      </trkpt>
      <trkpt lat="46.71654" lon="-1.95077">
        <ele>18</ele>
        <time>2018-03-27T10:54:12Z</time>
      </trkpt>
      <trkpt lat="46.71639" lon="-1.95089">
        <ele>18</ele>
        <time>2018-03-27T10:55:12Z</time>
      </trkpt>
      <trkpt lat="46.71605" lon="-1.95115">
        <ele>18</ele>
        <time>2018-03-27T10:56:12Z</time>
      </trkpt>
      <trkpt lat="46.71604" lon="-1.95116">
        <ele>18</ele>
        <time>2018-03-27T10:57:12Z</time>
      </trkpt>
      <trkpt lat="46.71603" lon="-1.95116">
        <ele>18</ele>
        <time>2018-03-27T10:58:12Z</time>
      </trkpt>
      <trkpt lat="46.71567" lon="-1.95143">
        <ele>18</ele>
        <time>2018-03-27T10:59:12Z</time>
      </trkpt>
      <trkpt lat="46.71561" lon="-1.95149">
        <ele>18</ele>
        <time>2018-03-27T11:00:12Z</time>
      </trkpt>
      <trkpt lat="46.71532" lon="-1.95171">
        <ele>18</ele>
        <time>2018-03-27T11:01:12Z</time>
      </trkpt>
      <trkpt lat="46.71495" lon="-1.95201">
        <ele>18</ele>
        <time>2018-03-27T11:02:12Z</time>
      </trkpt>
      <trkpt lat="46.71468" lon="-1.95228">
        <ele>17</ele>
        <time>2018-03-27T11:03:12Z</time>
      </trkpt>
      <trkpt lat="46.71444" lon="-1.95256">
        <ele>18</ele>
        <time>2018-03-27T11:04:12Z</time>
      </trkpt>
      <trkpt lat="46.71427" lon="-1.95277">
        <ele>18</ele>
        <time>2018-03-27T11:05:12Z</time>
      </trkpt>
      <trkpt lat="46.71422" lon="-1.95284">
        <ele>18</ele>
        <time>2018-03-27T11:06:12Z</time>
      </trkpt>
      <trkpt lat="46.71422" lon="-1.95284">
        <ele>18</ele>
        <time>2018-03-27T11:07:12Z</time>
      </trkpt>
      <trkpt lat="46.71423" lon="-1.95286">
        <ele>18</ele>
        <time>2018-03-27T11:08:12Z</time>
      </trkpt>
      <trkpt lat="46.71423" lon="-1.95288">
        <ele>18</ele>
        <time>2018-03-27T11:09:12Z</time>
      </trkpt>
      <trkpt lat="46.71423" lon="-1.9529">
        <ele>17</ele>
        <time>2018-03-27T11:10:12Z</time>
      </trkpt>
      <trkpt lat="46.71423" lon="-1.95293">
        <ele>17</ele>
        <time>2018-03-27T11:11:12Z</time>
      </trkpt>
      <trkpt lat="46.71422" lon="-1.95296">
        <ele>17</ele>
        <time>2018-03-27T11:12:12Z</time>
      </trkpt>
      <trkpt lat="46.71422" lon="-1.95297">
        <ele>17</ele>
        <time>2018-03-27T11:13:12Z</time>
      </trkpt>
      <trkpt lat="46.7142" lon="-1.953">
        <ele>17</ele>
        <time>2018-03-27T11:14:12Z</time>
      </trkpt>
      <trkpt lat="46.71418" lon="-1.95302">
        <ele>17</ele>
        <time>2018-03-27T11:15:12Z</time>
      </trkpt>
      <trkpt lat="46.71416" lon="-1.95303">
        <ele>17</ele>
        <time>2018-03-27T11:16:12Z</time>
      </trkpt>
      <trkpt lat="46.71414" lon="-1.95303">
        <ele>17</ele>
        <time>2018-03-27T11:17:12Z</time>
      </trkpt>
      <trkpt lat="46.71412" lon="-1.95302">
        <ele>17</ele>
        <time>2018-03-27T11:18:12Z</time>
      </trkpt>
      <trkpt lat="46.7141" lon="-1.95301">
        <ele>17</ele>
        <time>2018-03-27T11:19:12Z</time>
      </trkpt>
      <trkpt lat="46.71408" lon="-1.95299">
        <ele>17</ele>
        <time>2018-03-27T11:20:12Z</time>
      </trkpt>
      <trkpt lat="46.71407" lon="-1.95296">
        <ele>17</ele>
        <time>2018-03-27T11:21:12Z</time>
      </trkpt>
      <trkpt lat="46.71406" lon="-1.95293">
        <ele>17</ele>
        <time>2018-03-27T11:22:12Z</time>
      </trkpt>
      <trkpt lat="46.71405" lon="-1.9529">
        <ele>18</ele>
        <time>2018-03-27T11:23:12Z</time>
      </trkpt>
      <trkpt lat="46.71401" lon="-1.95291">
        <ele>18</ele>
        <time>2018-03-27T11:24:12Z</time>
      </trkpt>
      <trkpt lat="46.71393" lon="-1.95292">
        <ele>17</ele>
        <time>2018-03-27T11:25:12Z</time>
      </trkpt>
      <trkpt lat="46.7139" lon="-1.9529">
        <ele>18</ele>
        <time>2018-03-27T11:26:12Z</time>
      </trkpt>
      <trkpt lat="46.71384" lon="-1.95292">
        <ele>17</ele>
        <time>2018-03-27T11:27:12Z</time>
      </trkpt>
      <trkpt lat="46.71377" lon="-1.95294">
        <ele>17</ele>
        <time>2018-03-27T11:28:12Z</time>
      </trkpt>
      <trkpt lat="46.71371" lon="-1.95296">
        <ele>17</ele>
        <time>2018-03-27T11:29:12Z</time>
      </trkpt>
      <trkpt lat="46.71343" lon="-1.95296">
        <ele>17</ele>
        <time>2018-03-27T11:30:12Z</time>
      </trkpt>
      <trkpt lat="46.71336" lon="-1.95296">
        <ele>17</ele>
        <time>2018-03-27T11:31:12Z</time>
      </trkpt>
      <trkpt lat="46.71317" lon="-1.95296">
        <ele>17</ele>
        <time>2018-03-27T11:32:12Z</time>
      </trkpt>
      <trkpt lat="46.71281" lon="-1.95294">
        <ele>17</ele>
        <time>2018-03-27T11:33:12Z</time>
      </trkpt>
      <trkpt lat="46.71262" lon="-1.95293">
        <ele>17</ele>
        <time>2018-03-27T11:34:12Z</time>
      </trkpt>
      <trkpt lat="46.71256" lon="-1.95293">
        <ele>17</ele>
        <time>2018-03-27T11:35:12Z</time>
      </trkpt>
      <trkpt lat="46.71237" lon="-1.95291">
        <ele>18</ele>
        <time>2018-03-27T11:36:12Z</time>
      </trkpt>
      <trkpt lat="46.71219" lon="-1.95289">
        <ele>18</ele>
        <time>2018-03-27T11:37:12Z</time>
      </trkpt>
      <trkpt lat="46.71205" lon="-1.95288">
        <ele>17</ele>
        <time>2018-03-27T11:38:12Z</time>
      </trkpt>
      <trkpt lat="46.71184" lon="-1.9529">
        <ele>17</ele>
        <time>2018-03-27T11:39:12Z</time>
      </trkpt>
      <trkpt lat="46.71171" lon="-1.95291">
        <ele>17</ele>
        <time>2018-03-27T11:40:12Z</time>
      </trkpt>
      <trkpt lat="46.71168" lon="-1.95291">
        <ele>17</ele>
        <time>2018-03-27T11:41:12Z</time>
      </trkpt>
      <trkpt lat="46.71164" lon="-1.95291">
        <ele>17</ele>
        <time>2018-03-27T11:42:12Z</time>
      </trkpt>
      <trkpt lat="46.71159" lon="-1.9529">
        <ele>17</ele>
        <time>2018-03-27T11:43:12Z</time>
      </trkpt>
      <trkpt lat="46.71158" lon="-1.9529">
        <ele>17</ele>
        <time>2018-03-27T11:44:12Z</time>
      </trkpt>
      <trkpt lat="46.71142" lon="-1.95285">
        <ele>17</ele>
        <time>2018-03-27T11:45:12Z</time>
      </trkpt>
      <trkpt lat="46.71122" lon="-1.95278">
        <ele>17</ele>
        <time>2018-03-27T11:46:12Z</time>
      </trkpt>
      <trkpt lat="46.71099" lon="-1.95269">
        <ele>17</ele>
        <time>2018-03-27T11:47:12Z</time>
      </trkpt>
      <trkpt lat="46.71083" lon="-1.95264">
        <ele>17</ele>
        <time>2018-03-27T11:48:12Z</time>
      </trkpt>
      <trkpt lat="46.71073" lon="-1.95259">
        <ele>17</ele>
        <time>2018-03-27T11:49:12Z</time>
      </trkpt>
      <trkpt lat="46.71062" lon="-1.95252">
        <ele>17</ele>
        <time>2018-03-27T11:50:12Z</time>
      </trkpt>
      <trkpt lat="46.71053" lon="-1.95246">
        <ele>17</ele>
        <time>2018-03-27T11:51:12Z</time>
      </trkpt>
      <trkpt lat="46.71044" lon="-1.95238">
        <ele>17</ele>
        <time>2018-03-27T11:52:12Z</time>
      </trkpt>
      <trkpt lat="46.71036" lon="-1.95233">
        <ele>17</ele>
        <time>2018-03-27T11:53:12Z</time>
      </trkpt>
      <trkpt lat="46.7103" lon="-1.9523">
        <ele>17</ele>
        <time>2018-03-27T11:54:12Z</time>
      </trkpt>
      <trkpt lat="46.71025" lon="-1.95228">
        <ele>17</ele>
        <time>2018-03-27T11:55:12Z</time>
      </trkpt>
      <trkpt lat="46.71018" lon="-1.95227">
        <ele>17</ele>
        <time>2018-03-27T11:56:12Z</time>
      </trkpt>
      <trkpt lat="46.71018" lon="-1.95227">
        <ele>17</ele>
        <time>2018-03-27T11:57:12Z</time>
      </trkpt>
      <trkpt lat="46.71015" lon="-1.95188">
        <ele>17</ele>
        <time>2018-03-27T11:58:12Z</time>
      </trkpt>
      <trkpt lat="46.71012" lon="-1.95149">
        <ele>17</ele>
        <time>2018-03-27T11:59:12Z</time>
      </trkpt>
      <trkpt lat="46.71007" lon="-1.95088">
        <ele>17</ele>
        <time>2018-03-27T12:00:12Z</time>
      </trkpt>
      <trkpt lat="46.71007" lon="-1.95076">
        <ele>17</ele>
        <time>2018-03-27T12:01:12Z</time>
      </trkpt>
      <trkpt lat="46.71006" lon="-1.95067">
        <ele>17</ele>
        <time>2018-03-27T12:02:12Z</time>
      </trkpt>
      <trkpt lat="46.71003" lon="-1.95044">
        <ele>17</ele>
        <time>2018-03-27T12:03:12Z</time>
      </trkpt>
      <trkpt lat="46.71003" lon="-1.95044">
        <ele>17</ele>
        <time>2018-03-27T12:04:12Z</time>
      </trkpt>
      <trkpt lat="46.7098" lon="-1.95048">
        <ele>16</ele>
        <time>2018-03-27T12:05:12Z</time>
      </trkpt>
      <trkpt lat="46.70962" lon="-1.9505">
        <ele>16</ele>
        <time>2018-03-27T12:06:12Z</time>
      </trkpt>
      <trkpt lat="46.70945" lon="-1.95051">
        <ele>16</ele>
        <time>2018-03-27T12:07:12Z</time>
      </trkpt>
      <trkpt lat="46.70861" lon="-1.95051">
        <ele>16</ele>
        <time>2018-03-27T12:08:12Z</time>
      </trkpt>
      <trkpt lat="46.70837" lon="-1.95052">
        <ele>16</ele>
        <time>2018-03-27T12:09:12Z</time>
      </trkpt>
      <trkpt lat="46.70814" lon="-1.95056">
        <ele>16</ele>
        <time>2018-03-27T12:10:12Z</time>
      </trkpt>
      <trkpt lat="46.708" lon="-1.9506">
        <ele>16</ele>
        <time>2018-03-27T12:11:12Z</time>
      </trkpt>
      <trkpt lat="46.7078" lon="-1.95067">
        <ele>16</ele>
        <time>2018-03-27T12:12:12Z</time>
      </trkpt>
      <trkpt lat="46.70769" lon="-1.95072">
        <ele>16</ele>
        <time>2018-03-27T12:13:12Z</time>
      </trkpt>
      <trkpt lat="46.70752" lon="-1.9508">
        <ele>16</ele>
        <time>2018-03-27T12:14:12Z</time>
      </trkpt>
      <trkpt lat="46.70717" lon="-1.95098">
        <ele>15</ele>
        <time>2018-03-27T12:15:12Z</time>
      </trkpt>
      <trkpt lat="46.70684" lon="-1.95112">
        <ele>14</ele>
        <time>2018-03-27T12:16:12Z</time>
      </trkpt>
      <trkpt lat="46.70652" lon="-1.95119">
        <ele>14</ele>
        <time>2018-03-27T12:17:12Z</time>
      </trkpt>
      <trkpt lat="46.70622" lon="-1.95125">
        <ele>13</ele>
        <time>2018-03-27T12:18:12Z</time>
      </trkpt>
      <trkpt lat="46.70612" lon="-1.95126">
        <ele>13</ele>
        <time>2018-03-27T12:19:12Z</time>
      </trkpt>
      <trkpt lat="46.70602" lon="-1.95126">
        <ele>13</ele>
        <time>2018-03-27T12:20:12Z</time>
      </trkpt>
      <trkpt lat="46.70582" lon="-1.95125">
        <ele>13</ele>
        <time>2018-03-27T12:21:12Z</time>
      </trkpt>
      <trkpt lat="46.70561" lon="-1.95123">
        <ele>13</ele>
        <time>2018-03-27T12:22:12Z</time>
      </trkpt>
      <trkpt lat="46.70542" lon="-1.95121">
        <ele>13</ele>
        <time>2018-03-27T12:23:12Z</time>
      </trkpt>
      <trkpt lat="46.7052" lon="-1.95118">
        <ele>13</ele>
        <time>2018-03-27T12:24:12Z</time>
      </trkpt>
      <trkpt lat="46.70493" lon="-1.95114">
        <ele>13</ele>
        <time>2018-03-27T12:25:12Z</time>
      </trkpt>
      <trkpt lat="46.70473" lon="-1.9511">
        <ele>12</ele>
        <time>2018-03-27T12:26:12Z</time>
      </trkpt>
      <trkpt lat="46.70438" lon="-1.95104">
        <ele>11</ele>
        <time>2018-03-27T12:27:12Z</time>
      </trkpt>
      <trkpt lat="46.70415" lon="-1.951">
        <ele>10</ele>
        <time>2018-03-27T12:28:12Z</time>
      </trkpt>
      <trkpt lat="46.70377" lon="-1.95094">
        <ele>10</ele>
        <time>2018-03-27T12:29:12Z</time>
      </trkpt>
      <trkpt lat="46.70342" lon="-1.95088">
        <ele>9</ele>
        <time>2018-03-27T12:30:12Z</time>
      </trkpt>
      <trkpt lat="46.70313" lon="-1.95083">
        <ele>9</ele>
        <time>2018-03-27T12:31:12Z</time>
      </trkpt>
      <trkpt lat="46.70307" lon="-1.95082">
        <ele>8</ele>
        <time>2018-03-27T12:32:12Z</time>
      </trkpt>
      <trkpt lat="46.70277" lon="-1.95078">
        <ele>8</ele>
        <time>2018-03-27T12:33:12Z</time>
      </trkpt>
      <trkpt lat="46.7025" lon="-1.95073">
        <ele>7</ele>
        <time>2018-03-27T12:34:12Z</time>
      </trkpt>
      <trkpt lat="46.70216" lon="-1.95068">
        <ele>6</ele>
        <time>2018-03-27T12:35:12Z</time>
      </trkpt>
      <trkpt lat="46.70198" lon="-1.95064">
        <ele>5</ele>
        <time>2018-03-27T12:36:12Z</time>
      </trkpt>
      <trkpt lat="46.70185" lon="-1.95063">
        <ele>5</ele>
        <time>2018-03-27T12:37:12Z</time>
      </trkpt>
      <trkpt lat="46.70162" lon="-1.9506">
        <ele>5</ele>
        <time>2018-03-27T12:38:12Z</time>
      </trkpt>
      <trkpt lat="46.70162" lon="-1.9506">
        <ele>5</ele>
        <time>2018-03-27T12:39:12Z</time>
      </trkpt>
      <trkpt lat="46.70162" lon="-1.95061">
        <ele>5</ele>
        <time>2018-03-27T12:40:12Z</time>
      </trkpt>
      <trkpt lat="46.70162" lon="-1.95062">
        <ele>5</ele>
        <time>2018-03-27T12:41:12Z</time>
      </trkpt>
      <trkpt lat="46.70161" lon="-1.95063">
        <ele>5</ele>
        <time>2018-03-27T12:42:12Z</time>
      </trkpt>
      <trkpt lat="46.70161" lon="-1.95064">
        <ele>5</ele>
        <time>2018-03-27T12:43:12Z</time>
      </trkpt>
      <trkpt lat="46.70161" lon="-1.95065">
        <ele>5</ele>
        <time>2018-03-27T12:44:12Z</time>
      </trkpt>
      <trkpt lat="46.7016" lon="-1.95066">
        <ele>5</ele>
        <time>2018-03-27T12:45:12Z</time>
      </trkpt>
      <trkpt lat="46.7016" lon="-1.95067">
        <ele>5</ele>
        <time>2018-03-27T12:46:12Z</time>
      </trkpt>
      <trkpt lat="46.70159" lon="-1.95067">
        <ele>5</ele>
        <time>2018-03-27T12:47:12Z</time>
      </trkpt>
      <trkpt lat="46.70159" lon="-1.95068">
        <ele>5</ele>
        <time>2018-03-27T12:48:12Z</time>
      </trkpt>
      <trkpt lat="46.70158" lon="-1.95068">
        <ele>5</ele>
        <time>2018-03-27T12:49:12Z</time>
      </trkpt>
      <trkpt lat="46.70158" lon="-1.95069">
        <ele>5</ele>
        <time>2018-03-27T12:50:12Z</time>
      </trkpt>
      <trkpt lat="46.70157" lon="-1.95069">
        <ele>5</ele>
        <time>2018-03-27T12:51:12Z</time>
      </trkpt>
      <trkpt lat="46.70156" lon="-1.95069">
        <ele>5</ele>
        <time>2018-03-27T12:52:12Z</time>
      </trkpt>
      <trkpt lat="46.70155" lon="-1.95069">
        <ele>5</ele>
        <time>2018-03-27T12:53:12Z</time>
      </trkpt>
      <trkpt lat="46.70154" lon="-1.95069">
        <ele>5</ele>
        <time>2018-03-27T12:54:12Z</time>
      </trkpt>
      <trkpt lat="46.70153" lon="-1.95069">
        <ele>5</ele>
        <time>2018-03-27T12:55:12Z</time>
      </trkpt>
      <trkpt lat="46.70152" lon="-1.95069">
        <ele>5</ele>
        <time>2018-03-27T12:56:12Z</time>
      </trkpt>
      <trkpt lat="46.70152" lon="-1.95068">
        <ele>5</ele>
        <time>2018-03-27T12:57:12Z</time>
      </trkpt>
      <trkpt lat="46.70151" lon="-1.95068">
        <ele>5</ele>
        <time>2018-03-27T12:58:12Z</time>
      </trkpt>
      <trkpt lat="46.70151" lon="-1.95067">
        <ele>5</ele>
        <time>2018-03-27T12:59:12Z</time>
      </trkpt>
      <trkpt lat="46.7015" lon="-1.95067">
        <ele>5</ele>
        <time>2018-03-27T13:00:12Z</time>
      </trkpt>
      <trkpt lat="46.7015" lon="-1.95066">
        <ele>5</ele>
        <time>2018-03-27T13:01:12Z</time>
      </trkpt>
      <trkpt lat="46.70149" lon="-1.95066">
        <ele>5</ele>
        <time>2018-03-27T13:02:12Z</time>
      </trkpt>
      <trkpt lat="46.70149" lon="-1.95065">
        <ele>5</ele>
        <time>2018-03-27T13:03:12Z</time>
      </trkpt>
      <trkpt lat="46.70149" lon="-1.95064">
        <ele>5</ele>
        <time>2018-03-27T13:04:12Z</time>
      </trkpt>
      <trkpt lat="46.70149" lon="-1.95063">
        <ele>5</ele>
        <time>2018-03-27T13:05:12Z</time>
      </trkpt>
      <trkpt lat="46.70148" lon="-1.95063">
        <ele>5</ele>
        <time>2018-03-27T13:06:12Z</time>
      </trkpt>
      <trkpt lat="46.70148" lon="-1.95062">
        <ele>5</ele>
        <time>2018-03-27T13:07:12Z</time>
      </trkpt>
      <trkpt lat="46.70148" lon="-1.95061">
        <ele>5</ele>
        <time>2018-03-27T13:08:12Z</time>
      </trkpt>
      <trkpt lat="46.70148" lon="-1.9506">
        <ele>5</ele>
        <time>2018-03-27T13:09:12Z</time>
      </trkpt>
      <trkpt lat="46.70148" lon="-1.95059">
        <ele>5</ele>
        <time>2018-03-27T13:10:12Z</time>
      </trkpt>
      <trkpt lat="46.70148" lon="-1.95058">
        <ele>5</ele>
        <time>2018-03-27T13:11:12Z</time>
      </trkpt>
      <trkpt lat="46.70148" lon="-1.95057">
        <ele>5</ele>
        <time>2018-03-27T13:12:12Z</time>
      </trkpt>
      <trkpt lat="46.70148" lon="-1.95056">
        <ele>5</ele>
        <time>2018-03-27T13:13:12Z</time>
      </trkpt>
      <trkpt lat="46.70148" lon="-1.95055">
        <ele>5</ele>
        <time>2018-03-27T13:14:12Z</time>
      </trkpt>
      <trkpt lat="46.70149" lon="-1.95055">
        <ele>5</ele>
        <time>2018-03-27T13:15:12Z</time>
      </trkpt>
      <trkpt lat="46.70149" lon="-1.95054">
        <ele>5</ele>
        <time>2018-03-27T13:16:12Z</time>
      </trkpt>
      <trkpt lat="46.70149" lon="-1.95053">
        <ele>5</ele>
        <time>2018-03-27T13:17:12Z</time>
      </trkpt>
      <trkpt lat="46.7015" lon="-1.95053">
        <ele>5</ele>
        <time>2018-03-27T13:18:12Z</time>
      </trkpt>
      <trkpt lat="46.7015" lon="-1.95052">
        <ele>5</ele>
        <time>2018-03-27T13:19:12Z</time>
      </trkpt>
      <trkpt lat="46.7015" lon="-1.95051">
        <ele>5</ele>
        <time>2018-03-27T13:20:12Z</time>
      </trkpt>
      <trkpt lat="46.70151" lon="-1.95051">
        <ele>4</ele>
        <time>2018-03-27T13:21:12Z</time>
      </trkpt>
      <trkpt lat="46.70151" lon="-1.9505">
        <ele>4</ele>
        <time>2018-03-27T13:22:12Z</time>
      </trkpt>
      <trkpt lat="46.70152" lon="-1.9505">
        <ele>4</ele>
        <time>2018-03-27T13:23:12Z</time>
      </trkpt>
      <trkpt lat="46.70153" lon="-1.9505">
        <ele>4</ele>
        <time>2018-03-27T13:24:12Z</time>
      </trkpt>
      <trkpt lat="46.70153" lon="-1.95049">
        <ele>4</ele>
        <time>2018-03-27T13:25:12Z</time>
      </trkpt>
      <trkpt lat="46.70154" lon="-1.95049">
        <ele>4</ele>
        <time>2018-03-27T13:26:12Z</time>
      </trkpt>
      <trkpt lat="46.70155" lon="-1.95049">
        <ele>4</ele>
        <time>2018-03-27T13:27:12Z</time>
      </trkpt>
      <trkpt lat="46.70157" lon="-1.95007">
        <ele>3</ele>
        <time>2018-03-27T13:28:12Z</time>
      </trkpt>
      <trkpt lat="46.70158" lon="-1.94954">
        <ele>3</ele>
        <time>2018-03-27T13:29:12Z</time>
      </trkpt>
      <trkpt lat="46.70158" lon="-1.94933">
        <ele>2</ele>
        <time>2018-03-27T13:30:12Z</time>
      </trkpt>
      <trkpt lat="46.70158" lon="-1.94925">
        <ele>2</ele>
        <time>2018-03-27T13:31:12Z</time>
      </trkpt>
      <trkpt lat="46.70159" lon="-1.94879">
        <ele>2</ele>
        <time>2018-03-27T13:32:12Z</time>
      </trkpt>
      <trkpt lat="46.70159" lon="-1.9487">
        <ele>2</ele>
        <time>2018-03-27T13:33:12Z</time>
      </trkpt>
      <trkpt lat="46.70159" lon="-1.94866">
        <ele>2</ele>
        <time>2018-03-27T13:34:12Z</time>
      </trkpt>
      <trkpt lat="46.70159" lon="-1.94848">
        <ele>2</ele>
        <time>2018-03-27T13:35:12Z</time>
      </trkpt>
      <trkpt lat="46.7016" lon="-1.94795">
        <ele>3</ele>
        <time>2018-03-27T13:36:12Z</time>
      </trkpt>
      <trkpt lat="46.70162" lon="-1.94739">
        <ele>3</ele>
        <time>2018-03-27T13:37:12Z</time>
      </trkpt>
      <trkpt lat="46.70163" lon="-1.9471">
        <ele>4</ele>
        <time>2018-03-27T13:38:12Z</time>
      </trkpt>
      <trkpt lat="46.70164" lon="-1.94697">
        <ele>4</ele>
        <time>2018-03-27T13:39:12Z</time>
      </trkpt>
      <trkpt lat="46.70164" lon="-1.94684">
        <ele>4</ele>
        <time>2018-03-27T13:40:12Z</time>
      </trkpt>
      <trkpt lat="46.70163" lon="-1.94684">
        <ele>4</ele>
        <time>2018-03-27T13:41:12Z</time>
      </trkpt>
      <trkpt lat="46.70163" lon="-1.94683">
        <ele>4</ele>
        <time>2018-03-27T13:42:12Z</time>
      </trkpt>
      <trkpt lat="46.70162" lon="-1.94683">
        <ele>4</ele>
        <time>2018-03-27T13:43:12Z</time>
      </trkpt>
      <trkpt lat="46.70161" lon="-1.94683">
        <ele>4</ele>
        <time>2018-03-27T13:44:12Z</time>
      </trkpt>
      <trkpt lat="46.70161" lon="-1.94682">
        <ele>4</ele>
        <time>2018-03-27T13:45:12Z</time>
      </trkpt>
      <trkpt lat="46.7016" lon="-1.94682">
        <ele>4</ele>
        <time>2018-03-27T13:46:12Z</time>
      </trkpt>
      <trkpt lat="46.7016" lon="-1.94681">
        <ele>4</ele>
        <time>2018-03-27T13:47:12Z</time>
      </trkpt>
      <trkpt lat="46.70159" lon="-1.94681">
        <ele>4</ele>
        <time>2018-03-27T13:48:12Z</time>
      </trkpt>
      <trkpt lat="46.70159" lon="-1.9468">
        <ele>4</ele>
        <time>2018-03-27T13:49:12Z</time>
      </trkpt>
      <trkpt lat="46.70159" lon="-1.94679">
        <ele>4</ele>
        <time>2018-03-27T13:50:12Z</time>
      </trkpt>
      <trkpt lat="46.70158" lon="-1.94679">
        <ele>4</ele>
        <time>2018-03-27T13:51:12Z</time>
      </trkpt>
      <trkpt lat="46.70158" lon="-1.94678">
        <ele>4</ele>
        <time>2018-03-27T13:52:12Z</time>
      </trkpt>
      <trkpt lat="46.70158" lon="-1.94677">
        <ele>4</ele>
        <time>2018-03-27T13:53:12Z</time>
      </trkpt>
      <trkpt lat="46.70157" lon="-1.94677">
        <ele>4</ele>
        <time>2018-03-27T13:54:12Z</time>
      </trkpt>
      <trkpt lat="46.70157" lon="-1.94676">
        <ele>4</ele>
        <time>2018-03-27T13:55:12Z</time>
      </trkpt>
      <trkpt lat="46.70157" lon="-1.94675">
        <ele>4</ele>
        <time>2018-03-27T13:56:12Z</time>
      </trkpt>
      <trkpt lat="46.70157" lon="-1.94674">
        <ele>4</ele>
        <time>2018-03-27T13:57:12Z</time>
      </trkpt>
      <trkpt lat="46.70156" lon="-1.94674">
        <ele>4</ele>
        <time>2018-03-27T13:58:12Z</time>
      </trkpt>
      <trkpt lat="46.70156" lon="-1.94673">
        <ele>4</ele>
        <time>2018-03-27T13:59:12Z</time>
      </trkpt>
      <trkpt lat="46.70156" lon="-1.94672">
        <ele>4</ele>
        <time>2018-03-27T14:00:12Z</time>
      </trkpt>
      <trkpt lat="46.70156" lon="-1.94671">
        <ele>4</ele>
        <time>2018-03-27T14:01:12Z</time>
      </trkpt>
      <trkpt lat="46.70156" lon="-1.9467">
        <ele>4</ele>
        <time>2018-03-27T14:02:12Z</time>
      </trkpt>
      <trkpt lat="46.70156" lon="-1.94669">
        <ele>4</ele>
        <time>2018-03-27T14:03:12Z</time>
      </trkpt>
      <trkpt lat="46.70156" lon="-1.94668">
        <ele>4</ele>
        <time>2018-03-27T14:04:12Z</time>
      </trkpt>
      <trkpt lat="46.70156" lon="-1.94667">
        <ele>4</ele>
        <time>2018-03-27T14:05:12Z</time>
      </trkpt>
      <trkpt lat="46.70157" lon="-1.94667">
        <ele>4</ele>
        <time>2018-03-27T14:06:12Z</time>
      </trkpt>
      <trkpt lat="46.70157" lon="-1.94666">
        <ele>4</ele>
        <time>2018-03-27T14:07:12Z</time>
      </trkpt>
      <trkpt lat="46.70157" lon="-1.94665">
        <ele>4</ele>
        <time>2018-03-27T14:08:12Z</time>
      </trkpt>
      <trkpt lat="46.70157" lon="-1.94664">
        <ele>4</ele>
        <time>2018-03-27T14:09:12Z</time>
      </trkpt>
      <trkpt lat="46.70157" lon="-1.94663">
        <ele>4</ele>
        <time>2018-03-27T14:10:12Z</time>
      </trkpt>
      <trkpt lat="46.70158" lon="-1.94663">
        <ele>4</ele>
        <time>2018-03-27T14:11:12Z</time>
      </trkpt>
      <trkpt lat="46.70158" lon="-1.94662">
        <ele>4</ele>
        <time>2018-03-27T14:12:12Z</time>
      </trkpt>
      <trkpt lat="46.70158" lon="-1.94661">
        <ele>4</ele>
        <time>2018-03-27T14:13:12Z</time>
      </trkpt>
      <trkpt lat="46.70159" lon="-1.94661">
        <ele>4</ele>
        <time>2018-03-27T14:14:12Z</time>
      </trkpt>
      <trkpt lat="46.70159" lon="-1.9466">
        <ele>4</ele>
        <time>2018-03-27T14:15:12Z</time>
      </trkpt>
      <trkpt lat="46.7016" lon="-1.94659">
        <ele>4</ele>
        <time>2018-03-27T14:16:12Z</time>
      </trkpt>
      <trkpt lat="46.70161" lon="-1.94658">
        <ele>4</ele>
        <time>2018-03-27T14:17:12Z</time>
      </trkpt>
      <trkpt lat="46.70162" lon="-1.94658">
        <ele>4</ele>
        <time>2018-03-27T14:18:12Z</time>
      </trkpt>
      <trkpt lat="46.70162" lon="-1.94657">
        <ele>4</ele>
        <time>2018-03-27T14:19:12Z</time>
      </trkpt>
      <trkpt lat="46.70163" lon="-1.94657">
        <ele>4</ele>
        <time>2018-03-27T14:20:12Z</time>
      </trkpt>
      <trkpt lat="46.70164" lon="-1.94656">
        <ele>4</ele>
        <time>2018-03-27T14:21:12Z</time>
      </trkpt>
      <trkpt lat="46.70165" lon="-1.94656">
        <ele>4</ele>
        <time>2018-03-27T14:22:12Z</time>
      </trkpt>
      <trkpt lat="46.70165" lon="-1.94645">
        <ele>4</ele>
        <time>2018-03-27T14:23:12Z</time>
      </trkpt>
      <trkpt lat="46.70165" lon="-1.94613">
        <ele>4</ele>
        <time>2018-03-27T14:24:12Z</time>
      </trkpt>
      <trkpt lat="46.70165" lon="-1.94565">
        <ele>4</ele>
        <time>2018-03-27T14:25:12Z</time>
      </trkpt>
      <trkpt lat="46.70166" lon="-1.94548">
        <ele>4</ele>
        <time>2018-03-27T14:26:12Z</time>
      </trkpt>
      <trkpt lat="46.70166" lon="-1.94537">
        <ele>3</ele>
        <time>2018-03-27T14:27:12Z</time>
      </trkpt>
      <trkpt lat="46.70167" lon="-1.94505">
        <ele>3</ele>
        <time>2018-03-27T14:28:12Z</time>
      </trkpt>
      <trkpt lat="46.70168" lon="-1.94446">
        <ele>4</ele>
        <time>2018-03-27T14:29:12Z</time>
      </trkpt>
      <trkpt lat="46.7017" lon="-1.94418">
        <ele>4</ele>
        <time>2018-03-27T14:30:12Z</time>
      </trkpt>
      <trkpt lat="46.7017" lon="-1.94405">
        <ele>4</ele>
        <time>2018-03-27T14:31:12Z</time>
      </trkpt>
      <trkpt lat="46.70172" lon="-1.94388">
        <ele>4</ele>
        <time>2018-03-27T14:32:12Z</time>
      </trkpt>
      <trkpt lat="46.70173" lon="-1.9437">
        <ele>4</ele>
        <time>2018-03-27T14:33:12Z</time>
      </trkpt>
      <trkpt lat="46.70175" lon="-1.94344">
        <ele>4</ele>
        <time>2018-03-27T14:34:12Z</time>
      </trkpt>
      <trkpt lat="46.70178" lon="-1.94311">
        <ele>4</ele>
        <time>2018-03-27T14:35:12Z</time>
      </trkpt>
      <trkpt lat="46.70181" lon="-1.94282">
        <ele>4</ele>
        <time>2018-03-27T14:36:12Z</time>
      </trkpt>
      <trkpt lat="46.70181" lon="-1.94273">
        <ele>5</ele>
        <time>2018-03-27T14:37:12Z</time>
      </trkpt>
      <trkpt lat="46.70182" lon="-1.94266">
        <ele>5</ele>
        <time>2018-03-27T14:38:12Z</time>
      </trkpt>
      <trkpt lat="46.70182" lon="-1.94257">
        <ele>5</ele>
        <time>2018-03-27T14:39:12Z</time>
      </trkpt>
      <trkpt lat="46.70181" lon="-1.94237">
        <ele>5</ele>
        <time>2018-03-27T14:40:12Z</time>
      </trkpt>
      <trkpt lat="46.70178" lon="-1.94213">
        <ele>4</ele>
        <time>2018-03-27T14:41:12Z</time>
      </trkpt>
      <trkpt lat="46.70174" lon="-1.94182">
        <ele>3</ele>
        <time>2018-03-27T14:42:12Z</time>
      </trkpt>
      <trkpt lat="46.70169" lon="-1.9414">
        <ele>3</ele>
        <time>2018-03-27T14:43:12Z</time>
      </trkpt>
      <trkpt lat="46.70165" lon="-1.94106">
        <ele>3</ele>
        <time>2018-03-27T14:44:12Z</time>
      </trkpt>
      <trkpt lat="46.70157" lon="-1.94041">
        <ele>3</ele>
        <time>2018-03-27T14:45:12Z</time>
      </trkpt>
      <trkpt lat="46.70155" lon="-1.94024">
        <ele>3</ele>
        <time>2018-03-27T14:46:12Z</time>
      </trkpt>
      <trkpt lat="46.70154" lon="-1.94011">
        <ele>2</ele>
        <time>2018-03-27T14:47:12Z</time>
      </trkpt>
      <trkpt lat="46.70153" lon="-1.94002">
        <ele>2</ele>
        <time>2018-03-27T14:48:12Z</time>
      </trkpt>
      <trkpt lat="46.70148" lon="-1.93984">
        <ele>3</ele>
        <time>2018-03-27T14:49:12Z</time>
      </trkpt>
      <trkpt lat="46.70145" lon="-1.93969">
        <ele>3</ele>
        <time>2018-03-27T14:50:12Z</time>
      </trkpt>
      <trkpt lat="46.70143" lon="-1.9396">
        <ele>3</ele>
        <time>2018-03-27T14:51:12Z</time>
      </trkpt>
      <trkpt lat="46.70143" lon="-1.93949">
        <ele>3</ele>
        <time>2018-03-27T14:52:12Z</time>
      </trkpt>
      <trkpt lat="46.70143" lon="-1.93949">
        <ele>3</ele>
        <time>2018-03-27T14:53:12Z</time>
      </trkpt>
      <trkpt lat="46.70143" lon="-1.93948">
        <ele>3</ele>
        <time>2018-03-27T14:54:12Z</time>
      </trkpt>
      <trkpt lat="46.70143" lon="-1.93947">
        <ele>3</ele>
        <time>2018-03-27T14:55:12Z</time>
      </trkpt>
      <trkpt lat="46.70142" lon="-1.93947">
        <ele>3</ele>
        <time>2018-03-27T14:56:12Z</time>
      </trkpt>
      <trkpt lat="46.70142" lon="-1.93946">
        <ele>3</ele>
        <time>2018-03-27T14:57:12Z</time>
      </trkpt>
      <trkpt lat="46.70142" lon="-1.93945">
        <ele>3</ele>
        <time>2018-03-27T14:58:12Z</time>
      </trkpt>
      <trkpt lat="46.70142" lon="-1.93944">
        <ele>3</ele>
        <time>2018-03-27T14:59:12Z</time>
      </trkpt>
      <trkpt lat="46.70142" lon="-1.93943">
        <ele>3</ele>
        <time>2018-03-27T15:00:12Z</time>
      </trkpt>
      <trkpt lat="46.70142" lon="-1.93942">
        <ele>3</ele>
        <time>2018-03-27T15:01:12Z</time>
      </trkpt>
      <trkpt lat="46.70141" lon="-1.93941">
        <ele>3</ele>
        <time>2018-03-27T15:02:12Z</time>
      </trkpt>
      <trkpt lat="46.70141" lon="-1.9394">
        <ele>3</ele>
        <time>2018-03-27T15:03:12Z</time>
      </trkpt>
      <trkpt lat="46.70141" lon="-1.93939">
        <ele>3</ele>
        <time>2018-03-27T15:04:12Z</time>
      </trkpt>
      <trkpt lat="46.70142" lon="-1.93938">
        <ele>3</ele>
        <time>2018-03-27T15:05:12Z</time>
      </trkpt>
      <trkpt lat="46.70142" lon="-1.93937">
        <ele>3</ele>
        <time>2018-03-27T15:06:12Z</time>
      </trkpt>
      <trkpt lat="46.70142" lon="-1.93936">
        <ele>3</ele>
        <time>2018-03-27T15:07:12Z</time>
      </trkpt>
      <trkpt lat="46.70142" lon="-1.93935">
        <ele>3</ele>
        <time>2018-03-27T15:08:12Z</time>
      </trkpt>
      <trkpt lat="46.70142" lon="-1.93934">
        <ele>3</ele>
        <time>2018-03-27T15:09:12Z</time>
      </trkpt>
      <trkpt lat="46.70142" lon="-1.93933">
        <ele>3</ele>
        <time>2018-03-27T15:10:12Z</time>
      </trkpt>
      <trkpt lat="46.70142" lon="-1.93932">
        <ele>3</ele>
        <time>2018-03-27T15:11:12Z</time>
      </trkpt>
      <trkpt lat="46.70142" lon="-1.93931">
        <ele>3</ele>
        <time>2018-03-27T15:12:12Z</time>
      </trkpt>
      <trkpt lat="46.70143" lon="-1.93931">
        <ele>3</ele>
        <time>2018-03-27T15:13:12Z</time>
      </trkpt>
      <trkpt lat="46.70143" lon="-1.9393">
        <ele>3</ele>
        <time>2018-03-27T15:14:12Z</time>
      </trkpt>
      <trkpt lat="46.70143" lon="-1.93929">
        <ele>3</ele>
        <time>2018-03-27T15:15:12Z</time>
      </trkpt>
      <trkpt lat="46.70144" lon="-1.93928">
        <ele>3</ele>
        <time>2018-03-27T15:16:12Z</time>
      </trkpt>
      <trkpt lat="46.70144" lon="-1.93927">
        <ele>3</ele>
        <time>2018-03-27T15:17:12Z</time>
      </trkpt>
      <trkpt lat="46.70145" lon="-1.93926">
        <ele>3</ele>
        <time>2018-03-27T15:18:12Z</time>
      </trkpt>
      <trkpt lat="46.70145" lon="-1.93925">
        <ele>3</ele>
        <time>2018-03-27T15:19:12Z</time>
      </trkpt>
      <trkpt lat="46.70146" lon="-1.93925">
        <ele>3</ele>
        <time>2018-03-27T15:20:12Z</time>
      </trkpt>
      <trkpt lat="46.70146" lon="-1.93924">
        <ele>3</ele>
        <time>2018-03-27T15:21:12Z</time>
      </trkpt>
      <trkpt lat="46.70147" lon="-1.93924">
        <ele>3</ele>
        <time>2018-03-27T15:22:12Z</time>
      </trkpt>
      <trkpt lat="46.70147" lon="-1.93923">
        <ele>3</ele>
        <time>2018-03-27T15:23:12Z</time>
      </trkpt>
      <trkpt lat="46.70148" lon="-1.93923">
        <ele>3</ele>
        <time>2018-03-27T15:24:12Z</time>
      </trkpt>
      <trkpt lat="46.70149" lon="-1.93922">
        <ele>3</ele>
        <time>2018-03-27T15:25:12Z</time>
      </trkpt>
      <trkpt lat="46.7015" lon="-1.93922">
        <ele>3</ele>
        <time>2018-03-27T15:26:12Z</time>
      </trkpt>
      <trkpt lat="46.7015" lon="-1.93921">
        <ele>3</ele>
        <time>2018-03-27T15:27:12Z</time>
      </trkpt>
      <trkpt lat="46.70151" lon="-1.93921">
        <ele>3</ele>
        <time>2018-03-27T15:28:12Z</time>
      </trkpt>
      <trkpt lat="46.70152" lon="-1.93921">
        <ele>3</ele>
        <time>2018-03-27T15:29:12Z</time>
      </trkpt>
      <trkpt lat="46.70153" lon="-1.93921">
        <ele>3</ele>
        <time>2018-03-27T15:30:12Z</time>
      </trkpt>
      <trkpt lat="46.70154" lon="-1.93921">
        <ele>3</ele>
        <time>2018-03-27T15:31:12Z</time>
      </trkpt>
      <trkpt lat="46.70155" lon="-1.93921">
        <ele>3</ele>
        <time>2018-03-27T15:32:12Z</time>
      </trkpt>
      <trkpt lat="46.70156" lon="-1.93921">
        <ele>3</ele>
        <time>2018-03-27T15:33:12Z</time>
      </trkpt>
      <trkpt lat="46.70157" lon="-1.93922">
        <ele>3</ele>
        <time>2018-03-27T15:34:12Z</time>
      </trkpt>
      <trkpt lat="46.70158" lon="-1.93922">
        <ele>3</ele>
        <time>2018-03-27T15:35:12Z</time>
      </trkpt>
      <trkpt lat="46.70159" lon="-1.93923">
        <ele>3</ele>
        <time>2018-03-27T15:36:12Z</time>
      </trkpt>
      <trkpt lat="46.7016" lon="-1.93924">
        <ele>3</ele>
        <time>2018-03-27T15:37:12Z</time>
      </trkpt>
      <trkpt lat="46.70167" lon="-1.93924">
        <ele>3</ele>
        <time>2018-03-27T15:38:12Z</time>
      </trkpt>
      <trkpt lat="46.70177" lon="-1.93926">
        <ele>3</ele>
        <time>2018-03-27T15:39:12Z</time>
      </trkpt>
      <trkpt lat="46.70193" lon="-1.93928">
        <ele>3</ele>
        <time>2018-03-27T15:40:12Z</time>
      </trkpt>
      <trkpt lat="46.70201" lon="-1.93928">
        <ele>3</ele>
        <time>2018-03-27T15:41:12Z</time>
      </trkpt>
      <trkpt lat="46.70201" lon="-1.93927">
        <ele>3</ele>
        <time>2018-03-27T15:42:12Z</time>
      </trkpt>
      <trkpt lat="46.70214" lon="-1.93924">
        <ele>2</ele>
        <time>2018-03-27T15:43:12Z</time>
      </trkpt>
      <trkpt lat="46.70224" lon="-1.93919">
        <ele>2</ele>
        <time>2018-03-27T15:44:12Z</time>
      </trkpt>
      <trkpt lat="46.70232" lon="-1.93915">
        <ele>2</ele>
        <time>2018-03-27T15:45:12Z</time>
      </trkpt>
      <trkpt lat="46.70242" lon="-1.93906">
        <ele>2</ele>
        <time>2018-03-27T15:46:12Z</time>
      </trkpt>
      <trkpt lat="46.70242" lon="-1.93906">
        <ele>2</ele>
        <time>2018-03-27T15:47:12Z</time>
      </trkpt>
      <trkpt lat="46.70243" lon="-1.93905">
        <ele>2</ele>
        <time>2018-03-27T15:48:12Z</time>
      </trkpt>
      <trkpt lat="46.70243" lon="-1.93903">
        <ele>2</ele>
        <time>2018-03-27T15:49:12Z</time>
      </trkpt>
      <trkpt lat="46.70243" lon="-1.93902">
        <ele>2</ele>
        <time>2018-03-27T15:50:12Z</time>
      </trkpt>
      <trkpt lat="46.70244" lon="-1.939">
        <ele>2</ele>
        <time>2018-03-27T15:51:12Z</time>
      </trkpt>
      <trkpt lat="46.70244" lon="-1.93899">
        <ele>2</ele>
        <time>2018-03-27T15:52:12Z</time>
      </trkpt>
      <trkpt lat="46.70245" lon="-1.93897">
        <ele>3</ele>
        <time>2018-03-27T15:53:12Z</time>
      </trkpt>
      <trkpt lat="46.70245" lon="-1.93896">
        <ele>3</ele>
        <time>2018-03-27T15:54:12Z</time>
      </trkpt>
      <trkpt lat="46.70246" lon="-1.93894">
        <ele>3</ele>
        <time>2018-03-27T15:55:12Z</time>
      </trkpt>
      <trkpt lat="46.70246" lon="-1.93889">
        <ele>3</ele>
        <time>2018-03-27T15:56:12Z</time>
      </trkpt>
      <trkpt lat="46.70245" lon="-1.93885">
        <ele>3</ele>
        <time>2018-03-27T15:57:12Z</time>
      </trkpt>
      <trkpt lat="46.70245" lon="-1.93882">
        <ele>3</ele>
        <time>2018-03-27T15:58:12Z</time>
      </trkpt>
      <trkpt lat="46.70244" lon="-1.93878">
        <ele>3</ele>
        <time>2018-03-27T15:59:12Z</time>
      </trkpt>
      <trkpt lat="46.70244" lon="-1.93875">
        <ele>3</ele>
        <time>2018-03-27T16:00:12Z</time>
      </trkpt>
      <trkpt lat="46.70243" lon="-1.93871">
        <ele>3</ele>
        <time>2018-03-27T16:01:12Z</time>
      </trkpt>
      <trkpt lat="46.70241" lon="-1.93867">
        <ele>3</ele>
        <time>2018-03-27T16:02:12Z</time>
      </trkpt>
      <trkpt lat="46.70241" lon="-1.93864">
        <ele>3</ele>
        <time>2018-03-27T16:03:12Z</time>
      </trkpt>
      <trkpt lat="46.70238" lon="-1.93857">
        <ele>3</ele>
        <time>2018-03-27T16:04:12Z</time>
      </trkpt>
      <trkpt lat="46.70224" lon="-1.93811">
        <ele>4</ele>
        <time>2018-03-27T16:05:12Z</time>
      </trkpt>
      <trkpt lat="46.7022" lon="-1.93799">
        <ele>3</ele>
        <time>2018-03-27T16:06:12Z</time>
      </trkpt>
      <trkpt lat="46.70218" lon="-1.93792">
        <ele>3</ele>
        <time>2018-03-27T16:07:12Z</time>
      </trkpt>
      <trkpt lat="46.70216" lon="-1.93784">
        <ele>3</ele>
        <time>2018-03-27T16:08:12Z</time>
      </trkpt>
      <trkpt lat="46.70214" lon="-1.93775">
        <ele>3</ele>
        <time>2018-03-27T16:09:12Z</time>
      </trkpt>
      <trkpt lat="46.70211" lon="-1.93767">
        <ele>3</ele>
        <time>2018-03-27T16:10:12Z</time>
      </trkpt>
      <trkpt lat="46.70203" lon="-1.93733">
        <ele>3</ele>
        <time>2018-03-27T16:11:12Z</time>
      </trkpt>
      <trkpt lat="46.70194" lon="-1.93693">
        <ele>2</ele>
        <time>2018-03-27T16:12:12Z</time>
      </trkpt>
      <trkpt lat="46.70183" lon="-1.93647">
        <ele>1</ele>
        <time>2018-03-27T16:13:12Z</time>
      </trkpt>
      <trkpt lat="46.70173" lon="-1.936">
        <ele>1</ele>
        <time>2018-03-27T16:14:12Z</time>
      </trkpt>
      <trkpt lat="46.70157" lon="-1.93532">
        <ele>1</ele>
        <time>2018-03-27T16:15:12Z</time>
      </trkpt>
      <trkpt lat="46.70136" lon="-1.93442">
        <ele>1</ele>
        <time>2018-03-27T16:16:12Z</time>
      </trkpt>
      <trkpt lat="46.70134" lon="-1.93434">
        <ele>1</ele>
        <time>2018-03-27T16:17:12Z</time>
      </trkpt>
      <trkpt lat="46.70132" lon="-1.93425">
        <ele>1</ele>
        <time>2018-03-27T16:18:12Z</time>
      </trkpt>
      <trkpt lat="46.7013" lon="-1.93419">
        <ele>1</ele>
        <time>2018-03-27T16:19:12Z</time>
      </trkpt>
      <trkpt lat="46.70129" lon="-1.93416">
        <ele>1</ele>
        <time>2018-03-27T16:20:12Z</time>
      </trkpt>
      <trkpt lat="46.70128" lon="-1.93414">
        <ele>1</ele>
        <time>2018-03-27T16:21:12Z</time>
      </trkpt>
      <trkpt lat="46.70127" lon="-1.93411">
        <ele>1</ele>
        <time>2018-03-27T16:22:12Z</time>
      </trkpt>
      <trkpt lat="46.70125" lon="-1.93409">
        <ele>1</ele>
        <time>2018-03-27T16:23:12Z</time>
      </trkpt>
      <trkpt lat="46.70125" lon="-1.93409">
        <ele>1</ele>
        <time>2018-03-27T16:24:12Z</time>
      </trkpt>
      <trkpt lat="46.70124" lon="-1.93408">
        <ele>2</ele>
        <time>2018-03-27T16:25:12Z</time>
      </trkpt>
      <trkpt lat="46.70123" lon="-1.93408">
        <ele>2</ele>
        <time>2018-03-27T16:26:12Z</time>
      </trkpt>
      <trkpt lat="46.70122" lon="-1.93407">
        <ele>2</ele>
        <time>2018-03-27T16:27:12Z</time>
      </trkpt>
      <trkpt lat="46.70121" lon="-1.93407">
        <ele>2</ele>
        <time>2018-03-27T16:28:12Z</time>
      </trkpt>
      <trkpt lat="46.7012" lon="-1.93406">
        <ele>2</ele>
        <time>2018-03-27T16:29:12Z</time>
      </trkpt>
      <trkpt lat="46.7012" lon="-1.93405">
        <ele>2</ele>
        <time>2018-03-27T16:30:12Z</time>
      </trkpt>
      <trkpt lat="46.70119" lon="-1.93405">
        <ele>2</ele>
        <time>2018-03-27T16:31:12Z</time>
      </trkpt>
      <trkpt lat="46.70107" lon="-1.93404">
        <ele>2</ele>
        <time>2018-03-27T16:32:12Z</time>
      </trkpt>
      <trkpt lat="46.701" lon="-1.93405">
        <ele>2</ele>
        <time>2018-03-27T16:33:12Z</time>
      </trkpt>
      <trkpt lat="46.70092" lon="-1.93406">
        <ele>2</ele>
        <time>2018-03-27T16:34:12Z</time>
      </trkpt>
      <trkpt lat="46.70088" lon="-1.93406">
        <ele>2</ele>
        <time>2018-03-27T16:35:12Z</time>
      </trkpt>
      <trkpt lat="46.70085" lon="-1.93405">
        <ele>2</ele>
        <time>2018-03-27T16:36:12Z</time>
      </trkpt>
      <trkpt lat="46.70083" lon="-1.93405">
        <ele>2</ele>
        <time>2018-03-27T16:37:12Z</time>
      </trkpt>
      <trkpt lat="46.70062" lon="-1.93405">
        <ele>2</ele>
        <time>2018-03-27T16:38:12Z</time>
      </trkpt>
      <trkpt lat="46.70062" lon="-1.93406">
        <ele>2</ele>
        <time>2018-03-27T16:39:12Z</time>
      </trkpt>
      <trkpt lat="46.70062" lon="-1.93407">
        <ele>2</ele>
        <time>2018-03-27T16:40:12Z</time>
      </trkpt>
      <trkpt lat="46.70062" lon="-1.93408">
        <ele>2</ele>
        <time>2018-03-27T16:41:12Z</time>
      </trkpt>
      <trkpt lat="46.70062" lon="-1.93409">
        <ele>2</ele>
        <time>2018-03-27T16:42:12Z</time>
      </trkpt>
      <trkpt lat="46.70062" lon="-1.9341">
        <ele>2</ele>
        <time>2018-03-27T16:43:12Z</time>
      </trkpt>
      <trkpt lat="46.70061" lon="-1.9341">
        <ele>2</ele>
        <time>2018-03-27T16:44:12Z</time>
      </trkpt>
      <trkpt lat="46.70061" lon="-1.93411">
        <ele>2</ele>
        <time>2018-03-27T16:45:12Z</time>
      </trkpt>
      <trkpt lat="46.7006" lon="-1.93411">
        <ele>2</ele>
        <time>2018-03-27T16:46:12Z</time>
      </trkpt>
      <trkpt lat="46.7006" lon="-1.93412">
        <ele>2</ele>
        <time>2018-03-27T16:47:12Z</time>
      </trkpt>
      <trkpt lat="46.70059" lon="-1.93412">
        <ele>2</ele>
        <time>2018-03-27T16:48:12Z</time>
      </trkpt>
      <trkpt lat="46.70059" lon="-1.93413">
        <ele>2</ele>
        <time>2018-03-27T16:49:12Z</time>
      </trkpt>
      <trkpt lat="46.70058" lon="-1.93413">
        <ele>2</ele>
        <time>2018-03-27T16:50:12Z</time>
      </trkpt>
      <trkpt lat="46.70057" lon="-1.93413">
        <ele>2</ele>
        <time>2018-03-27T16:51:12Z</time>
      </trkpt>
      <trkpt lat="46.70056" lon="-1.93413">
        <ele>2</ele>
        <time>2018-03-27T16:52:12Z</time>
      </trkpt>
      <trkpt lat="46.70055" lon="-1.93413">
        <ele>2</ele>
        <time>2018-03-27T16:53:12Z</time>
      </trkpt>
      <trkpt lat="46.70055" lon="-1.93412">
        <ele>2</ele>
        <time>2018-03-27T16:54:12Z</time>
      </trkpt>
      <trkpt lat="46.70054" lon="-1.93412">
        <ele>2</ele>
        <time>2018-03-27T16:55:12Z</time>
      </trkpt>
      <trkpt lat="46.70054" lon="-1.93411">
        <ele>2</ele>
        <time>2018-03-27T16:56:12Z</time>
      </trkpt>
      <trkpt lat="46.70053" lon="-1.93411">
        <ele>2</ele>
        <time>2018-03-27T16:57:12Z</time>
      </trkpt>
      <trkpt lat="46.70053" lon="-1.9341">
        <ele>2</ele>
        <time>2018-03-27T16:58:12Z</time>
      </trkpt>
      <trkpt lat="46.70053" lon="-1.93409">
        <ele>2</ele>
        <time>2018-03-27T16:59:12Z</time>
      </trkpt>
      <trkpt lat="46.70052" lon="-1.93409">
        <ele>2</ele>
        <time>2018-03-27T17:00:12Z</time>
      </trkpt>
      <trkpt lat="46.70052" lon="-1.93408">
        <ele>2</ele>
        <time>2018-03-27T17:01:12Z</time>
      </trkpt>
      <trkpt lat="46.70052" lon="-1.93407">
        <ele>2</ele>
        <time>2018-03-27T17:02:12Z</time>
      </trkpt>
      <trkpt lat="46.70052" lon="-1.93406">
        <ele>2</ele>
        <time>2018-03-27T17:03:12Z</time>
      </trkpt>
      <trkpt lat="46.70052" lon="-1.93405">
        <ele>2</ele>
        <time>2018-03-27T17:04:12Z</time>
      </trkpt>
      <trkpt lat="46.70046" lon="-1.93402">
        <ele>2</ele>
        <time>2018-03-27T17:05:12Z</time>
      </trkpt>
      <trkpt lat="46.70043" lon="-1.93401">
        <ele>2</ele>
        <time>2018-03-27T17:06:12Z</time>
      </trkpt>
      <trkpt lat="46.70041" lon="-1.934">
        <ele>2</ele>
        <time>2018-03-27T17:07:12Z</time>
      </trkpt>
      <trkpt lat="46.70038" lon="-1.93398">
        <ele>2</ele>
        <time>2018-03-27T17:08:12Z</time>
      </trkpt>
      <trkpt lat="46.70036" lon="-1.93397">
        <ele>2</ele>
        <time>2018-03-27T17:09:12Z</time>
      </trkpt>
      <trkpt lat="46.70033" lon="-1.93394">
        <ele>2</ele>
        <time>2018-03-27T17:10:12Z</time>
      </trkpt>
      <trkpt lat="46.7003" lon="-1.93391">
        <ele>3</ele>
        <time>2018-03-27T17:11:12Z</time>
      </trkpt>
      <trkpt lat="46.70028" lon="-1.93388">
        <ele>3</ele>
        <time>2018-03-27T17:12:12Z</time>
      </trkpt>
      <trkpt lat="46.70025" lon="-1.93386">
        <ele>3</ele>
        <time>2018-03-27T17:13:12Z</time>
      </trkpt>
      <trkpt lat="46.70023" lon="-1.93384">
        <ele>3</ele>
        <time>2018-03-27T17:14:12Z</time>
      </trkpt>
      <trkpt lat="46.7002" lon="-1.93382">
        <ele>3</ele>
        <time>2018-03-27T17:15:12Z</time>
      </trkpt>
      <trkpt lat="46.70015" lon="-1.9338">
        <ele>3</ele>
        <time>2018-03-27T17:16:12Z</time>
      </trkpt>
      <trkpt lat="46.70002" lon="-1.93375">
        <ele>3</ele>
        <time>2018-03-27T17:17:12Z</time>
      </trkpt>
      <trkpt lat="46.69987" lon="-1.93369">
        <ele>3</ele>
        <time>2018-03-27T17:18:12Z</time>
      </trkpt>
      <trkpt lat="46.69982" lon="-1.93367">
        <ele>3</ele>
        <time>2018-03-27T17:19:12Z</time>
      </trkpt>
      <trkpt lat="46.69979" lon="-1.93366">
        <ele>3</ele>
        <time>2018-03-27T17:20:12Z</time>
      </trkpt>
      <trkpt lat="46.69978" lon="-1.93366">
        <ele>3</ele>
        <time>2018-03-27T17:21:12Z</time>
      </trkpt>
      <trkpt lat="46.69976" lon="-1.93367">
        <ele>4</ele>
        <time>2018-03-27T17:22:12Z</time>
      </trkpt>
      <trkpt lat="46.69973" lon="-1.93367">
        <ele>4</ele>
        <time>2018-03-27T17:23:12Z</time>
      </trkpt>
      <trkpt lat="46.69969" lon="-1.9337">
        <ele>4</ele>
        <time>2018-03-27T17:24:12Z</time>
      </trkpt>
      <trkpt lat="46.69963" lon="-1.93373">
        <ele>4</ele>
        <time>2018-03-27T17:25:12Z</time>
      </trkpt>
      <trkpt lat="46.69958" lon="-1.93375">
        <ele>4</ele>
        <time>2018-03-27T17:26:12Z</time>
      </trkpt>
      <trkpt lat="46.69953" lon="-1.93377">
        <ele>4</ele>
        <time>2018-03-27T17:27:12Z</time>
      </trkpt>
      <trkpt lat="46.69949" lon="-1.93379">
        <ele>4</ele>
        <time>2018-03-27T17:28:12Z</time>
      </trkpt>
      <trkpt lat="46.69944" lon="-1.93381">
        <ele>4</ele>
        <time>2018-03-27T17:29:12Z</time>
      </trkpt>
      <trkpt lat="46.69935" lon="-1.93382">
        <ele>4</ele>
        <time>2018-03-27T17:30:12Z</time>
      </trkpt>
      <trkpt lat="46.69925" lon="-1.93383">
        <ele>4</ele>
        <time>2018-03-27T17:31:12Z</time>
      </trkpt>
      <trkpt lat="46.69922" lon="-1.93383">
        <ele>4</ele>
        <time>2018-03-27T17:32:12Z</time>
      </trkpt>
      <trkpt lat="46.69915" lon="-1.93383">
        <ele>4</ele>
        <time>2018-03-27T17:33:12Z</time>
      </trkpt>
      <trkpt lat="46.69915" lon="-1.93384">
        <ele>4</ele>
        <time>2018-03-27T17:34:12Z</time>
      </trkpt>
      <trkpt lat="46.69913" lon="-1.93385">
        <ele>4</ele>
        <time>2018-03-27T17:35:12Z</time>
      </trkpt>
      <trkpt lat="46.69912" lon="-1.93386">
        <ele>4</ele>
        <time>2018-03-27T17:36:12Z</time>
      </trkpt>
      <trkpt lat="46.69911" lon="-1.93386">
        <ele>4</ele>
        <time>2018-03-27T17:37:12Z</time>
      </trkpt>
      <trkpt lat="46.69909" lon="-1.93385">
        <ele>4</ele>
        <time>2018-03-27T17:38:12Z</time>
      </trkpt>
      <trkpt lat="46.69908" lon="-1.93383">
        <ele>4</ele>
        <time>2018-03-27T17:39:12Z</time>
      </trkpt>
      <trkpt lat="46.69901" lon="-1.93383">
        <ele>5</ele>
        <time>2018-03-27T17:40:12Z</time>
      </trkpt>
      <trkpt lat="46.69898" lon="-1.93383">
        <ele>5</ele>
        <time>2018-03-27T17:41:12Z</time>
      </trkpt>
      <trkpt lat="46.69892" lon="-1.93385">
        <ele>5</ele>
        <time>2018-03-27T17:42:12Z</time>
      </trkpt>
      <trkpt lat="46.69824" lon="-1.93411">
        <ele>5</ele>
        <time>2018-03-27T17:43:12Z</time>
      </trkpt>
      <trkpt lat="46.69811" lon="-1.93416">
        <ele>5</ele>
        <time>2018-03-27T17:44:12Z</time>
      </trkpt>
    </trkseg>
  </trk>
</gpx>